<?xml version='1.0' encoding='UTF-8'?><gpx version="1.1" creator="JPX - https://github.com/jenetics/jpx" xmlns="http://www.topografix.com/GPX/1/1"><trk><trkseg><trkpt lat="40.8937881" lon="14.2878008"><ele>80.0</ele><time>2026-04-24T14:37:56.344Z</time></trkpt><trkpt lat="40.8938721" lon="14.2878212"><ele>80.0</ele><time>2026-04-24T14:38:18.123Z</time></trkpt><trkpt lat="40.893925" lon="14.28773"><ele>80.0</ele><time>2026-04-24T14:38:26.384Z</time></trkpt><trkpt lat="40.893895" lon="14.2876383"><ele>80.0</ele><time>2026-04-24T14:38:28.383Z</time></trkpt><trkpt lat="40.8938683" lon="14.2875467"><ele>80.0</ele><time>2026-04-24T14:38:30.381Z</time></trkpt><trkpt lat="40.89384" lon="14.2874533"><ele>80.0</ele><time>2026-04-24T14:38:32.384Z</time></trkpt><trkpt lat="40.8938083" lon="14.2873617"><ele>80.0</ele><time>2026-04-24T14:38:34.383Z</time></trkpt><trkpt lat="40.8937783" lon="14.287265"><ele>80.0</ele><time>2026-04-24T14:38:36.384Z</time></trkpt><trkpt lat="40.8937517" lon="14.2871533"><ele>80.0</ele><time>2026-04-24T14:38:38.384Z</time></trkpt><trkpt lat="40.8937283" lon="14.2870317"><ele>80.0</ele><time>2026-04-24T14:38:40.384Z</time></trkpt><trkpt lat="40.8937033" lon="14.2869367"><ele>80.0</ele><time>2026-04-24T14:38:42.383Z</time></trkpt><trkpt lat="40.89367" lon="14.286845"><ele>80.0</ele><time>2026-04-24T14:38:44.384Z</time></trkpt><trkpt lat="40.8936267" lon="14.2867533"><ele>80.0</ele><time>2026-04-24T14:38:46.384Z</time></trkpt><trkpt lat="40.89359" lon="14.286665"><ele>80.0</ele><time>2026-04-24T14:38:48.385Z</time></trkpt><trkpt lat="40.8935633" lon="14.28657"><ele>80.0</ele><time>2026-04-24T14:38:50.384Z</time></trkpt><trkpt lat="40.8935367" lon="14.2864783"><ele>80.0</ele><time>2026-04-24T14:38:52.385Z</time></trkpt><trkpt lat="40.893515" lon="14.2863867"><ele>80.0</ele><time>2026-04-24T14:38:54.384Z</time></trkpt><trkpt lat="40.8934867" lon="14.2863017"><ele>80.0</ele><time>2026-04-24T14:38:56.382Z</time></trkpt><trkpt lat="40.8934567" lon="14.2862067"><ele>80.0</ele><time>2026-04-24T14:38:58.383Z</time></trkpt><trkpt lat="40.8934583" lon="14.2860833"><ele>80.16666666666667</ele><time>2026-04-24T14:39:01.384Z</time></trkpt><trkpt lat="40.89352" lon="14.2860633"><ele>80.33333333333334</ele><time>2026-04-24T14:39:03.384Z</time></trkpt><trkpt lat="40.893595" lon="14.28608"><ele>80.5</ele><time>2026-04-24T14:39:05.385Z</time></trkpt><trkpt lat="40.8936717" lon="14.2860933"><ele>80.66666666666667</ele><time>2026-04-24T14:39:07.385Z</time></trkpt><trkpt lat="40.8937483" lon="14.2860983"><ele>80.83333333333333</ele><time>2026-04-24T14:39:09.383Z</time></trkpt><trkpt lat="40.8938267" lon="14.2860917"><ele>81.0</ele><time>2026-04-24T14:39:11.383Z</time></trkpt><trkpt lat="40.893915" lon="14.2860967"><ele>81.0</ele><time>2026-04-24T14:39:13.385Z</time></trkpt><trkpt lat="40.8940017" lon="14.2860967"><ele>81.0</ele><time>2026-04-24T14:39:15.384Z</time></trkpt><trkpt lat="40.8940867" lon="14.2860983"><ele>81.0</ele><time>2026-04-24T14:39:17.384Z</time></trkpt><trkpt lat="40.894175" lon="14.2861067"><ele>81.0</ele><time>2026-04-24T14:39:19.382Z</time></trkpt><trkpt lat="40.8942633" lon="14.286115"><ele>81.0</ele><time>2026-04-24T14:39:21.383Z</time></trkpt><trkpt lat="40.8943483" lon="14.2861283"><ele>81.0</ele><time>2026-04-24T14:39:23.384Z</time></trkpt><trkpt lat="40.894435" lon="14.28614"><ele>80.8</ele><time>2026-04-24T14:39:25.384Z</time></trkpt><trkpt lat="40.8945233" lon="14.2861583"><ele>80.6</ele><time>2026-04-24T14:39:27.385Z</time></trkpt><trkpt lat="40.8946183" lon="14.2861783"><ele>80.4</ele><time>2026-04-24T14:39:29.385Z</time></trkpt><trkpt lat="40.894715" lon="14.2861983"><ele>80.2</ele><time>2026-04-24T14:39:31.384Z</time></trkpt><trkpt lat="40.894805" lon="14.286225"><ele>80.0</ele><time>2026-04-24T14:39:33.384Z</time></trkpt><trkpt lat="40.8948967" lon="14.2862567"><ele>80.0</ele><time>2026-04-24T14:39:35.385Z</time></trkpt><trkpt lat="40.89496" lon="14.2862633"><ele>80.0</ele><time>2026-04-24T14:39:36.384Z</time></trkpt><trkpt lat="40.8950333" lon="14.2862767"><ele>80.0</ele><time>2026-04-24T14:39:37.384Z</time></trkpt><trkpt lat="40.89513" lon="14.2862783"><ele>80.0</ele><time>2026-04-24T14:39:39.385Z</time></trkpt><trkpt lat="40.89524" lon="14.2862833"><ele>80.0</ele><time>2026-04-24T14:39:41.385Z</time></trkpt><trkpt lat="40.8953517" lon="14.2862833"><ele>79.6</ele><time>2026-04-24T14:39:43.385Z</time></trkpt><trkpt lat="40.89546" lon="14.2862867"><ele>79.2</ele><time>2026-04-24T14:39:45.383Z</time></trkpt><trkpt lat="40.8955683" lon="14.2862833"><ele>78.8</ele><time>2026-04-24T14:39:47.384Z</time></trkpt><trkpt lat="40.8956733" lon="14.28628"><ele>78.4</ele><time>2026-04-24T14:39:49.383Z</time></trkpt><trkpt lat="40.8957717" lon="14.2862783"><ele>78.0</ele><time>2026-04-24T14:39:51.385Z</time></trkpt><trkpt lat="40.8958733" lon="14.2862867"><ele>78.4</ele><time>2026-04-24T14:39:53.385Z</time></trkpt><trkpt lat="40.8959783" lon="14.2862933"><ele>78.8</ele><time>2026-04-24T14:39:55.385Z</time></trkpt><trkpt lat="40.8960817" lon="14.2863017"><ele>79.2</ele><time>2026-04-24T14:39:57.382Z</time></trkpt><trkpt lat="40.89619" lon="14.2863167"><ele>79.6</ele><time>2026-04-24T14:39:59.383Z</time></trkpt><trkpt lat="40.8962983" lon="14.2863333"><ele>80.0</ele><time>2026-04-24T14:40:01.384Z</time></trkpt><trkpt lat="40.8963917" lon="14.286365"><ele>80.0</ele><time>2026-04-24T14:40:03.382Z</time></trkpt><trkpt lat="40.8964833" lon="14.286405"><ele>80.0</ele><time>2026-04-24T14:40:05.385Z</time></trkpt><trkpt lat="40.896575" lon="14.286435"><ele>80.0</ele><time>2026-04-24T14:40:07.385Z</time></trkpt><trkpt lat="40.89665" lon="14.2864367"><ele>80.0</ele><time>2026-04-24T14:40:09.383Z</time></trkpt><trkpt lat="40.8967167" lon="14.2863917"><ele>80.0</ele><time>2026-04-24T14:40:11.385Z</time></trkpt><trkpt lat="40.8967783" lon="14.2863267"><ele>80.0</ele><time>2026-04-24T14:40:13.383Z</time></trkpt><trkpt lat="40.8968217" lon="14.286255"><ele>80.33333333333334</ele><time>2026-04-24T14:40:15.384Z</time></trkpt><trkpt lat="40.89686" lon="14.2861767"><ele>80.66666666666667</ele><time>2026-04-24T14:40:17.384Z</time></trkpt><trkpt lat="40.896905" lon="14.28608"><ele>81.0</ele><time>2026-04-24T14:40:19.384Z</time></trkpt><trkpt lat="40.8969583" lon="14.2859933"><ele>81.33333333333333</ele><time>2026-04-24T14:40:21.384Z</time></trkpt><trkpt lat="40.897015" lon="14.28591"><ele>81.66666666666666</ele><time>2026-04-24T14:40:23.384Z</time></trkpt><trkpt lat="40.8970733" lon="14.28584"><ele>82.0</ele><time>2026-04-24T14:40:25.384Z</time></trkpt><trkpt lat="40.897135" lon="14.2857617"><ele>82.0</ele><time>2026-04-24T14:40:27.384Z</time></trkpt><trkpt lat="40.8971883" lon="14.285695"><ele>82.0</ele><time>2026-04-24T14:40:29.384Z</time></trkpt><trkpt lat="40.8972433" lon="14.28562"><ele>82.0</ele><time>2026-04-24T14:40:31.385Z</time></trkpt><trkpt lat="40.8973017" lon="14.2855283"><ele>82.0</ele><time>2026-04-24T14:40:33.383Z</time></trkpt><trkpt lat="40.897355" lon="14.2854267"><ele>82.0</ele><time>2026-04-24T14:40:35.384Z</time></trkpt><trkpt lat="40.8974117" lon="14.2853433"><ele>82.0</ele><time>2026-04-24T14:40:37.384Z</time></trkpt><trkpt lat="40.8974783" lon="14.285255"><ele>81.83333333333333</ele><time>2026-04-24T14:40:39.384Z</time></trkpt><trkpt lat="40.8975517" lon="14.2851733"><ele>81.66666666666666</ele><time>2026-04-24T14:40:41.384Z</time></trkpt><trkpt lat="40.8976117" lon="14.2850933"><ele>81.5</ele><time>2026-04-24T14:40:43.383Z</time></trkpt><trkpt lat="40.8976617" lon="14.2850183"><ele>81.33333333333333</ele><time>2026-04-24T14:40:45.385Z</time></trkpt><trkpt lat="40.89771" lon="14.284955"><ele>81.16666666666667</ele><time>2026-04-24T14:40:47.385Z</time></trkpt><trkpt lat="40.8977683" lon="14.2848717"><ele>81.0</ele><time>2026-04-24T14:40:50.383Z</time></trkpt><trkpt lat="40.897795" lon="14.284795"><ele>80.5</ele><time>2026-04-24T14:40:55.384Z</time></trkpt><trkpt lat="40.89784" lon="14.2847267"><ele>80.0</ele><time>2026-04-24T14:40:59.383Z</time></trkpt><trkpt lat="40.8979067" lon="14.2846483"><ele>79.5</ele><time>2026-04-24T14:41:02.385Z</time></trkpt><trkpt lat="40.8979483" lon="14.2845767"><ele>79.0</ele><time>2026-04-24T14:41:04.383Z</time></trkpt><trkpt lat="40.8980033" lon="14.28449"><ele>78.5</ele><time>2026-04-24T14:41:07.384Z</time></trkpt><trkpt lat="40.8980683" lon="14.2844617"><ele>78.0</ele><time>2026-04-24T14:41:11.385Z</time></trkpt><trkpt lat="40.8981417" lon="14.284535"><ele>78.0</ele><time>2026-04-24T14:41:14.384Z</time></trkpt><trkpt lat="40.898195" lon="14.2845883"><ele>78.0</ele><time>2026-04-24T14:41:16.385Z</time></trkpt><trkpt lat="40.89825" lon="14.2846517"><ele>78.0</ele><time>2026-04-24T14:41:18.385Z</time></trkpt><trkpt lat="40.8983" lon="14.28473"><ele>78.0</ele><time>2026-04-24T14:41:20.386Z</time></trkpt><trkpt lat="40.8983633" lon="14.2848033"><ele>78.0</ele><time>2026-04-24T14:41:22.384Z</time></trkpt><trkpt lat="40.8984333" lon="14.28488"><ele>78.0</ele><time>2026-04-24T14:41:24.384Z</time></trkpt><trkpt lat="40.898505" lon="14.284965"><ele>79.0</ele><time>2026-04-24T14:41:26.384Z</time></trkpt><trkpt lat="40.8985783" lon="14.28506"><ele>80.0</ele><time>2026-04-24T14:41:28.383Z</time></trkpt><trkpt lat="40.89865" lon="14.2851533"><ele>81.0</ele><time>2026-04-24T14:41:30.384Z</time></trkpt><trkpt lat="40.8987283" lon="14.2852467"><ele>82.0</ele><time>2026-04-24T14:41:32.383Z</time></trkpt><trkpt lat="40.89882" lon="14.2853283"><ele>83.0</ele><time>2026-04-24T14:41:34.384Z</time></trkpt><trkpt lat="40.898915" lon="14.2854"><ele>83.0</ele><time>2026-04-24T14:41:36.384Z</time></trkpt><trkpt lat="40.8990183" lon="14.2854633"><ele>83.0</ele><time>2026-04-24T14:41:38.384Z</time></trkpt><trkpt lat="40.8991183" lon="14.2855233"><ele>83.0</ele><time>2026-04-24T14:41:40.383Z</time></trkpt><trkpt lat="40.899225" lon="14.2855833"><ele>83.0</ele><time>2026-04-24T14:41:42.385Z</time></trkpt><trkpt lat="40.8993317" lon="14.28564"><ele>83.25</ele><time>2026-04-24T14:41:44.385Z</time></trkpt><trkpt lat="40.8994467" lon="14.2856883"><ele>83.5</ele><time>2026-04-24T14:41:46.385Z</time></trkpt><trkpt lat="40.89956" lon="14.2857433"><ele>83.75</ele><time>2026-04-24T14:41:48.385Z</time></trkpt><trkpt lat="40.8996733" lon="14.2857833"><ele>84.0</ele><time>2026-04-24T14:41:50.386Z</time></trkpt><trkpt lat="40.899785" lon="14.2858333"><ele>84.0</ele><time>2026-04-24T14:41:52.384Z</time></trkpt><trkpt lat="40.8998883" lon="14.2858967"><ele>84.0</ele><time>2026-04-24T14:41:54.384Z</time></trkpt><trkpt lat="40.8999833" lon="14.28594"><ele>84.0</ele><time>2026-04-24T14:41:56.385Z</time></trkpt><trkpt lat="40.90007" lon="14.2859717"><ele>84.0</ele><time>2026-04-24T14:41:58.385Z</time></trkpt><trkpt lat="40.9001567" lon="14.28599"><ele>84.0</ele><time>2026-04-24T14:42:00.385Z</time></trkpt><trkpt lat="40.9002467" lon="14.2860083"><ele>84.33333333333333</ele><time>2026-04-24T14:42:02.385Z</time></trkpt><trkpt lat="40.9003233" lon="14.28603"><ele>84.66666666666667</ele><time>2026-04-24T14:42:04.384Z</time></trkpt><trkpt lat="40.900405" lon="14.2860517"><ele>85.0</ele><time>2026-04-24T14:42:06.385Z</time></trkpt><trkpt lat="40.9004917" lon="14.2860733"><ele>85.33333333333334</ele><time>2026-04-24T14:42:08.386Z</time></trkpt><trkpt lat="40.90058" lon="14.2860733"><ele>85.66666666666667</ele><time>2026-04-24T14:42:10.384Z</time></trkpt><trkpt lat="40.9006683" lon="14.2860633"><ele>86.0</ele><time>2026-04-24T14:42:12.385Z</time></trkpt><trkpt lat="40.900755" lon="14.2860583"><ele>86.0</ele><time>2026-04-24T14:42:14.383Z</time></trkpt><trkpt lat="40.9008433" lon="14.2860467"><ele>86.0</ele><time>2026-04-24T14:42:16.383Z</time></trkpt><trkpt lat="40.90094" lon="14.2860217"><ele>86.0</ele><time>2026-04-24T14:42:18.386Z</time></trkpt><trkpt lat="40.9010267" lon="14.2859883"><ele>86.0</ele><time>2026-04-24T14:42:20.386Z</time></trkpt><trkpt lat="40.9011267" lon="14.2859567"><ele>86.0</ele><time>2026-04-24T14:42:22.384Z</time></trkpt><trkpt lat="40.9012367" lon="14.2859233"><ele>85.8</ele><time>2026-04-24T14:42:24.386Z</time></trkpt><trkpt lat="40.901335" lon="14.2858767"><ele>85.6</ele><time>2026-04-24T14:42:26.386Z</time></trkpt><trkpt lat="40.9014267" lon="14.2858333"><ele>85.4</ele><time>2026-04-24T14:42:28.384Z</time></trkpt><trkpt lat="40.9015233" lon="14.2857933"><ele>85.2</ele><time>2026-04-24T14:42:30.384Z</time></trkpt><trkpt lat="40.9016117" lon="14.2857617"><ele>85.0</ele><time>2026-04-24T14:42:32.385Z</time></trkpt><trkpt lat="40.9016983" lon="14.2857533"><ele>85.2</ele><time>2026-04-24T14:42:35.385Z</time></trkpt><trkpt lat="40.9017883" lon="14.28572"><ele>85.4</ele><time>2026-04-24T14:42:38.385Z</time></trkpt><trkpt lat="40.901875" lon="14.2856967"><ele>85.6</ele><time>2026-04-24T14:42:40.383Z</time></trkpt><trkpt lat="40.9019583" lon="14.28567"><ele>85.8</ele><time>2026-04-24T14:42:42.386Z</time></trkpt><trkpt lat="40.9020517" lon="14.2856417"><ele>86.0</ele><time>2026-04-24T14:42:44.383Z</time></trkpt><trkpt lat="40.9021517" lon="14.285615"><ele>85.6</ele><time>2026-04-24T14:42:46.383Z</time></trkpt><trkpt lat="40.9022567" lon="14.2855933"><ele>85.19999999999999</ele><time>2026-04-24T14:42:48.386Z</time></trkpt><trkpt lat="40.9023633" lon="14.2855683"><ele>84.80000000000001</ele><time>2026-04-24T14:42:50.385Z</time></trkpt><trkpt lat="40.9024683" lon="14.28553"><ele>84.4</ele><time>2026-04-24T14:42:52.384Z</time></trkpt><trkpt lat="40.9025783" lon="14.2854967"><ele>84.0</ele><time>2026-04-24T14:42:54.385Z</time></trkpt><trkpt lat="40.9026883" lon="14.28546"><ele>84.0</ele><time>2026-04-24T14:42:56.385Z</time></trkpt><trkpt lat="40.9028083" lon="14.2854567"><ele>84.0</ele><time>2026-04-24T14:42:58.384Z</time></trkpt><trkpt lat="40.9029267" lon="14.285445"><ele>84.0</ele><time>2026-04-24T14:43:00.384Z</time></trkpt><trkpt lat="40.9030267" lon="14.285415"><ele>84.0</ele><time>2026-04-24T14:43:02.386Z</time></trkpt><trkpt lat="40.9031167" lon="14.28538"><ele>84.0</ele><time>2026-04-24T14:43:04.384Z</time></trkpt><trkpt lat="40.9032167" lon="14.28535"><ele>84.0</ele><time>2026-04-24T14:43:06.385Z</time></trkpt><trkpt lat="40.90332" lon="14.2853217"><ele>84.0</ele><time>2026-04-24T14:43:08.385Z</time></trkpt><trkpt lat="40.9034267" lon="14.285295"><ele>84.0</ele><time>2026-04-24T14:43:10.383Z</time></trkpt><trkpt lat="40.9035383" lon="14.2852633"><ele>84.0</ele><time>2026-04-24T14:43:12.386Z</time></trkpt><trkpt lat="40.903645" lon="14.2852367"><ele>84.0</ele><time>2026-04-24T14:43:14.385Z</time></trkpt><trkpt lat="40.9037517" lon="14.28521"><ele>83.0</ele><time>2026-04-24T14:43:16.385Z</time></trkpt><trkpt lat="40.9038583" lon="14.285185"><ele>82.0</ele><time>2026-04-24T14:43:18.385Z</time></trkpt><trkpt lat="40.9039733" lon="14.2851633"><ele>81.0</ele><time>2026-04-24T14:43:20.384Z</time></trkpt><trkpt lat="40.90409" lon="14.2851467"><ele>80.0</ele><time>2026-04-24T14:43:22.383Z</time></trkpt><trkpt lat="40.90421" lon="14.285125"><ele>79.8</ele><time>2026-04-24T14:43:24.385Z</time></trkpt><trkpt lat="40.904325" lon="14.28509"><ele>79.6</ele><time>2026-04-24T14:43:26.385Z</time></trkpt><trkpt lat="40.9044333" lon="14.28505"><ele>79.4</ele><time>2026-04-24T14:43:28.385Z</time></trkpt><trkpt lat="40.90453" lon="14.2849967"><ele>79.2</ele><time>2026-04-24T14:43:30.386Z</time></trkpt><trkpt lat="40.9046233" lon="14.2849667"><ele>79.0</ele><time>2026-04-24T14:43:32.385Z</time></trkpt><trkpt lat="40.9047167" lon="14.2849533"><ele>79.0</ele><time>2026-04-24T14:43:34.383Z</time></trkpt><trkpt lat="40.9047883" lon="14.28496"><ele>79.0</ele><time>2026-04-24T14:43:36.384Z</time></trkpt><trkpt lat="40.904875" lon="14.2849267"><ele>79.0</ele><time>2026-04-24T14:43:39.382Z</time></trkpt><trkpt lat="40.904945" lon="14.2848967"><ele>79.0</ele><time>2026-04-24T14:43:41.384Z</time></trkpt><trkpt lat="40.9050233" lon="14.284875"><ele>79.0</ele><time>2026-04-24T14:43:43.384Z</time></trkpt><trkpt lat="40.9051033" lon="14.2848517"><ele>79.0</ele><time>2026-04-24T14:43:45.384Z</time></trkpt><trkpt lat="40.9051883" lon="14.284825"><ele>79.0</ele><time>2026-04-24T14:43:47.384Z</time></trkpt><trkpt lat="40.9052717" lon="14.2848133"><ele>79.0</ele><time>2026-04-24T14:43:49.384Z</time></trkpt><trkpt lat="40.9053617" lon="14.2847983"><ele>79.0</ele><time>2026-04-24T14:43:51.384Z</time></trkpt><trkpt lat="40.9054517" lon="14.2847883"><ele>79.0</ele><time>2026-04-24T14:43:53.387Z</time></trkpt><trkpt lat="40.9055433" lon="14.2847767"><ele>79.0</ele><time>2026-04-24T14:43:55.385Z</time></trkpt><trkpt lat="40.905635" lon="14.2847633"><ele>79.0</ele><time>2026-04-24T14:43:57.387Z</time></trkpt><trkpt lat="40.9057317" lon="14.2847583"><ele>79.0</ele><time>2026-04-24T14:43:59.384Z</time></trkpt><trkpt lat="40.90583" lon="14.2847567"><ele>79.0</ele><time>2026-04-24T14:44:01.386Z</time></trkpt><trkpt lat="40.90593" lon="14.2847583"><ele>79.0</ele><time>2026-04-24T14:44:03.384Z</time></trkpt><trkpt lat="40.9060317" lon="14.284775"><ele>79.0</ele><time>2026-04-24T14:44:05.385Z</time></trkpt><trkpt lat="40.906135" lon="14.2848033"><ele>79.0</ele><time>2026-04-24T14:44:07.385Z</time></trkpt><trkpt lat="40.906235" lon="14.2848267"><ele>78.8</ele><time>2026-04-24T14:44:09.384Z</time></trkpt><trkpt lat="40.906335" lon="14.2848567"><ele>78.60000000000001</ele><time>2026-04-24T14:44:11.384Z</time></trkpt><trkpt lat="40.90644" lon="14.2849083"><ele>78.4</ele><time>2026-04-24T14:44:13.385Z</time></trkpt><trkpt lat="40.9065367" lon="14.28495"><ele>78.2</ele><time>2026-04-24T14:44:15.384Z</time></trkpt><trkpt lat="40.9066383" lon="14.2849967"><ele>78.0</ele><time>2026-04-24T14:44:17.385Z</time></trkpt><trkpt lat="40.906735" lon="14.2850433"><ele>77.2</ele><time>2026-04-24T14:44:19.383Z</time></trkpt><trkpt lat="40.90683" lon="14.2851"><ele>76.4</ele><time>2026-04-24T14:44:21.385Z</time></trkpt><trkpt lat="40.9069317" lon="14.28517"><ele>75.60000000000001</ele><time>2026-04-24T14:44:23.385Z</time></trkpt><trkpt lat="40.90703" lon="14.2852417"><ele>74.8</ele><time>2026-04-24T14:44:25.384Z</time></trkpt><trkpt lat="40.90713" lon="14.2853217"><ele>74.0</ele><time>2026-04-24T14:44:27.384Z</time></trkpt><trkpt lat="40.9072283" lon="14.28541"><ele>74.0</ele><time>2026-04-24T14:44:29.384Z</time></trkpt><trkpt lat="40.9073317" lon="14.2855"><ele>74.0</ele><time>2026-04-24T14:44:31.387Z</time></trkpt><trkpt lat="40.9074333" lon="14.2855833"><ele>74.0</ele><time>2026-04-24T14:44:33.387Z</time></trkpt><trkpt lat="40.9075333" lon="14.2856633"><ele>74.0</ele><time>2026-04-24T14:44:35.385Z</time></trkpt><trkpt lat="40.9076383" lon="14.2857433"><ele>73.28571428571429</ele><time>2026-04-24T14:44:37.386Z</time></trkpt><trkpt lat="40.9076967" lon="14.2857883"><ele>72.57142857142857</ele><time>2026-04-24T14:44:38.387Z</time></trkpt><trkpt lat="40.9077517" lon="14.2858317"><ele>71.85714285714286</ele><time>2026-04-24T14:44:39.386Z</time></trkpt><trkpt lat="40.9078067" lon="14.2858733"><ele>71.14285714285714</ele><time>2026-04-24T14:44:40.385Z</time></trkpt><trkpt lat="40.9078633" lon="14.2859167"><ele>70.42857142857143</ele><time>2026-04-24T14:44:41.385Z</time></trkpt><trkpt lat="40.90792" lon="14.2859617"><ele>69.71428571428572</ele><time>2026-04-24T14:44:42.386Z</time></trkpt><trkpt lat="40.9079767" lon="14.2860117"><ele>69.0</ele><time>2026-04-24T14:44:43.384Z</time></trkpt><trkpt lat="40.9080383" lon="14.28606"><ele>69.0</ele><time>2026-04-24T14:44:44.387Z</time></trkpt><trkpt lat="40.9081" lon="14.28611"><ele>69.0</ele><time>2026-04-24T14:44:45.386Z</time></trkpt><trkpt lat="40.90816" lon="14.2861617"><ele>69.0</ele><time>2026-04-24T14:44:46.386Z</time></trkpt><trkpt lat="40.9082217" lon="14.2862133"><ele>69.0</ele><time>2026-04-24T14:44:47.385Z</time></trkpt><trkpt lat="40.9082867" lon="14.286265"><ele>69.0</ele><time>2026-04-24T14:44:48.387Z</time></trkpt><trkpt lat="40.9083533" lon="14.2863217"><ele>69.0</ele><time>2026-04-24T14:44:49.387Z</time></trkpt><trkpt lat="40.9084217" lon="14.2863817"><ele>69.16666666666667</ele><time>2026-04-24T14:44:50.385Z</time></trkpt><trkpt lat="40.9084883" lon="14.2864417"><ele>69.33333333333333</ele><time>2026-04-24T14:44:51.385Z</time></trkpt><trkpt lat="40.9085567" lon="14.2865033"><ele>69.5</ele><time>2026-04-24T14:44:52.386Z</time></trkpt><trkpt lat="40.9086233" lon="14.2865583"><ele>69.66666666666666</ele><time>2026-04-24T14:44:53.384Z</time></trkpt><trkpt lat="40.9086867" lon="14.2866117"><ele>69.83333333333333</ele><time>2026-04-24T14:44:54.384Z</time></trkpt><trkpt lat="40.9087467" lon="14.2866667"><ele>70.0</ele><time>2026-04-24T14:44:55.385Z</time></trkpt><trkpt lat="40.9088067" lon="14.286725"><ele>70.0</ele><time>2026-04-24T14:44:56.384Z</time></trkpt><trkpt lat="40.9088683" lon="14.2867833"><ele>70.0</ele><time>2026-04-24T14:44:57.384Z</time></trkpt><trkpt lat="40.9089317" lon="14.2868383"><ele>70.0</ele><time>2026-04-24T14:44:58.386Z</time></trkpt><trkpt lat="40.9089933" lon="14.286895"><ele>70.0</ele><time>2026-04-24T14:44:59.385Z</time></trkpt><trkpt lat="40.909055" lon="14.2869483"><ele>70.0</ele><time>2026-04-24T14:45:00.386Z</time></trkpt><trkpt lat="40.9091183" lon="14.2870033"><ele>70.0</ele><time>2026-04-24T14:45:01.384Z</time></trkpt><trkpt lat="40.9091817" lon="14.2870583"><ele>70.0</ele><time>2026-04-24T14:45:02.384Z</time></trkpt><trkpt lat="40.9092417" lon="14.2871083"><ele>70.0</ele><time>2026-04-24T14:45:03.385Z</time></trkpt><trkpt lat="40.9093" lon="14.2871517"><ele>70.0</ele><time>2026-04-24T14:45:04.384Z</time></trkpt><trkpt lat="40.90936" lon="14.2871933"><ele>70.0</ele><time>2026-04-24T14:45:05.385Z</time></trkpt><trkpt lat="40.90942" lon="14.2872417"><ele>70.0</ele><time>2026-04-24T14:45:06.384Z</time></trkpt><trkpt lat="40.9094817" lon="14.2872867"><ele>70.0</ele><time>2026-04-24T14:45:07.384Z</time></trkpt><trkpt lat="40.90954" lon="14.28733"><ele>70.0</ele><time>2026-04-24T14:45:08.385Z</time></trkpt><trkpt lat="40.9096" lon="14.2873783"><ele>69.71428571428571</ele><time>2026-04-24T14:45:09.385Z</time></trkpt><trkpt lat="40.90966" lon="14.2874283"><ele>69.42857142857143</ele><time>2026-04-24T14:45:10.384Z</time></trkpt><trkpt lat="40.9097183" lon="14.2874767"><ele>69.14285714285714</ele><time>2026-04-24T14:45:11.384Z</time></trkpt><trkpt lat="40.9097783" lon="14.287525"><ele>68.85714285714286</ele><time>2026-04-24T14:45:12.385Z</time></trkpt><trkpt lat="40.90984" lon="14.287575"><ele>68.57142857142857</ele><time>2026-04-24T14:45:13.384Z</time></trkpt><trkpt lat="40.9098983" lon="14.287625"><ele>68.28571428571428</ele><time>2026-04-24T14:45:14.385Z</time></trkpt><trkpt lat="40.9099533" lon="14.2876717"><ele>68.0</ele><time>2026-04-24T14:45:15.386Z</time></trkpt><trkpt lat="40.91006" lon="14.2877633"><ele>67.57142857142857</ele><time>2026-04-24T14:45:17.384Z</time></trkpt><trkpt lat="40.910115" lon="14.2878117"><ele>67.14285714285714</ele><time>2026-04-24T14:45:18.386Z</time></trkpt><trkpt lat="40.9101683" lon="14.2878617"><ele>66.71428571428572</ele><time>2026-04-24T14:45:19.385Z</time></trkpt><trkpt lat="40.9102233" lon="14.2879067"><ele>66.28571428571428</ele><time>2026-04-24T14:45:20.385Z</time></trkpt><trkpt lat="40.9102833" lon="14.2879533"><ele>65.85714285714286</ele><time>2026-04-24T14:45:21.387Z</time></trkpt><trkpt lat="40.91034" lon="14.2879967"><ele>65.42857142857143</ele><time>2026-04-24T14:45:22.383Z</time></trkpt><trkpt lat="40.9104433" lon="14.2880717"><ele>65.0</ele><time>2026-04-24T14:45:24.384Z</time></trkpt><trkpt lat="40.9105333" lon="14.2881467"><ele>65.0</ele><time>2026-04-24T14:45:26.384Z</time></trkpt><trkpt lat="40.91062" lon="14.2882217"><ele>65.0</ele><time>2026-04-24T14:45:28.384Z</time></trkpt><trkpt lat="40.9106933" lon="14.2882817"><ele>65.0</ele><time>2026-04-24T14:45:30.385Z</time></trkpt><trkpt lat="40.9107617" lon="14.2883583"><ele>65.0</ele><time>2026-04-24T14:45:32.385Z</time></trkpt><trkpt lat="40.910845" lon="14.2884317"><ele>65.0</ele><time>2026-04-24T14:45:34.382Z</time></trkpt><trkpt lat="40.9109117" lon="14.288485"><ele>64.66666666666667</ele><time>2026-04-24T14:45:36.384Z</time></trkpt><trkpt lat="40.910975" lon="14.288535"><ele>64.33333333333334</ele><time>2026-04-24T14:45:39.384Z</time></trkpt><trkpt lat="40.9110367" lon="14.2885717"><ele>64.0</ele><time>2026-04-24T14:45:43.384Z</time></trkpt><trkpt lat="40.91111" lon="14.2885933"><ele>63.66666666666667</ele><time>2026-04-24T14:45:46.383Z</time></trkpt><trkpt lat="40.91118" lon="14.2886383"><ele>63.333333333333336</ele><time>2026-04-24T14:45:48.385Z</time></trkpt><trkpt lat="40.9112617" lon="14.2887117"><ele>63.0</ele><time>2026-04-24T14:45:50.385Z</time></trkpt><trkpt lat="40.9113533" lon="14.28879"><ele>63.0</ele><time>2026-04-24T14:45:52.385Z</time></trkpt><trkpt lat="40.91145" lon="14.2888717"><ele>63.0</ele><time>2026-04-24T14:45:54.386Z</time></trkpt><trkpt lat="40.9115383" lon="14.2889483"><ele>63.0</ele><time>2026-04-24T14:45:56.387Z</time></trkpt><trkpt lat="40.911595" lon="14.2889983"><ele>63.0</ele><time>2026-04-24T14:45:58.384Z</time></trkpt><trkpt lat="40.91166" lon="14.289045"><ele>63.0</ele><time>2026-04-24T14:46:00.387Z</time></trkpt><trkpt lat="40.91173" lon="14.2891267"><ele>63.0</ele><time>2026-04-24T14:46:02.383Z</time></trkpt><trkpt lat="40.91182" lon="14.28921"><ele>63.0</ele><time>2026-04-24T14:46:04.385Z</time></trkpt><trkpt lat="40.9119217" lon="14.28929"><ele>63.0</ele><time>2026-04-24T14:46:06.383Z</time></trkpt><trkpt lat="40.9120333" lon="14.289365"><ele>63.0</ele><time>2026-04-24T14:46:08.383Z</time></trkpt><trkpt lat="40.9120917" lon="14.2894083"><ele>63.0</ele><time>2026-04-24T14:46:09.385Z</time></trkpt><trkpt lat="40.9121483" lon="14.2894533"><ele>63.0</ele><time>2026-04-24T14:46:10.383Z</time></trkpt><trkpt lat="40.912205" lon="14.2895017"><ele>63.0</ele><time>2026-04-24T14:46:11.384Z</time></trkpt><trkpt lat="40.9122633" lon="14.289555"><ele>63.0</ele><time>2026-04-24T14:46:12.383Z</time></trkpt><trkpt lat="40.9123233" lon="14.2896033"><ele>63.0</ele><time>2026-04-24T14:46:13.382Z</time></trkpt><trkpt lat="40.9123817" lon="14.2896567"><ele>63.0</ele><time>2026-04-24T14:46:14.385Z</time></trkpt><trkpt lat="40.9124367" lon="14.2897067"><ele>63.0</ele><time>2026-04-24T14:46:15.384Z</time></trkpt><trkpt lat="40.91249" lon="14.289755"><ele>63.0</ele><time>2026-04-24T14:46:16.385Z</time></trkpt><trkpt lat="40.9126" lon="14.2898317"><ele>63.0</ele><time>2026-04-24T14:46:18.382Z</time></trkpt><trkpt lat="40.9126517" lon="14.2898817"><ele>63.0</ele><time>2026-04-24T14:46:19.384Z</time></trkpt><trkpt lat="40.9127483" lon="14.2899583"><ele>63.0</ele><time>2026-04-24T14:46:21.387Z</time></trkpt><trkpt lat="40.91284" lon="14.2900367"><ele>63.0</ele><time>2026-04-24T14:46:23.385Z</time></trkpt><trkpt lat="40.912935" lon="14.290105"><ele>63.0</ele><time>2026-04-24T14:46:25.386Z</time></trkpt><trkpt lat="40.913035" lon="14.290165"><ele>63.0</ele><time>2026-04-24T14:46:27.382Z</time></trkpt><trkpt lat="40.9131383" lon="14.2902283"><ele>63.0</ele><time>2026-04-24T14:46:29.385Z</time></trkpt><trkpt lat="40.91325" lon="14.290285"><ele>63.0</ele><time>2026-04-24T14:46:31.384Z</time></trkpt><trkpt lat="40.9133667" lon="14.2903417"><ele>63.0</ele><time>2026-04-24T14:46:33.383Z</time></trkpt><trkpt lat="40.913485" lon="14.2903917"><ele>62.75</ele><time>2026-04-24T14:46:35.386Z</time></trkpt><trkpt lat="40.9136033" lon="14.2904317"><ele>62.5</ele><time>2026-04-24T14:46:37.386Z</time></trkpt><trkpt lat="40.9137167" lon="14.2904733"><ele>62.25</ele><time>2026-04-24T14:46:39.384Z</time></trkpt><trkpt lat="40.913835" lon="14.2905117"><ele>62.0</ele><time>2026-04-24T14:46:41.382Z</time></trkpt><trkpt lat="40.9139533" lon="14.29054"><ele>62.0</ele><time>2026-04-24T14:46:43.385Z</time></trkpt><trkpt lat="40.914015" lon="14.2905567"><ele>62.0</ele><time>2026-04-24T14:46:44.385Z</time></trkpt><trkpt lat="40.914135" lon="14.29059"><ele>62.0</ele><time>2026-04-24T14:46:46.383Z</time></trkpt><trkpt lat="40.9142567" lon="14.290605"><ele>62.0</ele><time>2026-04-24T14:46:48.385Z</time></trkpt><trkpt lat="40.9143783" lon="14.29062"><ele>62.0</ele><time>2026-04-24T14:46:50.387Z</time></trkpt><trkpt lat="40.9144933" lon="14.2906233"><ele>61.25</ele><time>2026-04-24T14:46:52.387Z</time></trkpt><trkpt lat="40.9146083" lon="14.2906183"><ele>60.5</ele><time>2026-04-24T14:46:54.383Z</time></trkpt><trkpt lat="40.9147267" lon="14.2906133"><ele>59.75</ele><time>2026-04-24T14:46:56.388Z</time></trkpt><trkpt lat="40.914845" lon="14.2906067"><ele>59.0</ele><time>2026-04-24T14:46:58.384Z</time></trkpt><trkpt lat="40.9149633" lon="14.2905983"><ele>59.0</ele><time>2026-04-24T14:47:00.384Z</time></trkpt><trkpt lat="40.9150817" lon="14.290595"><ele>59.00000000000001</ele><time>2026-04-24T14:47:02.384Z</time></trkpt><trkpt lat="40.9151933" lon="14.2905883"><ele>59.00000000000001</ele><time>2026-04-24T14:47:04.384Z</time></trkpt><trkpt lat="40.9152933" lon="14.2905817"><ele>59.0</ele><time>2026-04-24T14:47:06.384Z</time></trkpt><trkpt lat="40.915375" lon="14.2905833"><ele>59.0</ele><time>2026-04-24T14:47:08.385Z</time></trkpt><trkpt lat="40.9154483" lon="14.29058"><ele>59.0</ele><time>2026-04-24T14:47:10.385Z</time></trkpt><trkpt lat="40.9155267" lon="14.2905717"><ele>59.00000000000001</ele><time>2026-04-24T14:47:12.385Z</time></trkpt><trkpt lat="40.9156217" lon="14.2905717"><ele>59.00000000000001</ele><time>2026-04-24T14:47:14.384Z</time></trkpt><trkpt lat="40.91572" lon="14.29058"><ele>59.0</ele><time>2026-04-24T14:47:16.385Z</time></trkpt><trkpt lat="40.915825" lon="14.2905967"><ele>59.0</ele><time>2026-04-24T14:47:18.384Z</time></trkpt><trkpt lat="40.915925" lon="14.290615"><ele>58.6</ele><time>2026-04-24T14:47:20.384Z</time></trkpt><trkpt lat="40.91603" lon="14.2906467"><ele>58.2</ele><time>2026-04-24T14:47:22.384Z</time></trkpt><trkpt lat="40.9161333" lon="14.2906917"><ele>57.800000000000004</ele><time>2026-04-24T14:47:24.386Z</time></trkpt><trkpt lat="40.9162367" lon="14.2907433"><ele>57.400000000000006</ele><time>2026-04-24T14:47:26.385Z</time></trkpt><trkpt lat="40.9163433" lon="14.2907983"><ele>57.0</ele><time>2026-04-24T14:47:28.386Z</time></trkpt><trkpt lat="40.9164533" lon="14.2908583"><ele>57.0</ele><time>2026-04-24T14:47:30.384Z</time></trkpt><trkpt lat="40.9165133" lon="14.2908917"><ele>57.0</ele><time>2026-04-24T14:47:31.385Z</time></trkpt><trkpt lat="40.9166283" lon="14.290955"><ele>57.0</ele><time>2026-04-24T14:47:33.383Z</time></trkpt><trkpt lat="40.9167417" lon="14.2910017"><ele>57.0</ele><time>2026-04-24T14:47:35.385Z</time></trkpt><trkpt lat="40.916855" lon="14.291055"><ele>57.0</ele><time>2026-04-24T14:47:37.385Z</time></trkpt><trkpt lat="40.9169667" lon="14.2911183"><ele>57.0</ele><time>2026-04-24T14:47:39.384Z</time></trkpt><trkpt lat="40.917025" lon="14.29115"><ele>57.0</ele><time>2026-04-24T14:47:40.383Z</time></trkpt><trkpt lat="40.9170817" lon="14.2911867"><ele>57.0</ele><time>2026-04-24T14:47:41.385Z</time></trkpt><trkpt lat="40.9171883" lon="14.2912533"><ele>57.0</ele><time>2026-04-24T14:47:43.383Z</time></trkpt><trkpt lat="40.9172917" lon="14.2913183"><ele>57.0</ele><time>2026-04-24T14:47:45.385Z</time></trkpt><trkpt lat="40.9173883" lon="14.2913967"><ele>57.0</ele><time>2026-04-24T14:47:47.385Z</time></trkpt><trkpt lat="40.917495" lon="14.2914767"><ele>57.0</ele><time>2026-04-24T14:47:49.384Z</time></trkpt><trkpt lat="40.9175533" lon="14.29151"><ele>57.0</ele><time>2026-04-24T14:47:50.386Z</time></trkpt><trkpt lat="40.9176117" lon="14.2915483"><ele>57.0</ele><time>2026-04-24T14:47:51.385Z</time></trkpt><trkpt lat="40.91767" lon="14.2915933"><ele>57.0</ele><time>2026-04-24T14:47:52.384Z</time></trkpt><trkpt lat="40.9177283" lon="14.29164"><ele>57.0</ele><time>2026-04-24T14:47:53.386Z</time></trkpt><trkpt lat="40.9177867" lon="14.2916867"><ele>56.71428571428571</ele><time>2026-04-24T14:47:54.386Z</time></trkpt><trkpt lat="40.9178467" lon="14.2917333"><ele>56.42857142857142</ele><time>2026-04-24T14:47:55.385Z</time></trkpt><trkpt lat="40.9179067" lon="14.2917733"><ele>56.14285714285714</ele><time>2026-04-24T14:47:56.386Z</time></trkpt><trkpt lat="40.9179667" lon="14.29181"><ele>55.857142857142854</ele><time>2026-04-24T14:47:57.385Z</time></trkpt><trkpt lat="40.9180283" lon="14.2918417"><ele>55.57142857142857</ele><time>2026-04-24T14:47:58.386Z</time></trkpt><trkpt lat="40.9180917" lon="14.29187"><ele>55.28571428571428</ele><time>2026-04-24T14:47:59.385Z</time></trkpt><trkpt lat="40.918155" lon="14.2918967"><ele>55.0</ele><time>2026-04-24T14:48:00.385Z</time></trkpt><trkpt lat="40.91822" lon="14.2919217"><ele>54.99999999999999</ele><time>2026-04-24T14:48:01.385Z</time></trkpt><trkpt lat="40.918285" lon="14.2919483"><ele>55.0</ele><time>2026-04-24T14:48:02.387Z</time></trkpt><trkpt lat="40.91835" lon="14.291975"><ele>55.0</ele><time>2026-04-24T14:48:03.384Z</time></trkpt><trkpt lat="40.918415" lon="14.292005"><ele>55.0</ele><time>2026-04-24T14:48:04.385Z</time></trkpt><trkpt lat="40.9184783" lon="14.292035"><ele>55.0</ele><time>2026-04-24T14:48:05.385Z</time></trkpt><trkpt lat="40.9185417" lon="14.2920633"><ele>54.99999999999999</ele><time>2026-04-24T14:48:06.384Z</time></trkpt><trkpt lat="40.9186083" lon="14.29209"><ele>55.0</ele><time>2026-04-24T14:48:07.385Z</time></trkpt><trkpt lat="40.9186717" lon="14.2921167"><ele>54.99999999999999</ele><time>2026-04-24T14:48:08.385Z</time></trkpt><trkpt lat="40.9187367" lon="14.292145"><ele>55.0</ele><time>2026-04-24T14:48:09.385Z</time></trkpt><trkpt lat="40.9188017" lon="14.29217"><ele>55.0</ele><time>2026-04-24T14:48:10.383Z</time></trkpt><trkpt lat="40.9188667" lon="14.2921983"><ele>55.0</ele><time>2026-04-24T14:48:11.384Z</time></trkpt><trkpt lat="40.9189317" lon="14.2922267"><ele>55.0</ele><time>2026-04-24T14:48:12.385Z</time></trkpt><trkpt lat="40.9189967" lon="14.2922583"><ele>54.99999999999999</ele><time>2026-04-24T14:48:13.383Z</time></trkpt><trkpt lat="40.9190583" lon="14.292285"><ele>55.0</ele><time>2026-04-24T14:48:14.384Z</time></trkpt><trkpt lat="40.91912" lon="14.2923117"><ele>54.99999999999999</ele><time>2026-04-24T14:48:15.384Z</time></trkpt><trkpt lat="40.9191833" lon="14.292335"><ele>55.0</ele><time>2026-04-24T14:48:16.385Z</time></trkpt><trkpt lat="40.919305" lon="14.292385"><ele>55.0</ele><time>2026-04-24T14:48:18.384Z</time></trkpt><trkpt lat="40.919365" lon="14.292415"><ele>55.0</ele><time>2026-04-24T14:48:19.384Z</time></trkpt><trkpt lat="40.9194267" lon="14.2924533"><ele>54.99999999999999</ele><time>2026-04-24T14:48:20.386Z</time></trkpt><trkpt lat="40.919485" lon="14.2924917"><ele>55.0</ele><time>2026-04-24T14:48:21.383Z</time></trkpt><trkpt lat="40.91954" lon="14.29254"><ele>54.71428571428571</ele><time>2026-04-24T14:48:22.384Z</time></trkpt><trkpt lat="40.919595" lon="14.292595"><ele>54.42857142857143</ele><time>2026-04-24T14:48:23.385Z</time></trkpt><trkpt lat="40.9196517" lon="14.29265"><ele>54.14285714285714</ele><time>2026-04-24T14:48:24.385Z</time></trkpt><trkpt lat="40.9197083" lon="14.292705"><ele>53.857142857142854</ele><time>2026-04-24T14:48:25.385Z</time></trkpt><trkpt lat="40.919765" lon="14.2927583"><ele>53.57142857142857</ele><time>2026-04-24T14:48:26.384Z</time></trkpt><trkpt lat="40.9198183" lon="14.29281"><ele>53.285714285714285</ele><time>2026-04-24T14:48:27.384Z</time></trkpt><trkpt lat="40.9198717" lon="14.292865"><ele>53.0</ele><time>2026-04-24T14:48:28.383Z</time></trkpt><trkpt lat="40.9199183" lon="14.2929283"><ele>53.0</ele><time>2026-04-24T14:48:29.385Z</time></trkpt><trkpt lat="40.9199517" lon="14.293"><ele>53.0</ele><time>2026-04-24T14:48:30.386Z</time></trkpt><trkpt lat="40.9199733" lon="14.293085"><ele>53.0</ele><time>2026-04-24T14:48:31.385Z</time></trkpt><trkpt lat="40.9199933" lon="14.29317"><ele>53.0</ele><time>2026-04-24T14:48:32.386Z</time></trkpt><trkpt lat="40.9200167" lon="14.293255"><ele>53.0</ele><time>2026-04-24T14:48:33.384Z</time></trkpt><trkpt lat="40.9200533" lon="14.2933283"><ele>53.0</ele><time>2026-04-24T14:48:34.384Z</time></trkpt><trkpt lat="40.9201017" lon="14.2933867"><ele>53.0</ele><time>2026-04-24T14:48:35.385Z</time></trkpt><trkpt lat="40.9202183" lon="14.2934283"><ele>53.00000000000001</ele><time>2026-04-24T14:48:37.385Z</time></trkpt><trkpt lat="40.9202817" lon="14.2934333"><ele>53.0</ele><time>2026-04-24T14:48:38.387Z</time></trkpt><trkpt lat="40.9204017" lon="14.293465"><ele>53.0</ele><time>2026-04-24T14:48:40.383Z</time></trkpt><trkpt lat="40.9205133" lon="14.29354"><ele>53.0</ele><time>2026-04-24T14:48:42.386Z</time></trkpt><trkpt lat="40.920565" lon="14.2935883"><ele>53.00000000000001</ele><time>2026-04-24T14:48:43.384Z</time></trkpt><trkpt lat="40.9206217" lon="14.2936367"><ele>53.0</ele><time>2026-04-24T14:48:44.386Z</time></trkpt><trkpt lat="40.9206783" lon="14.2936817"><ele>53.0</ele><time>2026-04-24T14:48:45.385Z</time></trkpt><trkpt lat="40.9207383" lon="14.2937217"><ele>53.0</ele><time>2026-04-24T14:48:46.386Z</time></trkpt><trkpt lat="40.9208017" lon="14.2937567"><ele>53.0</ele><time>2026-04-24T14:48:47.386Z</time></trkpt><trkpt lat="40.9208667" lon="14.2937883"><ele>53.0</ele><time>2026-04-24T14:48:48.384Z</time></trkpt><trkpt lat="40.9209317" lon="14.29382"><ele>53.0</ele><time>2026-04-24T14:48:49.385Z</time></trkpt><trkpt lat="40.9209983" lon="14.29385"><ele>53.0</ele><time>2026-04-24T14:48:50.385Z</time></trkpt><trkpt lat="40.921065" lon="14.2938783"><ele>53.0</ele><time>2026-04-24T14:48:51.384Z</time></trkpt><trkpt lat="40.9211333" lon="14.2939067"><ele>52.85714285714286</ele><time>2026-04-24T14:48:52.385Z</time></trkpt><trkpt lat="40.9212017" lon="14.2939367"><ele>52.71428571428571</ele><time>2026-04-24T14:48:53.385Z</time></trkpt><trkpt lat="40.921275" lon="14.293965"><ele>52.57142857142857</ele><time>2026-04-24T14:48:54.382Z</time></trkpt><trkpt lat="40.921345" lon="14.293995"><ele>52.42857142857143</ele><time>2026-04-24T14:48:55.384Z</time></trkpt><trkpt lat="40.9214133" lon="14.2940217"><ele>52.28571428571429</ele><time>2026-04-24T14:48:56.383Z</time></trkpt><trkpt lat="40.9214833" lon="14.2940517"><ele>52.14285714285714</ele><time>2026-04-24T14:48:57.384Z</time></trkpt><trkpt lat="40.9215533" lon="14.29408"><ele>52.0</ele><time>2026-04-24T14:48:58.383Z</time></trkpt><trkpt lat="40.921625" lon="14.2941083"><ele>51.99999999999999</ele><time>2026-04-24T14:48:59.384Z</time></trkpt><trkpt lat="40.9216967" lon="14.2941367"><ele>52.0</ele><time>2026-04-24T14:49:00.383Z</time></trkpt><trkpt lat="40.9217683" lon="14.2941683"><ele>52.0</ele><time>2026-04-24T14:49:01.384Z</time></trkpt><trkpt lat="40.9218417" lon="14.2941983"><ele>52.0</ele><time>2026-04-24T14:49:02.385Z</time></trkpt><trkpt lat="40.9219167" lon="14.2942283"><ele>51.99999999999999</ele><time>2026-04-24T14:49:03.384Z</time></trkpt><trkpt lat="40.9219867" lon="14.2942583"><ele>52.0</ele><time>2026-04-24T14:49:04.382Z</time></trkpt><trkpt lat="40.9220567" lon="14.2942883"><ele>51.83333333333333</ele><time>2026-04-24T14:49:05.385Z</time></trkpt><trkpt lat="40.9221267" lon="14.2943167"><ele>51.666666666666664</ele><time>2026-04-24T14:49:06.384Z</time></trkpt><trkpt lat="40.9221967" lon="14.2943467"><ele>51.5</ele><time>2026-04-24T14:49:07.384Z</time></trkpt><trkpt lat="40.9222667" lon="14.29438"><ele>51.33333333333333</ele><time>2026-04-24T14:49:08.384Z</time></trkpt><trkpt lat="40.9223383" lon="14.2944133"><ele>51.166666666666664</ele><time>2026-04-24T14:49:09.384Z</time></trkpt><trkpt lat="40.9224117" lon="14.294445"><ele>51.0</ele><time>2026-04-24T14:49:10.383Z</time></trkpt><trkpt lat="40.922485" lon="14.2944817"><ele>51.0</ele><time>2026-04-24T14:49:11.385Z</time></trkpt><trkpt lat="40.922555" lon="14.2945233"><ele>51.0</ele><time>2026-04-24T14:49:12.383Z</time></trkpt><trkpt lat="40.9226217" lon="14.2945733"><ele>51.0</ele><time>2026-04-24T14:49:13.383Z</time></trkpt><trkpt lat="40.9226883" lon="14.294635"><ele>51.0</ele><time>2026-04-24T14:49:14.383Z</time></trkpt><trkpt lat="40.9227483" lon="14.2947"><ele>51.0</ele><time>2026-04-24T14:49:15.383Z</time></trkpt><trkpt lat="40.9228033" lon="14.2947733"><ele>51.0</ele><time>2026-04-24T14:49:16.383Z</time></trkpt><trkpt lat="40.9228517" lon="14.294855"><ele>50.833333333333336</ele><time>2026-04-24T14:49:17.384Z</time></trkpt><trkpt lat="40.9229017" lon="14.2949383"><ele>50.66666666666667</ele><time>2026-04-24T14:49:18.384Z</time></trkpt><trkpt lat="40.92295" lon="14.295025"><ele>50.5</ele><time>2026-04-24T14:49:19.383Z</time></trkpt><trkpt lat="40.923" lon="14.29511"><ele>50.333333333333336</ele><time>2026-04-24T14:49:20.384Z</time></trkpt><trkpt lat="40.92305" lon="14.2951967"><ele>50.16666666666667</ele><time>2026-04-24T14:49:21.383Z</time></trkpt><trkpt lat="40.9231" lon="14.2952833"><ele>50.0</ele><time>2026-04-24T14:49:22.383Z</time></trkpt><trkpt lat="40.9231517" lon="14.29537"><ele>50.00000000000001</ele><time>2026-04-24T14:49:23.384Z</time></trkpt><trkpt lat="40.9232017" lon="14.2954583"><ele>50.0</ele><time>2026-04-24T14:49:24.385Z</time></trkpt><trkpt lat="40.9232517" lon="14.295545"><ele>50.0</ele><time>2026-04-24T14:49:25.385Z</time></trkpt><trkpt lat="40.9233017" lon="14.2956333"><ele>50.0</ele><time>2026-04-24T14:49:26.385Z</time></trkpt><trkpt lat="40.92335" lon="14.2957217"><ele>50.00000000000001</ele><time>2026-04-24T14:49:27.385Z</time></trkpt><trkpt lat="40.9234" lon="14.2958083"><ele>50.0</ele><time>2026-04-24T14:49:28.385Z</time></trkpt><trkpt lat="40.92345" lon="14.295895"><ele>49.57142857142858</ele><time>2026-04-24T14:49:29.383Z</time></trkpt><trkpt lat="40.9234983" lon="14.29598"><ele>49.142857142857146</ele><time>2026-04-24T14:49:30.384Z</time></trkpt><trkpt lat="40.9235467" lon="14.2960633"><ele>48.714285714285715</ele><time>2026-04-24T14:49:31.383Z</time></trkpt><trkpt lat="40.9235933" lon="14.296145"><ele>48.28571428571429</ele><time>2026-04-24T14:49:32.386Z</time></trkpt><trkpt lat="40.9236383" lon="14.29622"><ele>47.857142857142854</ele><time>2026-04-24T14:49:33.386Z</time></trkpt><trkpt lat="40.9236817" lon="14.2962917"><ele>47.42857142857143</ele><time>2026-04-24T14:49:34.383Z</time></trkpt><trkpt lat="40.923725" lon="14.2963633"><ele>47.0</ele><time>2026-04-24T14:49:35.384Z</time></trkpt><trkpt lat="40.9237667" lon="14.2964367"><ele>47.0</ele><time>2026-04-24T14:49:36.385Z</time></trkpt><trkpt lat="40.9238083" lon="14.29651"><ele>47.0</ele><time>2026-04-24T14:49:37.383Z</time></trkpt><trkpt lat="40.9238567" lon="14.296585"><ele>47.0</ele><time>2026-04-24T14:49:38.385Z</time></trkpt><trkpt lat="40.9239067" lon="14.2966617"><ele>47.0</ele><time>2026-04-24T14:49:39.383Z</time></trkpt><trkpt lat="40.923955" lon="14.2967433"><ele>47.0</ele><time>2026-04-24T14:49:40.384Z</time></trkpt><trkpt lat="40.9239983" lon="14.2968217"><ele>47.0</ele><time>2026-04-24T14:49:41.385Z</time></trkpt><trkpt lat="40.9240383" lon="14.2968883"><ele>47.0</ele><time>2026-04-24T14:49:42.384Z</time></trkpt><trkpt lat="40.9241067" lon="14.297"><ele>47.0</ele><time>2026-04-24T14:49:44.386Z</time></trkpt><trkpt lat="40.9241717" lon="14.2970867"><ele>47.0</ele><time>2026-04-24T14:49:46.384Z</time></trkpt><trkpt lat="40.9242217" lon="14.2971883"><ele>47.0</ele><time>2026-04-24T14:49:48.383Z</time></trkpt><trkpt lat="40.9242767" lon="14.29729"><ele>47.0</ele><time>2026-04-24T14:49:50.385Z</time></trkpt><trkpt lat="40.9243317" lon="14.2973917"><ele>47.0</ele><time>2026-04-24T14:49:52.382Z</time></trkpt><trkpt lat="40.9243917" lon="14.2974917"><ele>46.8</ele><time>2026-04-24T14:49:54.387Z</time></trkpt><trkpt lat="40.9244567" lon="14.2976033"><ele>46.6</ele><time>2026-04-24T14:49:56.385Z</time></trkpt><trkpt lat="40.92452" lon="14.297725"><ele>46.4</ele><time>2026-04-24T14:49:58.383Z</time></trkpt><trkpt lat="40.924595" lon="14.2978517"><ele>46.199999999999996</ele><time>2026-04-24T14:50:00.382Z</time></trkpt><trkpt lat="40.9246383" lon="14.2979133"><ele>46.0</ele><time>2026-04-24T14:50:01.382Z</time></trkpt><trkpt lat="40.9247283" lon="14.2980283"><ele>46.0</ele><time>2026-04-24T14:50:03.384Z</time></trkpt><trkpt lat="40.9247767" lon="14.2980817"><ele>46.0</ele><time>2026-04-24T14:50:04.383Z</time></trkpt><trkpt lat="40.9248283" lon="14.29814"><ele>46.0</ele><time>2026-04-24T14:50:05.384Z</time></trkpt><trkpt lat="40.9248833" lon="14.2982033"><ele>46.0</ele><time>2026-04-24T14:50:06.384Z</time></trkpt><trkpt lat="40.9249417" lon="14.2982633"><ele>46.0</ele><time>2026-04-24T14:50:07.383Z</time></trkpt><trkpt lat="40.925" lon="14.2983217"><ele>46.0</ele><time>2026-04-24T14:50:08.383Z</time></trkpt><trkpt lat="40.9250617" lon="14.298375"><ele>46.0</ele><time>2026-04-24T14:50:09.385Z</time></trkpt><trkpt lat="40.925125" lon="14.29842"><ele>46.142857142857146</ele><time>2026-04-24T14:50:10.381Z</time></trkpt><trkpt lat="40.92519" lon="14.2984633"><ele>46.285714285714285</ele><time>2026-04-24T14:50:11.384Z</time></trkpt><trkpt lat="40.9252567" lon="14.2985067"><ele>46.42857142857143</ele><time>2026-04-24T14:50:12.385Z</time></trkpt><trkpt lat="40.925325" lon="14.2985467"><ele>46.57142857142857</ele><time>2026-04-24T14:50:13.384Z</time></trkpt><trkpt lat="40.925395" lon="14.2985783"><ele>46.71428571428571</ele><time>2026-04-24T14:50:14.385Z</time></trkpt><trkpt lat="40.9254633" lon="14.2986033"><ele>46.857142857142854</ele><time>2026-04-24T14:50:15.385Z</time></trkpt><trkpt lat="40.92553" lon="14.29862"><ele>47.0</ele><time>2026-04-24T14:50:16.384Z</time></trkpt><trkpt lat="40.9255967" lon="14.2986317"><ele>47.0</ele><time>2026-04-24T14:50:17.383Z</time></trkpt><trkpt lat="40.925665" lon="14.2986367"><ele>47.0</ele><time>2026-04-24T14:50:18.382Z</time></trkpt><trkpt lat="40.9257283" lon="14.2986433"><ele>47.0</ele><time>2026-04-24T14:50:19.385Z</time></trkpt><trkpt lat="40.9257933" lon="14.2986433"><ele>47.0</ele><time>2026-04-24T14:50:20.384Z</time></trkpt><trkpt lat="40.92586" lon="14.29864"><ele>47.0</ele><time>2026-04-24T14:50:21.385Z</time></trkpt><trkpt lat="40.9259233" lon="14.29864"><ele>47.0</ele><time>2026-04-24T14:50:22.382Z</time></trkpt><trkpt lat="40.9259917" lon="14.2986367"><ele>47.0</ele><time>2026-04-24T14:50:23.385Z</time></trkpt><trkpt lat="40.9260583" lon="14.2986383"><ele>46.714285714285715</ele><time>2026-04-24T14:50:24.384Z</time></trkpt><trkpt lat="40.926125" lon="14.29864"><ele>46.42857142857143</ele><time>2026-04-24T14:50:25.384Z</time></trkpt><trkpt lat="40.9261917" lon="14.2986333"><ele>46.14285714285714</ele><time>2026-04-24T14:50:26.385Z</time></trkpt><trkpt lat="40.9262583" lon="14.2986267"><ele>45.85714285714286</ele><time>2026-04-24T14:50:27.384Z</time></trkpt><trkpt lat="40.9263267" lon="14.298625"><ele>45.57142857142858</ele><time>2026-04-24T14:50:28.383Z</time></trkpt><trkpt lat="40.926395" lon="14.2986267"><ele>45.285714285714285</ele><time>2026-04-24T14:50:29.383Z</time></trkpt><trkpt lat="40.9264583" lon="14.2986267"><ele>45.0</ele><time>2026-04-24T14:50:30.384Z</time></trkpt><trkpt lat="40.926565" lon="14.29864"><ele>45.0</ele><time>2026-04-24T14:50:32.384Z</time></trkpt><trkpt lat="40.9266583" lon="14.2986533"><ele>45.0</ele><time>2026-04-24T14:50:34.383Z</time></trkpt><trkpt lat="40.9267533" lon="14.29864"><ele>45.0</ele><time>2026-04-24T14:50:36.385Z</time></trkpt><trkpt lat="40.9268533" lon="14.2986267"><ele>45.0</ele><time>2026-04-24T14:50:38.382Z</time></trkpt><trkpt lat="40.9269633" lon="14.29862"><ele>45.0</ele><time>2026-04-24T14:50:40.384Z</time></trkpt><trkpt lat="40.9270567" lon="14.2986067"><ele>44.6</ele><time>2026-04-24T14:50:42.384Z</time></trkpt><trkpt lat="40.9271367" lon="14.2986133"><ele>44.2</ele><time>2026-04-24T14:50:44.384Z</time></trkpt><trkpt lat="40.9272233" lon="14.298655"><ele>43.8</ele><time>2026-04-24T14:50:46.385Z</time></trkpt><trkpt lat="40.9273283" lon="14.29867"><ele>43.4</ele><time>2026-04-24T14:50:48.383Z</time></trkpt><trkpt lat="40.9274433" lon="14.2986483"><ele>43.0</ele><time>2026-04-24T14:50:50.385Z</time></trkpt><trkpt lat="40.9275583" lon="14.2986083"><ele>43.0</ele><time>2026-04-24T14:50:52.383Z</time></trkpt><trkpt lat="40.927675" lon="14.2985733"><ele>43.0</ele><time>2026-04-24T14:50:54.385Z</time></trkpt><trkpt lat="40.9277383" lon="14.298565"><ele>43.0</ele><time>2026-04-24T14:50:55.382Z</time></trkpt><trkpt lat="40.9278017" lon="14.2985533"><ele>43.0</ele><time>2026-04-24T14:50:56.385Z</time></trkpt><trkpt lat="40.927865" lon="14.2985417"><ele>43.0</ele><time>2026-04-24T14:50:57.383Z</time></trkpt><trkpt lat="40.92799" lon="14.2985233"><ele>43.0</ele><time>2026-04-24T14:50:59.388Z</time></trkpt><trkpt lat="40.928055" lon="14.2985167"><ele>43.00000000000001</ele><time>2026-04-24T14:51:00.385Z</time></trkpt><trkpt lat="40.9281217" lon="14.2985067"><ele>43.0</ele><time>2026-04-24T14:51:01.385Z</time></trkpt><trkpt lat="40.92819" lon="14.2985"><ele>43.0</ele><time>2026-04-24T14:51:02.384Z</time></trkpt><trkpt lat="40.928255" lon="14.2984867"><ele>43.0</ele><time>2026-04-24T14:51:03.382Z</time></trkpt><trkpt lat="40.9283217" lon="14.2984767"><ele>43.0</ele><time>2026-04-24T14:51:04.384Z</time></trkpt><trkpt lat="40.9283867" lon="14.2984683"><ele>43.00000000000001</ele><time>2026-04-24T14:51:05.382Z</time></trkpt><trkpt lat="40.9284533" lon="14.2984583"><ele>43.0</ele><time>2026-04-24T14:51:06.385Z</time></trkpt><trkpt lat="40.9285183" lon="14.2984483"><ele>42.85714285714286</ele><time>2026-04-24T14:51:07.385Z</time></trkpt><trkpt lat="40.928585" lon="14.2984417"><ele>42.714285714285715</ele><time>2026-04-24T14:51:08.384Z</time></trkpt><trkpt lat="40.9286517" lon="14.2984317"><ele>42.57142857142857</ele><time>2026-04-24T14:51:09.385Z</time></trkpt><trkpt lat="40.9287183" lon="14.2984183"><ele>42.42857142857143</ele><time>2026-04-24T14:51:10.384Z</time></trkpt><trkpt lat="40.928785" lon="14.2984083"><ele>42.285714285714285</ele><time>2026-04-24T14:51:11.385Z</time></trkpt><trkpt lat="40.92885" lon="14.298395"><ele>42.142857142857146</ele><time>2026-04-24T14:51:12.383Z</time></trkpt><trkpt lat="40.92895" lon="14.2983833"><ele>42.0</ele><time>2026-04-24T14:51:14.384Z</time></trkpt><trkpt lat="40.92903" lon="14.2983767"><ele>42.0</ele><time>2026-04-24T14:51:16.384Z</time></trkpt><trkpt lat="40.929105" lon="14.2983683"><ele>42.0</ele><time>2026-04-24T14:51:18.384Z</time></trkpt><trkpt lat="40.9291817" lon="14.2983583"><ele>42.0</ele><time>2026-04-24T14:51:20.384Z</time></trkpt><trkpt lat="40.9292667" lon="14.2983483"><ele>42.0</ele><time>2026-04-24T14:51:22.383Z</time></trkpt><trkpt lat="40.929355" lon="14.29834"><ele>42.0</ele><time>2026-04-24T14:51:24.385Z</time></trkpt><trkpt lat="40.9294617" lon="14.2983283"><ele>42.0</ele><time>2026-04-24T14:51:26.385Z</time></trkpt><trkpt lat="40.9295617" lon="14.298315"><ele>42.0</ele><time>2026-04-24T14:51:28.385Z</time></trkpt><trkpt lat="40.9296667" lon="14.2983017"><ele>42.0</ele><time>2026-04-24T14:51:30.385Z</time></trkpt><trkpt lat="40.9297733" lon="14.2983067"><ele>42.0</ele><time>2026-04-24T14:51:32.385Z</time></trkpt><trkpt lat="40.9298833" lon="14.2983483"><ele>42.0</ele><time>2026-04-24T14:51:34.384Z</time></trkpt><trkpt lat="40.9299417" lon="14.2983867"><ele>42.0</ele><time>2026-04-24T14:51:35.384Z</time></trkpt><trkpt lat="40.929995" lon="14.2984317"><ele>42.0</ele><time>2026-04-24T14:51:36.384Z</time></trkpt><trkpt lat="40.9300817" lon="14.2985433"><ele>42.0</ele><time>2026-04-24T14:51:38.386Z</time></trkpt><trkpt lat="40.9301633" lon="14.2986533"><ele>42.0</ele><time>2026-04-24T14:51:40.384Z</time></trkpt><trkpt lat="40.9302483" lon="14.2987233"><ele>42.0</ele><time>2026-04-24T14:51:42.383Z</time></trkpt><trkpt lat="40.9303117" lon="14.298825"><ele>42.0</ele><time>2026-04-24T14:51:44.385Z</time></trkpt><trkpt lat="40.9303867" lon="14.2989417"><ele>41.666666666666664</ele><time>2026-04-24T14:51:46.384Z</time></trkpt><trkpt lat="40.9304733" lon="14.2990533"><ele>41.333333333333336</ele><time>2026-04-24T14:51:48.385Z</time></trkpt><trkpt lat="40.9305183" lon="14.2991133"><ele>41.0</ele><time>2026-04-24T14:51:49.384Z</time></trkpt><trkpt lat="40.9306033" lon="14.299235"><ele>40.66666666666667</ele><time>2026-04-24T14:51:51.385Z</time></trkpt><trkpt lat="40.9306483" lon="14.2992967"><ele>40.333333333333336</ele><time>2026-04-24T14:51:52.383Z</time></trkpt><trkpt lat="40.9306933" lon="14.29936"><ele>40.0</ele><time>2026-04-24T14:51:53.384Z</time></trkpt><trkpt lat="40.9307367" lon="14.2994267"><ele>40.0</ele><time>2026-04-24T14:51:54.385Z</time></trkpt><trkpt lat="40.9307833" lon="14.2994933"><ele>40.0</ele><time>2026-04-24T14:51:55.385Z</time></trkpt><trkpt lat="40.93083" lon="14.29956"><ele>40.0</ele><time>2026-04-24T14:51:56.384Z</time></trkpt><trkpt lat="40.930875" lon="14.2996233"><ele>40.0</ele><time>2026-04-24T14:51:57.383Z</time></trkpt><trkpt lat="40.9309217" lon="14.2996883"><ele>40.0</ele><time>2026-04-24T14:51:58.383Z</time></trkpt><trkpt lat="40.9309683" lon="14.2997533"><ele>40.0</ele><time>2026-04-24T14:51:59.385Z</time></trkpt><trkpt lat="40.9310167" lon="14.29982"><ele>40.0</ele><time>2026-04-24T14:52:00.384Z</time></trkpt><trkpt lat="40.931065" lon="14.2998883"><ele>40.0</ele><time>2026-04-24T14:52:01.383Z</time></trkpt><trkpt lat="40.9311183" lon="14.2999533"><ele>40.0</ele><time>2026-04-24T14:52:02.383Z</time></trkpt><trkpt lat="40.9311683" lon="14.30002"><ele>40.0</ele><time>2026-04-24T14:52:03.383Z</time></trkpt><trkpt lat="40.9312167" lon="14.3000917"><ele>40.0</ele><time>2026-04-24T14:52:04.384Z</time></trkpt><trkpt lat="40.9312633" lon="14.3001617"><ele>40.0</ele><time>2026-04-24T14:52:05.385Z</time></trkpt><trkpt lat="40.9313133" lon="14.3002317"><ele>40.0</ele><time>2026-04-24T14:52:06.384Z</time></trkpt><trkpt lat="40.9313633" lon="14.3003067"><ele>40.0</ele><time>2026-04-24T14:52:07.383Z</time></trkpt><trkpt lat="40.931415" lon="14.3003833"><ele>40.0</ele><time>2026-04-24T14:52:08.385Z</time></trkpt><trkpt lat="40.931465" lon="14.30046"><ele>40.0</ele><time>2026-04-24T14:52:09.385Z</time></trkpt><trkpt lat="40.931515" lon="14.3005317"><ele>40.0</ele><time>2026-04-24T14:52:10.386Z</time></trkpt><trkpt lat="40.931565" lon="14.3006017"><ele>40.0</ele><time>2026-04-24T14:52:11.384Z</time></trkpt><trkpt lat="40.931615" lon="14.30067"><ele>40.0</ele><time>2026-04-24T14:52:12.385Z</time></trkpt><trkpt lat="40.9316617" lon="14.3007367"><ele>40.0</ele><time>2026-04-24T14:52:13.383Z</time></trkpt><trkpt lat="40.9317083" lon="14.300805"><ele>40.0</ele><time>2026-04-24T14:52:14.385Z</time></trkpt><trkpt lat="40.931755" lon="14.30087"><ele>40.0</ele><time>2026-04-24T14:52:15.384Z</time></trkpt><trkpt lat="40.931805" lon="14.3009267"><ele>40.0</ele><time>2026-04-24T14:52:16.385Z</time></trkpt><trkpt lat="40.9318583" lon="14.3009783"><ele>40.0</ele><time>2026-04-24T14:52:17.383Z</time></trkpt><trkpt lat="40.9319133" lon="14.30103"><ele>40.0</ele><time>2026-04-24T14:52:18.386Z</time></trkpt><trkpt lat="40.9319717" lon="14.301075"><ele>40.0</ele><time>2026-04-24T14:52:19.384Z</time></trkpt><trkpt lat="40.93203" lon="14.3011167"><ele>40.0</ele><time>2026-04-24T14:52:20.383Z</time></trkpt><trkpt lat="40.9320917" lon="14.3011517"><ele>40.0</ele><time>2026-04-24T14:52:21.383Z</time></trkpt><trkpt lat="40.932155" lon="14.3011767"><ele>40.0</ele><time>2026-04-24T14:52:22.384Z</time></trkpt><trkpt lat="40.93222" lon="14.3011933"><ele>40.0</ele><time>2026-04-24T14:52:23.382Z</time></trkpt><trkpt lat="40.9322883" lon="14.3012017"><ele>40.0</ele><time>2026-04-24T14:52:24.385Z</time></trkpt><trkpt lat="40.9323583" lon="14.301205"><ele>40.0</ele><time>2026-04-24T14:52:25.384Z</time></trkpt><trkpt lat="40.9324283" lon="14.3012067"><ele>40.0</ele><time>2026-04-24T14:52:26.385Z</time></trkpt><trkpt lat="40.9325" lon="14.30121"><ele>40.0</ele><time>2026-04-24T14:52:27.383Z</time></trkpt><trkpt lat="40.9325733" lon="14.3012133"><ele>40.0</ele><time>2026-04-24T14:52:28.385Z</time></trkpt><trkpt lat="40.9326483" lon="14.301215"><ele>39.857142857142854</ele><time>2026-04-24T14:52:29.383Z</time></trkpt><trkpt lat="40.9327217" lon="14.3012167"><ele>39.714285714285715</ele><time>2026-04-24T14:52:30.385Z</time></trkpt><trkpt lat="40.9327933" lon="14.3012183"><ele>39.57142857142857</ele><time>2026-04-24T14:52:31.385Z</time></trkpt><trkpt lat="40.9328667" lon="14.30122"><ele>39.42857142857143</ele><time>2026-04-24T14:52:32.385Z</time></trkpt><trkpt lat="40.9329367" lon="14.3012217"><ele>39.285714285714285</ele><time>2026-04-24T14:52:33.385Z</time></trkpt><trkpt lat="40.9330083" lon="14.3012233"><ele>39.142857142857146</ele><time>2026-04-24T14:52:34.383Z</time></trkpt><trkpt lat="40.9330783" lon="14.3012267"><ele>39.0</ele><time>2026-04-24T14:52:35.386Z</time></trkpt><trkpt lat="40.933145" lon="14.3012283"><ele>39.0</ele><time>2026-04-24T14:52:36.387Z</time></trkpt><trkpt lat="40.9332617" lon="14.3012317"><ele>39.0</ele><time>2026-04-24T14:52:38.385Z</time></trkpt><trkpt lat="40.93338" lon="14.301235"><ele>39.0</ele><time>2026-04-24T14:52:40.382Z</time></trkpt><trkpt lat="40.9334983" lon="14.3012667"><ele>39.0</ele><time>2026-04-24T14:52:42.385Z</time></trkpt><trkpt lat="40.933605" lon="14.3013283"><ele>38.8</ele><time>2026-04-24T14:52:44.386Z</time></trkpt><trkpt lat="40.9336983" lon="14.301425"><ele>38.599999999999994</ele><time>2026-04-24T14:52:46.385Z</time></trkpt><trkpt lat="40.9337983" lon="14.3014983"><ele>38.4</ele><time>2026-04-24T14:52:48.384Z</time></trkpt><trkpt lat="40.9338983" lon="14.30147"><ele>38.199999999999996</ele><time>2026-04-24T14:52:50.384Z</time></trkpt><trkpt lat="40.9339883" lon="14.30138"><ele>38.0</ele><time>2026-04-24T14:52:52.384Z</time></trkpt><trkpt lat="40.93408" lon="14.3012983"><ele>38.166666666666664</ele><time>2026-04-24T14:52:54.384Z</time></trkpt><trkpt lat="40.9341783" lon="14.3012567"><ele>38.33333333333333</ele><time>2026-04-24T14:52:56.384Z</time></trkpt><trkpt lat="40.9342717" lon="14.3012433"><ele>38.5</ele><time>2026-04-24T14:52:58.383Z</time></trkpt><trkpt lat="40.9343817" lon="14.3012633"><ele>38.666666666666664</ele><time>2026-04-24T14:53:00.384Z</time></trkpt><trkpt lat="40.9344483" lon="14.301265"><ele>38.833333333333336</ele><time>2026-04-24T14:53:01.386Z</time></trkpt><trkpt lat="40.934515" lon="14.3012667"><ele>39.0</ele><time>2026-04-24T14:53:02.387Z</time></trkpt><trkpt lat="40.9346433" lon="14.3012667"><ele>39.0</ele><time>2026-04-24T14:53:04.385Z</time></trkpt><trkpt lat="40.9347083" lon="14.301265"><ele>39.0</ele><time>2026-04-24T14:53:05.386Z</time></trkpt><trkpt lat="40.9347717" lon="14.301265"><ele>39.0</ele><time>2026-04-24T14:53:06.385Z</time></trkpt><trkpt lat="40.934835" lon="14.301265"><ele>39.0</ele><time>2026-04-24T14:53:07.384Z</time></trkpt><trkpt lat="40.9349583" lon="14.3012617"><ele>39.0</ele><time>2026-04-24T14:53:09.385Z</time></trkpt><trkpt lat="40.935025" lon="14.3012567"><ele>39.0</ele><time>2026-04-24T14:53:10.383Z</time></trkpt><trkpt lat="40.9350883" lon="14.3012583"><ele>39.0</ele><time>2026-04-24T14:53:11.383Z</time></trkpt><trkpt lat="40.9351517" lon="14.3012583"><ele>38.5</ele><time>2026-04-24T14:53:12.387Z</time></trkpt><trkpt lat="40.9352733" lon="14.30126"><ele>38.0</ele><time>2026-04-24T14:53:14.384Z</time></trkpt><trkpt lat="40.93539" lon="14.301265"><ele>37.5</ele><time>2026-04-24T14:53:16.386Z</time></trkpt><trkpt lat="40.9355017" lon="14.3012717"><ele>37.0</ele><time>2026-04-24T14:53:18.383Z</time></trkpt><trkpt lat="40.935615" lon="14.30127"><ele>37.0</ele><time>2026-04-24T14:53:20.385Z</time></trkpt><trkpt lat="40.9357317" lon="14.3012617"><ele>37.0</ele><time>2026-04-24T14:53:22.384Z</time></trkpt><trkpt lat="40.9358517" lon="14.301245"><ele>37.0</ele><time>2026-04-24T14:53:24.384Z</time></trkpt><trkpt lat="40.935945" lon="14.3012317"><ele>37.0</ele><time>2026-04-24T14:53:26.384Z</time></trkpt><trkpt lat="40.936025" lon="14.3012267"><ele>37.0</ele><time>2026-04-24T14:53:28.383Z</time></trkpt><trkpt lat="40.9361133" lon="14.3012017"><ele>37.0</ele><time>2026-04-24T14:53:30.385Z</time></trkpt><trkpt lat="40.936215" lon="14.301175"><ele>37.0</ele><time>2026-04-24T14:53:32.387Z</time></trkpt><trkpt lat="40.936325" lon="14.3011617"><ele>37.0</ele><time>2026-04-24T14:53:34.384Z</time></trkpt><trkpt lat="40.9364417" lon="14.3011333"><ele>37.0</ele><time>2026-04-24T14:53:36.385Z</time></trkpt><trkpt lat="40.936555" lon="14.3011017"><ele>37.0</ele><time>2026-04-24T14:53:38.383Z</time></trkpt><trkpt lat="40.9366767" lon="14.3010733"><ele>37.0</ele><time>2026-04-24T14:53:40.383Z</time></trkpt><trkpt lat="40.93674" lon="14.3010633"><ele>37.0</ele><time>2026-04-24T14:53:41.384Z</time></trkpt><trkpt lat="40.9368567" lon="14.3010417"><ele>37.0</ele><time>2026-04-24T14:53:43.385Z</time></trkpt><trkpt lat="40.9369667" lon="14.3010267"><ele>37.0</ele><time>2026-04-24T14:53:45.384Z</time></trkpt><trkpt lat="40.9370783" lon="14.3009983"><ele>37.0</ele><time>2026-04-24T14:53:47.385Z</time></trkpt><trkpt lat="40.9371967" lon="14.3009733"><ele>37.0</ele><time>2026-04-24T14:53:49.384Z</time></trkpt><trkpt lat="40.9373083" lon="14.30094"><ele>37.0</ele><time>2026-04-24T14:53:51.385Z</time></trkpt><trkpt lat="40.9374133" lon="14.3009217"><ele>37.0</ele><time>2026-04-24T14:53:53.384Z</time></trkpt><trkpt lat="40.9375233" lon="14.30091"><ele>37.0</ele><time>2026-04-24T14:53:55.383Z</time></trkpt><trkpt lat="40.93764" lon="14.3008867"><ele>37.0</ele><time>2026-04-24T14:53:57.384Z</time></trkpt><trkpt lat="40.9377583" lon="14.30086"><ele>37.25</ele><time>2026-04-24T14:53:59.384Z</time></trkpt><trkpt lat="40.9378717" lon="14.300835"><ele>37.5</ele><time>2026-04-24T14:54:01.383Z</time></trkpt><trkpt lat="40.9379883" lon="14.3007983"><ele>37.75</ele><time>2026-04-24T14:54:03.384Z</time></trkpt><trkpt lat="40.9381067" lon="14.3007517"><ele>38.0</ele><time>2026-04-24T14:54:05.385Z</time></trkpt><trkpt lat="40.9382217" lon="14.3006917"><ele>38.0</ele><time>2026-04-24T14:54:07.383Z</time></trkpt><trkpt lat="40.9382817" lon="14.3006583"><ele>38.0</ele><time>2026-04-24T14:54:08.384Z</time></trkpt><trkpt lat="40.93834" lon="14.3006217"><ele>38.0</ele><time>2026-04-24T14:54:09.385Z</time></trkpt><trkpt lat="40.9383983" lon="14.3005833"><ele>38.0</ele><time>2026-04-24T14:54:10.386Z</time></trkpt><trkpt lat="40.9384583" lon="14.3005483"><ele>38.0</ele><time>2026-04-24T14:54:11.386Z</time></trkpt><trkpt lat="40.9385183" lon="14.3005117"><ele>38.0</ele><time>2026-04-24T14:54:12.384Z</time></trkpt><trkpt lat="40.9385833" lon="14.3004767"><ele>38.0</ele><time>2026-04-24T14:54:13.386Z</time></trkpt><trkpt lat="40.9386433" lon="14.30044"><ele>37.8</ele><time>2026-04-24T14:54:14.386Z</time></trkpt><trkpt lat="40.9387033" lon="14.3004083"><ele>37.599999999999994</ele><time>2026-04-24T14:54:15.385Z</time></trkpt><trkpt lat="40.938815" lon="14.3003333"><ele>37.400000000000006</ele><time>2026-04-24T14:54:17.384Z</time></trkpt><trkpt lat="40.9388683" lon="14.3002867"><ele>37.2</ele><time>2026-04-24T14:54:18.385Z</time></trkpt><trkpt lat="40.938975" lon="14.3002183"><ele>37.0</ele><time>2026-04-24T14:54:20.386Z</time></trkpt><trkpt lat="40.9390817" lon="14.3001583"><ele>37.0</ele><time>2026-04-24T14:54:22.384Z</time></trkpt><trkpt lat="40.93919" lon="14.3000983"><ele>37.0</ele><time>2026-04-24T14:54:24.383Z</time></trkpt><trkpt lat="40.9392967" lon="14.3000417"><ele>37.0</ele><time>2026-04-24T14:54:26.384Z</time></trkpt><trkpt lat="40.939405" lon="14.2999733"><ele>37.0</ele><time>2026-04-24T14:54:28.384Z</time></trkpt><trkpt lat="40.9395083" lon="14.2999067"><ele>36.75</ele><time>2026-04-24T14:54:30.385Z</time></trkpt><trkpt lat="40.9396133" lon="14.2998467"><ele>36.5</ele><time>2026-04-24T14:54:32.386Z</time></trkpt><trkpt lat="40.9397183" lon="14.2997783"><ele>36.25</ele><time>2026-04-24T14:54:34.383Z</time></trkpt><trkpt lat="40.9398233" lon="14.2997133"><ele>36.0</ele><time>2026-04-24T14:54:36.383Z</time></trkpt><trkpt lat="40.939935" lon="14.299655"><ele>36.2</ele><time>2026-04-24T14:54:38.386Z</time></trkpt><trkpt lat="40.940055" lon="14.2996183"><ele>36.400000000000006</ele><time>2026-04-24T14:54:40.386Z</time></trkpt><trkpt lat="40.9401683" lon="14.2995767"><ele>36.6</ele><time>2026-04-24T14:54:42.386Z</time></trkpt><trkpt lat="40.9402617" lon="14.29954"><ele>36.800000000000004</ele><time>2026-04-24T14:54:44.385Z</time></trkpt><trkpt lat="40.9403383" lon="14.2995033"><ele>37.0</ele><time>2026-04-24T14:54:46.386Z</time></trkpt><trkpt lat="40.94041" lon="14.2994717"><ele>37.0</ele><time>2026-04-24T14:54:48.383Z</time></trkpt><trkpt lat="40.9404933" lon="14.2994533"><ele>37.0</ele><time>2026-04-24T14:54:50.384Z</time></trkpt><trkpt lat="40.94056" lon="14.2994333"><ele>37.0</ele><time>2026-04-24T14:54:52.384Z</time></trkpt><trkpt lat="40.9406233" lon="14.2994333"><ele>37.0</ele><time>2026-04-24T14:54:56.386Z</time></trkpt><trkpt lat="40.9406883" lon="14.2993983"><ele>37.0</ele><time>2026-04-24T14:55:00.384Z</time></trkpt><trkpt lat="40.9407583" lon="14.29938"><ele>37.0</ele><time>2026-04-24T14:55:05.383Z</time></trkpt><trkpt lat="40.9408217" lon="14.2993567"><ele>37.0</ele><time>2026-04-24T14:55:09.387Z</time></trkpt><trkpt lat="40.9409033" lon="14.2993133"><ele>37.0</ele><time>2026-04-24T14:55:14.387Z</time></trkpt><trkpt lat="40.9409633" lon="14.299285"><ele>37.0</ele><time>2026-04-24T14:55:16.383Z</time></trkpt><trkpt lat="40.9410317" lon="14.2992617"><ele>37.0</ele><time>2026-04-24T14:55:18.384Z</time></trkpt><trkpt lat="40.94111" lon="14.29924"><ele>37.0</ele><time>2026-04-24T14:55:20.385Z</time></trkpt><trkpt lat="40.9411917" lon="14.2992267"><ele>37.0</ele><time>2026-04-24T14:55:22.384Z</time></trkpt><trkpt lat="40.9412717" lon="14.2992183"><ele>37.0</ele><time>2026-04-24T14:55:24.384Z</time></trkpt><trkpt lat="40.94135" lon="14.2991917"><ele>37.0</ele><time>2026-04-24T14:55:26.385Z</time></trkpt><trkpt lat="40.9414183" lon="14.2991683"><ele>37.0</ele><time>2026-04-24T14:55:28.385Z</time></trkpt><trkpt lat="40.9414867" lon="14.299165"><ele>37.0</ele><time>2026-04-24T14:55:30.385Z</time></trkpt><trkpt lat="40.9415567" lon="14.2991483"><ele>37.0</ele><time>2026-04-24T14:55:32.385Z</time></trkpt><trkpt lat="40.9416383" lon="14.299125"><ele>37.0</ele><time>2026-04-24T14:55:34.385Z</time></trkpt><trkpt lat="40.9417283" lon="14.2990883"><ele>37.0</ele><time>2026-04-24T14:55:36.384Z</time></trkpt><trkpt lat="40.94183" lon="14.2990767"><ele>36.800000000000004</ele><time>2026-04-24T14:55:38.385Z</time></trkpt><trkpt lat="40.9419333" lon="14.29907"><ele>36.6</ele><time>2026-04-24T14:55:40.385Z</time></trkpt><trkpt lat="40.9420417" lon="14.2990583"><ele>36.400000000000006</ele><time>2026-04-24T14:55:42.385Z</time></trkpt><trkpt lat="40.9421467" lon="14.29906"><ele>36.2</ele><time>2026-04-24T14:55:44.385Z</time></trkpt><trkpt lat="40.9422567" lon="14.2990467"><ele>36.0</ele><time>2026-04-24T14:55:46.386Z</time></trkpt><trkpt lat="40.9423667" lon="14.2990433"><ele>36.0</ele><time>2026-04-24T14:55:48.384Z</time></trkpt><trkpt lat="40.9424783" lon="14.2990267"><ele>36.0</ele><time>2026-04-24T14:55:50.385Z</time></trkpt><trkpt lat="40.942595" lon="14.2990083"><ele>36.0</ele><time>2026-04-24T14:55:52.384Z</time></trkpt><trkpt lat="40.9427117" lon="14.2990117"><ele>36.0</ele><time>2026-04-24T14:55:54.385Z</time></trkpt><trkpt lat="40.9427767" lon="14.2990133"><ele>36.0</ele><time>2026-04-24T14:55:55.386Z</time></trkpt><trkpt lat="40.94284" lon="14.2990083"><ele>35.714285714285715</ele><time>2026-04-24T14:55:56.387Z</time></trkpt><trkpt lat="40.9429033" lon="14.2990033"><ele>35.42857142857143</ele><time>2026-04-24T14:55:57.384Z</time></trkpt><trkpt lat="40.9430283" lon="14.2989967"><ele>35.14285714285714</ele><time>2026-04-24T14:55:59.387Z</time></trkpt><trkpt lat="40.9430933" lon="14.2989967"><ele>34.85714285714286</ele><time>2026-04-24T14:56:00.386Z</time></trkpt><trkpt lat="40.94316" lon="14.2990017"><ele>34.57142857142857</ele><time>2026-04-24T14:56:01.384Z</time></trkpt><trkpt lat="40.9432233" lon="14.2990067"><ele>34.285714285714285</ele><time>2026-04-24T14:56:02.386Z</time></trkpt><trkpt lat="40.9432867" lon="14.2990133"><ele>34.0</ele><time>2026-04-24T14:56:03.383Z</time></trkpt><trkpt lat="40.94341" lon="14.2990167"><ele>33.66666666666667</ele><time>2026-04-24T14:56:05.383Z</time></trkpt><trkpt lat="40.943535" lon="14.2990233"><ele>33.333333333333336</ele><time>2026-04-24T14:56:07.384Z</time></trkpt><trkpt lat="40.9435983" lon="14.2990317"><ele>33.0</ele><time>2026-04-24T14:56:08.383Z</time></trkpt><trkpt lat="40.9436617" lon="14.29904"><ele>32.666666666666664</ele><time>2026-04-24T14:56:09.386Z</time></trkpt><trkpt lat="40.9437267" lon="14.2990617"><ele>32.33333333333333</ele><time>2026-04-24T14:56:10.383Z</time></trkpt><trkpt lat="40.9437917" lon="14.299085"><ele>32.0</ele><time>2026-04-24T14:56:11.385Z</time></trkpt><trkpt lat="40.943915" lon="14.2991133"><ele>32.0</ele><time>2026-04-24T14:56:13.386Z</time></trkpt><trkpt lat="40.9440317" lon="14.2991317"><ele>32.0</ele><time>2026-04-24T14:56:15.386Z</time></trkpt><trkpt lat="40.94413" lon="14.2991517"><ele>32.0</ele><time>2026-04-24T14:56:17.383Z</time></trkpt><trkpt lat="40.944215" lon="14.2991917"><ele>32.0</ele><time>2026-04-24T14:56:19.386Z</time></trkpt><trkpt lat="40.944295" lon="14.2992533"><ele>32.0</ele><time>2026-04-24T14:56:21.384Z</time></trkpt><trkpt lat="40.9444" lon="14.2992817"><ele>32.166666666666664</ele><time>2026-04-24T14:56:23.384Z</time></trkpt><trkpt lat="40.94452" lon="14.2992517"><ele>32.33333333333333</ele><time>2026-04-24T14:56:25.386Z</time></trkpt><trkpt lat="40.944585" lon="14.29924"><ele>32.5</ele><time>2026-04-24T14:56:26.385Z</time></trkpt><trkpt lat="40.9446517" lon="14.2992417"><ele>32.666666666666664</ele><time>2026-04-24T14:56:27.384Z</time></trkpt><trkpt lat="40.9447183" lon="14.2992517"><ele>32.833333333333336</ele><time>2026-04-24T14:56:28.386Z</time></trkpt><trkpt lat="40.9447817" lon="14.2992633"><ele>33.0</ele><time>2026-04-24T14:56:29.387Z</time></trkpt><trkpt lat="40.9448467" lon="14.2992767"><ele>33.0</ele><time>2026-04-24T14:56:30.383Z</time></trkpt><trkpt lat="40.9449133" lon="14.2992933"><ele>33.0</ele><time>2026-04-24T14:56:31.385Z</time></trkpt><trkpt lat="40.94498" lon="14.29931"><ele>33.0</ele><time>2026-04-24T14:56:32.387Z</time></trkpt><trkpt lat="40.9450483" lon="14.299325"><ele>33.0</ele><time>2026-04-24T14:56:33.386Z</time></trkpt><trkpt lat="40.945115" lon="14.2993417"><ele>33.0</ele><time>2026-04-24T14:56:34.387Z</time></trkpt><trkpt lat="40.9451817" lon="14.2993517"><ele>33.0</ele><time>2026-04-24T14:56:35.387Z</time></trkpt><trkpt lat="40.9452483" lon="14.299365"><ele>33.0</ele><time>2026-04-24T14:56:36.385Z</time></trkpt><trkpt lat="40.9453167" lon="14.2993783"><ele>33.0</ele><time>2026-04-24T14:56:37.383Z</time></trkpt><trkpt lat="40.9453833" lon="14.2993917"><ele>33.0</ele><time>2026-04-24T14:56:38.387Z</time></trkpt><trkpt lat="40.9454517" lon="14.299405"><ele>33.0</ele><time>2026-04-24T14:56:39.387Z</time></trkpt><trkpt lat="40.94552" lon="14.2994183"><ele>33.0</ele><time>2026-04-24T14:56:40.387Z</time></trkpt><trkpt lat="40.94559" lon="14.29943"><ele>33.0</ele><time>2026-04-24T14:56:41.385Z</time></trkpt><trkpt lat="40.9456567" lon="14.2994417"><ele>33.0</ele><time>2026-04-24T14:56:42.387Z</time></trkpt><trkpt lat="40.9457233" lon="14.2994567"><ele>33.0</ele><time>2026-04-24T14:56:43.386Z</time></trkpt><trkpt lat="40.94579" lon="14.2994717"><ele>33.0</ele><time>2026-04-24T14:56:44.387Z</time></trkpt><trkpt lat="40.945855" lon="14.299485"><ele>33.0</ele><time>2026-04-24T14:56:45.385Z</time></trkpt><trkpt lat="40.94592" lon="14.2995"><ele>33.0</ele><time>2026-04-24T14:56:46.385Z</time></trkpt><trkpt lat="40.9460333" lon="14.299525"><ele>33.0</ele><time>2026-04-24T14:56:48.386Z</time></trkpt><trkpt lat="40.946145" lon="14.29954"><ele>33.0</ele><time>2026-04-24T14:56:50.388Z</time></trkpt><trkpt lat="40.9462683" lon="14.29957"><ele>32.833333333333336</ele><time>2026-04-24T14:56:52.387Z</time></trkpt><trkpt lat="40.9463283" lon="14.2995983"><ele>32.666666666666664</ele><time>2026-04-24T14:56:53.386Z</time></trkpt><trkpt lat="40.9463867" lon="14.2996367"><ele>32.5</ele><time>2026-04-24T14:56:54.386Z</time></trkpt><trkpt lat="40.9464383" lon="14.2996883"><ele>32.33333333333333</ele><time>2026-04-24T14:56:55.387Z</time></trkpt><trkpt lat="40.9465183" lon="14.2998133"><ele>32.166666666666664</ele><time>2026-04-24T14:56:57.384Z</time></trkpt><trkpt lat="40.9465817" lon="14.2999517"><ele>32.0</ele><time>2026-04-24T14:56:59.387Z</time></trkpt><trkpt lat="40.9466333" lon="14.3000883"><ele>32.0</ele><time>2026-04-24T14:57:01.386Z</time></trkpt><trkpt lat="40.946675" lon="14.3002167"><ele>32.0</ele><time>2026-04-24T14:57:03.385Z</time></trkpt><trkpt lat="40.9467233" lon="14.30035"><ele>32.0</ele><time>2026-04-24T14:57:05.385Z</time></trkpt><trkpt lat="40.9467767" lon="14.3004867"><ele>32.0</ele><time>2026-04-24T14:57:07.385Z</time></trkpt><trkpt lat="40.9468283" lon="14.3006267"><ele>31.833333333333332</ele><time>2026-04-24T14:57:09.385Z</time></trkpt><trkpt lat="40.9468783" lon="14.30078"><ele>31.666666666666664</ele><time>2026-04-24T14:57:11.385Z</time></trkpt><trkpt lat="40.9469017" lon="14.3008633"><ele>31.5</ele><time>2026-04-24T14:57:12.383Z</time></trkpt><trkpt lat="40.9469217" lon="14.300945"><ele>31.333333333333336</ele><time>2026-04-24T14:57:13.386Z</time></trkpt><trkpt lat="40.9469717" lon="14.3010983"><ele>31.166666666666668</ele><time>2026-04-24T14:57:15.387Z</time></trkpt><trkpt lat="40.9470017" lon="14.3011733"><ele>31.0</ele><time>2026-04-24T14:57:16.383Z</time></trkpt><trkpt lat="40.94703" lon="14.3012483"><ele>31.0</ele><time>2026-04-24T14:57:17.384Z</time></trkpt><trkpt lat="40.9470583" lon="14.3013233"><ele>31.0</ele><time>2026-04-24T14:57:18.386Z</time></trkpt><trkpt lat="40.9470867" lon="14.3013983"><ele>31.0</ele><time>2026-04-24T14:57:19.385Z</time></trkpt><trkpt lat="40.9471417" lon="14.3015433"><ele>31.0</ele><time>2026-04-24T14:57:21.385Z</time></trkpt><trkpt lat="40.9471933" lon="14.301685"><ele>31.0</ele><time>2026-04-24T14:57:23.385Z</time></trkpt><trkpt lat="40.947255" lon="14.3018183"><ele>31.200000000000003</ele><time>2026-04-24T14:57:25.385Z</time></trkpt><trkpt lat="40.9473317" lon="14.301925"><ele>31.400000000000002</ele><time>2026-04-24T14:57:27.385Z</time></trkpt><trkpt lat="40.9474067" lon="14.302025"><ele>31.6</ele><time>2026-04-24T14:57:29.385Z</time></trkpt><trkpt lat="40.9474583" lon="14.3021167"><ele>31.8</ele><time>2026-04-24T14:57:31.385Z</time></trkpt><trkpt lat="40.9475183" lon="14.302185"><ele>32.0</ele><time>2026-04-24T14:57:33.385Z</time></trkpt><trkpt lat="40.9476117" lon="14.3022133"><ele>32.0</ele><time>2026-04-24T14:57:35.387Z</time></trkpt><trkpt lat="40.9477217" lon="14.3022167"><ele>32.0</ele><time>2026-04-24T14:57:37.385Z</time></trkpt><trkpt lat="40.9478367" lon="14.302225"><ele>32.0</ele><time>2026-04-24T14:57:39.385Z</time></trkpt><trkpt lat="40.947935" lon="14.3022417"><ele>32.0</ele><time>2026-04-24T14:57:41.385Z</time></trkpt><trkpt lat="40.948025" lon="14.3022767"><ele>32.0</ele><time>2026-04-24T14:57:43.387Z</time></trkpt><trkpt lat="40.9481183" lon="14.3023017"><ele>31.999999999999996</ele><time>2026-04-24T14:57:45.386Z</time></trkpt><trkpt lat="40.9482017" lon="14.3023083"><ele>32.0</ele><time>2026-04-24T14:57:47.384Z</time></trkpt><trkpt lat="40.94829" lon="14.3023017"><ele>32.0</ele><time>2026-04-24T14:57:50.384Z</time></trkpt><trkpt lat="40.948375" lon="14.30231"><ele>32.0</ele><time>2026-04-24T14:57:53.387Z</time></trkpt><trkpt lat="40.9484483" lon="14.3023183"><ele>31.999999999999996</ele><time>2026-04-24T14:57:55.386Z</time></trkpt><trkpt lat="40.9485333" lon="14.302335"><ele>32.0</ele><time>2026-04-24T14:57:57.386Z</time></trkpt><trkpt lat="40.9486033" lon="14.30235"><ele>31.833333333333332</ele><time>2026-04-24T14:57:59.385Z</time></trkpt><trkpt lat="40.9486833" lon="14.3023617"><ele>31.666666666666664</ele><time>2026-04-24T14:58:03.384Z</time></trkpt><trkpt lat="40.9487717" lon="14.3023867"><ele>31.5</ele><time>2026-04-24T14:58:06.382Z</time></trkpt><trkpt lat="40.9488417" lon="14.3023917"><ele>31.333333333333336</ele><time>2026-04-24T14:58:08.386Z</time></trkpt><trkpt lat="40.948925" lon="14.3024167"><ele>31.166666666666668</ele><time>2026-04-24T14:58:10.387Z</time></trkpt><trkpt lat="40.9490033" lon="14.302445"><ele>31.0</ele><time>2026-04-24T14:58:12.383Z</time></trkpt><trkpt lat="40.9490767" lon="14.3024917"><ele>31.000000000000004</ele><time>2026-04-24T14:58:14.383Z</time></trkpt><trkpt lat="40.94915" lon="14.30252"><ele>31.0</ele><time>2026-04-24T14:58:16.387Z</time></trkpt><trkpt lat="40.949235" lon="14.30254"><ele>31.0</ele><time>2026-04-24T14:58:18.383Z</time></trkpt><trkpt lat="40.9493117" lon="14.30256"><ele>31.0</ele><time>2026-04-24T14:58:20.383Z</time></trkpt><trkpt lat="40.9493767" lon="14.3025767"><ele>31.000000000000004</ele><time>2026-04-24T14:58:22.384Z</time></trkpt><trkpt lat="40.949455" lon="14.302585"><ele>31.0</ele><time>2026-04-24T14:58:25.383Z</time></trkpt><trkpt lat="40.9495317" lon="14.3025883"><ele>31.4</ele><time>2026-04-24T14:58:29.385Z</time></trkpt><trkpt lat="40.94963" lon="14.30261"><ele>31.8</ele><time>2026-04-24T14:58:32.385Z</time></trkpt><trkpt lat="40.949715" lon="14.30263"><ele>32.199999999999996</ele><time>2026-04-24T14:58:34.387Z</time></trkpt><trkpt lat="40.9498017" lon="14.30265"><ele>32.6</ele><time>2026-04-24T14:58:36.387Z</time></trkpt><trkpt lat="40.9498933" lon="14.30267"><ele>33.0</ele><time>2026-04-24T14:58:38.384Z</time></trkpt><trkpt lat="40.949985" lon="14.3027033"><ele>32.8</ele><time>2026-04-24T14:58:40.384Z</time></trkpt><trkpt lat="40.95008" lon="14.30273"><ele>32.599999999999994</ele><time>2026-04-24T14:58:42.385Z</time></trkpt><trkpt lat="40.9501833" lon="14.3027533"><ele>32.400000000000006</ele><time>2026-04-24T14:58:44.386Z</time></trkpt><trkpt lat="40.9502867" lon="14.30278"><ele>32.2</ele><time>2026-04-24T14:58:46.385Z</time></trkpt><trkpt lat="40.95039" lon="14.302805"><ele>32.0</ele><time>2026-04-24T14:58:48.386Z</time></trkpt><trkpt lat="40.9505" lon="14.302825"><ele>32.0</ele><time>2026-04-24T14:58:50.387Z</time></trkpt><trkpt lat="40.9506133" lon="14.3028433"><ele>32.0</ele><time>2026-04-24T14:58:52.385Z</time></trkpt><trkpt lat="40.950725" lon="14.3028667"><ele>32.0</ele><time>2026-04-24T14:58:54.385Z</time></trkpt><trkpt lat="40.950835" lon="14.302895"><ele>32.0</ele><time>2026-04-24T14:58:56.385Z</time></trkpt><trkpt lat="40.9509417" lon="14.3029267"><ele>32.0</ele><time>2026-04-24T14:58:58.385Z</time></trkpt><trkpt lat="40.95103" lon="14.302945"><ele>31.666666666666664</ele><time>2026-04-24T14:59:00.387Z</time></trkpt><trkpt lat="40.9510983" lon="14.3029683"><ele>31.333333333333332</ele><time>2026-04-24T14:59:02.384Z</time></trkpt><trkpt lat="40.9511717" lon="14.30298"><ele>31.0</ele><time>2026-04-24T14:59:04.383Z</time></trkpt><trkpt lat="40.9512533" lon="14.3029983"><ele>30.666666666666664</ele><time>2026-04-24T14:59:06.384Z</time></trkpt><trkpt lat="40.9513367" lon="14.3030183"><ele>30.333333333333332</ele><time>2026-04-24T14:59:08.385Z</time></trkpt><trkpt lat="40.9514233" lon="14.3030383"><ele>30.0</ele><time>2026-04-24T14:59:10.385Z</time></trkpt><trkpt lat="40.9515133" lon="14.3030883"><ele>30.0</ele><time>2026-04-24T14:59:12.386Z</time></trkpt><trkpt lat="40.9516133" lon="14.3031167"><ele>30.0</ele><time>2026-04-24T14:59:14.384Z</time></trkpt><trkpt lat="40.95172" lon="14.3031383"><ele>30.0</ele><time>2026-04-24T14:59:16.385Z</time></trkpt><trkpt lat="40.95181" lon="14.303155"><ele>30.0</ele><time>2026-04-24T14:59:18.385Z</time></trkpt><trkpt lat="40.9519067" lon="14.3031767"><ele>30.0</ele><time>2026-04-24T14:59:20.384Z</time></trkpt><trkpt lat="40.9520067" lon="14.3032033"><ele>30.0</ele><time>2026-04-24T14:59:22.385Z</time></trkpt><trkpt lat="40.952115" lon="14.3032433"><ele>30.0</ele><time>2026-04-24T14:59:24.384Z</time></trkpt><trkpt lat="40.9522333" lon="14.3032783"><ele>30.0</ele><time>2026-04-24T14:59:26.385Z</time></trkpt><trkpt lat="40.952345" lon="14.3033067"><ele>30.0</ele><time>2026-04-24T14:59:28.384Z</time></trkpt><trkpt lat="40.9524533" lon="14.3033383"><ele>29.666666666666668</ele><time>2026-04-24T14:59:30.384Z</time></trkpt><trkpt lat="40.952555" lon="14.3033717"><ele>29.333333333333336</ele><time>2026-04-24T14:59:32.385Z</time></trkpt><trkpt lat="40.9526217" lon="14.30339"><ele>29.0</ele><time>2026-04-24T14:59:34.383Z</time></trkpt><trkpt lat="40.9526867" lon="14.3033717"><ele>28.666666666666668</ele><time>2026-04-24T14:59:38.383Z</time></trkpt><trkpt lat="40.952765" lon="14.3033967"><ele>28.333333333333336</ele><time>2026-04-24T14:59:41.385Z</time></trkpt><trkpt lat="40.9528433" lon="14.3034367"><ele>28.0</ele><time>2026-04-24T14:59:43.384Z</time></trkpt><trkpt lat="40.9529283" lon="14.3034767"><ele>28.0</ele><time>2026-04-24T14:59:45.385Z</time></trkpt><trkpt lat="40.9530133" lon="14.3035017"><ele>27.999999999999996</ele><time>2026-04-24T14:59:47.385Z</time></trkpt><trkpt lat="40.953095" lon="14.3035217"><ele>27.999999999999996</ele><time>2026-04-24T14:59:49.384Z</time></trkpt><trkpt lat="40.95319" lon="14.30356"><ele>28.0</ele><time>2026-04-24T14:59:51.384Z</time></trkpt><trkpt lat="40.9532883" lon="14.303605"><ele>28.0</ele><time>2026-04-24T14:59:53.384Z</time></trkpt><trkpt lat="40.9533917" lon="14.3036483"><ele>28.599999999999998</ele><time>2026-04-24T14:59:55.384Z</time></trkpt><trkpt lat="40.953495" lon="14.3036917"><ele>29.199999999999996</ele><time>2026-04-24T14:59:57.385Z</time></trkpt><trkpt lat="40.9535983" lon="14.3037433"><ele>29.8</ele><time>2026-04-24T14:59:59.384Z</time></trkpt><trkpt lat="40.9537033" lon="14.30379"><ele>30.4</ele><time>2026-04-24T15:00:01.383Z</time></trkpt><trkpt lat="40.9538133" lon="14.303835"><ele>31.0</ele><time>2026-04-24T15:00:03.383Z</time></trkpt><trkpt lat="40.9539267" lon="14.3038833"><ele>30.25</ele><time>2026-04-24T15:00:05.384Z</time></trkpt><trkpt lat="40.9540467" lon="14.3039383"><ele>29.5</ele><time>2026-04-24T15:00:07.383Z</time></trkpt><trkpt lat="40.9541633" lon="14.3039767"><ele>28.75</ele><time>2026-04-24T15:00:09.384Z</time></trkpt><trkpt lat="40.95428" lon="14.304005"><ele>28.0</ele><time>2026-04-24T15:00:11.383Z</time></trkpt><trkpt lat="40.9543983" lon="14.3040383"><ele>28.0</ele><time>2026-04-24T15:00:13.384Z</time></trkpt><trkpt lat="40.9545033" lon="14.3040533"><ele>27.999999999999996</ele><time>2026-04-24T15:00:15.383Z</time></trkpt><trkpt lat="40.9546" lon="14.30407"><ele>27.999999999999996</ele><time>2026-04-24T15:00:17.386Z</time></trkpt><trkpt lat="40.9547" lon="14.3041117"><ele>28.0</ele><time>2026-04-24T15:00:19.387Z</time></trkpt><trkpt lat="40.9548083" lon="14.304155"><ele>28.0</ele><time>2026-04-24T15:00:21.384Z</time></trkpt><trkpt lat="40.9549167" lon="14.3042017"><ele>28.0</ele><time>2026-04-24T15:00:23.385Z</time></trkpt><trkpt lat="40.95503" lon="14.3042383"><ele>27.999999999999996</ele><time>2026-04-24T15:00:25.384Z</time></trkpt><trkpt lat="40.95514" lon="14.3042733"><ele>27.999999999999996</ele><time>2026-04-24T15:00:27.385Z</time></trkpt><trkpt lat="40.9552433" lon="14.3042933"><ele>28.0</ele><time>2026-04-24T15:00:29.385Z</time></trkpt><trkpt lat="40.9553383" lon="14.3043167"><ele>28.0</ele><time>2026-04-24T15:00:31.384Z</time></trkpt><trkpt lat="40.9554267" lon="14.3043533"><ele>28.000000000000004</ele><time>2026-04-24T15:00:33.386Z</time></trkpt><trkpt lat="40.9554917" lon="14.3043933"><ele>28.0</ele><time>2026-04-24T15:00:36.385Z</time></trkpt><trkpt lat="40.955565" lon="14.30444"><ele>28.0</ele><time>2026-04-24T15:00:40.385Z</time></trkpt><trkpt lat="40.9556333" lon="14.304465"><ele>28.0</ele><time>2026-04-24T15:00:42.385Z</time></trkpt><trkpt lat="40.955705" lon="14.3045"><ele>28.000000000000004</ele><time>2026-04-24T15:00:44.385Z</time></trkpt><trkpt lat="40.955785" lon="14.304525"><ele>28.0</ele><time>2026-04-24T15:00:46.385Z</time></trkpt><trkpt lat="40.9558717" lon="14.30455"><ele>28.2</ele><time>2026-04-24T15:00:48.387Z</time></trkpt><trkpt lat="40.95596" lon="14.304575"><ele>28.4</ele><time>2026-04-24T15:00:50.388Z</time></trkpt><trkpt lat="40.9560533" lon="14.3046067"><ele>28.599999999999998</ele><time>2026-04-24T15:00:52.386Z</time></trkpt><trkpt lat="40.956145" lon="14.30464"><ele>28.799999999999997</ele><time>2026-04-24T15:00:54.383Z</time></trkpt><trkpt lat="40.95624" lon="14.30467"><ele>29.0</ele><time>2026-04-24T15:00:56.385Z</time></trkpt><trkpt lat="40.9563317" lon="14.3046933"><ele>28.999999999999996</ele><time>2026-04-24T15:00:58.384Z</time></trkpt><trkpt lat="40.9564233" lon="14.30472"><ele>29.0</ele><time>2026-04-24T15:01:00.385Z</time></trkpt><trkpt lat="40.9565033" lon="14.30474"><ele>29.0</ele><time>2026-04-24T15:01:02.386Z</time></trkpt><trkpt lat="40.9565717" lon="14.304755"><ele>29.0</ele><time>2026-04-24T15:01:04.386Z</time></trkpt><trkpt lat="40.9566567" lon="14.30479"><ele>28.999999999999996</ele><time>2026-04-24T15:01:07.384Z</time></trkpt><trkpt lat="40.9567217" lon="14.3048517"><ele>29.0</ele><time>2026-04-24T15:01:09.385Z</time></trkpt><trkpt lat="40.956795" lon="14.3049167"><ele>29.0</ele><time>2026-04-24T15:01:11.384Z</time></trkpt><trkpt lat="40.95688" lon="14.3049733"><ele>29.0</ele><time>2026-04-24T15:01:13.386Z</time></trkpt><trkpt lat="40.9569633" lon="14.305035"><ele>29.0</ele><time>2026-04-24T15:01:15.386Z</time></trkpt><trkpt lat="40.9570417" lon="14.3051083"><ele>29.0</ele><time>2026-04-24T15:01:17.385Z</time></trkpt><trkpt lat="40.9571233" lon="14.305195"><ele>29.0</ele><time>2026-04-24T15:01:19.387Z</time></trkpt><trkpt lat="40.9572" lon="14.3052717"><ele>29.0</ele><time>2026-04-24T15:01:21.383Z</time></trkpt><trkpt lat="40.9572783" lon="14.3053533"><ele>29.0</ele><time>2026-04-24T15:01:23.385Z</time></trkpt><trkpt lat="40.95736" lon="14.3054367"><ele>29.0</ele><time>2026-04-24T15:01:25.385Z</time></trkpt><trkpt lat="40.9574417" lon="14.30552"><ele>29.0</ele><time>2026-04-24T15:01:27.384Z</time></trkpt><trkpt lat="40.9575267" lon="14.305595"><ele>29.0</ele><time>2026-04-24T15:01:29.384Z</time></trkpt><trkpt lat="40.957615" lon="14.3056883"><ele>29.0</ele><time>2026-04-24T15:01:31.385Z</time></trkpt><trkpt lat="40.9577033" lon="14.3057883"><ele>29.0</ele><time>2026-04-24T15:01:33.384Z</time></trkpt><trkpt lat="40.957795" lon="14.305885"><ele>29.0</ele><time>2026-04-24T15:01:35.384Z</time></trkpt><trkpt lat="40.957885" lon="14.3059817"><ele>29.0</ele><time>2026-04-24T15:01:37.384Z</time></trkpt><trkpt lat="40.9579683" lon="14.306075"><ele>29.0</ele><time>2026-04-24T15:01:39.383Z</time></trkpt><trkpt lat="40.9580533" lon="14.30615"><ele>29.0</ele><time>2026-04-24T15:01:41.384Z</time></trkpt><trkpt lat="40.9581267" lon="14.3062367"><ele>29.0</ele><time>2026-04-24T15:01:43.385Z</time></trkpt><trkpt lat="40.9582" lon="14.3063283"><ele>29.0</ele><time>2026-04-24T15:01:45.382Z</time></trkpt><trkpt lat="40.9582767" lon="14.30643"><ele>29.0</ele><time>2026-04-24T15:01:47.383Z</time></trkpt><trkpt lat="40.9583683" lon="14.306525"><ele>28.75</ele><time>2026-04-24T15:01:49.384Z</time></trkpt><trkpt lat="40.958475" lon="14.3065917"><ele>28.5</ele><time>2026-04-24T15:01:51.384Z</time></trkpt><trkpt lat="40.958585" lon="14.3066333"><ele>28.25</ele><time>2026-04-24T15:01:53.383Z</time></trkpt><trkpt lat="40.9586933" lon="14.3066617"><ele>28.0</ele><time>2026-04-24T15:01:55.384Z</time></trkpt><trkpt lat="40.9588033" lon="14.3066917"><ele>28.0</ele><time>2026-04-24T15:01:57.385Z</time></trkpt><trkpt lat="40.9589067" lon="14.3067317"><ele>27.999999999999996</ele><time>2026-04-24T15:01:59.385Z</time></trkpt><trkpt lat="40.9590033" lon="14.30676"><ele>27.999999999999996</ele><time>2026-04-24T15:02:01.384Z</time></trkpt><trkpt lat="40.959105" lon="14.306775"><ele>28.0</ele><time>2026-04-24T15:02:03.385Z</time></trkpt><trkpt lat="40.9592033" lon="14.3067983"><ele>28.0</ele><time>2026-04-24T15:02:05.386Z</time></trkpt><trkpt lat="40.9593067" lon="14.3068283"><ele>27.2</ele><time>2026-04-24T15:02:07.385Z</time></trkpt><trkpt lat="40.959405" lon="14.3068433"><ele>26.4</ele><time>2026-04-24T15:02:09.384Z</time></trkpt><trkpt lat="40.9595" lon="14.3068717"><ele>25.599999999999998</ele><time>2026-04-24T15:02:11.383Z</time></trkpt><trkpt lat="40.95959" lon="14.3068983"><ele>24.799999999999997</ele><time>2026-04-24T15:02:13.385Z</time></trkpt><trkpt lat="40.959685" lon="14.3069267"><ele>24.0</ele><time>2026-04-24T15:02:15.383Z</time></trkpt><trkpt lat="40.9597767" lon="14.30695"><ele>24.0</ele><time>2026-04-24T15:02:17.386Z</time></trkpt><trkpt lat="40.95987" lon="14.3069733"><ele>24.0</ele><time>2026-04-24T15:02:19.384Z</time></trkpt><trkpt lat="40.95997" lon="14.3069933"><ele>24.0</ele><time>2026-04-24T15:02:21.383Z</time></trkpt><trkpt lat="40.9600667" lon="14.3070133"><ele>24.0</ele><time>2026-04-24T15:02:23.385Z</time></trkpt><trkpt lat="40.960165" lon="14.3070483"><ele>24.0</ele><time>2026-04-24T15:02:25.384Z</time></trkpt><trkpt lat="40.96026" lon="14.3070717"><ele>24.333333333333332</ele><time>2026-04-24T15:02:27.386Z</time></trkpt><trkpt lat="40.9603483" lon="14.3070767"><ele>24.666666666666664</ele><time>2026-04-24T15:02:29.384Z</time></trkpt><trkpt lat="40.9604317" lon="14.3070883"><ele>25.0</ele><time>2026-04-24T15:02:31.384Z</time></trkpt><trkpt lat="40.96051" lon="14.3071083"><ele>25.333333333333332</ele><time>2026-04-24T15:02:33.383Z</time></trkpt><trkpt lat="40.9605833" lon="14.3071483"><ele>25.666666666666664</ele><time>2026-04-24T15:02:35.383Z</time></trkpt><trkpt lat="40.96065" lon="14.3072033"><ele>26.0</ele><time>2026-04-24T15:02:37.384Z</time></trkpt><trkpt lat="40.9607167" lon="14.30724"><ele>25.999999999999996</ele><time>2026-04-24T15:02:39.385Z</time></trkpt><trkpt lat="40.96078" lon="14.3072533"><ele>26.0</ele><time>2026-04-24T15:02:42.387Z</time></trkpt><trkpt lat="40.96085" lon="14.3072533"><ele>26.0</ele><time>2026-04-24T15:02:44.382Z</time></trkpt><trkpt lat="40.9609333" lon="14.3072667"><ele>26.0</ele><time>2026-04-24T15:02:46.384Z</time></trkpt><trkpt lat="40.9610283" lon="14.3072817"><ele>25.999999999999996</ele><time>2026-04-24T15:02:48.385Z</time></trkpt><trkpt lat="40.961135" lon="14.3072917"><ele>26.0</ele><time>2026-04-24T15:02:50.384Z</time></trkpt><trkpt lat="40.96124" lon="14.307305"><ele>26.200000000000003</ele><time>2026-04-24T15:02:52.384Z</time></trkpt><trkpt lat="40.96135" lon="14.30733"><ele>26.400000000000002</ele><time>2026-04-24T15:02:54.384Z</time></trkpt><trkpt lat="40.9614583" lon="14.30735"><ele>26.6</ele><time>2026-04-24T15:02:56.384Z</time></trkpt><trkpt lat="40.96156" lon="14.3073583"><ele>26.8</ele><time>2026-04-24T15:02:58.383Z</time></trkpt><trkpt lat="40.961655" lon="14.3073717"><ele>27.0</ele><time>2026-04-24T15:03:00.385Z</time></trkpt><trkpt lat="40.9617433" lon="14.3073767"><ele>27.0</ele><time>2026-04-24T15:03:02.383Z</time></trkpt><trkpt lat="40.9618333" lon="14.3073767"><ele>27.000000000000004</ele><time>2026-04-24T15:03:04.384Z</time></trkpt><trkpt lat="40.961925" lon="14.30737"><ele>27.000000000000004</ele><time>2026-04-24T15:03:06.384Z</time></trkpt><trkpt lat="40.9620183" lon="14.3073617"><ele>27.0</ele><time>2026-04-24T15:03:08.383Z</time></trkpt><trkpt lat="40.9621217" lon="14.3073667"><ele>27.0</ele><time>2026-04-24T15:03:10.385Z</time></trkpt><trkpt lat="40.9622183" lon="14.3073667"><ele>27.0</ele><time>2026-04-24T15:03:12.387Z</time></trkpt><trkpt lat="40.96232" lon="14.3073583"><ele>27.000000000000004</ele><time>2026-04-24T15:03:14.384Z</time></trkpt><trkpt lat="40.9624183" lon="14.3073467"><ele>27.000000000000004</ele><time>2026-04-24T15:03:16.386Z</time></trkpt><trkpt lat="40.96252" lon="14.307325"><ele>27.0</ele><time>2026-04-24T15:03:18.384Z</time></trkpt><trkpt lat="40.962625" lon="14.3073"><ele>27.0</ele><time>2026-04-24T15:03:20.384Z</time></trkpt><trkpt lat="40.9627283" lon="14.30728"><ele>26.8</ele><time>2026-04-24T15:03:22.384Z</time></trkpt><trkpt lat="40.9628267" lon="14.3072683"><ele>26.6</ele><time>2026-04-24T15:03:24.385Z</time></trkpt><trkpt lat="40.962925" lon="14.307265"><ele>26.400000000000002</ele><time>2026-04-24T15:03:26.384Z</time></trkpt><trkpt lat="40.9630233" lon="14.3072583"><ele>26.200000000000003</ele><time>2026-04-24T15:03:28.384Z</time></trkpt><trkpt lat="40.9631233" lon="14.3072533"><ele>26.0</ele><time>2026-04-24T15:03:30.386Z</time></trkpt><trkpt lat="40.9632217" lon="14.3072383"><ele>25.8</ele><time>2026-04-24T15:03:32.386Z</time></trkpt><trkpt lat="40.9633217" lon="14.3072283"><ele>25.6</ele><time>2026-04-24T15:03:34.385Z</time></trkpt><trkpt lat="40.9634233" lon="14.307225"><ele>25.4</ele><time>2026-04-24T15:03:36.385Z</time></trkpt><trkpt lat="40.9635233" lon="14.3072233"><ele>25.2</ele><time>2026-04-24T15:03:38.385Z</time></trkpt><trkpt lat="40.9636233" lon="14.3072183"><ele>25.0</ele><time>2026-04-24T15:03:40.384Z</time></trkpt><trkpt lat="40.96372" lon="14.3072083"><ele>25.0</ele><time>2026-04-24T15:03:42.384Z</time></trkpt><trkpt lat="40.9638167" lon="14.3071967"><ele>25.0</ele><time>2026-04-24T15:03:44.386Z</time></trkpt><trkpt lat="40.9639133" lon="14.3071867"><ele>25.0</ele><time>2026-04-24T15:03:46.385Z</time></trkpt><trkpt lat="40.9640117" lon="14.3071633"><ele>25.0</ele><time>2026-04-24T15:03:48.384Z</time></trkpt><trkpt lat="40.964105" lon="14.3071433"><ele>25.0</ele><time>2026-04-24T15:03:50.385Z</time></trkpt><trkpt lat="40.9641983" lon="14.3071367"><ele>25.0</ele><time>2026-04-24T15:03:52.384Z</time></trkpt><trkpt lat="40.9642967" lon="14.307125"><ele>25.0</ele><time>2026-04-24T15:03:54.384Z</time></trkpt><trkpt lat="40.9643933" lon="14.30712"><ele>25.0</ele><time>2026-04-24T15:03:56.384Z</time></trkpt><trkpt lat="40.9644883" lon="14.3071183"><ele>25.0</ele><time>2026-04-24T15:03:58.384Z</time></trkpt><trkpt lat="40.96458" lon="14.3071133"><ele>25.0</ele><time>2026-04-24T15:04:00.383Z</time></trkpt><trkpt lat="40.96467" lon="14.3070983"><ele>25.0</ele><time>2026-04-24T15:04:02.387Z</time></trkpt><trkpt lat="40.9647583" lon="14.307085"><ele>25.0</ele><time>2026-04-24T15:04:04.386Z</time></trkpt><trkpt lat="40.96485" lon="14.3070683"><ele>25.0</ele><time>2026-04-24T15:04:06.385Z</time></trkpt><trkpt lat="40.9649417" lon="14.3070483"><ele>25.0</ele><time>2026-04-24T15:04:08.383Z</time></trkpt><trkpt lat="40.9650367" lon="14.3070317"><ele>25.0</ele><time>2026-04-24T15:04:10.384Z</time></trkpt><trkpt lat="40.9651267" lon="14.3070133"><ele>25.0</ele><time>2026-04-24T15:04:12.386Z</time></trkpt><trkpt lat="40.96522" lon="14.306985"><ele>25.0</ele><time>2026-04-24T15:04:14.384Z</time></trkpt><trkpt lat="40.9653183" lon="14.3069533"><ele>25.0</ele><time>2026-04-24T15:04:16.382Z</time></trkpt><trkpt lat="40.9654167" lon="14.3069333"><ele>25.0</ele><time>2026-04-24T15:04:18.385Z</time></trkpt><trkpt lat="40.9655133" lon="14.3069133"><ele>25.0</ele><time>2026-04-24T15:04:20.385Z</time></trkpt><trkpt lat="40.96561" lon="14.306895"><ele>25.0</ele><time>2026-04-24T15:04:22.384Z</time></trkpt><trkpt lat="40.9657083" lon="14.306905"><ele>25.0</ele><time>2026-04-24T15:04:24.385Z</time></trkpt><trkpt lat="40.965805" lon="14.3069233"><ele>25.0</ele><time>2026-04-24T15:04:26.383Z</time></trkpt><trkpt lat="40.9659033" lon="14.306955"><ele>25.0</ele><time>2026-04-24T15:04:28.384Z</time></trkpt><trkpt lat="40.966" lon="14.3069867"><ele>25.0</ele><time>2026-04-24T15:04:30.385Z</time></trkpt><trkpt lat="40.96609" lon="14.3070267"><ele>25.0</ele><time>2026-04-24T15:04:32.385Z</time></trkpt><trkpt lat="40.96618" lon="14.3070617"><ele>25.0</ele><time>2026-04-24T15:04:34.385Z</time></trkpt><trkpt lat="40.9662683" lon="14.3071033"><ele>25.0</ele><time>2026-04-24T15:04:36.384Z</time></trkpt><trkpt lat="40.96636" lon="14.30715"><ele>25.0</ele><time>2026-04-24T15:04:38.383Z</time></trkpt><trkpt lat="40.966455" lon="14.3071983"><ele>25.0</ele><time>2026-04-24T15:04:40.385Z</time></trkpt><trkpt lat="40.9665517" lon="14.30725"><ele>25.0</ele><time>2026-04-24T15:04:42.385Z</time></trkpt><trkpt lat="40.966645" lon="14.3072983"><ele>25.0</ele><time>2026-04-24T15:04:44.385Z</time></trkpt><trkpt lat="40.9667417" lon="14.3073483"><ele>25.0</ele><time>2026-04-24T15:04:46.385Z</time></trkpt><trkpt lat="40.96684" lon="14.3073967"><ele>25.0</ele><time>2026-04-24T15:04:48.384Z</time></trkpt><trkpt lat="40.9669383" lon="14.3074467"><ele>25.0</ele><time>2026-04-24T15:04:50.383Z</time></trkpt><trkpt lat="40.9670383" lon="14.3074883"><ele>24.8</ele><time>2026-04-24T15:04:52.384Z</time></trkpt><trkpt lat="40.9671367" lon="14.3075383"><ele>24.6</ele><time>2026-04-24T15:04:54.385Z</time></trkpt><trkpt lat="40.967235" lon="14.3075817"><ele>24.4</ele><time>2026-04-24T15:04:56.383Z</time></trkpt><trkpt lat="40.96733" lon="14.3076283"><ele>24.2</ele><time>2026-04-24T15:04:58.385Z</time></trkpt><trkpt lat="40.9674283" lon="14.3076783"><ele>24.0</ele><time>2026-04-24T15:05:00.386Z</time></trkpt><trkpt lat="40.96753" lon="14.307725"><ele>24.5</ele><time>2026-04-24T15:05:02.387Z</time></trkpt><trkpt lat="40.9676383" lon="14.307775"><ele>25.0</ele><time>2026-04-24T15:05:04.385Z</time></trkpt><trkpt lat="40.9677433" lon="14.3078283"><ele>25.5</ele><time>2026-04-24T15:05:06.388Z</time></trkpt><trkpt lat="40.96785" lon="14.3078783"><ele>26.0</ele><time>2026-04-24T15:05:08.387Z</time></trkpt><trkpt lat="40.9679567" lon="14.307925"><ele>26.0</ele><time>2026-04-24T15:05:10.384Z</time></trkpt><trkpt lat="40.968065" lon="14.307975"><ele>26.0</ele><time>2026-04-24T15:05:12.386Z</time></trkpt><trkpt lat="40.9681783" lon="14.30802"><ele>26.0</ele><time>2026-04-24T15:05:14.385Z</time></trkpt><trkpt lat="40.9682933" lon="14.30806"><ele>26.0</ele><time>2026-04-24T15:05:16.384Z</time></trkpt><trkpt lat="40.9684117" lon="14.3081033"><ele>25.8</ele><time>2026-04-24T15:05:18.385Z</time></trkpt><trkpt lat="40.9685317" lon="14.308145"><ele>25.6</ele><time>2026-04-24T15:05:20.384Z</time></trkpt><trkpt lat="40.9686517" lon="14.3081783"><ele>25.4</ele><time>2026-04-24T15:05:22.384Z</time></trkpt><trkpt lat="40.968775" lon="14.3082067"><ele>25.2</ele><time>2026-04-24T15:05:24.384Z</time></trkpt><trkpt lat="40.9688383" lon="14.30822"><ele>25.0</ele><time>2026-04-24T15:05:25.383Z</time></trkpt><trkpt lat="40.9689667" lon="14.30824"><ele>25.0</ele><time>2026-04-24T15:05:27.385Z</time></trkpt><trkpt lat="40.96903" lon="14.3082533"><ele>25.0</ele><time>2026-04-24T15:05:28.385Z</time></trkpt><trkpt lat="40.9691533" lon="14.3082617"><ele>25.0</ele><time>2026-04-24T15:05:30.386Z</time></trkpt><trkpt lat="40.969275" lon="14.30826"><ele>25.0</ele><time>2026-04-24T15:05:32.382Z</time></trkpt><trkpt lat="40.9693967" lon="14.3082733"><ele>25.0</ele><time>2026-04-24T15:05:34.385Z</time></trkpt><trkpt lat="40.9695217" lon="14.3082933"><ele>24.8</ele><time>2026-04-24T15:05:36.386Z</time></trkpt><trkpt lat="40.969585" lon="14.3083"><ele>24.6</ele><time>2026-04-24T15:05:37.386Z</time></trkpt><trkpt lat="40.96971" lon="14.308315"><ele>24.4</ele><time>2026-04-24T15:05:39.384Z</time></trkpt><trkpt lat="40.9698317" lon="14.30831"><ele>24.2</ele><time>2026-04-24T15:05:41.384Z</time></trkpt><trkpt lat="40.9699533" lon="14.3083133"><ele>24.0</ele><time>2026-04-24T15:05:43.385Z</time></trkpt><trkpt lat="40.9700733" lon="14.3083267"><ele>23.75</ele><time>2026-04-24T15:05:45.387Z</time></trkpt><trkpt lat="40.970195" lon="14.3083367"><ele>23.5</ele><time>2026-04-24T15:05:47.384Z</time></trkpt><trkpt lat="40.9703183" lon="14.308345"><ele>23.25</ele><time>2026-04-24T15:05:49.384Z</time></trkpt><trkpt lat="40.9704417" lon="14.308365"><ele>23.0</ele><time>2026-04-24T15:05:51.384Z</time></trkpt><trkpt lat="40.9705617" lon="14.3083933"><ele>23.0</ele><time>2026-04-24T15:05:53.383Z</time></trkpt><trkpt lat="40.9706217" lon="14.30842"><ele>23.0</ele><time>2026-04-24T15:05:54.385Z</time></trkpt><trkpt lat="40.9706833" lon="14.3084517"><ele>23.0</ele><time>2026-04-24T15:05:55.385Z</time></trkpt><trkpt lat="40.9707433" lon="14.308485"><ele>23.0</ele><time>2026-04-24T15:05:56.387Z</time></trkpt><trkpt lat="40.970805" lon="14.3085183"><ele>23.0</ele><time>2026-04-24T15:05:57.383Z</time></trkpt><trkpt lat="40.9708667" lon="14.3085567"><ele>23.0</ele><time>2026-04-24T15:05:58.383Z</time></trkpt><trkpt lat="40.9709267" lon="14.3085933"><ele>23.0</ele><time>2026-04-24T15:05:59.383Z</time></trkpt><trkpt lat="40.9709883" lon="14.30863"><ele>23.142857142857142</ele><time>2026-04-24T15:06:00.384Z</time></trkpt><trkpt lat="40.9710483" lon="14.3086683"><ele>23.285714285714285</ele><time>2026-04-24T15:06:01.384Z</time></trkpt><trkpt lat="40.9711083" lon="14.3087067"><ele>23.428571428571427</ele><time>2026-04-24T15:06:02.385Z</time></trkpt><trkpt lat="40.97117" lon="14.308745"><ele>23.57142857142857</ele><time>2026-04-24T15:06:03.383Z</time></trkpt><trkpt lat="40.97123" lon="14.308785"><ele>23.714285714285715</ele><time>2026-04-24T15:06:04.383Z</time></trkpt><trkpt lat="40.97129" lon="14.3088233"><ele>23.857142857142854</ele><time>2026-04-24T15:06:05.383Z</time></trkpt><trkpt lat="40.9713517" lon="14.3088633"><ele>24.0</ele><time>2026-04-24T15:06:06.382Z</time></trkpt><trkpt lat="40.971415" lon="14.3089083"><ele>24.142857142857142</ele><time>2026-04-24T15:06:07.383Z</time></trkpt><trkpt lat="40.97148" lon="14.30895"><ele>24.285714285714285</ele><time>2026-04-24T15:06:08.382Z</time></trkpt><trkpt lat="40.9715433" lon="14.30899"><ele>24.42857142857143</ele><time>2026-04-24T15:06:09.384Z</time></trkpt><trkpt lat="40.971605" lon="14.30903"><ele>24.57142857142857</ele><time>2026-04-24T15:06:10.385Z</time></trkpt><trkpt lat="40.9716683" lon="14.30907"><ele>24.714285714285715</ele><time>2026-04-24T15:06:11.385Z</time></trkpt><trkpt lat="40.97173" lon="14.30911"><ele>24.857142857142858</ele><time>2026-04-24T15:06:12.385Z</time></trkpt><trkpt lat="40.971795" lon="14.3091467"><ele>25.0</ele><time>2026-04-24T15:06:13.384Z</time></trkpt><trkpt lat="40.97186" lon="14.309185"><ele>24.714285714285715</ele><time>2026-04-24T15:06:14.383Z</time></trkpt><trkpt lat="40.971925" lon="14.3092183"><ele>24.42857142857143</ele><time>2026-04-24T15:06:15.385Z</time></trkpt><trkpt lat="40.9719917" lon="14.30925"><ele>24.142857142857146</ele><time>2026-04-24T15:06:16.383Z</time></trkpt><trkpt lat="40.97206" lon="14.3092767"><ele>23.857142857142858</ele><time>2026-04-24T15:06:17.386Z</time></trkpt><trkpt lat="40.97213" lon="14.3093017"><ele>23.57142857142857</ele><time>2026-04-24T15:06:18.384Z</time></trkpt><trkpt lat="40.9722017" lon="14.3093233"><ele>23.28571428571429</ele><time>2026-04-24T15:06:19.387Z</time></trkpt><trkpt lat="40.9722717" lon="14.309345"><ele>23.0</ele><time>2026-04-24T15:06:20.387Z</time></trkpt><trkpt lat="40.972345" lon="14.3093683"><ele>23.0</ele><time>2026-04-24T15:06:21.387Z</time></trkpt><trkpt lat="40.972415" lon="14.30939"><ele>23.0</ele><time>2026-04-24T15:06:22.386Z</time></trkpt><trkpt lat="40.97248" lon="14.3094133"><ele>23.0</ele><time>2026-04-24T15:06:23.384Z</time></trkpt><trkpt lat="40.972545" lon="14.3094383"><ele>23.0</ele><time>2026-04-24T15:06:24.388Z</time></trkpt><trkpt lat="40.9726083" lon="14.309465"><ele>23.0</ele><time>2026-04-24T15:06:25.386Z</time></trkpt><trkpt lat="40.9726733" lon="14.3094883"><ele>23.0</ele><time>2026-04-24T15:06:26.387Z</time></trkpt><trkpt lat="40.9727367" lon="14.3095133"><ele>23.0</ele><time>2026-04-24T15:06:27.386Z</time></trkpt><trkpt lat="40.9728033" lon="14.3095383"><ele>22.857142857142858</ele><time>2026-04-24T15:06:28.384Z</time></trkpt><trkpt lat="40.97287" lon="14.3095617"><ele>22.71428571428571</ele><time>2026-04-24T15:06:29.385Z</time></trkpt><trkpt lat="40.9729383" lon="14.3095867"><ele>22.57142857142857</ele><time>2026-04-24T15:06:30.385Z</time></trkpt><trkpt lat="40.9730083" lon="14.3096117"><ele>22.42857142857143</ele><time>2026-04-24T15:06:31.387Z</time></trkpt><trkpt lat="40.9730767" lon="14.3096367"><ele>22.285714285714285</ele><time>2026-04-24T15:06:32.382Z</time></trkpt><trkpt lat="40.9731433" lon="14.309665"><ele>22.142857142857142</ele><time>2026-04-24T15:06:33.384Z</time></trkpt><trkpt lat="40.9732133" lon="14.3096917"><ele>22.0</ele><time>2026-04-24T15:06:34.385Z</time></trkpt><trkpt lat="40.9732817" lon="14.309715"><ele>22.0</ele><time>2026-04-24T15:06:35.387Z</time></trkpt><trkpt lat="40.97335" lon="14.30974"><ele>22.0</ele><time>2026-04-24T15:06:36.386Z</time></trkpt><trkpt lat="40.9734167" lon="14.3097633"><ele>22.0</ele><time>2026-04-24T15:06:37.383Z</time></trkpt><trkpt lat="40.9734867" lon="14.3097883"><ele>22.0</ele><time>2026-04-24T15:06:38.383Z</time></trkpt><trkpt lat="40.9735583" lon="14.3098117"><ele>22.0</ele><time>2026-04-24T15:06:39.385Z</time></trkpt><trkpt lat="40.973625" lon="14.3098217"><ele>22.0</ele><time>2026-04-24T15:06:40.385Z</time></trkpt><trkpt lat="40.97369" lon="14.309835"><ele>22.0</ele><time>2026-04-24T15:06:41.385Z</time></trkpt><trkpt lat="40.9738167" lon="14.3098533"><ele>22.0</ele><time>2026-04-24T15:06:43.386Z</time></trkpt><trkpt lat="40.9738917" lon="14.3098533"><ele>22.0</ele><time>2026-04-24T15:06:44.386Z</time></trkpt><trkpt lat="40.9739683" lon="14.3098567"><ele>22.0</ele><time>2026-04-24T15:06:45.387Z</time></trkpt><trkpt lat="40.9740467" lon="14.3098617"><ele>22.0</ele><time>2026-04-24T15:06:46.387Z</time></trkpt><trkpt lat="40.974125" lon="14.3098617"><ele>22.0</ele><time>2026-04-24T15:06:47.387Z</time></trkpt><trkpt lat="40.9742033" lon="14.30986"><ele>22.0</ele><time>2026-04-24T15:06:48.386Z</time></trkpt><trkpt lat="40.9742767" lon="14.309855"><ele>22.0</ele><time>2026-04-24T15:06:49.386Z</time></trkpt><trkpt lat="40.9743517" lon="14.3098533"><ele>22.0</ele><time>2026-04-24T15:06:50.387Z</time></trkpt><trkpt lat="40.9744283" lon="14.3098517"><ele>22.0</ele><time>2026-04-24T15:06:51.387Z</time></trkpt><trkpt lat="40.9745033" lon="14.30985"><ele>22.0</ele><time>2026-04-24T15:06:52.386Z</time></trkpt><trkpt lat="40.9745783" lon="14.3098483"><ele>22.0</ele><time>2026-04-24T15:06:53.386Z</time></trkpt><trkpt lat="40.9746517" lon="14.309845"><ele>22.0</ele><time>2026-04-24T15:06:54.387Z</time></trkpt><trkpt lat="40.9747217" lon="14.3098433"><ele>22.0</ele><time>2026-04-24T15:06:55.385Z</time></trkpt><trkpt lat="40.9747933" lon="14.309845"><ele>22.0</ele><time>2026-04-24T15:06:56.386Z</time></trkpt><trkpt lat="40.9748617" lon="14.3098467"><ele>22.0</ele><time>2026-04-24T15:06:57.387Z</time></trkpt><trkpt lat="40.9749333" lon="14.3098467"><ele>22.0</ele><time>2026-04-24T15:06:58.386Z</time></trkpt><trkpt lat="40.9750017" lon="14.3098467"><ele>22.0</ele><time>2026-04-24T15:06:59.385Z</time></trkpt><trkpt lat="40.9750717" lon="14.3098467"><ele>22.0</ele><time>2026-04-24T15:07:00.387Z</time></trkpt><trkpt lat="40.9751417" lon="14.3098417"><ele>22.0</ele><time>2026-04-24T15:07:01.387Z</time></trkpt><trkpt lat="40.9752133" lon="14.3098367"><ele>22.0</ele><time>2026-04-24T15:07:02.387Z</time></trkpt><trkpt lat="40.9752833" lon="14.3098267"><ele>22.0</ele><time>2026-04-24T15:07:03.387Z</time></trkpt><trkpt lat="40.9753517" lon="14.3098167"><ele>22.0</ele><time>2026-04-24T15:07:04.386Z</time></trkpt><trkpt lat="40.9754217" lon="14.309805"><ele>22.0</ele><time>2026-04-24T15:07:05.385Z</time></trkpt><trkpt lat="40.97549" lon="14.30979"><ele>22.0</ele><time>2026-04-24T15:07:06.386Z</time></trkpt><trkpt lat="40.9755567" lon="14.3097717"><ele>22.0</ele><time>2026-04-24T15:07:07.386Z</time></trkpt><trkpt lat="40.9756217" lon="14.30975"><ele>22.0</ele><time>2026-04-24T15:07:08.385Z</time></trkpt><trkpt lat="40.975685" lon="14.3097217"><ele>22.0</ele><time>2026-04-24T15:07:09.387Z</time></trkpt><trkpt lat="40.9757483" lon="14.3096917"><ele>22.0</ele><time>2026-04-24T15:07:10.387Z</time></trkpt><trkpt lat="40.9758167" lon="14.309665"><ele>22.0</ele><time>2026-04-24T15:07:11.387Z</time></trkpt><trkpt lat="40.9758833" lon="14.3096333"><ele>22.0</ele><time>2026-04-24T15:07:12.384Z</time></trkpt><trkpt lat="40.9759467" lon="14.3096033"><ele>22.0</ele><time>2026-04-24T15:07:13.385Z</time></trkpt><trkpt lat="40.9760133" lon="14.30957"><ele>22.0</ele><time>2026-04-24T15:07:14.385Z</time></trkpt><trkpt lat="40.97608" lon="14.3095333"><ele>22.0</ele><time>2026-04-24T15:07:15.385Z</time></trkpt><trkpt lat="40.976145" lon="14.3094983"><ele>22.0</ele><time>2026-04-24T15:07:16.387Z</time></trkpt><trkpt lat="40.97621" lon="14.3094617"><ele>22.0</ele><time>2026-04-24T15:07:17.383Z</time></trkpt><trkpt lat="40.9762783" lon="14.3094233"><ele>22.0</ele><time>2026-04-24T15:07:18.387Z</time></trkpt><trkpt lat="40.9763467" lon="14.309385"><ele>22.0</ele><time>2026-04-24T15:07:19.386Z</time></trkpt><trkpt lat="40.976415" lon="14.30935"><ele>22.0</ele><time>2026-04-24T15:07:20.387Z</time></trkpt><trkpt lat="40.9764833" lon="14.309315"><ele>22.0</ele><time>2026-04-24T15:07:21.386Z</time></trkpt><trkpt lat="40.9765517" lon="14.309275"><ele>22.0</ele><time>2026-04-24T15:07:22.385Z</time></trkpt><trkpt lat="40.9766183" lon="14.3092367"><ele>22.0</ele><time>2026-04-24T15:07:23.386Z</time></trkpt><trkpt lat="40.976685" lon="14.3091983"><ele>21.714285714285715</ele><time>2026-04-24T15:07:24.386Z</time></trkpt><trkpt lat="40.97675" lon="14.30916"><ele>21.428571428571427</ele><time>2026-04-24T15:07:25.383Z</time></trkpt><trkpt lat="40.9768183" lon="14.3091267"><ele>21.142857142857142</ele><time>2026-04-24T15:07:26.384Z</time></trkpt><trkpt lat="40.9768867" lon="14.3090917"><ele>20.857142857142858</ele><time>2026-04-24T15:07:27.384Z</time></trkpt><trkpt lat="40.9769567" lon="14.3090633"><ele>20.571428571428573</ele><time>2026-04-24T15:07:28.387Z</time></trkpt><trkpt lat="40.9770283" lon="14.3090383"><ele>20.285714285714285</ele><time>2026-04-24T15:07:29.382Z</time></trkpt><trkpt lat="40.9771" lon="14.3090217"><ele>20.0</ele><time>2026-04-24T15:07:30.387Z</time></trkpt><trkpt lat="40.977175" lon="14.3090133"><ele>20.0</ele><time>2026-04-24T15:07:31.383Z</time></trkpt><trkpt lat="40.9772483" lon="14.3090183"><ele>20.0</ele><time>2026-04-24T15:07:32.384Z</time></trkpt><trkpt lat="40.9773217" lon="14.309035"><ele>20.0</ele><time>2026-04-24T15:07:33.387Z</time></trkpt><trkpt lat="40.9773917" lon="14.3090633"><ele>20.0</ele><time>2026-04-24T15:07:34.386Z</time></trkpt><trkpt lat="40.9774583" lon="14.3091"><ele>20.0</ele><time>2026-04-24T15:07:35.386Z</time></trkpt><trkpt lat="40.9775217" lon="14.3091517"><ele>20.0</ele><time>2026-04-24T15:07:36.386Z</time></trkpt><trkpt lat="40.9775817" lon="14.3092133"><ele>20.0</ele><time>2026-04-24T15:07:37.387Z</time></trkpt><trkpt lat="40.9776383" lon="14.3092783"><ele>20.0</ele><time>2026-04-24T15:07:38.387Z</time></trkpt><trkpt lat="40.97769" lon="14.3093467"><ele>20.0</ele><time>2026-04-24T15:07:39.382Z</time></trkpt><trkpt lat="40.9777417" lon="14.3094167"><ele>20.0</ele><time>2026-04-24T15:07:40.384Z</time></trkpt><trkpt lat="40.977795" lon="14.3094833"><ele>20.0</ele><time>2026-04-24T15:07:41.385Z</time></trkpt><trkpt lat="40.97785" lon="14.30955"><ele>20.0</ele><time>2026-04-24T15:07:42.385Z</time></trkpt><trkpt lat="40.9779033" lon="14.3096167"><ele>20.0</ele><time>2026-04-24T15:07:43.384Z</time></trkpt><trkpt lat="40.97796" lon="14.309685"><ele>20.0</ele><time>2026-04-24T15:07:44.386Z</time></trkpt><trkpt lat="40.9780167" lon="14.3097533"><ele>20.0</ele><time>2026-04-24T15:07:45.385Z</time></trkpt><trkpt lat="40.9780733" lon="14.3098233"><ele>20.0</ele><time>2026-04-24T15:07:46.384Z</time></trkpt><trkpt lat="40.9781283" lon="14.3098883"><ele>20.0</ele><time>2026-04-24T15:07:47.385Z</time></trkpt><trkpt lat="40.9781867" lon="14.3099567"><ele>20.0</ele><time>2026-04-24T15:07:48.385Z</time></trkpt><trkpt lat="40.978245" lon="14.31002"><ele>20.0</ele><time>2026-04-24T15:07:49.385Z</time></trkpt><trkpt lat="40.9783067" lon="14.3100817"><ele>20.0</ele><time>2026-04-24T15:07:50.385Z</time></trkpt><trkpt lat="40.9783667" lon="14.31014"><ele>20.0</ele><time>2026-04-24T15:07:51.384Z</time></trkpt><trkpt lat="40.97843" lon="14.3102"><ele>20.0</ele><time>2026-04-24T15:07:52.383Z</time></trkpt><trkpt lat="40.9784933" lon="14.3102617"><ele>20.0</ele><time>2026-04-24T15:07:53.385Z</time></trkpt><trkpt lat="40.9785567" lon="14.3103233"><ele>20.0</ele><time>2026-04-24T15:07:54.384Z</time></trkpt><trkpt lat="40.9786217" lon="14.3103917"><ele>20.0</ele><time>2026-04-24T15:07:55.384Z</time></trkpt><trkpt lat="40.9786867" lon="14.310455"><ele>20.0</ele><time>2026-04-24T15:07:56.386Z</time></trkpt><trkpt lat="40.9787517" lon="14.3105183"><ele>20.166666666666668</ele><time>2026-04-24T15:07:57.385Z</time></trkpt><trkpt lat="40.97882" lon="14.3105833"><ele>20.333333333333336</ele><time>2026-04-24T15:07:58.382Z</time></trkpt><trkpt lat="40.9788867" lon="14.3106483"><ele>20.5</ele><time>2026-04-24T15:07:59.384Z</time></trkpt><trkpt lat="40.9789533" lon="14.3107133"><ele>20.666666666666668</ele><time>2026-04-24T15:08:00.386Z</time></trkpt><trkpt lat="40.97902" lon="14.310775"><ele>20.833333333333332</ele><time>2026-04-24T15:08:01.384Z</time></trkpt><trkpt lat="40.9790867" lon="14.310835"><ele>21.0</ele><time>2026-04-24T15:08:02.386Z</time></trkpt><trkpt lat="40.9791517" lon="14.3108917"><ele>21.0</ele><time>2026-04-24T15:08:03.385Z</time></trkpt><trkpt lat="40.9792167" lon="14.31095"><ele>21.0</ele><time>2026-04-24T15:08:04.385Z</time></trkpt><trkpt lat="40.97928" lon="14.3110067"><ele>21.0</ele><time>2026-04-24T15:08:05.384Z</time></trkpt><trkpt lat="40.979345" lon="14.3110617"><ele>21.0</ele><time>2026-04-24T15:08:06.387Z</time></trkpt><trkpt lat="40.9794067" lon="14.3111167"><ele>21.0</ele><time>2026-04-24T15:08:07.387Z</time></trkpt><trkpt lat="40.9794667" lon="14.3111683"><ele>21.0</ele><time>2026-04-24T15:08:08.384Z</time></trkpt><trkpt lat="40.97953" lon="14.3112183"><ele>21.0</ele><time>2026-04-24T15:08:09.385Z</time></trkpt><trkpt lat="40.9795933" lon="14.3112733"><ele>21.0</ele><time>2026-04-24T15:08:10.385Z</time></trkpt><trkpt lat="40.9796583" lon="14.3113267"><ele>21.0</ele><time>2026-04-24T15:08:11.387Z</time></trkpt><trkpt lat="40.9797267" lon="14.311385"><ele>21.0</ele><time>2026-04-24T15:08:12.386Z</time></trkpt><trkpt lat="40.979795" lon="14.3114383"><ele>21.0</ele><time>2026-04-24T15:08:13.386Z</time></trkpt><trkpt lat="40.979865" lon="14.3114867"><ele>21.0</ele><time>2026-04-24T15:08:14.387Z</time></trkpt><trkpt lat="40.9799333" lon="14.3115367"><ele>21.0</ele><time>2026-04-24T15:08:15.386Z</time></trkpt><trkpt lat="40.98" lon="14.3115867"><ele>21.0</ele><time>2026-04-24T15:08:16.385Z</time></trkpt><trkpt lat="40.9800683" lon="14.3116367"><ele>21.0</ele><time>2026-04-24T15:08:17.387Z</time></trkpt><trkpt lat="40.9801367" lon="14.3116833"><ele>21.0</ele><time>2026-04-24T15:08:18.386Z</time></trkpt><trkpt lat="40.9802067" lon="14.3117267"><ele>21.0</ele><time>2026-04-24T15:08:19.387Z</time></trkpt><trkpt lat="40.9802767" lon="14.3117767"><ele>21.0</ele><time>2026-04-24T15:08:20.386Z</time></trkpt><trkpt lat="40.9803433" lon="14.3118233"><ele>21.333333333333332</ele><time>2026-04-24T15:08:21.386Z</time></trkpt><trkpt lat="40.9804133" lon="14.3118717"><ele>21.666666666666668</ele><time>2026-04-24T15:08:22.387Z</time></trkpt><trkpt lat="40.980485" lon="14.31192"><ele>22.0</ele><time>2026-04-24T15:08:23.385Z</time></trkpt><trkpt lat="40.9805583" lon="14.311965"><ele>22.333333333333336</ele><time>2026-04-24T15:08:24.385Z</time></trkpt><trkpt lat="40.98063" lon="14.3120117"><ele>22.666666666666668</ele><time>2026-04-24T15:08:25.386Z</time></trkpt><trkpt lat="40.9807" lon="14.3120567"><ele>23.0</ele><time>2026-04-24T15:08:26.387Z</time></trkpt><trkpt lat="40.9807733" lon="14.3121"><ele>23.0</ele><time>2026-04-24T15:08:27.386Z</time></trkpt><trkpt lat="40.9808467" lon="14.31214"><ele>23.0</ele><time>2026-04-24T15:08:28.387Z</time></trkpt><trkpt lat="40.9809167" lon="14.3121783"><ele>23.0</ele><time>2026-04-24T15:08:29.386Z</time></trkpt><trkpt lat="40.980985" lon="14.3122167"><ele>23.0</ele><time>2026-04-24T15:08:30.387Z</time></trkpt><trkpt lat="40.9810533" lon="14.3122533"><ele>23.0</ele><time>2026-04-24T15:08:31.385Z</time></trkpt><trkpt lat="40.981125" lon="14.3122917"><ele>23.0</ele><time>2026-04-24T15:08:32.387Z</time></trkpt><trkpt lat="40.9811967" lon="14.312325"><ele>22.666666666666668</ele><time>2026-04-24T15:08:33.387Z</time></trkpt><trkpt lat="40.9812683" lon="14.312355"><ele>22.333333333333336</ele><time>2026-04-24T15:08:34.385Z</time></trkpt><trkpt lat="40.9813417" lon="14.3123867"><ele>22.0</ele><time>2026-04-24T15:08:35.385Z</time></trkpt><trkpt lat="40.9814217" lon="14.31242"><ele>21.666666666666668</ele><time>2026-04-24T15:08:36.385Z</time></trkpt><trkpt lat="40.9815" lon="14.3124467"><ele>21.333333333333332</ele><time>2026-04-24T15:08:37.386Z</time></trkpt><trkpt lat="40.9815783" lon="14.3124667"><ele>21.0</ele><time>2026-04-24T15:08:38.388Z</time></trkpt><trkpt lat="40.98166" lon="14.3124817"><ele>20.833333333333332</ele><time>2026-04-24T15:08:39.386Z</time></trkpt><trkpt lat="40.981745" lon="14.3124883"><ele>20.666666666666668</ele><time>2026-04-24T15:08:40.387Z</time></trkpt><trkpt lat="40.9818267" lon="14.3124917"><ele>20.5</ele><time>2026-04-24T15:08:41.386Z</time></trkpt><trkpt lat="40.9819083" lon="14.312495"><ele>20.333333333333336</ele><time>2026-04-24T15:08:42.386Z</time></trkpt><trkpt lat="40.9819933" lon="14.312495"><ele>20.166666666666668</ele><time>2026-04-24T15:08:43.385Z</time></trkpt><trkpt lat="40.9820767" lon="14.312495"><ele>20.0</ele><time>2026-04-24T15:08:44.387Z</time></trkpt><trkpt lat="40.9821633" lon="14.3124933"><ele>20.0</ele><time>2026-04-24T15:08:45.387Z</time></trkpt><trkpt lat="40.9822467" lon="14.31249"><ele>20.0</ele><time>2026-04-24T15:08:46.385Z</time></trkpt><trkpt lat="40.9823267" lon="14.31249"><ele>20.0</ele><time>2026-04-24T15:08:47.387Z</time></trkpt><trkpt lat="40.98241" lon="14.3124883"><ele>20.0</ele><time>2026-04-24T15:08:48.385Z</time></trkpt><trkpt lat="40.9824917" lon="14.3124867"><ele>20.0</ele><time>2026-04-24T15:08:49.386Z</time></trkpt><trkpt lat="40.982575" lon="14.3124833"><ele>20.0</ele><time>2026-04-24T15:08:50.386Z</time></trkpt><trkpt lat="40.9826583" lon="14.3124833"><ele>20.0</ele><time>2026-04-24T15:08:51.387Z</time></trkpt><trkpt lat="40.98274" lon="14.3124833"><ele>20.0</ele><time>2026-04-24T15:08:52.383Z</time></trkpt><trkpt lat="40.98282" lon="14.312485"><ele>20.0</ele><time>2026-04-24T15:08:53.385Z</time></trkpt><trkpt lat="40.9829" lon="14.3124817"><ele>20.0</ele><time>2026-04-24T15:08:54.386Z</time></trkpt><trkpt lat="40.9829783" lon="14.3124783"><ele>20.0</ele><time>2026-04-24T15:08:55.387Z</time></trkpt><trkpt lat="40.9830583" lon="14.312475"><ele>20.0</ele><time>2026-04-24T15:08:56.386Z</time></trkpt><trkpt lat="40.983135" lon="14.3124717"><ele>20.0</ele><time>2026-04-24T15:08:57.385Z</time></trkpt><trkpt lat="40.9832117" lon="14.3124617"><ele>20.0</ele><time>2026-04-24T15:08:58.384Z</time></trkpt><trkpt lat="40.9832867" lon="14.3124417"><ele>20.0</ele><time>2026-04-24T15:08:59.386Z</time></trkpt><trkpt lat="40.9833567" lon="14.3124167"><ele>20.0</ele><time>2026-04-24T15:09:00.387Z</time></trkpt><trkpt lat="40.9834283" lon="14.3123883"><ele>20.0</ele><time>2026-04-24T15:09:01.387Z</time></trkpt><trkpt lat="40.9834933" lon="14.3123567"><ele>20.0</ele><time>2026-04-24T15:09:02.387Z</time></trkpt><trkpt lat="40.9835583" lon="14.312325"><ele>20.0</ele><time>2026-04-24T15:09:03.387Z</time></trkpt><trkpt lat="40.9836233" lon="14.3122883"><ele>20.0</ele><time>2026-04-24T15:09:04.387Z</time></trkpt><trkpt lat="40.9836867" lon="14.3122533"><ele>20.0</ele><time>2026-04-24T15:09:05.384Z</time></trkpt><trkpt lat="40.9837483" lon="14.3122183"><ele>20.0</ele><time>2026-04-24T15:09:06.385Z</time></trkpt><trkpt lat="40.9838117" lon="14.312185"><ele>20.0</ele><time>2026-04-24T15:09:07.384Z</time></trkpt><trkpt lat="40.9838767" lon="14.3121517"><ele>20.0</ele><time>2026-04-24T15:09:08.385Z</time></trkpt><trkpt lat="40.9839417" lon="14.3121183"><ele>20.0</ele><time>2026-04-24T15:09:09.385Z</time></trkpt><trkpt lat="40.984005" lon="14.312085"><ele>20.0</ele><time>2026-04-24T15:09:10.387Z</time></trkpt><trkpt lat="40.9840717" lon="14.312055"><ele>20.0</ele><time>2026-04-24T15:09:11.387Z</time></trkpt><trkpt lat="40.9841383" lon="14.3120233"><ele>20.0</ele><time>2026-04-24T15:09:12.383Z</time></trkpt><trkpt lat="40.9842017" lon="14.3119917"><ele>20.0</ele><time>2026-04-24T15:09:13.384Z</time></trkpt><trkpt lat="40.9842683" lon="14.31196"><ele>20.0</ele><time>2026-04-24T15:09:14.385Z</time></trkpt><trkpt lat="40.9843333" lon="14.311925"><ele>20.0</ele><time>2026-04-24T15:09:15.385Z</time></trkpt><trkpt lat="40.9843983" lon="14.31189"><ele>20.0</ele><time>2026-04-24T15:09:16.384Z</time></trkpt><trkpt lat="40.9844633" lon="14.3118567"><ele>20.0</ele><time>2026-04-24T15:09:17.385Z</time></trkpt><trkpt lat="40.9845283" lon="14.3118217"><ele>20.142857142857142</ele><time>2026-04-24T15:09:18.385Z</time></trkpt><trkpt lat="40.9845917" lon="14.3117883"><ele>20.285714285714285</ele><time>2026-04-24T15:09:19.387Z</time></trkpt><trkpt lat="40.9846567" lon="14.3117583"><ele>20.42857142857143</ele><time>2026-04-24T15:09:20.386Z</time></trkpt><trkpt lat="40.9847217" lon="14.3117283"><ele>20.57142857142857</ele><time>2026-04-24T15:09:21.387Z</time></trkpt><trkpt lat="40.98479" lon="14.3116983"><ele>20.714285714285715</ele><time>2026-04-24T15:09:22.385Z</time></trkpt><trkpt lat="40.9848567" lon="14.3116667"><ele>20.857142857142858</ele><time>2026-04-24T15:09:23.387Z</time></trkpt><trkpt lat="40.9849217" lon="14.3116383"><ele>21.0</ele><time>2026-04-24T15:09:24.384Z</time></trkpt><trkpt lat="40.9849867" lon="14.311615"><ele>20.857142857142858</ele><time>2026-04-24T15:09:25.386Z</time></trkpt><trkpt lat="40.9850533" lon="14.31159"><ele>20.714285714285715</ele><time>2026-04-24T15:09:26.385Z</time></trkpt><trkpt lat="40.9851233" lon="14.31157"><ele>20.57142857142857</ele><time>2026-04-24T15:09:27.387Z</time></trkpt><trkpt lat="40.9851917" lon="14.3115517"><ele>20.42857142857143</ele><time>2026-04-24T15:09:28.382Z</time></trkpt><trkpt lat="40.9852617" lon="14.3115383"><ele>20.285714285714285</ele><time>2026-04-24T15:09:29.386Z</time></trkpt><trkpt lat="40.9853333" lon="14.3115383"><ele>20.142857142857142</ele><time>2026-04-24T15:09:30.387Z</time></trkpt><trkpt lat="40.9854" lon="14.3115417"><ele>20.0</ele><time>2026-04-24T15:09:31.385Z</time></trkpt><trkpt lat="40.9854667" lon="14.3115517"><ele>20.0</ele><time>2026-04-24T15:09:32.384Z</time></trkpt><trkpt lat="40.985535" lon="14.31156"><ele>20.0</ele><time>2026-04-24T15:09:33.386Z</time></trkpt><trkpt lat="40.9856017" lon="14.3115683"><ele>20.0</ele><time>2026-04-24T15:09:34.387Z</time></trkpt><trkpt lat="40.98567" lon="14.3115783"><ele>20.0</ele><time>2026-04-24T15:09:35.386Z</time></trkpt><trkpt lat="40.9857367" lon="14.3115867"><ele>20.0</ele><time>2026-04-24T15:09:36.387Z</time></trkpt><trkpt lat="40.9858" lon="14.3115967"><ele>20.0</ele><time>2026-04-24T15:09:37.387Z</time></trkpt><trkpt lat="40.985865" lon="14.3116067"><ele>20.0</ele><time>2026-04-24T15:09:38.387Z</time></trkpt><trkpt lat="40.9859867" lon="14.3116283"><ele>20.0</ele><time>2026-04-24T15:09:40.386Z</time></trkpt><trkpt lat="40.9861033" lon="14.3116483"><ele>20.0</ele><time>2026-04-24T15:09:42.387Z</time></trkpt><trkpt lat="40.9862217" lon="14.3116667"><ele>20.0</ele><time>2026-04-24T15:09:44.385Z</time></trkpt><trkpt lat="40.9863417" lon="14.3116833"><ele>20.0</ele><time>2026-04-24T15:09:46.385Z</time></trkpt><trkpt lat="40.9864567" lon="14.3117033"><ele>20.0</ele><time>2026-04-24T15:09:48.385Z</time></trkpt><trkpt lat="40.9865733" lon="14.3117233"><ele>20.0</ele><time>2026-04-24T15:09:50.386Z</time></trkpt><trkpt lat="40.98669" lon="14.3117417"><ele>20.0</ele><time>2026-04-24T15:09:52.385Z</time></trkpt><trkpt lat="40.9868067" lon="14.3117633"><ele>20.0</ele><time>2026-04-24T15:09:54.388Z</time></trkpt><trkpt lat="40.986925" lon="14.3117967"><ele>20.0</ele><time>2026-04-24T15:09:56.387Z</time></trkpt><trkpt lat="40.9870433" lon="14.3118517"><ele>20.0</ele><time>2026-04-24T15:09:58.387Z</time></trkpt><trkpt lat="40.9871533" lon="14.31194"><ele>20.0</ele><time>2026-04-24T15:10:00.388Z</time></trkpt><trkpt lat="40.987205" lon="14.311995"><ele>20.0</ele><time>2026-04-24T15:10:01.387Z</time></trkpt><trkpt lat="40.9872583" lon="14.3120483"><ele>20.0</ele><time>2026-04-24T15:10:02.385Z</time></trkpt><trkpt lat="40.9873117" lon="14.3121"><ele>20.0</ele><time>2026-04-24T15:10:03.387Z</time></trkpt><trkpt lat="40.987365" lon="14.312155"><ele>20.0</ele><time>2026-04-24T15:10:04.384Z</time></trkpt><trkpt lat="40.987415" lon="14.3122083"><ele>20.0</ele><time>2026-04-24T15:10:05.387Z</time></trkpt><trkpt lat="40.987465" lon="14.3122617"><ele>20.0</ele><time>2026-04-24T15:10:06.387Z</time></trkpt><trkpt lat="40.9875133" lon="14.3123167"><ele>20.0</ele><time>2026-04-24T15:10:07.387Z</time></trkpt><trkpt lat="40.98761" lon="14.31242"><ele>20.0</ele><time>2026-04-24T15:10:09.385Z</time></trkpt><trkpt lat="40.98766" lon="14.3124717"><ele>20.0</ele><time>2026-04-24T15:10:10.385Z</time></trkpt><trkpt lat="40.9877117" lon="14.3125233"><ele>19.857142857142858</ele><time>2026-04-24T15:10:11.385Z</time></trkpt><trkpt lat="40.9877633" lon="14.312575"><ele>19.714285714285715</ele><time>2026-04-24T15:10:12.384Z</time></trkpt><trkpt lat="40.987815" lon="14.3126267"><ele>19.57142857142857</ele><time>2026-04-24T15:10:13.385Z</time></trkpt><trkpt lat="40.987865" lon="14.31268"><ele>19.42857142857143</ele><time>2026-04-24T15:10:14.385Z</time></trkpt><trkpt lat="40.987915" lon="14.3127317"><ele>19.28571428571429</ele><time>2026-04-24T15:10:15.385Z</time></trkpt><trkpt lat="40.9879683" lon="14.31278"><ele>19.142857142857142</ele><time>2026-04-24T15:10:16.385Z</time></trkpt><trkpt lat="40.98802" lon="14.3128333"><ele>19.0</ele><time>2026-04-24T15:10:17.386Z</time></trkpt><trkpt lat="40.9880733" lon="14.3128833"><ele>19.0</ele><time>2026-04-24T15:10:18.385Z</time></trkpt><trkpt lat="40.9881733" lon="14.3129817"><ele>19.0</ele><time>2026-04-24T15:10:20.386Z</time></trkpt><trkpt lat="40.9882233" lon="14.3130333"><ele>19.0</ele><time>2026-04-24T15:10:21.385Z</time></trkpt><trkpt lat="40.988275" lon="14.3130833"><ele>19.0</ele><time>2026-04-24T15:10:22.383Z</time></trkpt><trkpt lat="40.9883267" lon="14.313135"><ele>19.0</ele><time>2026-04-24T15:10:23.385Z</time></trkpt><trkpt lat="40.98838" lon="14.3131883"><ele>19.0</ele><time>2026-04-24T15:10:24.386Z</time></trkpt><trkpt lat="40.9884317" lon="14.3132417"><ele>19.0</ele><time>2026-04-24T15:10:25.386Z</time></trkpt><trkpt lat="40.9884833" lon="14.3132917"><ele>19.285714285714285</ele><time>2026-04-24T15:10:26.385Z</time></trkpt><trkpt lat="40.988535" lon="14.313345"><ele>19.571428571428573</ele><time>2026-04-24T15:10:27.386Z</time></trkpt><trkpt lat="40.9885867" lon="14.3133983"><ele>19.857142857142858</ele><time>2026-04-24T15:10:28.384Z</time></trkpt><trkpt lat="40.98864" lon="14.3134517"><ele>20.142857142857142</ele><time>2026-04-24T15:10:29.385Z</time></trkpt><trkpt lat="40.9886933" lon="14.3135083"><ele>20.42857142857143</ele><time>2026-04-24T15:10:30.384Z</time></trkpt><trkpt lat="40.988745" lon="14.3135633"><ele>20.714285714285715</ele><time>2026-04-24T15:10:31.384Z</time></trkpt><trkpt lat="40.9887967" lon="14.31362"><ele>21.0</ele><time>2026-04-24T15:10:32.384Z</time></trkpt><trkpt lat="40.9888467" lon="14.3136767"><ele>21.0</ele><time>2026-04-24T15:10:33.386Z</time></trkpt><trkpt lat="40.9889" lon="14.3137317"><ele>21.0</ele><time>2026-04-24T15:10:34.385Z</time></trkpt><trkpt lat="40.9889533" lon="14.3137867"><ele>21.0</ele><time>2026-04-24T15:10:35.384Z</time></trkpt><trkpt lat="40.9890067" lon="14.3138383"><ele>21.0</ele><time>2026-04-24T15:10:36.385Z</time></trkpt><trkpt lat="40.9890567" lon="14.31389"><ele>21.0</ele><time>2026-04-24T15:10:37.386Z</time></trkpt><trkpt lat="40.9891083" lon="14.3139417"><ele>21.0</ele><time>2026-04-24T15:10:38.386Z</time></trkpt><trkpt lat="40.9891617" lon="14.313995"><ele>21.0</ele><time>2026-04-24T15:10:39.385Z</time></trkpt><trkpt lat="40.989215" lon="14.3140483"><ele>21.0</ele><time>2026-04-24T15:10:40.385Z</time></trkpt><trkpt lat="40.98927" lon="14.314105"><ele>21.0</ele><time>2026-04-24T15:10:41.386Z</time></trkpt><trkpt lat="40.9893233" lon="14.31416"><ele>21.0</ele><time>2026-04-24T15:10:42.386Z</time></trkpt><trkpt lat="40.9893733" lon="14.3142167"><ele>21.0</ele><time>2026-04-24T15:10:43.385Z</time></trkpt><trkpt lat="40.9894283" lon="14.3142717"><ele>21.0</ele><time>2026-04-24T15:10:44.385Z</time></trkpt><trkpt lat="40.98948" lon="14.314325"><ele>21.0</ele><time>2026-04-24T15:10:45.386Z</time></trkpt><trkpt lat="40.9895333" lon="14.3143783"><ele>21.0</ele><time>2026-04-24T15:10:46.384Z</time></trkpt><trkpt lat="40.9895883" lon="14.3144317"><ele>21.0</ele><time>2026-04-24T15:10:47.386Z</time></trkpt><trkpt lat="40.9896417" lon="14.314485"><ele>21.0</ele><time>2026-04-24T15:10:48.386Z</time></trkpt><trkpt lat="40.989695" lon="14.3145383"><ele>21.0</ele><time>2026-04-24T15:10:49.385Z</time></trkpt><trkpt lat="40.98975" lon="14.3145933"><ele>21.0</ele><time>2026-04-24T15:10:50.386Z</time></trkpt><trkpt lat="40.9898067" lon="14.3146467"><ele>21.0</ele><time>2026-04-24T15:10:51.385Z</time></trkpt><trkpt lat="40.9898633" lon="14.3147067"><ele>21.0</ele><time>2026-04-24T15:10:52.385Z</time></trkpt><trkpt lat="40.9899183" lon="14.3147683"><ele>21.0</ele><time>2026-04-24T15:10:53.386Z</time></trkpt><trkpt lat="40.9899783" lon="14.3148283"><ele>20.833333333333332</ele><time>2026-04-24T15:10:54.387Z</time></trkpt><trkpt lat="40.99004" lon="14.31489"><ele>20.666666666666668</ele><time>2026-04-24T15:10:55.385Z</time></trkpt><trkpt lat="40.9900983" lon="14.31495"><ele>20.5</ele><time>2026-04-24T15:10:56.385Z</time></trkpt><trkpt lat="40.990155" lon="14.31501"><ele>20.333333333333336</ele><time>2026-04-24T15:10:57.386Z</time></trkpt><trkpt lat="40.9902167" lon="14.31507"><ele>20.166666666666668</ele><time>2026-04-24T15:10:58.385Z</time></trkpt><trkpt lat="40.9902767" lon="14.31513"><ele>20.0</ele><time>2026-04-24T15:10:59.385Z</time></trkpt><trkpt lat="40.9903383" lon="14.31519"><ele>20.0</ele><time>2026-04-24T15:11:00.383Z</time></trkpt><trkpt lat="40.9903983" lon="14.3152467"><ele>20.0</ele><time>2026-04-24T15:11:01.385Z</time></trkpt><trkpt lat="40.990455" lon="14.3153"><ele>20.0</ele><time>2026-04-24T15:11:02.385Z</time></trkpt><trkpt lat="40.9905133" lon="14.3153567"><ele>20.0</ele><time>2026-04-24T15:11:03.383Z</time></trkpt><trkpt lat="40.99057" lon="14.3154083"><ele>20.0</ele><time>2026-04-24T15:11:04.384Z</time></trkpt><trkpt lat="40.9906283" lon="14.3154717"><ele>20.0</ele><time>2026-04-24T15:11:05.384Z</time></trkpt><trkpt lat="40.9907133" lon="14.3155783"><ele>19.8</ele><time>2026-04-24T15:11:07.385Z</time></trkpt><trkpt lat="40.99076" lon="14.3156367"><ele>19.6</ele><time>2026-04-24T15:11:08.385Z</time></trkpt><trkpt lat="40.990845" lon="14.31574"><ele>19.4</ele><time>2026-04-24T15:11:10.383Z</time></trkpt><trkpt lat="40.9909333" lon="14.3158317"><ele>19.2</ele><time>2026-04-24T15:11:12.384Z</time></trkpt><trkpt lat="40.99103" lon="14.315945"><ele>19.0</ele><time>2026-04-24T15:11:14.384Z</time></trkpt><trkpt lat="40.99108" lon="14.3160017"><ele>19.0</ele><time>2026-04-24T15:11:15.387Z</time></trkpt><trkpt lat="40.99113" lon="14.3160583"><ele>19.0</ele><time>2026-04-24T15:11:16.385Z</time></trkpt><trkpt lat="40.9911833" lon="14.3161117"><ele>19.0</ele><time>2026-04-24T15:11:17.385Z</time></trkpt><trkpt lat="40.9912367" lon="14.3161717"><ele>19.0</ele><time>2026-04-24T15:11:18.386Z</time></trkpt><trkpt lat="40.9912917" lon="14.31623"><ele>19.0</ele><time>2026-04-24T15:11:19.385Z</time></trkpt><trkpt lat="40.9913483" lon="14.316285"><ele>19.0</ele><time>2026-04-24T15:11:20.387Z</time></trkpt><trkpt lat="40.9914033" lon="14.3163383"><ele>19.0</ele><time>2026-04-24T15:11:21.384Z</time></trkpt><trkpt lat="40.9914583" lon="14.316395"><ele>19.142857142857142</ele><time>2026-04-24T15:11:22.385Z</time></trkpt><trkpt lat="40.9915133" lon="14.31645"><ele>19.28571428571429</ele><time>2026-04-24T15:11:23.387Z</time></trkpt><trkpt lat="40.9915717" lon="14.31651"><ele>19.42857142857143</ele><time>2026-04-24T15:11:24.387Z</time></trkpt><trkpt lat="40.9916283" lon="14.3165667"><ele>19.57142857142857</ele><time>2026-04-24T15:11:25.385Z</time></trkpt><trkpt lat="40.9916867" lon="14.3166233"><ele>19.714285714285715</ele><time>2026-04-24T15:11:26.386Z</time></trkpt><trkpt lat="40.9917467" lon="14.31668"><ele>19.857142857142858</ele><time>2026-04-24T15:11:27.387Z</time></trkpt><trkpt lat="40.9918017" lon="14.3167333"><ele>20.0</ele><time>2026-04-24T15:11:28.387Z</time></trkpt><trkpt lat="40.9918583" lon="14.3167867"><ele>20.0</ele><time>2026-04-24T15:11:29.386Z</time></trkpt><trkpt lat="40.991915" lon="14.31684"><ele>20.0</ele><time>2026-04-24T15:11:30.386Z</time></trkpt><trkpt lat="40.99197" lon="14.316895"><ele>20.0</ele><time>2026-04-24T15:11:31.384Z</time></trkpt><trkpt lat="40.9920267" lon="14.31695"><ele>20.0</ele><time>2026-04-24T15:11:32.386Z</time></trkpt><trkpt lat="40.992085" lon="14.3170033"><ele>20.0</ele><time>2026-04-24T15:11:33.385Z</time></trkpt><trkpt lat="40.9921467" lon="14.3170583"><ele>20.0</ele><time>2026-04-24T15:11:34.386Z</time></trkpt><trkpt lat="40.99221" lon="14.3171117"><ele>20.0</ele><time>2026-04-24T15:11:35.387Z</time></trkpt><trkpt lat="40.9922717" lon="14.317165"><ele>20.0</ele><time>2026-04-24T15:11:36.383Z</time></trkpt><trkpt lat="40.9923317" lon="14.3172217"><ele>20.0</ele><time>2026-04-24T15:11:37.386Z</time></trkpt><trkpt lat="40.992395" lon="14.3172817"><ele>20.0</ele><time>2026-04-24T15:11:38.384Z</time></trkpt><trkpt lat="40.9924533" lon="14.3173383"><ele>20.0</ele><time>2026-04-24T15:11:39.387Z</time></trkpt><trkpt lat="40.9925133" lon="14.31739"><ele>20.0</ele><time>2026-04-24T15:11:40.386Z</time></trkpt><trkpt lat="40.9925717" lon="14.3174433"><ele>20.0</ele><time>2026-04-24T15:11:41.385Z</time></trkpt><trkpt lat="40.9926333" lon="14.3174917"><ele>20.0</ele><time>2026-04-24T15:11:42.387Z</time></trkpt><trkpt lat="40.9926933" lon="14.3175383"><ele>19.857142857142858</ele><time>2026-04-24T15:11:43.387Z</time></trkpt><trkpt lat="40.9927533" lon="14.3175833"><ele>19.714285714285715</ele><time>2026-04-24T15:11:44.385Z</time></trkpt><trkpt lat="40.992815" lon="14.3176217"><ele>19.57142857142857</ele><time>2026-04-24T15:11:45.384Z</time></trkpt><trkpt lat="40.99288" lon="14.3176567"><ele>19.42857142857143</ele><time>2026-04-24T15:11:46.386Z</time></trkpt><trkpt lat="40.9929467" lon="14.3176833"><ele>19.28571428571429</ele><time>2026-04-24T15:11:47.384Z</time></trkpt><trkpt lat="40.993015" lon="14.3177083"><ele>19.142857142857142</ele><time>2026-04-24T15:11:48.386Z</time></trkpt><trkpt lat="40.993085" lon="14.3177283"><ele>19.0</ele><time>2026-04-24T15:11:49.387Z</time></trkpt><trkpt lat="40.9931567" lon="14.3177467"><ele>19.0</ele><time>2026-04-24T15:11:50.387Z</time></trkpt><trkpt lat="40.9932267" lon="14.3177617"><ele>19.0</ele><time>2026-04-24T15:11:51.387Z</time></trkpt><trkpt lat="40.9933017" lon="14.317775"><ele>19.0</ele><time>2026-04-24T15:11:52.385Z</time></trkpt><trkpt lat="40.9933767" lon="14.3177883"><ele>19.0</ele><time>2026-04-24T15:11:53.385Z</time></trkpt><trkpt lat="40.9934533" lon="14.3178017"><ele>19.0</ele><time>2026-04-24T15:11:54.388Z</time></trkpt><trkpt lat="40.9935283" lon="14.3178117"><ele>19.0</ele><time>2026-04-24T15:11:55.387Z</time></trkpt><trkpt lat="40.9936017" lon="14.31782"><ele>19.0</ele><time>2026-04-24T15:11:56.385Z</time></trkpt><trkpt lat="40.9936733" lon="14.3178283"><ele>19.0</ele><time>2026-04-24T15:11:57.387Z</time></trkpt><trkpt lat="40.993745" lon="14.3178367"><ele>19.0</ele><time>2026-04-24T15:11:58.384Z</time></trkpt><trkpt lat="40.9938217" lon="14.317845"><ele>19.0</ele><time>2026-04-24T15:11:59.384Z</time></trkpt><trkpt lat="40.993895" lon="14.3178517"><ele>19.0</ele><time>2026-04-24T15:12:00.386Z</time></trkpt><trkpt lat="40.9939683" lon="14.3178533"><ele>19.0</ele><time>2026-04-24T15:12:01.384Z</time></trkpt><trkpt lat="40.9940417" lon="14.317855"><ele>19.0</ele><time>2026-04-24T15:12:02.385Z</time></trkpt><trkpt lat="40.9941133" lon="14.3178633"><ele>19.0</ele><time>2026-04-24T15:12:03.385Z</time></trkpt><trkpt lat="40.994185" lon="14.3178717"><ele>19.0</ele><time>2026-04-24T15:12:04.385Z</time></trkpt><trkpt lat="40.9942533" lon="14.3178817"><ele>19.0</ele><time>2026-04-24T15:12:05.386Z</time></trkpt><trkpt lat="40.9943233" lon="14.3178883"><ele>19.0</ele><time>2026-04-24T15:12:06.385Z</time></trkpt><trkpt lat="40.9943917" lon="14.317895"><ele>19.0</ele><time>2026-04-24T15:12:07.385Z</time></trkpt><trkpt lat="40.9944583" lon="14.3179017"><ele>19.0</ele><time>2026-04-24T15:12:08.385Z</time></trkpt><trkpt lat="40.9945267" lon="14.3179083"><ele>19.0</ele><time>2026-04-24T15:12:09.386Z</time></trkpt><trkpt lat="40.9945933" lon="14.317915"><ele>19.0</ele><time>2026-04-24T15:12:10.385Z</time></trkpt><trkpt lat="40.9946617" lon="14.31792"><ele>19.0</ele><time>2026-04-24T15:12:11.385Z</time></trkpt><trkpt lat="40.9947317" lon="14.3179283"><ele>19.0</ele><time>2026-04-24T15:12:12.386Z</time></trkpt><trkpt lat="40.9948017" lon="14.3179367"><ele>19.0</ele><time>2026-04-24T15:12:13.385Z</time></trkpt><trkpt lat="40.9948717" lon="14.3179433"><ele>19.0</ele><time>2026-04-24T15:12:14.384Z</time></trkpt><trkpt lat="40.9949367" lon="14.3179483"><ele>19.0</ele><time>2026-04-24T15:12:15.386Z</time></trkpt><trkpt lat="40.9950033" lon="14.3179567"><ele>19.0</ele><time>2026-04-24T15:12:16.387Z</time></trkpt><trkpt lat="40.9950683" lon="14.317965"><ele>19.0</ele><time>2026-04-24T15:12:17.386Z</time></trkpt><trkpt lat="40.995135" lon="14.3179733"><ele>19.0</ele><time>2026-04-24T15:12:18.385Z</time></trkpt><trkpt lat="40.9952" lon="14.31798"><ele>19.0</ele><time>2026-04-24T15:12:19.384Z</time></trkpt><trkpt lat="40.9952667" lon="14.3179867"><ele>19.0</ele><time>2026-04-24T15:12:20.386Z</time></trkpt><trkpt lat="40.9953317" lon="14.3179933"><ele>19.0</ele><time>2026-04-24T15:12:21.385Z</time></trkpt><trkpt lat="40.9954" lon="14.3179983"><ele>19.0</ele><time>2026-04-24T15:12:22.385Z</time></trkpt><trkpt lat="40.9954683" lon="14.318005"><ele>19.0</ele><time>2026-04-24T15:12:23.386Z</time></trkpt><trkpt lat="40.9955367" lon="14.3180117"><ele>19.0</ele><time>2026-04-24T15:12:24.386Z</time></trkpt><trkpt lat="40.995605" lon="14.31802"><ele>19.0</ele><time>2026-04-24T15:12:25.387Z</time></trkpt><trkpt lat="40.9956683" lon="14.318025"><ele>19.0</ele><time>2026-04-24T15:12:26.387Z</time></trkpt><trkpt lat="40.9957333" lon="14.31803"><ele>19.0</ele><time>2026-04-24T15:12:27.385Z</time></trkpt><trkpt lat="40.9958033" lon="14.318035"><ele>19.0</ele><time>2026-04-24T15:12:28.387Z</time></trkpt><trkpt lat="40.995875" lon="14.3180433"><ele>19.0</ele><time>2026-04-24T15:12:29.387Z</time></trkpt><trkpt lat="40.9959433" lon="14.3180483"><ele>19.0</ele><time>2026-04-24T15:12:30.386Z</time></trkpt><trkpt lat="40.9960133" lon="14.3180583"><ele>19.0</ele><time>2026-04-24T15:12:31.387Z</time></trkpt><trkpt lat="40.9960817" lon="14.3180683"><ele>19.142857142857142</ele><time>2026-04-24T15:12:32.386Z</time></trkpt><trkpt lat="40.99615" lon="14.3180767"><ele>19.28571428571429</ele><time>2026-04-24T15:12:33.386Z</time></trkpt><trkpt lat="40.99622" lon="14.318085"><ele>19.42857142857143</ele><time>2026-04-24T15:12:34.387Z</time></trkpt><trkpt lat="40.9962883" lon="14.318095"><ele>19.57142857142857</ele><time>2026-04-24T15:12:35.387Z</time></trkpt><trkpt lat="40.9963583" lon="14.318105"><ele>19.714285714285715</ele><time>2026-04-24T15:12:36.385Z</time></trkpt><trkpt lat="40.9964267" lon="14.3181133"><ele>19.857142857142858</ele><time>2026-04-24T15:12:37.386Z</time></trkpt><trkpt lat="40.996495" lon="14.31812"><ele>20.0</ele><time>2026-04-24T15:12:38.385Z</time></trkpt><trkpt lat="40.9965633" lon="14.3181283"><ele>20.0</ele><time>2026-04-24T15:12:39.384Z</time></trkpt><trkpt lat="40.996635" lon="14.318135"><ele>20.0</ele><time>2026-04-24T15:12:40.384Z</time></trkpt><trkpt lat="40.9967033" lon="14.31814"><ele>20.0</ele><time>2026-04-24T15:12:41.385Z</time></trkpt><trkpt lat="40.99677" lon="14.3181467"><ele>20.0</ele><time>2026-04-24T15:12:42.386Z</time></trkpt><trkpt lat="40.99684" lon="14.3181533"><ele>20.0</ele><time>2026-04-24T15:12:43.386Z</time></trkpt><trkpt lat="40.99691" lon="14.3181617"><ele>20.0</ele><time>2026-04-24T15:12:44.386Z</time></trkpt><trkpt lat="40.9969817" lon="14.31817"><ele>20.0</ele><time>2026-04-24T15:12:45.383Z</time></trkpt><trkpt lat="40.9970517" lon="14.31818"><ele>20.0</ele><time>2026-04-24T15:12:46.385Z</time></trkpt><trkpt lat="40.9971233" lon="14.3181867"><ele>20.0</ele><time>2026-04-24T15:12:47.385Z</time></trkpt><trkpt lat="40.997195" lon="14.318195"><ele>20.0</ele><time>2026-04-24T15:12:48.386Z</time></trkpt><trkpt lat="40.997265" lon="14.3182017"><ele>20.0</ele><time>2026-04-24T15:12:49.385Z</time></trkpt><trkpt lat="40.997335" lon="14.3182067"><ele>20.0</ele><time>2026-04-24T15:12:50.384Z</time></trkpt><trkpt lat="40.9974017" lon="14.3182117"><ele>20.0</ele><time>2026-04-24T15:12:51.387Z</time></trkpt><trkpt lat="40.99747" lon="14.3182167"><ele>20.0</ele><time>2026-04-24T15:12:52.384Z</time></trkpt><trkpt lat="40.9975367" lon="14.3182233"><ele>20.0</ele><time>2026-04-24T15:12:53.385Z</time></trkpt><trkpt lat="40.9976033" lon="14.3182333"><ele>20.0</ele><time>2026-04-24T15:12:54.385Z</time></trkpt><trkpt lat="40.99767" lon="14.31824"><ele>20.0</ele><time>2026-04-24T15:12:55.385Z</time></trkpt><trkpt lat="40.997735" lon="14.3182467"><ele>20.0</ele><time>2026-04-24T15:12:56.384Z</time></trkpt><trkpt lat="40.9977983" lon="14.3182517"><ele>20.0</ele><time>2026-04-24T15:12:57.387Z</time></trkpt><trkpt lat="40.997865" lon="14.3182583"><ele>20.0</ele><time>2026-04-24T15:12:58.387Z</time></trkpt><trkpt lat="40.9979333" lon="14.3182683"><ele>20.0</ele><time>2026-04-24T15:12:59.387Z</time></trkpt><trkpt lat="40.9980017" lon="14.3182783"><ele>20.0</ele><time>2026-04-24T15:13:00.387Z</time></trkpt><trkpt lat="40.99807" lon="14.3182883"><ele>20.0</ele><time>2026-04-24T15:13:01.386Z</time></trkpt><trkpt lat="40.9981383" lon="14.318295"><ele>20.0</ele><time>2026-04-24T15:13:02.385Z</time></trkpt><trkpt lat="40.9982083" lon="14.3183017"><ele>20.0</ele><time>2026-04-24T15:13:03.385Z</time></trkpt><trkpt lat="40.998275" lon="14.3183067"><ele>20.0</ele><time>2026-04-24T15:13:04.386Z</time></trkpt><trkpt lat="40.9983417" lon="14.3183083"><ele>20.0</ele><time>2026-04-24T15:13:05.387Z</time></trkpt><trkpt lat="40.9984117" lon="14.3183133"><ele>20.0</ele><time>2026-04-24T15:13:06.385Z</time></trkpt><trkpt lat="40.9984817" lon="14.3183167"><ele>20.142857142857142</ele><time>2026-04-24T15:13:07.384Z</time></trkpt><trkpt lat="40.9985517" lon="14.3183217"><ele>20.285714285714285</ele><time>2026-04-24T15:13:08.386Z</time></trkpt><trkpt lat="40.9986233" lon="14.3183267"><ele>20.42857142857143</ele><time>2026-04-24T15:13:09.386Z</time></trkpt><trkpt lat="40.99869" lon="14.318335"><ele>20.57142857142857</ele><time>2026-04-24T15:13:10.387Z</time></trkpt><trkpt lat="40.9987583" lon="14.3183433"><ele>20.714285714285715</ele><time>2026-04-24T15:13:11.385Z</time></trkpt><trkpt lat="40.9988283" lon="14.3183517"><ele>20.857142857142858</ele><time>2026-04-24T15:13:12.383Z</time></trkpt><trkpt lat="40.9988967" lon="14.3183567"><ele>21.0</ele><time>2026-04-24T15:13:13.385Z</time></trkpt><trkpt lat="40.9989683" lon="14.3183667"><ele>21.0</ele><time>2026-04-24T15:13:14.386Z</time></trkpt><trkpt lat="40.9990383" lon="14.3183783"><ele>21.0</ele><time>2026-04-24T15:13:15.386Z</time></trkpt><trkpt lat="40.9991067" lon="14.3183883"><ele>21.0</ele><time>2026-04-24T15:13:16.387Z</time></trkpt><trkpt lat="40.9991767" lon="14.318395"><ele>21.0</ele><time>2026-04-24T15:13:17.384Z</time></trkpt><trkpt lat="40.9992467" lon="14.3184"><ele>21.0</ele><time>2026-04-24T15:13:18.386Z</time></trkpt><trkpt lat="40.9993167" lon="14.3184083"><ele>21.0</ele><time>2026-04-24T15:13:19.385Z</time></trkpt><trkpt lat="40.999385" lon="14.3184167"><ele>21.0</ele><time>2026-04-24T15:13:20.385Z</time></trkpt><trkpt lat="40.9994533" lon="14.318425"><ele>21.0</ele><time>2026-04-24T15:13:21.385Z</time></trkpt><trkpt lat="40.9995217" lon="14.3184333"><ele>21.0</ele><time>2026-04-24T15:13:22.384Z</time></trkpt><trkpt lat="40.99959" lon="14.3184417"><ele>21.0</ele><time>2026-04-24T15:13:23.384Z</time></trkpt><trkpt lat="40.9996583" lon="14.31845"><ele>21.0</ele><time>2026-04-24T15:13:24.385Z</time></trkpt><trkpt lat="40.999725" lon="14.318455"><ele>21.0</ele><time>2026-04-24T15:13:25.385Z</time></trkpt><trkpt lat="40.9997917" lon="14.3184617"><ele>21.0</ele><time>2026-04-24T15:13:26.385Z</time></trkpt><trkpt lat="40.9998617" lon="14.3184683"><ele>21.0</ele><time>2026-04-24T15:13:27.385Z</time></trkpt><trkpt lat="40.9999317" lon="14.318475"><ele>21.0</ele><time>2026-04-24T15:13:28.385Z</time></trkpt><trkpt lat="41.0" lon="14.3184817"><ele>21.0</ele><time>2026-04-24T15:13:29.385Z</time></trkpt><trkpt lat="41.00007" lon="14.3184867"><ele>21.0</ele><time>2026-04-24T15:13:30.384Z</time></trkpt><trkpt lat="41.00014" lon="14.3184917"><ele>21.0</ele><time>2026-04-24T15:13:31.387Z</time></trkpt><trkpt lat="41.00021" lon="14.3185"><ele>21.0</ele><time>2026-04-24T15:13:32.387Z</time></trkpt><trkpt lat="41.0002817" lon="14.3185067"><ele>21.0</ele><time>2026-04-24T15:13:33.387Z</time></trkpt><trkpt lat="41.0003533" lon="14.3185133"><ele>21.0</ele><time>2026-04-24T15:13:34.385Z</time></trkpt><trkpt lat="41.0004217" lon="14.31852"><ele>21.0</ele><time>2026-04-24T15:13:35.385Z</time></trkpt><trkpt lat="41.0004867" lon="14.3185317"><ele>21.0</ele><time>2026-04-24T15:13:36.386Z</time></trkpt><trkpt lat="41.0005517" lon="14.3185383"><ele>21.0</ele><time>2026-04-24T15:13:37.385Z</time></trkpt><trkpt lat="41.000615" lon="14.3185433"><ele>21.0</ele><time>2026-04-24T15:13:38.386Z</time></trkpt><trkpt lat="41.0006783" lon="14.3185483"><ele>21.0</ele><time>2026-04-24T15:13:39.387Z</time></trkpt><trkpt lat="41.0007417" lon="14.3185517"><ele>21.0</ele><time>2026-04-24T15:13:40.385Z</time></trkpt><trkpt lat="41.0008683" lon="14.3185583"><ele>21.0</ele><time>2026-04-24T15:13:42.386Z</time></trkpt><trkpt lat="41.0009333" lon="14.318565"><ele>21.0</ele><time>2026-04-24T15:13:43.388Z</time></trkpt><trkpt lat="41.001" lon="14.3185717"><ele>21.0</ele><time>2026-04-24T15:13:44.384Z</time></trkpt><trkpt lat="41.0010667" lon="14.31858"><ele>21.0</ele><time>2026-04-24T15:13:45.387Z</time></trkpt><trkpt lat="41.0011317" lon="14.3185933"><ele>21.0</ele><time>2026-04-24T15:13:46.388Z</time></trkpt><trkpt lat="41.0011967" lon="14.3186133"><ele>21.0</ele><time>2026-04-24T15:13:47.387Z</time></trkpt><trkpt lat="41.0012583" lon="14.318645"><ele>21.0</ele><time>2026-04-24T15:13:48.386Z</time></trkpt><trkpt lat="41.00132" lon="14.3186883"><ele>21.0</ele><time>2026-04-24T15:13:49.384Z</time></trkpt><trkpt lat="41.00138" lon="14.3187383"><ele>21.0</ele><time>2026-04-24T15:13:50.384Z</time></trkpt><trkpt lat="41.001435" lon="14.318795"><ele>21.0</ele><time>2026-04-24T15:13:51.385Z</time></trkpt><trkpt lat="41.0014817" lon="14.3188633"><ele>21.0</ele><time>2026-04-24T15:13:52.385Z</time></trkpt><trkpt lat="41.0015267" lon="14.3189383"><ele>21.0</ele><time>2026-04-24T15:13:53.385Z</time></trkpt><trkpt lat="41.0015683" lon="14.3190167"><ele>21.0</ele><time>2026-04-24T15:13:54.386Z</time></trkpt><trkpt lat="41.0016133" lon="14.3190867"><ele>21.0</ele><time>2026-04-24T15:13:55.385Z</time></trkpt><trkpt lat="41.0016683" lon="14.31914"><ele>21.0</ele><time>2026-04-24T15:13:56.385Z</time></trkpt><trkpt lat="41.0017317" lon="14.3191733"><ele>21.0</ele><time>2026-04-24T15:13:57.387Z</time></trkpt><trkpt lat="41.0017983" lon="14.3191683"><ele>21.0</ele><time>2026-04-24T15:13:58.385Z</time></trkpt><trkpt lat="41.0018583" lon="14.3191367"><ele>21.0</ele><time>2026-04-24T15:13:59.385Z</time></trkpt><trkpt lat="41.0019133" lon="14.3190917"><ele>21.0</ele><time>2026-04-24T15:14:00.388Z</time></trkpt><trkpt lat="41.001965" lon="14.3190383"><ele>21.0</ele><time>2026-04-24T15:14:01.384Z</time></trkpt><trkpt lat="41.0020183" lon="14.318975"><ele>21.0</ele><time>2026-04-24T15:14:02.389Z</time></trkpt><trkpt lat="41.00207" lon="14.3189133"><ele>21.0</ele><time>2026-04-24T15:14:03.385Z</time></trkpt><trkpt lat="41.00213" lon="14.3188583"><ele>21.0</ele><time>2026-04-24T15:14:04.386Z</time></trkpt><trkpt lat="41.0021983" lon="14.318815"><ele>21.0</ele><time>2026-04-24T15:14:05.384Z</time></trkpt><trkpt lat="41.00227" lon="14.3187867"><ele>21.0</ele><time>2026-04-24T15:14:06.388Z</time></trkpt><trkpt lat="41.002345" lon="14.3187683"><ele>21.0</ele><time>2026-04-24T15:14:07.386Z</time></trkpt><trkpt lat="41.00242" lon="14.3187583"><ele>21.0</ele><time>2026-04-24T15:14:08.386Z</time></trkpt><trkpt lat="41.002495" lon="14.318755"><ele>21.0</ele><time>2026-04-24T15:14:09.387Z</time></trkpt><trkpt lat="41.00257" lon="14.3187583"><ele>21.142857142857142</ele><time>2026-04-24T15:14:10.385Z</time></trkpt><trkpt lat="41.0026417" lon="14.318765"><ele>21.285714285714285</ele><time>2026-04-24T15:14:11.385Z</time></trkpt><trkpt lat="41.002715" lon="14.3187733"><ele>21.42857142857143</ele><time>2026-04-24T15:14:12.388Z</time></trkpt><trkpt lat="41.0027867" lon="14.3187817"><ele>21.57142857142857</ele><time>2026-04-24T15:14:13.385Z</time></trkpt><trkpt lat="41.002855" lon="14.3187867"><ele>21.714285714285715</ele><time>2026-04-24T15:14:14.385Z</time></trkpt><trkpt lat="41.002925" lon="14.3187967"><ele>21.857142857142858</ele><time>2026-04-24T15:14:15.387Z</time></trkpt><trkpt lat="41.0029967" lon="14.318805"><ele>22.0</ele><time>2026-04-24T15:14:16.384Z</time></trkpt><trkpt lat="41.0030717" lon="14.3188133"><ele>22.0</ele><time>2026-04-24T15:14:17.387Z</time></trkpt><trkpt lat="41.0031467" lon="14.3188267"><ele>22.0</ele><time>2026-04-24T15:14:18.385Z</time></trkpt><trkpt lat="41.0032217" lon="14.3188383"><ele>22.0</ele><time>2026-04-24T15:14:19.387Z</time></trkpt><trkpt lat="41.0032967" lon="14.31885"><ele>22.0</ele><time>2026-04-24T15:14:20.387Z</time></trkpt><trkpt lat="41.0033717" lon="14.31886"><ele>22.0</ele><time>2026-04-24T15:14:21.385Z</time></trkpt><trkpt lat="41.0034483" lon="14.3188717"><ele>22.0</ele><time>2026-04-24T15:14:22.387Z</time></trkpt><trkpt lat="41.003525" lon="14.3188817"><ele>21.5</ele><time>2026-04-24T15:14:23.385Z</time></trkpt><trkpt lat="41.0036033" lon="14.3188933"><ele>21.0</ele><time>2026-04-24T15:14:24.387Z</time></trkpt><trkpt lat="41.0036783" lon="14.3189083"><ele>20.5</ele><time>2026-04-24T15:14:25.386Z</time></trkpt><trkpt lat="41.0037533" lon="14.31892"><ele>20.0</ele><time>2026-04-24T15:14:26.387Z</time></trkpt><trkpt lat="41.00383" lon="14.3189283"><ele>19.5</ele><time>2026-04-24T15:14:27.384Z</time></trkpt><trkpt lat="41.0039033" lon="14.3189367"><ele>19.0</ele><time>2026-04-24T15:14:28.387Z</time></trkpt><trkpt lat="41.0039767" lon="14.3189483"><ele>19.0</ele><time>2026-04-24T15:14:29.387Z</time></trkpt><trkpt lat="41.00405" lon="14.31896"><ele>19.0</ele><time>2026-04-24T15:14:30.387Z</time></trkpt><trkpt lat="41.0041233" lon="14.318975"><ele>19.0</ele><time>2026-04-24T15:14:31.383Z</time></trkpt><trkpt lat="41.0041967" lon="14.3189883"><ele>19.0</ele><time>2026-04-24T15:14:32.385Z</time></trkpt><trkpt lat="41.0042717" lon="14.319005"><ele>19.0</ele><time>2026-04-24T15:14:33.384Z</time></trkpt><trkpt lat="41.0043467" lon="14.319025"><ele>19.0</ele><time>2026-04-24T15:14:34.385Z</time></trkpt><trkpt lat="41.0044217" lon="14.3190483"><ele>19.666666666666664</ele><time>2026-04-24T15:14:35.386Z</time></trkpt><trkpt lat="41.004495" lon="14.3190717"><ele>20.333333333333332</ele><time>2026-04-24T15:14:36.387Z</time></trkpt><trkpt lat="41.00457" lon="14.3190933"><ele>21.0</ele><time>2026-04-24T15:14:37.385Z</time></trkpt><trkpt lat="41.004645" lon="14.3191183"><ele>21.666666666666668</ele><time>2026-04-24T15:14:38.385Z</time></trkpt><trkpt lat="41.00472" lon="14.31914"><ele>22.333333333333336</ele><time>2026-04-24T15:14:39.386Z</time></trkpt><trkpt lat="41.004795" lon="14.3191633"><ele>23.0</ele><time>2026-04-24T15:14:40.386Z</time></trkpt><trkpt lat="41.00487" lon="14.319185"><ele>23.0</ele><time>2026-04-24T15:14:41.385Z</time></trkpt><trkpt lat="41.0049433" lon="14.3192117"><ele>23.0</ele><time>2026-04-24T15:14:42.387Z</time></trkpt><trkpt lat="41.00502" lon="14.3192383"><ele>23.0</ele><time>2026-04-24T15:14:43.386Z</time></trkpt><trkpt lat="41.0050983" lon="14.3192683"><ele>23.0</ele><time>2026-04-24T15:14:44.385Z</time></trkpt><trkpt lat="41.0051717" lon="14.3192967"><ele>23.0</ele><time>2026-04-24T15:14:45.384Z</time></trkpt><trkpt lat="41.0052417" lon="14.3193217"><ele>23.0</ele><time>2026-04-24T15:14:46.384Z</time></trkpt><trkpt lat="41.00531" lon="14.3193467"><ele>22.857142857142858</ele><time>2026-04-24T15:14:47.388Z</time></trkpt><trkpt lat="41.0053767" lon="14.31938"><ele>22.71428571428571</ele><time>2026-04-24T15:14:48.384Z</time></trkpt><trkpt lat="41.0054417" lon="14.319415"><ele>22.57142857142857</ele><time>2026-04-24T15:14:49.383Z</time></trkpt><trkpt lat="41.0055083" lon="14.3194467"><ele>22.42857142857143</ele><time>2026-04-24T15:14:50.384Z</time></trkpt><trkpt lat="41.0055783" lon="14.31948"><ele>22.285714285714285</ele><time>2026-04-24T15:14:51.385Z</time></trkpt><trkpt lat="41.00565" lon="14.319515"><ele>22.142857142857142</ele><time>2026-04-24T15:14:52.387Z</time></trkpt><trkpt lat="41.0057233" lon="14.3195433"><ele>22.0</ele><time>2026-04-24T15:14:53.386Z</time></trkpt><trkpt lat="41.005795" lon="14.3195683"><ele>21.833333333333332</ele><time>2026-04-24T15:14:54.387Z</time></trkpt><trkpt lat="41.0058667" lon="14.3195917"><ele>21.666666666666664</ele><time>2026-04-24T15:14:55.385Z</time></trkpt><trkpt lat="41.0059417" lon="14.3196167"><ele>21.5</ele><time>2026-04-24T15:14:56.385Z</time></trkpt><trkpt lat="41.0060167" lon="14.3196433"><ele>21.333333333333332</ele><time>2026-04-24T15:14:57.384Z</time></trkpt><trkpt lat="41.006095" lon="14.3196683"><ele>21.166666666666668</ele><time>2026-04-24T15:14:58.387Z</time></trkpt><trkpt lat="41.006175" lon="14.3196933"><ele>21.0</ele><time>2026-04-24T15:14:59.387Z</time></trkpt><trkpt lat="41.00625" lon="14.3197183"><ele>21.166666666666668</ele><time>2026-04-24T15:15:00.385Z</time></trkpt><trkpt lat="41.0063267" lon="14.3197417"><ele>21.333333333333332</ele><time>2026-04-24T15:15:01.387Z</time></trkpt><trkpt lat="41.006405" lon="14.3197667"><ele>21.5</ele><time>2026-04-24T15:15:02.388Z</time></trkpt><trkpt lat="41.0064817" lon="14.3197917"><ele>21.666666666666664</ele><time>2026-04-24T15:15:03.385Z</time></trkpt><trkpt lat="41.0065583" lon="14.31982"><ele>21.833333333333332</ele><time>2026-04-24T15:15:04.386Z</time></trkpt><trkpt lat="41.0066367" lon="14.319845"><ele>22.0</ele><time>2026-04-24T15:15:05.387Z</time></trkpt><trkpt lat="41.0067133" lon="14.3198717"><ele>22.0</ele><time>2026-04-24T15:15:06.384Z</time></trkpt><trkpt lat="41.0067917" lon="14.3199"><ele>22.0</ele><time>2026-04-24T15:15:07.385Z</time></trkpt><trkpt lat="41.00687" lon="14.3199267"><ele>22.0</ele><time>2026-04-24T15:15:08.385Z</time></trkpt><trkpt lat="41.006945" lon="14.3199567"><ele>22.0</ele><time>2026-04-24T15:15:09.386Z</time></trkpt><trkpt lat="41.0070217" lon="14.3199867"><ele>22.0</ele><time>2026-04-24T15:15:10.386Z</time></trkpt><trkpt lat="41.0070983" lon="14.320015"><ele>22.0</ele><time>2026-04-24T15:15:11.383Z</time></trkpt><trkpt lat="41.0071767" lon="14.3200433"><ele>22.0</ele><time>2026-04-24T15:15:12.385Z</time></trkpt><trkpt lat="41.007255" lon="14.320075"><ele>22.0</ele><time>2026-04-24T15:15:13.384Z</time></trkpt><trkpt lat="41.007335" lon="14.320105"><ele>22.0</ele><time>2026-04-24T15:15:14.385Z</time></trkpt><trkpt lat="41.0074117" lon="14.3201367"><ele>22.0</ele><time>2026-04-24T15:15:15.384Z</time></trkpt><trkpt lat="41.0074917" lon="14.3201683"><ele>22.0</ele><time>2026-04-24T15:15:16.385Z</time></trkpt><trkpt lat="41.00757" lon="14.320195"><ele>22.0</ele><time>2026-04-24T15:15:17.387Z</time></trkpt><trkpt lat="41.00765" lon="14.3202217"><ele>21.833333333333332</ele><time>2026-04-24T15:15:18.383Z</time></trkpt><trkpt lat="41.00773" lon="14.32025"><ele>21.666666666666664</ele><time>2026-04-24T15:15:19.384Z</time></trkpt><trkpt lat="41.00781" lon="14.3202783"><ele>21.5</ele><time>2026-04-24T15:15:20.384Z</time></trkpt><trkpt lat="41.00789" lon="14.3203067"><ele>21.333333333333332</ele><time>2026-04-24T15:15:21.385Z</time></trkpt><trkpt lat="41.00797" lon="14.320335"><ele>21.166666666666668</ele><time>2026-04-24T15:15:22.384Z</time></trkpt><trkpt lat="41.0080483" lon="14.3203633"><ele>21.0</ele><time>2026-04-24T15:15:23.385Z</time></trkpt><trkpt lat="41.0081283" lon="14.32039"><ele>21.0</ele><time>2026-04-24T15:15:24.385Z</time></trkpt><trkpt lat="41.0082067" lon="14.3204183"><ele>21.0</ele><time>2026-04-24T15:15:25.384Z</time></trkpt><trkpt lat="41.008285" lon="14.320445"><ele>21.0</ele><time>2026-04-24T15:15:26.386Z</time></trkpt><trkpt lat="41.0083633" lon="14.32047"><ele>21.0</ele><time>2026-04-24T15:15:27.383Z</time></trkpt><trkpt lat="41.0084417" lon="14.3205"><ele>21.0</ele><time>2026-04-24T15:15:28.385Z</time></trkpt><trkpt lat="41.00852" lon="14.32053"><ele>21.0</ele><time>2026-04-24T15:15:29.385Z</time></trkpt><trkpt lat="41.0086" lon="14.32056"><ele>21.166666666666668</ele><time>2026-04-24T15:15:30.385Z</time></trkpt><trkpt lat="41.0086767" lon="14.3205883"><ele>21.333333333333332</ele><time>2026-04-24T15:15:31.385Z</time></trkpt><trkpt lat="41.0087533" lon="14.3206183"><ele>21.5</ele><time>2026-04-24T15:15:32.387Z</time></trkpt><trkpt lat="41.0088317" lon="14.3206467"><ele>21.666666666666664</ele><time>2026-04-24T15:15:33.387Z</time></trkpt><trkpt lat="41.0089117" lon="14.3206783"><ele>21.833333333333332</ele><time>2026-04-24T15:15:34.387Z</time></trkpt><trkpt lat="41.00899" lon="14.32071"><ele>22.0</ele><time>2026-04-24T15:15:35.385Z</time></trkpt><trkpt lat="41.00907" lon="14.3207417"><ele>22.0</ele><time>2026-04-24T15:15:36.385Z</time></trkpt><trkpt lat="41.0091517" lon="14.3207717"><ele>22.0</ele><time>2026-04-24T15:15:37.386Z</time></trkpt><trkpt lat="41.0092317" lon="14.3208"><ele>22.0</ele><time>2026-04-24T15:15:38.384Z</time></trkpt><trkpt lat="41.009315" lon="14.3208267"><ele>22.0</ele><time>2026-04-24T15:15:39.386Z</time></trkpt><trkpt lat="41.0093967" lon="14.3208567"><ele>22.0</ele><time>2026-04-24T15:15:40.386Z</time></trkpt><trkpt lat="41.0094783" lon="14.3208867"><ele>22.0</ele><time>2026-04-24T15:15:41.385Z</time></trkpt><trkpt lat="41.00956" lon="14.3209167"><ele>22.0</ele><time>2026-04-24T15:15:42.386Z</time></trkpt><trkpt lat="41.0096383" lon="14.320945"><ele>22.0</ele><time>2026-04-24T15:15:43.385Z</time></trkpt><trkpt lat="41.0097183" lon="14.3209717"><ele>22.0</ele><time>2026-04-24T15:15:44.384Z</time></trkpt><trkpt lat="41.0097983" lon="14.321"><ele>22.0</ele><time>2026-04-24T15:15:45.384Z</time></trkpt><trkpt lat="41.00988" lon="14.3210233"><ele>22.0</ele><time>2026-04-24T15:15:46.384Z</time></trkpt><trkpt lat="41.0099667" lon="14.321055"><ele>22.0</ele><time>2026-04-24T15:15:47.387Z</time></trkpt><trkpt lat="41.0100467" lon="14.3210867"><ele>22.0</ele><time>2026-04-24T15:15:48.384Z</time></trkpt><trkpt lat="41.010125" lon="14.3211167"><ele>22.0</ele><time>2026-04-24T15:15:49.384Z</time></trkpt><trkpt lat="41.0102017" lon="14.3211417"><ele>22.0</ele><time>2026-04-24T15:15:50.385Z</time></trkpt><trkpt lat="41.0102767" lon="14.3211683"><ele>22.0</ele><time>2026-04-24T15:15:51.384Z</time></trkpt><trkpt lat="41.0103517" lon="14.3211933"><ele>22.0</ele><time>2026-04-24T15:15:52.384Z</time></trkpt><trkpt lat="41.010425" lon="14.3212167"><ele>22.0</ele><time>2026-04-24T15:15:53.385Z</time></trkpt><trkpt lat="41.0104967" lon="14.32124"><ele>22.0</ele><time>2026-04-24T15:15:54.386Z</time></trkpt><trkpt lat="41.010565" lon="14.3212617"><ele>22.0</ele><time>2026-04-24T15:15:55.386Z</time></trkpt><trkpt lat="41.0106317" lon="14.3212767"><ele>22.0</ele><time>2026-04-24T15:15:56.384Z</time></trkpt><trkpt lat="41.0107317" lon="14.3213133"><ele>22.0</ele><time>2026-04-24T15:15:58.384Z</time></trkpt><trkpt lat="41.01081" lon="14.321345"><ele>22.0</ele><time>2026-04-24T15:16:00.387Z</time></trkpt><trkpt lat="41.0108883" lon="14.3213933"><ele>22.0</ele><time>2026-04-24T15:16:02.387Z</time></trkpt><trkpt lat="41.0109567" lon="14.3214667"><ele>22.200000000000003</ele><time>2026-04-24T15:16:04.385Z</time></trkpt><trkpt lat="41.01105" lon="14.3215283"><ele>22.4</ele><time>2026-04-24T15:16:06.386Z</time></trkpt><trkpt lat="41.0111483" lon="14.3215867"><ele>22.6</ele><time>2026-04-24T15:16:08.385Z</time></trkpt><trkpt lat="41.0112483" lon="14.3216667"><ele>22.799999999999997</ele><time>2026-04-24T15:16:10.384Z</time></trkpt><trkpt lat="41.0113017" lon="14.32172"><ele>23.0</ele><time>2026-04-24T15:16:11.386Z</time></trkpt><trkpt lat="41.0113567" lon="14.32177"><ele>23.0</ele><time>2026-04-24T15:16:12.384Z</time></trkpt><trkpt lat="41.0114117" lon="14.321825"><ele>23.0</ele><time>2026-04-24T15:16:13.386Z</time></trkpt><trkpt lat="41.011465" lon="14.32188"><ele>23.0</ele><time>2026-04-24T15:16:14.385Z</time></trkpt><trkpt lat="41.0115183" lon="14.32194"><ele>23.0</ele><time>2026-04-24T15:16:15.383Z</time></trkpt><trkpt lat="41.0115683" lon="14.3219983"><ele>23.0</ele><time>2026-04-24T15:16:16.383Z</time></trkpt><trkpt lat="41.01162" lon="14.3220583"><ele>23.0</ele><time>2026-04-24T15:16:17.387Z</time></trkpt><trkpt lat="41.0116717" lon="14.32212"><ele>23.0</ele><time>2026-04-24T15:16:18.385Z</time></trkpt><trkpt lat="41.0117217" lon="14.32218"><ele>23.28571428571429</ele><time>2026-04-24T15:16:19.385Z</time></trkpt><trkpt lat="41.0117717" lon="14.32224"><ele>23.57142857142857</ele><time>2026-04-24T15:16:20.385Z</time></trkpt><trkpt lat="41.0118233" lon="14.3223"><ele>23.857142857142858</ele><time>2026-04-24T15:16:21.384Z</time></trkpt><trkpt lat="41.011875" lon="14.3223583"><ele>24.142857142857146</ele><time>2026-04-24T15:16:22.385Z</time></trkpt><trkpt lat="41.01193" lon="14.3224183"><ele>24.42857142857143</ele><time>2026-04-24T15:16:23.384Z</time></trkpt><trkpt lat="41.0119833" lon="14.32248"><ele>24.714285714285715</ele><time>2026-04-24T15:16:24.385Z</time></trkpt><trkpt lat="41.012035" lon="14.32254"><ele>25.0</ele><time>2026-04-24T15:16:25.385Z</time></trkpt><trkpt lat="41.01209" lon="14.3226033"><ele>25.000000000000004</ele><time>2026-04-24T15:16:26.385Z</time></trkpt><trkpt lat="41.0121467" lon="14.3226667"><ele>25.0</ele><time>2026-04-24T15:16:27.384Z</time></trkpt><trkpt lat="41.012205" lon="14.3227367"><ele>25.0</ele><time>2026-04-24T15:16:28.383Z</time></trkpt><trkpt lat="41.012265" lon="14.322805"><ele>25.0</ele><time>2026-04-24T15:16:29.385Z</time></trkpt><trkpt lat="41.0123233" lon="14.3228733"><ele>25.000000000000004</ele><time>2026-04-24T15:16:30.384Z</time></trkpt><trkpt lat="41.0123833" lon="14.3229417"><ele>25.0</ele><time>2026-04-24T15:16:31.386Z</time></trkpt><trkpt lat="41.012445" lon="14.3230117"><ele>25.166666666666668</ele><time>2026-04-24T15:16:32.386Z</time></trkpt><trkpt lat="41.0125033" lon="14.3230817"><ele>25.333333333333336</ele><time>2026-04-24T15:16:33.382Z</time></trkpt><trkpt lat="41.0125633" lon="14.323155"><ele>25.5</ele><time>2026-04-24T15:16:34.381Z</time></trkpt><trkpt lat="41.012625" lon="14.3232267"><ele>25.666666666666664</ele><time>2026-04-24T15:16:35.386Z</time></trkpt><trkpt lat="41.0126883" lon="14.3232983"><ele>25.833333333333332</ele><time>2026-04-24T15:16:36.383Z</time></trkpt><trkpt lat="41.0127483" lon="14.3233683"><ele>26.0</ele><time>2026-04-24T15:16:37.385Z</time></trkpt><trkpt lat="41.0128083" lon="14.32344"><ele>25.999999999999996</ele><time>2026-04-24T15:16:38.386Z</time></trkpt><trkpt lat="41.0128717" lon="14.323505"><ele>26.0</ele><time>2026-04-24T15:16:39.383Z</time></trkpt><trkpt lat="41.0129317" lon="14.3235717"><ele>26.0</ele><time>2026-04-24T15:16:40.383Z</time></trkpt><trkpt lat="41.0129933" lon="14.32364"><ele>26.0</ele><time>2026-04-24T15:16:41.385Z</time></trkpt><trkpt lat="41.0130567" lon="14.3237117"><ele>25.999999999999996</ele><time>2026-04-24T15:16:42.384Z</time></trkpt><trkpt lat="41.0131167" lon="14.3237867"><ele>26.0</ele><time>2026-04-24T15:16:43.383Z</time></trkpt><trkpt lat="41.0131783" lon="14.3238667"><ele>26.166666666666664</ele><time>2026-04-24T15:16:44.384Z</time></trkpt><trkpt lat="41.0132383" lon="14.32395"><ele>26.333333333333332</ele><time>2026-04-24T15:16:45.384Z</time></trkpt><trkpt lat="41.0132967" lon="14.3240317"><ele>26.5</ele><time>2026-04-24T15:16:46.384Z</time></trkpt><trkpt lat="41.01335" lon="14.324115"><ele>26.666666666666664</ele><time>2026-04-24T15:16:47.383Z</time></trkpt><trkpt lat="41.0133983" lon="14.3242017"><ele>26.833333333333332</ele><time>2026-04-24T15:16:48.384Z</time></trkpt><trkpt lat="41.01344" lon="14.3242983"><ele>27.0</ele><time>2026-04-24T15:16:49.384Z</time></trkpt><trkpt lat="41.01348" lon="14.324395"><ele>26.666666666666668</ele><time>2026-04-24T15:16:50.384Z</time></trkpt><trkpt lat="41.0135133" lon="14.3244967"><ele>26.333333333333336</ele><time>2026-04-24T15:16:51.384Z</time></trkpt><trkpt lat="41.0135467" lon="14.3246"><ele>26.0</ele><time>2026-04-24T15:16:52.384Z</time></trkpt><trkpt lat="41.01358" lon="14.324705"><ele>25.666666666666668</ele><time>2026-04-24T15:16:53.383Z</time></trkpt><trkpt lat="41.0136117" lon="14.3248133"><ele>25.333333333333336</ele><time>2026-04-24T15:16:54.384Z</time></trkpt><trkpt lat="41.0136417" lon="14.3249167"><ele>25.0</ele><time>2026-04-24T15:16:55.385Z</time></trkpt><trkpt lat="41.0136717" lon="14.3250133"><ele>24.666666666666668</ele><time>2026-04-24T15:16:56.381Z</time></trkpt><trkpt lat="41.0137" lon="14.3251117"><ele>24.333333333333336</ele><time>2026-04-24T15:16:57.384Z</time></trkpt><trkpt lat="41.0137317" lon="14.32521"><ele>24.0</ele><time>2026-04-24T15:16:58.384Z</time></trkpt><trkpt lat="41.013765" lon="14.32531"><ele>23.666666666666668</ele><time>2026-04-24T15:16:59.384Z</time></trkpt><trkpt lat="41.0137967" lon="14.3254133"><ele>23.333333333333336</ele><time>2026-04-24T15:17:00.385Z</time></trkpt><trkpt lat="41.0138317" lon="14.3255167"><ele>23.0</ele><time>2026-04-24T15:17:01.386Z</time></trkpt><trkpt lat="41.0138717" lon="14.32562"><ele>23.0</ele><time>2026-04-24T15:17:02.386Z</time></trkpt><trkpt lat="41.0139167" lon="14.3257217"><ele>23.0</ele><time>2026-04-24T15:17:03.384Z</time></trkpt><trkpt lat="41.013965" lon="14.325825"><ele>23.0</ele><time>2026-04-24T15:17:04.383Z</time></trkpt><trkpt lat="41.01401" lon="14.32593"><ele>23.0</ele><time>2026-04-24T15:17:05.383Z</time></trkpt><trkpt lat="41.0140567" lon="14.3260367"><ele>23.0</ele><time>2026-04-24T15:17:06.384Z</time></trkpt><trkpt lat="41.0141133" lon="14.326145"><ele>23.0</ele><time>2026-04-24T15:17:07.385Z</time></trkpt><trkpt lat="41.0141767" lon="14.3262433"><ele>23.0</ele><time>2026-04-24T15:17:08.385Z</time></trkpt><trkpt lat="41.01424" lon="14.326335"><ele>23.0</ele><time>2026-04-24T15:17:09.384Z</time></trkpt><trkpt lat="41.014305" lon="14.3264233"><ele>23.0</ele><time>2026-04-24T15:17:10.386Z</time></trkpt><trkpt lat="41.01437" lon="14.32651"><ele>23.0</ele><time>2026-04-24T15:17:11.383Z</time></trkpt><trkpt lat="41.0144367" lon="14.32659"><ele>23.0</ele><time>2026-04-24T15:17:12.384Z</time></trkpt><trkpt lat="41.014505" lon="14.3266683"><ele>23.0</ele><time>2026-04-24T15:17:13.384Z</time></trkpt><trkpt lat="41.0145767" lon="14.32675"><ele>23.0</ele><time>2026-04-24T15:17:14.382Z</time></trkpt><trkpt lat="41.0146567" lon="14.3268183"><ele>23.0</ele><time>2026-04-24T15:17:15.386Z</time></trkpt><trkpt lat="41.01474" lon="14.3268817"><ele>23.0</ele><time>2026-04-24T15:17:16.384Z</time></trkpt><trkpt lat="41.0148283" lon="14.3269433"><ele>23.0</ele><time>2026-04-24T15:17:17.384Z</time></trkpt><trkpt lat="41.0149167" lon="14.3270017"><ele>23.0</ele><time>2026-04-24T15:17:18.384Z</time></trkpt><trkpt lat="41.0150083" lon="14.3270617"><ele>23.0</ele><time>2026-04-24T15:17:19.383Z</time></trkpt><trkpt lat="41.0151033" lon="14.3271217"><ele>23.0</ele><time>2026-04-24T15:17:20.383Z</time></trkpt><trkpt lat="41.0151983" lon="14.3271817"><ele>23.0</ele><time>2026-04-24T15:17:21.383Z</time></trkpt><trkpt lat="41.015295" lon="14.3272383"><ele>23.0</ele><time>2026-04-24T15:17:22.382Z</time></trkpt><trkpt lat="41.01539" lon="14.32729"><ele>23.0</ele><time>2026-04-24T15:17:23.383Z</time></trkpt><trkpt lat="41.0154833" lon="14.3273333"><ele>23.0</ele><time>2026-04-24T15:17:24.384Z</time></trkpt><trkpt lat="41.0155783" lon="14.32737"><ele>23.0</ele><time>2026-04-24T15:17:25.384Z</time></trkpt><trkpt lat="41.0156717" lon="14.3273933"><ele>23.0</ele><time>2026-04-24T15:17:26.385Z</time></trkpt><trkpt lat="41.0157633" lon="14.3274083"><ele>23.0</ele><time>2026-04-24T15:17:27.386Z</time></trkpt><trkpt lat="41.0158517" lon="14.3274167"><ele>23.0</ele><time>2026-04-24T15:17:28.383Z</time></trkpt><trkpt lat="41.01594" lon="14.3274267"><ele>23.0</ele><time>2026-04-24T15:17:29.386Z</time></trkpt><trkpt lat="41.0160233" lon="14.3274367"><ele>23.0</ele><time>2026-04-24T15:17:30.386Z</time></trkpt><trkpt lat="41.0161067" lon="14.3274383"><ele>23.0</ele><time>2026-04-24T15:17:31.383Z</time></trkpt><trkpt lat="41.0161817" lon="14.3274317"><ele>23.0</ele><time>2026-04-24T15:17:32.386Z</time></trkpt><trkpt lat="41.0162517" lon="14.32742"><ele>23.0</ele><time>2026-04-24T15:17:33.386Z</time></trkpt><trkpt lat="41.0163167" lon="14.3274"><ele>23.0</ele><time>2026-04-24T15:17:34.385Z</time></trkpt><trkpt lat="41.016385" lon="14.32738"><ele>23.0</ele><time>2026-04-24T15:17:35.386Z</time></trkpt><trkpt lat="41.0164533" lon="14.3273667"><ele>23.0</ele><time>2026-04-24T15:17:36.386Z</time></trkpt><trkpt lat="41.0165233" lon="14.327355"><ele>23.0</ele><time>2026-04-24T15:17:37.385Z</time></trkpt><trkpt lat="41.0165917" lon="14.3273533"><ele>23.0</ele><time>2026-04-24T15:17:38.386Z</time></trkpt><trkpt lat="41.0166633" lon="14.32736"><ele>23.0</ele><time>2026-04-24T15:17:39.386Z</time></trkpt><trkpt lat="41.0167383" lon="14.327365"><ele>23.0</ele><time>2026-04-24T15:17:40.383Z</time></trkpt><trkpt lat="41.0168133" lon="14.3273633"><ele>23.0</ele><time>2026-04-24T15:17:41.386Z</time></trkpt><trkpt lat="41.0168917" lon="14.32736"><ele>23.0</ele><time>2026-04-24T15:17:42.383Z</time></trkpt><trkpt lat="41.0169717" lon="14.327355"><ele>23.0</ele><time>2026-04-24T15:17:43.386Z</time></trkpt><trkpt lat="41.0170517" lon="14.327345"><ele>23.0</ele><time>2026-04-24T15:17:44.384Z</time></trkpt><trkpt lat="41.0171367" lon="14.3273367"><ele>23.0</ele><time>2026-04-24T15:17:45.386Z</time></trkpt><trkpt lat="41.0172217" lon="14.3273283"><ele>23.0</ele><time>2026-04-24T15:17:46.382Z</time></trkpt><trkpt lat="41.0173017" lon="14.327315"><ele>23.0</ele><time>2026-04-24T15:17:47.384Z</time></trkpt><trkpt lat="41.0173833" lon="14.3273033"><ele>23.0</ele><time>2026-04-24T15:17:48.384Z</time></trkpt><trkpt lat="41.0174617" lon="14.327295"><ele>23.0</ele><time>2026-04-24T15:17:49.386Z</time></trkpt><trkpt lat="41.0175433" lon="14.327285"><ele>23.0</ele><time>2026-04-24T15:17:50.383Z</time></trkpt><trkpt lat="41.0176267" lon="14.3272683"><ele>23.0</ele><time>2026-04-24T15:17:51.385Z</time></trkpt><trkpt lat="41.0177117" lon="14.32725"><ele>23.0</ele><time>2026-04-24T15:17:52.386Z</time></trkpt><trkpt lat="41.017795" lon="14.3272367"><ele>23.0</ele><time>2026-04-24T15:17:53.385Z</time></trkpt><trkpt lat="41.0178783" lon="14.32722"><ele>23.0</ele><time>2026-04-24T15:17:54.385Z</time></trkpt><trkpt lat="41.0179617" lon="14.3272017"><ele>23.0</ele><time>2026-04-24T15:17:55.385Z</time></trkpt><trkpt lat="41.0180417" lon="14.327185"><ele>23.0</ele><time>2026-04-24T15:17:56.385Z</time></trkpt><trkpt lat="41.018125" lon="14.3271633"><ele>23.0</ele><time>2026-04-24T15:17:57.385Z</time></trkpt><trkpt lat="41.01821" lon="14.3271383"><ele>23.0</ele><time>2026-04-24T15:17:58.386Z</time></trkpt><trkpt lat="41.018295" lon="14.32712"><ele>23.0</ele><time>2026-04-24T15:17:59.385Z</time></trkpt><trkpt lat="41.0183817" lon="14.327105"><ele>23.0</ele><time>2026-04-24T15:18:00.385Z</time></trkpt><trkpt lat="41.0184683" lon="14.327095"><ele>23.0</ele><time>2026-04-24T15:18:01.385Z</time></trkpt><trkpt lat="41.0185517" lon="14.32708"><ele>23.0</ele><time>2026-04-24T15:18:02.386Z</time></trkpt><trkpt lat="41.0186333" lon="14.32707"><ele>23.0</ele><time>2026-04-24T15:18:03.386Z</time></trkpt><trkpt lat="41.018715" lon="14.3270567"><ele>23.166666666666668</ele><time>2026-04-24T15:18:04.386Z</time></trkpt><trkpt lat="41.0187983" lon="14.3270467"><ele>23.333333333333336</ele><time>2026-04-24T15:18:05.385Z</time></trkpt><trkpt lat="41.01888" lon="14.3270383"><ele>23.5</ele><time>2026-04-24T15:18:06.382Z</time></trkpt><trkpt lat="41.01896" lon="14.327025"><ele>23.666666666666668</ele><time>2026-04-24T15:18:07.385Z</time></trkpt><trkpt lat="41.0190417" lon="14.3270067"><ele>23.833333333333332</ele><time>2026-04-24T15:18:08.383Z</time></trkpt><trkpt lat="41.019125" lon="14.3269833"><ele>24.0</ele><time>2026-04-24T15:18:09.383Z</time></trkpt><trkpt lat="41.01921" lon="14.3269533"><ele>24.333333333333332</ele><time>2026-04-24T15:18:10.383Z</time></trkpt><trkpt lat="41.019295" lon="14.32692"><ele>24.666666666666664</ele><time>2026-04-24T15:18:11.385Z</time></trkpt><trkpt lat="41.01938" lon="14.32688"><ele>25.0</ele><time>2026-04-24T15:18:12.384Z</time></trkpt><trkpt lat="41.019465" lon="14.326835"><ele>25.333333333333332</ele><time>2026-04-24T15:18:13.382Z</time></trkpt><trkpt lat="41.0195483" lon="14.3267883"><ele>25.666666666666664</ele><time>2026-04-24T15:18:14.386Z</time></trkpt><trkpt lat="41.0196267" lon="14.3267367"><ele>26.0</ele><time>2026-04-24T15:18:15.384Z</time></trkpt><trkpt lat="41.0197017" lon="14.32668"><ele>25.999999999999996</ele><time>2026-04-24T15:18:16.385Z</time></trkpt><trkpt lat="41.0197717" lon="14.3266267"><ele>26.0</ele><time>2026-04-24T15:18:17.385Z</time></trkpt><trkpt lat="41.0198367" lon="14.32657"><ele>26.0</ele><time>2026-04-24T15:18:18.383Z</time></trkpt><trkpt lat="41.0198967" lon="14.3265133"><ele>26.0</ele><time>2026-04-24T15:18:19.385Z</time></trkpt><trkpt lat="41.0199533" lon="14.326455"><ele>25.999999999999996</ele><time>2026-04-24T15:18:20.385Z</time></trkpt><trkpt lat="41.02001" lon="14.326395"><ele>26.0</ele><time>2026-04-24T15:18:21.384Z</time></trkpt><trkpt lat="41.0200667" lon="14.3263317"><ele>26.142857142857142</ele><time>2026-04-24T15:18:22.385Z</time></trkpt><trkpt lat="41.0201167" lon="14.3262683"><ele>26.28571428571429</ele><time>2026-04-24T15:18:23.383Z</time></trkpt><trkpt lat="41.0201683" lon="14.326205"><ele>26.42857142857143</ele><time>2026-04-24T15:18:24.386Z</time></trkpt><trkpt lat="41.0202217" lon="14.3261417"><ele>26.57142857142857</ele><time>2026-04-24T15:18:25.384Z</time></trkpt><trkpt lat="41.0202783" lon="14.3260733"><ele>26.714285714285715</ele><time>2026-04-24T15:18:26.384Z</time></trkpt><trkpt lat="41.020335" lon="14.3260033"><ele>26.857142857142858</ele><time>2026-04-24T15:18:27.383Z</time></trkpt><trkpt lat="41.0203917" lon="14.325935"><ele>27.0</ele><time>2026-04-24T15:18:28.387Z</time></trkpt><trkpt lat="41.020445" lon="14.3258667"><ele>27.0</ele><time>2026-04-24T15:18:29.383Z</time></trkpt><trkpt lat="41.0205017" lon="14.3258"><ele>27.0</ele><time>2026-04-24T15:18:30.384Z</time></trkpt><trkpt lat="41.0205583" lon="14.3257333"><ele>27.0</ele><time>2026-04-24T15:18:31.385Z</time></trkpt><trkpt lat="41.0206133" lon="14.3256617"><ele>27.0</ele><time>2026-04-24T15:18:32.385Z</time></trkpt><trkpt lat="41.0206683" lon="14.3255933"><ele>27.0</ele><time>2026-04-24T15:18:33.385Z</time></trkpt><trkpt lat="41.020725" lon="14.3255217"><ele>27.0</ele><time>2026-04-24T15:18:34.384Z</time></trkpt><trkpt lat="41.02078" lon="14.3254467"><ele>26.833333333333332</ele><time>2026-04-24T15:18:35.386Z</time></trkpt><trkpt lat="41.0208367" lon="14.3253783"><ele>26.666666666666664</ele><time>2026-04-24T15:18:36.386Z</time></trkpt><trkpt lat="41.0209" lon="14.3253167"><ele>26.5</ele><time>2026-04-24T15:18:37.385Z</time></trkpt><trkpt lat="41.0209683" lon="14.32526"><ele>26.333333333333332</ele><time>2026-04-24T15:18:38.386Z</time></trkpt><trkpt lat="41.0210367" lon="14.325205"><ele>26.166666666666664</ele><time>2026-04-24T15:18:39.385Z</time></trkpt><trkpt lat="41.0211083" lon="14.3251533"><ele>26.0</ele><time>2026-04-24T15:18:40.385Z</time></trkpt><trkpt lat="41.0211817" lon="14.3251117"><ele>26.0</ele><time>2026-04-24T15:18:41.383Z</time></trkpt><trkpt lat="41.021255" lon="14.325075"><ele>26.0</ele><time>2026-04-24T15:18:42.386Z</time></trkpt><trkpt lat="41.0213267" lon="14.3250433"><ele>26.0</ele><time>2026-04-24T15:18:43.385Z</time></trkpt><trkpt lat="41.0213967" lon="14.3250083"><ele>26.0</ele><time>2026-04-24T15:18:44.382Z</time></trkpt><trkpt lat="41.0214667" lon="14.3249733"><ele>26.0</ele><time>2026-04-24T15:18:45.384Z</time></trkpt><trkpt lat="41.021535" lon="14.324955"><ele>26.0</ele><time>2026-04-24T15:18:46.384Z</time></trkpt><trkpt lat="41.0216017" lon="14.324945"><ele>26.0</ele><time>2026-04-24T15:18:47.383Z</time></trkpt><trkpt lat="41.0216717" lon="14.3249383"><ele>26.200000000000003</ele><time>2026-04-24T15:18:48.385Z</time></trkpt><trkpt lat="41.02174" lon="14.324935"><ele>26.400000000000002</ele><time>2026-04-24T15:18:49.385Z</time></trkpt><trkpt lat="41.0218033" lon="14.3249317"><ele>26.6</ele><time>2026-04-24T15:18:50.382Z</time></trkpt><trkpt lat="41.0219217" lon="14.3249217"><ele>26.8</ele><time>2026-04-24T15:18:52.383Z</time></trkpt><trkpt lat="41.022025" lon="14.324915"><ele>27.0</ele><time>2026-04-24T15:18:54.382Z</time></trkpt><trkpt lat="41.0221317" lon="14.32491"><ele>27.0</ele><time>2026-04-24T15:18:56.384Z</time></trkpt><trkpt lat="41.0222517" lon="14.3249083"><ele>27.0</ele><time>2026-04-24T15:18:58.383Z</time></trkpt><trkpt lat="41.022315" lon="14.3249133"><ele>27.0</ele><time>2026-04-24T15:18:59.384Z</time></trkpt><trkpt lat="41.0223783" lon="14.324915"><ele>27.0</ele><time>2026-04-24T15:19:00.383Z</time></trkpt><trkpt lat="41.0224433" lon="14.3249133"><ele>27.0</ele><time>2026-04-24T15:19:01.381Z</time></trkpt><trkpt lat="41.022565" lon="14.3249067"><ele>27.0</ele><time>2026-04-24T15:19:03.386Z</time></trkpt><trkpt lat="41.02268" lon="14.324905"><ele>27.0</ele><time>2026-04-24T15:19:05.383Z</time></trkpt><trkpt lat="41.02278" lon="14.3249333"><ele>27.000000000000004</ele><time>2026-04-24T15:19:07.383Z</time></trkpt><trkpt lat="41.0228867" lon="14.32496"><ele>27.000000000000004</ele><time>2026-04-24T15:19:09.386Z</time></trkpt><trkpt lat="41.0230083" lon="14.32496"><ele>27.0</ele><time>2026-04-24T15:19:11.382Z</time></trkpt><trkpt lat="41.0230733" lon="14.3249617"><ele>27.0</ele><time>2026-04-24T15:19:12.383Z</time></trkpt><trkpt lat="41.0231383" lon="14.32496"><ele>27.0</ele><time>2026-04-24T15:19:13.386Z</time></trkpt><trkpt lat="41.0232033" lon="14.3249567"><ele>27.0</ele><time>2026-04-24T15:19:14.384Z</time></trkpt><trkpt lat="41.0232683" lon="14.3249583"><ele>27.0</ele><time>2026-04-24T15:19:15.383Z</time></trkpt><trkpt lat="41.023335" lon="14.32496"><ele>27.0</ele><time>2026-04-24T15:19:16.386Z</time></trkpt><trkpt lat="41.023405" lon="14.3249633"><ele>27.0</ele><time>2026-04-24T15:19:17.384Z</time></trkpt><trkpt lat="41.0234767" lon="14.3249633"><ele>27.0</ele><time>2026-04-24T15:19:18.386Z</time></trkpt><trkpt lat="41.0235517" lon="14.3249633"><ele>27.0</ele><time>2026-04-24T15:19:19.386Z</time></trkpt><trkpt lat="41.0236233" lon="14.3249583"><ele>27.0</ele><time>2026-04-24T15:19:20.383Z</time></trkpt><trkpt lat="41.0236967" lon="14.3249567"><ele>27.0</ele><time>2026-04-24T15:19:21.383Z</time></trkpt><trkpt lat="41.0237667" lon="14.3249567"><ele>27.0</ele><time>2026-04-24T15:19:22.384Z</time></trkpt><trkpt lat="41.0238333" lon="14.324955"><ele>27.0</ele><time>2026-04-24T15:19:23.385Z</time></trkpt><trkpt lat="41.0239033" lon="14.3249483"><ele>27.0</ele><time>2026-04-24T15:19:24.382Z</time></trkpt><trkpt lat="41.0239767" lon="14.32495"><ele>27.0</ele><time>2026-04-24T15:19:25.384Z</time></trkpt><trkpt lat="41.024045" lon="14.32495"><ele>27.0</ele><time>2026-04-24T15:19:26.383Z</time></trkpt><trkpt lat="41.0241083" lon="14.3249483"><ele>26.8</ele><time>2026-04-24T15:19:27.383Z</time></trkpt><trkpt lat="41.0242083" lon="14.3249417"><ele>26.6</ele><time>2026-04-24T15:19:29.384Z</time></trkpt><trkpt lat="41.0243017" lon="14.3249717"><ele>26.400000000000002</ele><time>2026-04-24T15:19:31.385Z</time></trkpt><trkpt lat="41.0244" lon="14.3250267"><ele>26.200000000000003</ele><time>2026-04-24T15:19:33.385Z</time></trkpt><trkpt lat="41.024495" lon="14.3250333"><ele>26.0</ele><time>2026-04-24T15:19:35.384Z</time></trkpt><trkpt lat="41.024585" lon="14.3249917"><ele>25.999999999999996</ele><time>2026-04-24T15:19:37.386Z</time></trkpt><trkpt lat="41.024695" lon="14.3249733"><ele>26.0</ele><time>2026-04-24T15:19:39.386Z</time></trkpt><trkpt lat="41.0247583" lon="14.3249767"><ele>26.0</ele><time>2026-04-24T15:19:40.385Z</time></trkpt><trkpt lat="41.024825" lon="14.32498"><ele>26.0</ele><time>2026-04-24T15:19:41.384Z</time></trkpt><trkpt lat="41.024895" lon="14.324985"><ele>25.999999999999996</ele><time>2026-04-24T15:19:42.385Z</time></trkpt><trkpt lat="41.0249667" lon="14.3249833"><ele>26.0</ele><time>2026-04-24T15:19:43.386Z</time></trkpt><trkpt lat="41.0250367" lon="14.3249767"><ele>26.285714285714285</ele><time>2026-04-24T15:19:44.386Z</time></trkpt><trkpt lat="41.0251067" lon="14.3249683"><ele>26.571428571428573</ele><time>2026-04-24T15:19:45.386Z</time></trkpt><trkpt lat="41.0251783" lon="14.3249617"><ele>26.857142857142858</ele><time>2026-04-24T15:19:46.386Z</time></trkpt><trkpt lat="41.0252517" lon="14.3249567"><ele>27.142857142857142</ele><time>2026-04-24T15:19:47.386Z</time></trkpt><trkpt lat="41.0253267" lon="14.324955"><ele>27.42857142857143</ele><time>2026-04-24T15:19:48.385Z</time></trkpt><trkpt lat="41.0254" lon="14.3249517"><ele>27.714285714285715</ele><time>2026-04-24T15:19:49.387Z</time></trkpt><trkpt lat="41.025475" lon="14.3249483"><ele>28.0</ele><time>2026-04-24T15:19:50.386Z</time></trkpt><trkpt lat="41.0255533" lon="14.3249467"><ele>28.000000000000004</ele><time>2026-04-24T15:19:51.385Z</time></trkpt><trkpt lat="41.0256283" lon="14.324945"><ele>28.0</ele><time>2026-04-24T15:19:52.386Z</time></trkpt><trkpt lat="41.025705" lon="14.32494"><ele>28.0</ele><time>2026-04-24T15:19:53.383Z</time></trkpt><trkpt lat="41.025785" lon="14.3249383"><ele>28.0</ele><time>2026-04-24T15:19:54.384Z</time></trkpt><trkpt lat="41.0258667" lon="14.3249367"><ele>28.000000000000004</ele><time>2026-04-24T15:19:55.386Z</time></trkpt><trkpt lat="41.0259467" lon="14.324935"><ele>28.0</ele><time>2026-04-24T15:19:56.385Z</time></trkpt><trkpt lat="41.026025" lon="14.3249333"><ele>28.166666666666668</ele><time>2026-04-24T15:19:57.384Z</time></trkpt><trkpt lat="41.0261" lon="14.3249333"><ele>28.333333333333336</ele><time>2026-04-24T15:19:58.386Z</time></trkpt><trkpt lat="41.0261767" lon="14.32493"><ele>28.5</ele><time>2026-04-24T15:19:59.385Z</time></trkpt><trkpt lat="41.0262533" lon="14.32493"><ele>28.666666666666664</ele><time>2026-04-24T15:20:00.385Z</time></trkpt><trkpt lat="41.02633" lon="14.3249317"><ele>28.833333333333332</ele><time>2026-04-24T15:20:01.383Z</time></trkpt><trkpt lat="41.0264067" lon="14.3249333"><ele>29.0</ele><time>2026-04-24T15:20:02.387Z</time></trkpt><trkpt lat="41.0264867" lon="14.32493"><ele>28.999999999999996</ele><time>2026-04-24T15:20:03.386Z</time></trkpt><trkpt lat="41.026565" lon="14.3249283"><ele>29.0</ele><time>2026-04-24T15:20:04.383Z</time></trkpt><trkpt lat="41.0266433" lon="14.3249267"><ele>29.0</ele><time>2026-04-24T15:20:05.384Z</time></trkpt><trkpt lat="41.02672" lon="14.324925"><ele>29.0</ele><time>2026-04-24T15:20:06.385Z</time></trkpt><trkpt lat="41.026795" lon="14.3249267"><ele>28.999999999999996</ele><time>2026-04-24T15:20:07.385Z</time></trkpt><trkpt lat="41.0268717" lon="14.3249283"><ele>29.0</ele><time>2026-04-24T15:20:08.384Z</time></trkpt><trkpt lat="41.0269533" lon="14.3249217"><ele>29.166666666666664</ele><time>2026-04-24T15:20:09.386Z</time></trkpt><trkpt lat="41.0270317" lon="14.3249183"><ele>29.333333333333332</ele><time>2026-04-24T15:20:10.386Z</time></trkpt><trkpt lat="41.02711" lon="14.3249183"><ele>29.5</ele><time>2026-04-24T15:20:11.385Z</time></trkpt><trkpt lat="41.0271917" lon="14.3249183"><ele>29.666666666666664</ele><time>2026-04-24T15:20:12.382Z</time></trkpt><trkpt lat="41.0272717" lon="14.3249183"><ele>29.833333333333332</ele><time>2026-04-24T15:20:13.383Z</time></trkpt><trkpt lat="41.0273517" lon="14.3249167"><ele>30.0</ele><time>2026-04-24T15:20:14.387Z</time></trkpt><trkpt lat="41.02743" lon="14.32492"><ele>30.42857142857143</ele><time>2026-04-24T15:20:15.384Z</time></trkpt><trkpt lat="41.027505" lon="14.32492"><ele>30.857142857142854</ele><time>2026-04-24T15:20:16.383Z</time></trkpt><trkpt lat="41.0275783" lon="14.3249183"><ele>31.285714285714285</ele><time>2026-04-24T15:20:17.385Z</time></trkpt><trkpt lat="41.02765" lon="14.3249183"><ele>31.714285714285715</ele><time>2026-04-24T15:20:18.383Z</time></trkpt><trkpt lat="41.0277183" lon="14.3249183"><ele>32.142857142857146</ele><time>2026-04-24T15:20:19.385Z</time></trkpt><trkpt lat="41.02779" lon="14.3249133"><ele>32.57142857142857</ele><time>2026-04-24T15:20:20.387Z</time></trkpt><trkpt lat="41.02786" lon="14.324915"><ele>33.0</ele><time>2026-04-24T15:20:21.386Z</time></trkpt><trkpt lat="41.02793" lon="14.3249133"><ele>33.0</ele><time>2026-04-24T15:20:22.384Z</time></trkpt><trkpt lat="41.0279983" lon="14.3249117"><ele>33.0</ele><time>2026-04-24T15:20:23.384Z</time></trkpt><trkpt lat="41.0280683" lon="14.3249067"><ele>33.0</ele><time>2026-04-24T15:20:24.386Z</time></trkpt><trkpt lat="41.0281383" lon="14.3249"><ele>33.0</ele><time>2026-04-24T15:20:25.386Z</time></trkpt><trkpt lat="41.0282083" lon="14.3249033"><ele>33.0</ele><time>2026-04-24T15:20:26.386Z</time></trkpt><trkpt lat="41.0282783" lon="14.3249067"><ele>33.0</ele><time>2026-04-24T15:20:27.384Z</time></trkpt><trkpt lat="41.0283517" lon="14.3249067"><ele>33.0</ele><time>2026-04-24T15:20:28.383Z</time></trkpt><trkpt lat="41.0284233" lon="14.324905"><ele>32.857142857142854</ele><time>2026-04-24T15:20:29.386Z</time></trkpt><trkpt lat="41.0284967" lon="14.3249033"><ele>32.714285714285715</ele><time>2026-04-24T15:20:30.385Z</time></trkpt><trkpt lat="41.0285683" lon="14.3249017"><ele>32.57142857142857</ele><time>2026-04-24T15:20:31.385Z</time></trkpt><trkpt lat="41.0286383" lon="14.3249"><ele>32.42857142857143</ele><time>2026-04-24T15:20:32.386Z</time></trkpt><trkpt lat="41.02871" lon="14.3248967"><ele>32.285714285714285</ele><time>2026-04-24T15:20:33.385Z</time></trkpt><trkpt lat="41.0287833" lon="14.3249"><ele>32.14285714285714</ele><time>2026-04-24T15:20:34.386Z</time></trkpt><trkpt lat="41.028855" lon="14.3248967"><ele>32.0</ele><time>2026-04-24T15:20:35.387Z</time></trkpt><trkpt lat="41.0289267" lon="14.3248967"><ele>32.0</ele><time>2026-04-24T15:20:36.381Z</time></trkpt><trkpt lat="41.0289983" lon="14.3248967"><ele>31.999999999999996</ele><time>2026-04-24T15:20:37.384Z</time></trkpt><trkpt lat="41.02907" lon="14.3249"><ele>32.0</ele><time>2026-04-24T15:20:38.385Z</time></trkpt><trkpt lat="41.0291417" lon="14.3249"><ele>32.0</ele><time>2026-04-24T15:20:39.383Z</time></trkpt><trkpt lat="41.0292117" lon="14.3249"><ele>31.999999999999996</ele><time>2026-04-24T15:20:40.384Z</time></trkpt><trkpt lat="41.02928" lon="14.3248983"><ele>32.0</ele><time>2026-04-24T15:20:41.384Z</time></trkpt><trkpt lat="41.0293533" lon="14.324895"><ele>32.0</ele><time>2026-04-24T15:20:42.384Z</time></trkpt><trkpt lat="41.0294267" lon="14.3248933"><ele>32.0</ele><time>2026-04-24T15:20:43.384Z</time></trkpt><trkpt lat="41.0295017" lon="14.3248933"><ele>31.999999999999996</ele><time>2026-04-24T15:20:44.386Z</time></trkpt><trkpt lat="41.0295767" lon="14.3248967"><ele>32.0</ele><time>2026-04-24T15:20:45.384Z</time></trkpt><trkpt lat="41.0296483" lon="14.3248967"><ele>32.0</ele><time>2026-04-24T15:20:46.386Z</time></trkpt><trkpt lat="41.0297233" lon="14.3248933"><ele>31.999999999999996</ele><time>2026-04-24T15:20:47.385Z</time></trkpt><trkpt lat="41.0297983" lon="14.3248917"><ele>32.0</ele><time>2026-04-24T15:20:48.383Z</time></trkpt><trkpt lat="41.0298733" lon="14.32489"><ele>32.0</ele><time>2026-04-24T15:20:49.386Z</time></trkpt><trkpt lat="41.0299483" lon="14.3248883"><ele>31.857142857142854</ele><time>2026-04-24T15:20:50.384Z</time></trkpt><trkpt lat="41.03002" lon="14.324885"><ele>31.71428571428571</ele><time>2026-04-24T15:20:51.385Z</time></trkpt><trkpt lat="41.0300883" lon="14.3248817"><ele>31.57142857142857</ele><time>2026-04-24T15:20:52.384Z</time></trkpt><trkpt lat="41.0301617" lon="14.3248817"><ele>31.42857142857143</ele><time>2026-04-24T15:20:53.383Z</time></trkpt><trkpt lat="41.0302333" lon="14.3248817"><ele>31.28571428571429</ele><time>2026-04-24T15:20:54.387Z</time></trkpt><trkpt lat="41.030305" lon="14.3248867"><ele>31.142857142857146</ele><time>2026-04-24T15:20:55.382Z</time></trkpt><trkpt lat="41.030375" lon="14.3248917"><ele>31.0</ele><time>2026-04-24T15:20:56.385Z</time></trkpt><trkpt lat="41.0304467" lon="14.3248917"><ele>31.0</ele><time>2026-04-24T15:20:57.383Z</time></trkpt><trkpt lat="41.0305183" lon="14.3248917"><ele>31.000000000000004</ele><time>2026-04-24T15:20:58.384Z</time></trkpt><trkpt lat="41.0305933" lon="14.3248917"><ele>31.0</ele><time>2026-04-24T15:20:59.384Z</time></trkpt><trkpt lat="41.0306667" lon="14.3248933"><ele>31.0</ele><time>2026-04-24T15:21:00.385Z</time></trkpt><trkpt lat="41.03074" lon="14.324895"><ele>31.000000000000004</ele><time>2026-04-24T15:21:01.383Z</time></trkpt><trkpt lat="41.0308133" lon="14.3248917"><ele>31.0</ele><time>2026-04-24T15:21:02.383Z</time></trkpt><trkpt lat="41.0308833" lon="14.3248867"><ele>31.0</ele><time>2026-04-24T15:21:03.385Z</time></trkpt><trkpt lat="41.0309533" lon="14.324885"><ele>31.166666666666668</ele><time>2026-04-24T15:21:04.386Z</time></trkpt><trkpt lat="41.03102" lon="14.324885"><ele>31.333333333333336</ele><time>2026-04-24T15:21:05.383Z</time></trkpt><trkpt lat="41.0310867" lon="14.324885"><ele>31.5</ele><time>2026-04-24T15:21:06.383Z</time></trkpt><trkpt lat="41.03121" lon="14.3248733"><ele>31.666666666666664</ele><time>2026-04-24T15:21:08.384Z</time></trkpt><trkpt lat="41.03132" lon="14.324855"><ele>31.833333333333332</ele><time>2026-04-24T15:21:10.384Z</time></trkpt><trkpt lat="41.0313983" lon="14.32487"><ele>32.0</ele><time>2026-04-24T15:21:12.384Z</time></trkpt><trkpt lat="41.031485" lon="14.3248733"><ele>32.0</ele><time>2026-04-24T15:21:14.385Z</time></trkpt><trkpt lat="41.0315867" lon="14.324875"><ele>32.0</ele><time>2026-04-24T15:21:16.382Z</time></trkpt><trkpt lat="41.0317067" lon="14.3248917"><ele>32.0</ele><time>2026-04-24T15:21:18.385Z</time></trkpt><trkpt lat="41.031835" lon="14.324905"><ele>32.0</ele><time>2026-04-24T15:21:20.387Z</time></trkpt><trkpt lat="41.031905" lon="14.3249083"><ele>32.0</ele><time>2026-04-24T15:21:21.385Z</time></trkpt><trkpt lat="41.0319767" lon="14.3249067"><ele>31.999999999999996</ele><time>2026-04-24T15:21:22.383Z</time></trkpt><trkpt lat="41.0320517" lon="14.324905"><ele>32.0</ele><time>2026-04-24T15:21:23.384Z</time></trkpt><trkpt lat="41.032125" lon="14.3249033"><ele>32.0</ele><time>2026-04-24T15:21:24.386Z</time></trkpt><trkpt lat="41.032205" lon="14.3249"><ele>32.0</ele><time>2026-04-24T15:21:25.386Z</time></trkpt><trkpt lat="41.0322833" lon="14.3248933"><ele>31.999999999999996</ele><time>2026-04-24T15:21:26.386Z</time></trkpt><trkpt lat="41.03236" lon="14.324885"><ele>32.0</ele><time>2026-04-24T15:21:27.386Z</time></trkpt><trkpt lat="41.0324383" lon="14.3248767"><ele>32.33333333333333</ele><time>2026-04-24T15:21:28.383Z</time></trkpt><trkpt lat="41.0325183" lon="14.3248717"><ele>32.666666666666664</ele><time>2026-04-24T15:21:29.385Z</time></trkpt><trkpt lat="41.0325983" lon="14.32487"><ele>33.0</ele><time>2026-04-24T15:21:30.386Z</time></trkpt><trkpt lat="41.0326767" lon="14.3248683"><ele>33.333333333333336</ele><time>2026-04-24T15:21:31.386Z</time></trkpt><trkpt lat="41.03275" lon="14.3248717"><ele>33.66666666666667</ele><time>2026-04-24T15:21:32.387Z</time></trkpt><trkpt lat="41.0328233" lon="14.3248683"><ele>34.0</ele><time>2026-04-24T15:21:33.386Z</time></trkpt><trkpt lat="41.0328933" lon="14.32487"><ele>33.99999999999999</ele><time>2026-04-24T15:21:34.385Z</time></trkpt><trkpt lat="41.0329633" lon="14.32487"><ele>34.0</ele><time>2026-04-24T15:21:35.386Z</time></trkpt><trkpt lat="41.0330367" lon="14.3248683"><ele>34.0</ele><time>2026-04-24T15:21:36.386Z</time></trkpt><trkpt lat="41.0331067" lon="14.3248667"><ele>34.0</ele><time>2026-04-24T15:21:37.385Z</time></trkpt><trkpt lat="41.0331783" lon="14.3248667"><ele>34.0</ele><time>2026-04-24T15:21:38.386Z</time></trkpt><trkpt lat="41.033245" lon="14.324865"><ele>33.99999999999999</ele><time>2026-04-24T15:21:39.386Z</time></trkpt><trkpt lat="41.0333117" lon="14.3248633"><ele>34.0</ele><time>2026-04-24T15:21:40.386Z</time></trkpt><trkpt lat="41.0333783" lon="14.32486"><ele>34.25</ele><time>2026-04-24T15:21:41.386Z</time></trkpt><trkpt lat="41.0335033" lon="14.3248583"><ele>34.5</ele><time>2026-04-24T15:21:43.386Z</time></trkpt><trkpt lat="41.033625" lon="14.3248583"><ele>34.75</ele><time>2026-04-24T15:21:45.386Z</time></trkpt><trkpt lat="41.033745" lon="14.3248717"><ele>35.0</ele><time>2026-04-24T15:21:47.384Z</time></trkpt><trkpt lat="41.0338667" lon="14.3248967"><ele>35.0</ele><time>2026-04-24T15:21:49.382Z</time></trkpt><trkpt lat="41.03393" lon="14.3249067"><ele>35.0</ele><time>2026-04-24T15:21:50.385Z</time></trkpt><trkpt lat="41.033995" lon="14.32491"><ele>35.0</ele><time>2026-04-24T15:21:51.383Z</time></trkpt><trkpt lat="41.0340617" lon="14.3249067"><ele>35.0</ele><time>2026-04-24T15:21:52.383Z</time></trkpt><trkpt lat="41.0341283" lon="14.324905"><ele>35.0</ele><time>2026-04-24T15:21:53.383Z</time></trkpt><trkpt lat="41.0341983" lon="14.3249017"><ele>35.0</ele><time>2026-04-24T15:21:54.386Z</time></trkpt><trkpt lat="41.0342683" lon="14.3248983"><ele>35.0</ele><time>2026-04-24T15:21:55.386Z</time></trkpt><trkpt lat="41.03434" lon="14.324895"><ele>35.2</ele><time>2026-04-24T15:21:56.386Z</time></trkpt><trkpt lat="41.0344083" lon="14.3248917"><ele>35.4</ele><time>2026-04-24T15:21:57.385Z</time></trkpt><trkpt lat="41.0344717" lon="14.3248867"><ele>35.6</ele><time>2026-04-24T15:21:58.382Z</time></trkpt><trkpt lat="41.03459" lon="14.32488"><ele>35.8</ele><time>2026-04-24T15:22:00.386Z</time></trkpt><trkpt lat="41.034715" lon="14.3248683"><ele>36.0</ele><time>2026-04-24T15:22:02.387Z</time></trkpt><trkpt lat="41.0348283" lon="14.32485"><ele>36.0</ele><time>2026-04-24T15:22:04.385Z</time></trkpt><trkpt lat="41.0349433" lon="14.324845"><ele>36.0</ele><time>2026-04-24T15:22:06.386Z</time></trkpt><trkpt lat="41.0350583" lon="14.32485"><ele>36.0</ele><time>2026-04-24T15:22:08.387Z</time></trkpt><trkpt lat="41.0351683" lon="14.3248533"><ele>36.0</ele><time>2026-04-24T15:22:10.383Z</time></trkpt><trkpt lat="41.0352767" lon="14.3248483"><ele>36.0</ele><time>2026-04-24T15:22:12.382Z</time></trkpt><trkpt lat="41.035375" lon="14.3248283"><ele>36.0</ele><time>2026-04-24T15:22:14.386Z</time></trkpt><trkpt lat="41.0354617" lon="14.324825"><ele>36.0</ele><time>2026-04-24T15:22:17.382Z</time></trkpt><trkpt lat="41.0355467" lon="14.3248383"><ele>36.0</ele><time>2026-04-24T15:22:20.385Z</time></trkpt><trkpt lat="41.0356117" lon="14.3248367"><ele>36.0</ele><time>2026-04-24T15:22:22.383Z</time></trkpt><trkpt lat="41.035685" lon="14.3248417"><ele>36.0</ele><time>2026-04-24T15:22:24.383Z</time></trkpt><trkpt lat="41.0357667" lon="14.3248467"><ele>36.0</ele><time>2026-04-24T15:22:26.383Z</time></trkpt><trkpt lat="41.0358483" lon="14.3248467"><ele>36.4</ele><time>2026-04-24T15:22:28.386Z</time></trkpt><trkpt lat="41.03594" lon="14.3248517"><ele>36.8</ele><time>2026-04-24T15:22:30.386Z</time></trkpt><trkpt lat="41.0360417" lon="14.324845"><ele>37.199999999999996</ele><time>2026-04-24T15:22:32.385Z</time></trkpt><trkpt lat="41.0361433" lon="14.3248433"><ele>37.6</ele><time>2026-04-24T15:22:34.382Z</time></trkpt><trkpt lat="41.03624" lon="14.3248317"><ele>38.0</ele><time>2026-04-24T15:22:36.385Z</time></trkpt><trkpt lat="41.0363317" lon="14.3248133"><ele>38.0</ele><time>2026-04-24T15:22:38.385Z</time></trkpt><trkpt lat="41.036415" lon="14.3248167"><ele>38.0</ele><time>2026-04-24T15:22:39.383Z</time></trkpt><trkpt lat="41.03653" lon="14.3248583"><ele>38.0</ele><time>2026-04-24T15:22:41.383Z</time></trkpt><trkpt lat="41.0365983" lon="14.3248517"><ele>38.0</ele><time>2026-04-24T15:22:42.387Z</time></trkpt><trkpt lat="41.0366633" lon="14.3248533"><ele>38.0</ele><time>2026-04-24T15:22:43.386Z</time></trkpt><trkpt lat="41.0367817" lon="14.3248417"><ele>38.33333333333333</ele><time>2026-04-24T15:22:45.385Z</time></trkpt><trkpt lat="41.0369033" lon="14.3248417"><ele>38.666666666666664</ele><time>2026-04-24T15:22:47.385Z</time></trkpt><trkpt lat="41.0369667" lon="14.3248417"><ele>39.0</ele><time>2026-04-24T15:22:48.384Z</time></trkpt><trkpt lat="41.0370317" lon="14.3248367"><ele>39.333333333333336</ele><time>2026-04-24T15:22:49.385Z</time></trkpt><trkpt lat="41.0371533" lon="14.3248317"><ele>39.66666666666667</ele><time>2026-04-24T15:22:51.383Z</time></trkpt><trkpt lat="41.03722" lon="14.3248333"><ele>40.0</ele><time>2026-04-24T15:22:52.383Z</time></trkpt><trkpt lat="41.037285" lon="14.3248333"><ele>40.0</ele><time>2026-04-24T15:22:53.384Z</time></trkpt><trkpt lat="41.0373483" lon="14.3248283"><ele>40.0</ele><time>2026-04-24T15:22:54.385Z</time></trkpt><trkpt lat="41.0374133" lon="14.3248217"><ele>40.0</ele><time>2026-04-24T15:22:55.386Z</time></trkpt><trkpt lat="41.0374833" lon="14.32482"><ele>40.0</ele><time>2026-04-24T15:22:56.387Z</time></trkpt><trkpt lat="41.037555" lon="14.3248183"><ele>40.0</ele><time>2026-04-24T15:22:57.383Z</time></trkpt><trkpt lat="41.037625" lon="14.324815"><ele>40.0</ele><time>2026-04-24T15:22:58.386Z</time></trkpt><trkpt lat="41.0376933" lon="14.3248117"><ele>40.0</ele><time>2026-04-24T15:22:59.386Z</time></trkpt><trkpt lat="41.0377633" lon="14.3248167"><ele>40.285714285714285</ele><time>2026-04-24T15:23:00.383Z</time></trkpt><trkpt lat="41.0378317" lon="14.3248167"><ele>40.57142857142857</ele><time>2026-04-24T15:23:01.384Z</time></trkpt><trkpt lat="41.0378983" lon="14.324815"><ele>40.85714285714286</ele><time>2026-04-24T15:23:02.385Z</time></trkpt><trkpt lat="41.0379667" lon="14.3248167"><ele>41.14285714285714</ele><time>2026-04-24T15:23:03.384Z</time></trkpt><trkpt lat="41.0380333" lon="14.3248183"><ele>41.42857142857143</ele><time>2026-04-24T15:23:04.387Z</time></trkpt><trkpt lat="41.0381033" lon="14.3248183"><ele>41.714285714285715</ele><time>2026-04-24T15:23:05.386Z</time></trkpt><trkpt lat="41.0381733" lon="14.3248183"><ele>42.0</ele><time>2026-04-24T15:23:06.383Z</time></trkpt><trkpt lat="41.038245" lon="14.3248167"><ele>41.714285714285715</ele><time>2026-04-24T15:23:07.386Z</time></trkpt><trkpt lat="41.0383183" lon="14.3248133"><ele>41.42857142857143</ele><time>2026-04-24T15:23:08.386Z</time></trkpt><trkpt lat="41.03839" lon="14.3248133"><ele>41.14285714285714</ele><time>2026-04-24T15:23:09.387Z</time></trkpt><trkpt lat="41.0384617" lon="14.324815"><ele>40.85714285714286</ele><time>2026-04-24T15:23:10.386Z</time></trkpt><trkpt lat="41.0385383" lon="14.3248167"><ele>40.57142857142857</ele><time>2026-04-24T15:23:11.387Z</time></trkpt><trkpt lat="41.0386117" lon="14.3248217"><ele>40.285714285714285</ele><time>2026-04-24T15:23:12.386Z</time></trkpt><trkpt lat="41.0386867" lon="14.3248183"><ele>40.0</ele><time>2026-04-24T15:23:13.383Z</time></trkpt><trkpt lat="41.03876" lon="14.3248167"><ele>40.0</ele><time>2026-04-24T15:23:14.386Z</time></trkpt><trkpt lat="41.0388317" lon="14.3248183"><ele>40.0</ele><time>2026-04-24T15:23:15.385Z</time></trkpt><trkpt lat="41.0389033" lon="14.3248167"><ele>40.0</ele><time>2026-04-24T15:23:16.383Z</time></trkpt><trkpt lat="41.038975" lon="14.324815"><ele>40.0</ele><time>2026-04-24T15:23:17.382Z</time></trkpt><trkpt lat="41.0390483" lon="14.3248133"><ele>40.0</ele><time>2026-04-24T15:23:18.386Z</time></trkpt><trkpt lat="41.0391217" lon="14.32481"><ele>40.0</ele><time>2026-04-24T15:23:19.383Z</time></trkpt><trkpt lat="41.0391967" lon="14.3248083"><ele>40.0</ele><time>2026-04-24T15:23:20.383Z</time></trkpt><trkpt lat="41.039275" lon="14.3248067"><ele>39.857142857142854</ele><time>2026-04-24T15:23:21.386Z</time></trkpt><trkpt lat="41.0393517" lon="14.324805"><ele>39.714285714285715</ele><time>2026-04-24T15:23:22.383Z</time></trkpt><trkpt lat="41.0394283" lon="14.324805"><ele>39.57142857142857</ele><time>2026-04-24T15:23:23.383Z</time></trkpt><trkpt lat="41.039505" lon="14.324805"><ele>39.42857142857143</ele><time>2026-04-24T15:23:24.383Z</time></trkpt><trkpt lat="41.0395783" lon="14.3248033"><ele>39.285714285714285</ele><time>2026-04-24T15:23:25.383Z</time></trkpt><trkpt lat="41.0396517" lon="14.3248017"><ele>39.142857142857146</ele><time>2026-04-24T15:23:26.386Z</time></trkpt><trkpt lat="41.0397217" lon="14.3247983"><ele>39.0</ele><time>2026-04-24T15:23:27.387Z</time></trkpt><trkpt lat="41.03979" lon="14.3248033"><ele>39.0</ele><time>2026-04-24T15:23:28.386Z</time></trkpt><trkpt lat="41.0398533" lon="14.3248067"><ele>39.0</ele><time>2026-04-24T15:23:29.387Z</time></trkpt><trkpt lat="41.0399167" lon="14.3248033"><ele>39.0</ele><time>2026-04-24T15:23:30.386Z</time></trkpt><trkpt lat="41.03998" lon="14.3248"><ele>39.0</ele><time>2026-04-24T15:23:31.383Z</time></trkpt><trkpt lat="41.0401067" lon="14.3247917"><ele>39.0</ele><time>2026-04-24T15:23:33.383Z</time></trkpt><trkpt lat="41.04023" lon="14.324785"><ele>39.0</ele><time>2026-04-24T15:23:35.385Z</time></trkpt><trkpt lat="41.0402933" lon="14.3247833"><ele>39.0</ele><time>2026-04-24T15:23:36.384Z</time></trkpt><trkpt lat="41.0403583" lon="14.3247817"><ele>39.0</ele><time>2026-04-24T15:23:37.386Z</time></trkpt><trkpt lat="41.0404817" lon="14.3247833"><ele>39.0</ele><time>2026-04-24T15:23:39.384Z</time></trkpt><trkpt lat="41.0406033" lon="14.324785"><ele>39.0</ele><time>2026-04-24T15:23:41.386Z</time></trkpt><trkpt lat="41.0407167" lon="14.3247933"><ele>39.0</ele><time>2026-04-24T15:23:43.385Z</time></trkpt><trkpt lat="41.0408317" lon="14.324805"><ele>39.25</ele><time>2026-04-24T15:23:45.384Z</time></trkpt><trkpt lat="41.040945" lon="14.324805"><ele>39.5</ele><time>2026-04-24T15:23:47.387Z</time></trkpt><trkpt lat="41.041065" lon="14.3248033"><ele>39.75</ele><time>2026-04-24T15:23:49.385Z</time></trkpt><trkpt lat="41.0411867" lon="14.3248033"><ele>40.0</ele><time>2026-04-24T15:23:51.385Z</time></trkpt><trkpt lat="41.0413017" lon="14.3248017"><ele>40.0</ele><time>2026-04-24T15:23:53.385Z</time></trkpt><trkpt lat="41.0414033" lon="14.3248"><ele>40.0</ele><time>2026-04-24T15:23:55.385Z</time></trkpt><trkpt lat="41.0415033" lon="14.3247983"><ele>40.0</ele><time>2026-04-24T15:23:57.383Z</time></trkpt><trkpt lat="41.041595" lon="14.3248033"><ele>40.0</ele><time>2026-04-24T15:23:59.386Z</time></trkpt><trkpt lat="41.0416917" lon="14.3248017"><ele>40.0</ele><time>2026-04-24T15:24:01.386Z</time></trkpt><trkpt lat="41.0417967" lon="14.3248033"><ele>40.0</ele><time>2026-04-24T15:24:03.386Z</time></trkpt><trkpt lat="41.0419083" lon="14.3248083"><ele>40.0</ele><time>2026-04-24T15:24:05.383Z</time></trkpt><trkpt lat="41.0420283" lon="14.3248033"><ele>40.0</ele><time>2026-04-24T15:24:07.385Z</time></trkpt><trkpt lat="41.0420917" lon="14.3247983"><ele>40.0</ele><time>2026-04-24T15:24:08.386Z</time></trkpt><trkpt lat="41.04221" lon="14.3248"><ele>40.0</ele><time>2026-04-24T15:24:10.385Z</time></trkpt><trkpt lat="41.0423267" lon="14.3248017"><ele>40.0</ele><time>2026-04-24T15:24:12.387Z</time></trkpt><trkpt lat="41.04244" lon="14.324805"><ele>40.0</ele><time>2026-04-24T15:24:14.387Z</time></trkpt><trkpt lat="41.0425517" lon="14.3248067"><ele>40.0</ele><time>2026-04-24T15:24:16.384Z</time></trkpt><trkpt lat="41.0426567" lon="14.3248167"><ele>40.0</ele><time>2026-04-24T15:24:18.385Z</time></trkpt><trkpt lat="41.042765" lon="14.3248283"><ele>40.0</ele><time>2026-04-24T15:24:20.385Z</time></trkpt><trkpt lat="41.042875" lon="14.3248317"><ele>40.2</ele><time>2026-04-24T15:24:22.384Z</time></trkpt><trkpt lat="41.0429817" lon="14.3248367"><ele>40.4</ele><time>2026-04-24T15:24:24.386Z</time></trkpt><trkpt lat="41.0430817" lon="14.3248433"><ele>40.599999999999994</ele><time>2026-04-24T15:24:26.387Z</time></trkpt><trkpt lat="41.0431833" lon="14.3248517"><ele>40.8</ele><time>2026-04-24T15:24:28.384Z</time></trkpt><trkpt lat="41.0432783" lon="14.3248767"><ele>41.0</ele><time>2026-04-24T15:24:30.383Z</time></trkpt><trkpt lat="41.04337" lon="14.3249217"><ele>41.199999999999996</ele><time>2026-04-24T15:24:32.385Z</time></trkpt><trkpt lat="41.04347" lon="14.3249833"><ele>41.4</ele><time>2026-04-24T15:24:34.385Z</time></trkpt><trkpt lat="41.0435517" lon="14.3250733"><ele>41.6</ele><time>2026-04-24T15:24:36.385Z</time></trkpt><trkpt lat="41.0436383" lon="14.32514"><ele>41.8</ele><time>2026-04-24T15:24:38.385Z</time></trkpt><trkpt lat="41.04372" lon="14.3251267"><ele>42.0</ele><time>2026-04-24T15:24:40.384Z</time></trkpt><trkpt lat="41.0437917" lon="14.3250733"><ele>42.0</ele><time>2026-04-24T15:24:42.386Z</time></trkpt><trkpt lat="41.0438667" lon="14.32501"><ele>42.0</ele><time>2026-04-24T15:24:44.385Z</time></trkpt><trkpt lat="41.0439533" lon="14.3249667"><ele>42.0</ele><time>2026-04-24T15:24:46.384Z</time></trkpt><trkpt lat="41.0440483" lon="14.3249517"><ele>42.0</ele><time>2026-04-24T15:24:48.386Z</time></trkpt><trkpt lat="41.044155" lon="14.3249317"><ele>42.0</ele><time>2026-04-24T15:24:50.385Z</time></trkpt><trkpt lat="41.0442617" lon="14.3249317"><ele>42.2</ele><time>2026-04-24T15:24:52.382Z</time></trkpt><trkpt lat="41.0443683" lon="14.3249433"><ele>42.400000000000006</ele><time>2026-04-24T15:24:54.385Z</time></trkpt><trkpt lat="41.04448" lon="14.324955"><ele>42.599999999999994</ele><time>2026-04-24T15:24:56.384Z</time></trkpt><trkpt lat="41.044585" lon="14.3249617"><ele>42.8</ele><time>2026-04-24T15:24:58.384Z</time></trkpt><trkpt lat="41.0446917" lon="14.3249633"><ele>43.0</ele><time>2026-04-24T15:25:00.384Z</time></trkpt><trkpt lat="41.0447933" lon="14.32497"><ele>43.0</ele><time>2026-04-24T15:25:02.385Z</time></trkpt><trkpt lat="41.0448967" lon="14.3249817"><ele>43.0</ele><time>2026-04-24T15:25:04.384Z</time></trkpt><trkpt lat="41.0450017" lon="14.3249917"><ele>43.0</ele><time>2026-04-24T15:25:06.387Z</time></trkpt><trkpt lat="41.0451067" lon="14.3250033"><ele>43.0</ele><time>2026-04-24T15:25:08.385Z</time></trkpt><trkpt lat="41.0451967" lon="14.3250117"><ele>43.0</ele><time>2026-04-24T15:25:10.385Z</time></trkpt><trkpt lat="41.04528" lon="14.3250183"><ele>43.4</ele><time>2026-04-24T15:25:12.386Z</time></trkpt><trkpt lat="41.0453667" lon="14.3250283"><ele>43.8</ele><time>2026-04-24T15:25:14.386Z</time></trkpt><trkpt lat="41.0454633" lon="14.3250317"><ele>44.2</ele><time>2026-04-24T15:25:16.386Z</time></trkpt><trkpt lat="41.0455733" lon="14.3250217"><ele>44.6</ele><time>2026-04-24T15:25:18.384Z</time></trkpt><trkpt lat="41.0456883" lon="14.32501"><ele>45.0</ele><time>2026-04-24T15:25:20.385Z</time></trkpt><trkpt lat="41.0458117" lon="14.3250217"><ele>45.14285714285714</ele><time>2026-04-24T15:25:22.382Z</time></trkpt><trkpt lat="41.045875" lon="14.3250417"><ele>45.28571428571429</ele><time>2026-04-24T15:25:23.384Z</time></trkpt><trkpt lat="41.04594" lon="14.3250583"><ele>45.42857142857143</ele><time>2026-04-24T15:25:24.385Z</time></trkpt><trkpt lat="41.0460067" lon="14.32507"><ele>45.57142857142857</ele><time>2026-04-24T15:25:25.385Z</time></trkpt><trkpt lat="41.0460717" lon="14.3250783"><ele>45.71428571428571</ele><time>2026-04-24T15:25:26.385Z</time></trkpt><trkpt lat="41.04614" lon="14.3250833"><ele>45.85714285714286</ele><time>2026-04-24T15:25:27.384Z</time></trkpt><trkpt lat="41.0462083" lon="14.3250883"><ele>46.0</ele><time>2026-04-24T15:25:28.382Z</time></trkpt><trkpt lat="41.0462767" lon="14.3250917"><ele>46.0</ele><time>2026-04-24T15:25:29.385Z</time></trkpt><trkpt lat="41.0463467" lon="14.3250983"><ele>46.0</ele><time>2026-04-24T15:25:30.387Z</time></trkpt><trkpt lat="41.0464167" lon="14.3251033"><ele>46.0</ele><time>2026-04-24T15:25:31.385Z</time></trkpt><trkpt lat="41.04648" lon="14.3251067"><ele>46.0</ele><time>2026-04-24T15:25:32.386Z</time></trkpt><trkpt lat="41.046545" lon="14.3251117"><ele>46.0</ele><time>2026-04-24T15:25:33.384Z</time></trkpt><trkpt lat="41.0466083" lon="14.3251183"><ele>46.0</ele><time>2026-04-24T15:25:34.387Z</time></trkpt><trkpt lat="41.0466717" lon="14.3251233"><ele>46.0</ele><time>2026-04-24T15:25:35.385Z</time></trkpt><trkpt lat="41.046795" lon="14.32513"><ele>46.75</ele><time>2026-04-24T15:25:37.385Z</time></trkpt><trkpt lat="41.0469217" lon="14.3251383"><ele>47.5</ele><time>2026-04-24T15:25:39.384Z</time></trkpt><trkpt lat="41.0470433" lon="14.3251467"><ele>48.25</ele><time>2026-04-24T15:25:41.384Z</time></trkpt><trkpt lat="41.047165" lon="14.32516"><ele>49.0</ele><time>2026-04-24T15:25:43.386Z</time></trkpt><trkpt lat="41.0472817" lon="14.3251683"><ele>49.0</ele><time>2026-04-24T15:25:45.384Z</time></trkpt><trkpt lat="41.0474033" lon="14.325175"><ele>49.0</ele><time>2026-04-24T15:25:47.386Z</time></trkpt><trkpt lat="41.047525" lon="14.3251833"><ele>49.0</ele><time>2026-04-24T15:25:49.387Z</time></trkpt><trkpt lat="41.0476383" lon="14.3251883"><ele>49.0</ele><time>2026-04-24T15:25:51.386Z</time></trkpt><trkpt lat="41.0477633" lon="14.3252"><ele>48.800000000000004</ele><time>2026-04-24T15:25:53.384Z</time></trkpt><trkpt lat="41.0478883" lon="14.32521"><ele>48.6</ele><time>2026-04-24T15:25:55.387Z</time></trkpt><trkpt lat="41.04801" lon="14.325215"><ele>48.4</ele><time>2026-04-24T15:25:57.386Z</time></trkpt><trkpt lat="41.0480733" lon="14.3252217"><ele>48.2</ele><time>2026-04-24T15:25:58.384Z</time></trkpt><trkpt lat="41.048195" lon="14.3252317"><ele>48.0</ele><time>2026-04-24T15:26:00.383Z</time></trkpt><trkpt lat="41.0483183" lon="14.325245"><ele>48.333333333333336</ele><time>2026-04-24T15:26:02.385Z</time></trkpt><trkpt lat="41.0483833" lon="14.32525"><ele>48.66666666666667</ele><time>2026-04-24T15:26:03.384Z</time></trkpt><trkpt lat="41.0484467" lon="14.3252583"><ele>49.0</ele><time>2026-04-24T15:26:04.384Z</time></trkpt><trkpt lat="41.0485717" lon="14.3252683"><ele>49.333333333333336</ele><time>2026-04-24T15:26:06.384Z</time></trkpt><trkpt lat="41.0486367" lon="14.3252733"><ele>49.66666666666667</ele><time>2026-04-24T15:26:07.386Z</time></trkpt><trkpt lat="41.048705" lon="14.3252783"><ele>50.0</ele><time>2026-04-24T15:26:08.385Z</time></trkpt><trkpt lat="41.0487717" lon="14.3252833"><ele>50.00000000000001</ele><time>2026-04-24T15:26:09.384Z</time></trkpt><trkpt lat="41.04884" lon="14.32529"><ele>50.0</ele><time>2026-04-24T15:26:10.382Z</time></trkpt><trkpt lat="41.0489067" lon="14.325295"><ele>50.0</ele><time>2026-04-24T15:26:11.384Z</time></trkpt><trkpt lat="41.048975" lon="14.3252967"><ele>50.0</ele><time>2026-04-24T15:26:12.385Z</time></trkpt><trkpt lat="41.0490417" lon="14.3253017"><ele>50.0</ele><time>2026-04-24T15:26:13.384Z</time></trkpt><trkpt lat="41.0491083" lon="14.3253083"><ele>50.00000000000001</ele><time>2026-04-24T15:26:14.385Z</time></trkpt><trkpt lat="41.049175" lon="14.3253133"><ele>50.0</ele><time>2026-04-24T15:26:15.386Z</time></trkpt><trkpt lat="41.0492383" lon="14.325315"><ele>50.2</ele><time>2026-04-24T15:26:16.384Z</time></trkpt><trkpt lat="41.049355" lon="14.3253183"><ele>50.4</ele><time>2026-04-24T15:26:18.385Z</time></trkpt><trkpt lat="41.0494633" lon="14.3253267"><ele>50.599999999999994</ele><time>2026-04-24T15:26:20.387Z</time></trkpt><trkpt lat="41.0495667" lon="14.325335"><ele>50.8</ele><time>2026-04-24T15:26:22.387Z</time></trkpt><trkpt lat="41.0496633" lon="14.3253417"><ele>51.0</ele><time>2026-04-24T15:26:24.385Z</time></trkpt><trkpt lat="41.0497283" lon="14.3253333"><ele>51.0</ele><time>2026-04-24T15:26:26.385Z</time></trkpt><trkpt lat="41.049795" lon="14.3253117"><ele>51.0</ele><time>2026-04-24T15:26:30.384Z</time></trkpt><trkpt lat="41.0498667" lon="14.325345"><ele>51.0</ele><time>2026-04-24T15:26:32.388Z</time></trkpt><trkpt lat="41.0499583" lon="14.32536"><ele>51.0</ele><time>2026-04-24T15:26:34.384Z</time></trkpt><trkpt lat="41.0500683" lon="14.3253633"><ele>51.0</ele><time>2026-04-24T15:26:36.386Z</time></trkpt><trkpt lat="41.05019" lon="14.3253717"><ele>51.142857142857146</ele><time>2026-04-24T15:26:38.384Z</time></trkpt><trkpt lat="41.0502533" lon="14.3253817"><ele>51.28571428571429</ele><time>2026-04-24T15:26:39.385Z</time></trkpt><trkpt lat="41.0503167" lon="14.3253933"><ele>51.42857142857143</ele><time>2026-04-24T15:26:40.383Z</time></trkpt><trkpt lat="41.0503817" lon="14.325405"><ele>51.57142857142857</ele><time>2026-04-24T15:26:41.385Z</time></trkpt><trkpt lat="41.0504467" lon="14.32541"><ele>51.714285714285715</ele><time>2026-04-24T15:26:42.385Z</time></trkpt><trkpt lat="41.0505117" lon="14.3254133"><ele>51.857142857142854</ele><time>2026-04-24T15:26:43.383Z</time></trkpt><trkpt lat="41.050575" lon="14.3254183"><ele>52.0</ele><time>2026-04-24T15:26:44.387Z</time></trkpt><trkpt lat="41.05064" lon="14.32542"><ele>52.0</ele><time>2026-04-24T15:26:45.387Z</time></trkpt><trkpt lat="41.050705" lon="14.3254233"><ele>52.0</ele><time>2026-04-24T15:26:46.384Z</time></trkpt><trkpt lat="41.05083" lon="14.3254283"><ele>52.0</ele><time>2026-04-24T15:26:48.386Z</time></trkpt><trkpt lat="41.0508933" lon="14.325435"><ele>52.0</ele><time>2026-04-24T15:26:49.386Z</time></trkpt><trkpt lat="41.0509583" lon="14.3254433"><ele>52.0</ele><time>2026-04-24T15:26:50.387Z</time></trkpt><trkpt lat="41.0510217" lon="14.32545"><ele>52.0</ele><time>2026-04-24T15:26:51.384Z</time></trkpt><trkpt lat="41.051085" lon="14.3254567"><ele>52.0</ele><time>2026-04-24T15:26:52.386Z</time></trkpt><trkpt lat="41.0511483" lon="14.3254567"><ele>51.8</ele><time>2026-04-24T15:26:53.387Z</time></trkpt><trkpt lat="41.0512117" lon="14.3254617"><ele>51.6</ele><time>2026-04-24T15:26:54.387Z</time></trkpt><trkpt lat="41.0512767" lon="14.325465"><ele>51.4</ele><time>2026-04-24T15:26:55.385Z</time></trkpt><trkpt lat="41.051395" lon="14.3254767"><ele>51.199999999999996</ele><time>2026-04-24T15:26:57.387Z</time></trkpt><trkpt lat="41.0515067" lon="14.3254883"><ele>51.0</ele><time>2026-04-24T15:26:59.387Z</time></trkpt><trkpt lat="41.0516167" lon="14.3255"><ele>51.0</ele><time>2026-04-24T15:27:01.384Z</time></trkpt><trkpt lat="41.0516867" lon="14.3255067"><ele>51.0</ele><time>2026-04-24T15:27:03.386Z</time></trkpt><trkpt lat="41.05175" lon="14.3255217"><ele>51.0</ele><time>2026-04-24T15:27:07.385Z</time></trkpt><trkpt lat="41.0518367" lon="14.325535"><ele>51.0</ele><time>2026-04-24T15:27:10.386Z</time></trkpt><trkpt lat="41.0519267" lon="14.3255383"><ele>51.0</ele><time>2026-04-24T15:27:12.382Z</time></trkpt><trkpt lat="41.0520333" lon="14.32554"><ele>51.0</ele><time>2026-04-24T15:27:14.387Z</time></trkpt><trkpt lat="41.05215" lon="14.3255517"><ele>51.0</ele><time>2026-04-24T15:27:16.387Z</time></trkpt><trkpt lat="41.0522133" lon="14.325555"><ele>51.0</ele><time>2026-04-24T15:27:17.384Z</time></trkpt><trkpt lat="41.0522767" lon="14.3255583"><ele>51.0</ele><time>2026-04-24T15:27:18.385Z</time></trkpt><trkpt lat="41.05234" lon="14.325565"><ele>51.0</ele><time>2026-04-24T15:27:19.384Z</time></trkpt><trkpt lat="41.0524067" lon="14.32557"><ele>51.0</ele><time>2026-04-24T15:27:20.385Z</time></trkpt><trkpt lat="41.052475" lon="14.325575"><ele>51.0</ele><time>2026-04-24T15:27:21.382Z</time></trkpt><trkpt lat="41.0525383" lon="14.3255783"><ele>51.0</ele><time>2026-04-24T15:27:22.382Z</time></trkpt><trkpt lat="41.0526033" lon="14.3255833"><ele>51.42857142857143</ele><time>2026-04-24T15:27:23.384Z</time></trkpt><trkpt lat="41.05267" lon="14.3255883"><ele>51.85714285714286</ele><time>2026-04-24T15:27:24.384Z</time></trkpt><trkpt lat="41.0527367" lon="14.3255933"><ele>52.285714285714285</ele><time>2026-04-24T15:27:25.383Z</time></trkpt><trkpt lat="41.0528017" lon="14.3255967"><ele>52.714285714285715</ele><time>2026-04-24T15:27:26.385Z</time></trkpt><trkpt lat="41.0528667" lon="14.3256033"><ele>53.14285714285714</ele><time>2026-04-24T15:27:27.384Z</time></trkpt><trkpt lat="41.0529333" lon="14.3256083"><ele>53.57142857142857</ele><time>2026-04-24T15:27:28.383Z</time></trkpt><trkpt lat="41.0530017" lon="14.32561"><ele>54.0</ele><time>2026-04-24T15:27:29.385Z</time></trkpt><trkpt lat="41.0530683" lon="14.3256167"><ele>54.0</ele><time>2026-04-24T15:27:30.385Z</time></trkpt><trkpt lat="41.0531367" lon="14.3256233"><ele>54.0</ele><time>2026-04-24T15:27:31.382Z</time></trkpt><trkpt lat="41.0532033" lon="14.3256283"><ele>54.0</ele><time>2026-04-24T15:27:32.385Z</time></trkpt><trkpt lat="41.0532717" lon="14.3256333"><ele>54.0</ele><time>2026-04-24T15:27:33.384Z</time></trkpt><trkpt lat="41.0533367" lon="14.3256367"><ele>54.0</ele><time>2026-04-24T15:27:34.385Z</time></trkpt><trkpt lat="41.0534033" lon="14.3256417"><ele>54.0</ele><time>2026-04-24T15:27:35.383Z</time></trkpt><trkpt lat="41.05347" lon="14.3256467"><ele>54.0</ele><time>2026-04-24T15:27:36.383Z</time></trkpt><trkpt lat="41.0535333" lon="14.3256517"><ele>54.14285714285714</ele><time>2026-04-24T15:27:37.385Z</time></trkpt><trkpt lat="41.0536" lon="14.3256533"><ele>54.285714285714285</ele><time>2026-04-24T15:27:38.385Z</time></trkpt><trkpt lat="41.0536667" lon="14.3256583"><ele>54.42857142857143</ele><time>2026-04-24T15:27:39.384Z</time></trkpt><trkpt lat="41.05373" lon="14.3256633"><ele>54.57142857142857</ele><time>2026-04-24T15:27:40.385Z</time></trkpt><trkpt lat="41.0537933" lon="14.32567"><ele>54.714285714285715</ele><time>2026-04-24T15:27:41.385Z</time></trkpt><trkpt lat="41.0538583" lon="14.3256767"><ele>54.857142857142854</ele><time>2026-04-24T15:27:42.385Z</time></trkpt><trkpt lat="41.0539217" lon="14.3256817"><ele>55.0</ele><time>2026-04-24T15:27:43.385Z</time></trkpt><trkpt lat="41.0539867" lon="14.3256867"><ele>54.99999999999999</ele><time>2026-04-24T15:27:44.385Z</time></trkpt><trkpt lat="41.0540533" lon="14.32569"><ele>55.0</ele><time>2026-04-24T15:27:45.386Z</time></trkpt><trkpt lat="41.0541167" lon="14.325695"><ele>55.0</ele><time>2026-04-24T15:27:46.382Z</time></trkpt><trkpt lat="41.05418" lon="14.3257"><ele>55.0</ele><time>2026-04-24T15:27:47.383Z</time></trkpt><trkpt lat="41.0542483" lon="14.3257033"><ele>55.0</ele><time>2026-04-24T15:27:48.385Z</time></trkpt><trkpt lat="41.054315" lon="14.3257083"><ele>54.99999999999999</ele><time>2026-04-24T15:27:49.385Z</time></trkpt><trkpt lat="41.0543817" lon="14.3257133"><ele>55.0</ele><time>2026-04-24T15:27:50.385Z</time></trkpt><trkpt lat="41.05445" lon="14.32572"><ele>54.71428571428571</ele><time>2026-04-24T15:27:51.383Z</time></trkpt><trkpt lat="41.0545167" lon="14.3257267"><ele>54.42857142857143</ele><time>2026-04-24T15:27:52.383Z</time></trkpt><trkpt lat="41.0545833" lon="14.3257317"><ele>54.14285714285714</ele><time>2026-04-24T15:27:53.385Z</time></trkpt><trkpt lat="41.0546483" lon="14.325735"><ele>53.857142857142854</ele><time>2026-04-24T15:27:54.385Z</time></trkpt><trkpt lat="41.0547167" lon="14.3257417"><ele>53.57142857142857</ele><time>2026-04-24T15:27:55.385Z</time></trkpt><trkpt lat="41.0547833" lon="14.3257467"><ele>53.285714285714285</ele><time>2026-04-24T15:27:56.383Z</time></trkpt><trkpt lat="41.0548533" lon="14.3257533"><ele>53.0</ele><time>2026-04-24T15:27:57.385Z</time></trkpt><trkpt lat="41.0549233" lon="14.3257567"><ele>52.57142857142858</ele><time>2026-04-24T15:27:58.383Z</time></trkpt><trkpt lat="41.0549917" lon="14.32576"><ele>52.14285714285714</ele><time>2026-04-24T15:27:59.385Z</time></trkpt><trkpt lat="41.0550567" lon="14.3257633"><ele>51.714285714285715</ele><time>2026-04-24T15:28:00.384Z</time></trkpt><trkpt lat="41.055125" lon="14.3257683"><ele>51.28571428571429</ele><time>2026-04-24T15:28:01.385Z</time></trkpt><trkpt lat="41.0551933" lon="14.325775"><ele>50.85714285714286</ele><time>2026-04-24T15:28:02.384Z</time></trkpt><trkpt lat="41.0552617" lon="14.3257817"><ele>50.42857142857143</ele><time>2026-04-24T15:28:03.385Z</time></trkpt><trkpt lat="41.05533" lon="14.3257867"><ele>50.0</ele><time>2026-04-24T15:28:04.385Z</time></trkpt><trkpt lat="41.0554" lon="14.3257917"><ele>50.00000000000001</ele><time>2026-04-24T15:28:05.385Z</time></trkpt><trkpt lat="41.0554683" lon="14.325795"><ele>50.0</ele><time>2026-04-24T15:28:06.385Z</time></trkpt><trkpt lat="41.055535" lon="14.3257967"><ele>50.0</ele><time>2026-04-24T15:28:07.385Z</time></trkpt><trkpt lat="41.0556017" lon="14.3258"><ele>50.0</ele><time>2026-04-24T15:28:08.385Z</time></trkpt><trkpt lat="41.0556683" lon="14.325805"><ele>50.0</ele><time>2026-04-24T15:28:09.384Z</time></trkpt><trkpt lat="41.0557383" lon="14.3258117"><ele>50.00000000000001</ele><time>2026-04-24T15:28:10.385Z</time></trkpt><trkpt lat="41.0558067" lon="14.32582"><ele>50.0</ele><time>2026-04-24T15:28:11.386Z</time></trkpt><trkpt lat="41.055875" lon="14.3258267"><ele>50.42857142857143</ele><time>2026-04-24T15:28:12.387Z</time></trkpt><trkpt lat="41.0559433" lon="14.3258333"><ele>50.85714285714286</ele><time>2026-04-24T15:28:13.384Z</time></trkpt><trkpt lat="41.0560133" lon="14.32584"><ele>51.28571428571429</ele><time>2026-04-24T15:28:14.383Z</time></trkpt><trkpt lat="41.0560833" lon="14.3258467"><ele>51.714285714285715</ele><time>2026-04-24T15:28:15.384Z</time></trkpt><trkpt lat="41.05615" lon="14.32585"><ele>52.14285714285714</ele><time>2026-04-24T15:28:16.382Z</time></trkpt><trkpt lat="41.0562167" lon="14.325855"><ele>52.57142857142858</ele><time>2026-04-24T15:28:17.385Z</time></trkpt><trkpt lat="41.0562817" lon="14.3258617"><ele>53.0</ele><time>2026-04-24T15:28:18.386Z</time></trkpt><trkpt lat="41.056345" lon="14.32587"><ele>53.0</ele><time>2026-04-24T15:28:19.384Z</time></trkpt><trkpt lat="41.0564083" lon="14.3258767"><ele>53.0</ele><time>2026-04-24T15:28:20.385Z</time></trkpt><trkpt lat="41.0564733" lon="14.3258817"><ele>53.0</ele><time>2026-04-24T15:28:21.384Z</time></trkpt><trkpt lat="41.0565817" lon="14.3259133"><ele>53.0</ele><time>2026-04-24T15:28:23.385Z</time></trkpt><trkpt lat="41.0566783" lon="14.3259867"><ele>53.0</ele><time>2026-04-24T15:28:25.384Z</time></trkpt><trkpt lat="41.0567917" lon="14.3260233"><ele>53.16666666666667</ele><time>2026-04-24T15:28:27.384Z</time></trkpt><trkpt lat="41.0569117" lon="14.3260017"><ele>53.333333333333336</ele><time>2026-04-24T15:28:29.387Z</time></trkpt><trkpt lat="41.0569767" lon="14.3259717"><ele>53.5</ele><time>2026-04-24T15:28:30.383Z</time></trkpt><trkpt lat="41.0570483" lon="14.325945"><ele>53.66666666666667</ele><time>2026-04-24T15:28:31.383Z</time></trkpt><trkpt lat="41.0571217" lon="14.3259317"><ele>53.833333333333336</ele><time>2026-04-24T15:28:32.383Z</time></trkpt><trkpt lat="41.057195" lon="14.325935"><ele>54.0</ele><time>2026-04-24T15:28:33.385Z</time></trkpt><trkpt lat="41.0572683" lon="14.3259433"><ele>54.0</ele><time>2026-04-24T15:28:34.384Z</time></trkpt><trkpt lat="41.057345" lon="14.3259517"><ele>54.0</ele><time>2026-04-24T15:28:35.387Z</time></trkpt><trkpt lat="41.05742" lon="14.32596"><ele>54.0</ele><time>2026-04-24T15:28:36.383Z</time></trkpt><trkpt lat="41.0574933" lon="14.325965"><ele>54.0</ele><time>2026-04-24T15:28:37.386Z</time></trkpt><trkpt lat="41.0575683" lon="14.3259717"><ele>54.0</ele><time>2026-04-24T15:28:38.384Z</time></trkpt><trkpt lat="41.0576417" lon="14.3259767"><ele>54.0</ele><time>2026-04-24T15:28:39.387Z</time></trkpt><trkpt lat="41.057715" lon="14.3259833"><ele>54.0</ele><time>2026-04-24T15:28:40.386Z</time></trkpt><trkpt lat="41.0577883" lon="14.3259917"><ele>54.0</ele><time>2026-04-24T15:28:41.387Z</time></trkpt><trkpt lat="41.0578617" lon="14.3259983"><ele>54.0</ele><time>2026-04-24T15:28:42.383Z</time></trkpt><trkpt lat="41.0579317" lon="14.3259983"><ele>54.0</ele><time>2026-04-24T15:28:43.387Z</time></trkpt><trkpt lat="41.0580017" lon="14.326"><ele>54.0</ele><time>2026-04-24T15:28:44.384Z</time></trkpt><trkpt lat="41.058075" lon="14.326005"><ele>54.0</ele><time>2026-04-24T15:28:45.385Z</time></trkpt><trkpt lat="41.0581483" lon="14.3260133"><ele>54.0</ele><time>2026-04-24T15:28:46.384Z</time></trkpt><trkpt lat="41.0582217" lon="14.3260217"><ele>54.0</ele><time>2026-04-24T15:28:47.385Z</time></trkpt><trkpt lat="41.0582933" lon="14.3260267"><ele>54.0</ele><time>2026-04-24T15:28:48.385Z</time></trkpt><trkpt lat="41.0583617" lon="14.3260317"><ele>54.0</ele><time>2026-04-24T15:28:49.384Z</time></trkpt><trkpt lat="41.05843" lon="14.3260383"><ele>54.0</ele><time>2026-04-24T15:28:50.384Z</time></trkpt><trkpt lat="41.0584983" lon="14.3260467"><ele>54.0</ele><time>2026-04-24T15:28:51.385Z</time></trkpt><trkpt lat="41.0585667" lon="14.3260533"><ele>54.0</ele><time>2026-04-24T15:28:52.385Z</time></trkpt><trkpt lat="41.0586333" lon="14.3260617"><ele>54.0</ele><time>2026-04-24T15:28:53.385Z</time></trkpt><trkpt lat="41.0587017" lon="14.3260683"><ele>54.0</ele><time>2026-04-24T15:28:54.384Z</time></trkpt><trkpt lat="41.0587683" lon="14.3260767"><ele>54.0</ele><time>2026-04-24T15:28:55.384Z</time></trkpt><trkpt lat="41.0588333" lon="14.3260833"><ele>54.0</ele><time>2026-04-24T15:28:56.384Z</time></trkpt><trkpt lat="41.0589" lon="14.32609"><ele>54.0</ele><time>2026-04-24T15:28:57.385Z</time></trkpt><trkpt lat="41.0589683" lon="14.3260933"><ele>54.0</ele><time>2026-04-24T15:28:58.383Z</time></trkpt><trkpt lat="41.0590367" lon="14.3260983"><ele>54.0</ele><time>2026-04-24T15:28:59.385Z</time></trkpt><trkpt lat="41.0591067" lon="14.3261033"><ele>54.0</ele><time>2026-04-24T15:29:00.385Z</time></trkpt><trkpt lat="41.059175" lon="14.3261067"><ele>54.0</ele><time>2026-04-24T15:29:01.384Z</time></trkpt><trkpt lat="41.05924" lon="14.3261117"><ele>54.166666666666664</ele><time>2026-04-24T15:29:02.386Z</time></trkpt><trkpt lat="41.0593083" lon="14.3261183"><ele>54.33333333333333</ele><time>2026-04-24T15:29:03.384Z</time></trkpt><trkpt lat="41.059375" lon="14.3261233"><ele>54.5</ele><time>2026-04-24T15:29:04.384Z</time></trkpt><trkpt lat="41.05944" lon="14.3261233"><ele>54.666666666666664</ele><time>2026-04-24T15:29:05.385Z</time></trkpt><trkpt lat="41.059505" lon="14.3261267"><ele>54.83333333333333</ele><time>2026-04-24T15:29:06.384Z</time></trkpt><trkpt lat="41.05957" lon="14.3261333"><ele>55.0</ele><time>2026-04-24T15:29:07.384Z</time></trkpt><trkpt lat="41.059695" lon="14.326145"><ele>55.0</ele><time>2026-04-24T15:29:09.385Z</time></trkpt><trkpt lat="41.0598133" lon="14.3261467"><ele>55.0</ele><time>2026-04-24T15:29:11.387Z</time></trkpt><trkpt lat="41.0599367" lon="14.3261517"><ele>55.0</ele><time>2026-04-24T15:29:13.387Z</time></trkpt><trkpt lat="41.0600633" lon="14.326165"><ele>55.0</ele><time>2026-04-24T15:29:15.383Z</time></trkpt><trkpt lat="41.0601267" lon="14.326175"><ele>55.0</ele><time>2026-04-24T15:29:16.383Z</time></trkpt><trkpt lat="41.0601917" lon="14.3261817"><ele>55.0</ele><time>2026-04-24T15:29:17.384Z</time></trkpt><trkpt lat="41.0603167" lon="14.3261883"><ele>55.0</ele><time>2026-04-24T15:29:19.384Z</time></trkpt><trkpt lat="41.0604383" lon="14.3261983"><ele>55.0</ele><time>2026-04-24T15:29:21.384Z</time></trkpt><trkpt lat="41.06056" lon="14.32621"><ele>55.0</ele><time>2026-04-24T15:29:23.385Z</time></trkpt><trkpt lat="41.0606233" lon="14.3262167"><ele>55.0</ele><time>2026-04-24T15:29:24.385Z</time></trkpt><trkpt lat="41.0606867" lon="14.3262217"><ele>55.166666666666664</ele><time>2026-04-24T15:29:25.387Z</time></trkpt><trkpt lat="41.06081" lon="14.3262333"><ele>55.33333333333333</ele><time>2026-04-24T15:29:27.386Z</time></trkpt><trkpt lat="41.0608733" lon="14.3262383"><ele>55.5</ele><time>2026-04-24T15:29:28.387Z</time></trkpt><trkpt lat="41.0609367" lon="14.3262417"><ele>55.66666666666667</ele><time>2026-04-24T15:29:29.386Z</time></trkpt><trkpt lat="41.061" lon="14.3262433"><ele>55.833333333333336</ele><time>2026-04-24T15:29:30.386Z</time></trkpt><trkpt lat="41.0611233" lon="14.32625"><ele>56.0</ele><time>2026-04-24T15:29:32.386Z</time></trkpt><trkpt lat="41.0611883" lon="14.3262517"><ele>56.0</ele><time>2026-04-24T15:29:33.387Z</time></trkpt><trkpt lat="41.0612567" lon="14.3262533"><ele>56.0</ele><time>2026-04-24T15:29:34.383Z</time></trkpt><trkpt lat="41.061325" lon="14.3262583"><ele>56.0</ele><time>2026-04-24T15:29:35.384Z</time></trkpt><trkpt lat="41.0613917" lon="14.32626"><ele>56.0</ele><time>2026-04-24T15:29:36.386Z</time></trkpt><trkpt lat="41.0614567" lon="14.326265"><ele>56.0</ele><time>2026-04-24T15:29:37.384Z</time></trkpt><trkpt lat="41.061525" lon="14.3262717"><ele>56.0</ele><time>2026-04-24T15:29:38.384Z</time></trkpt><trkpt lat="41.06159" lon="14.3262767"><ele>56.0</ele><time>2026-04-24T15:29:39.384Z</time></trkpt><trkpt lat="41.061655" lon="14.3262833"><ele>56.285714285714285</ele><time>2026-04-24T15:29:40.384Z</time></trkpt><trkpt lat="41.06172" lon="14.3262933"><ele>56.57142857142857</ele><time>2026-04-24T15:29:41.386Z</time></trkpt><trkpt lat="41.0617833" lon="14.3263"><ele>56.85714285714286</ele><time>2026-04-24T15:29:42.384Z</time></trkpt><trkpt lat="41.0618467" lon="14.3263067"><ele>57.142857142857146</ele><time>2026-04-24T15:29:43.385Z</time></trkpt><trkpt lat="41.0619117" lon="14.3263117"><ele>57.42857142857143</ele><time>2026-04-24T15:29:44.384Z</time></trkpt><trkpt lat="41.0619783" lon="14.32632"><ele>57.71428571428572</ele><time>2026-04-24T15:29:45.385Z</time></trkpt><trkpt lat="41.0620417" lon="14.326325"><ele>58.00000000000001</ele><time>2026-04-24T15:29:46.382Z</time></trkpt><trkpt lat="41.0621667" lon="14.32633"><ele>57.99999999999999</ele><time>2026-04-24T15:29:48.384Z</time></trkpt><trkpt lat="41.0622317" lon="14.3263367"><ele>58.0</ele><time>2026-04-24T15:29:49.385Z</time></trkpt><trkpt lat="41.0622967" lon="14.32634"><ele>58.0</ele><time>2026-04-24T15:29:50.386Z</time></trkpt><trkpt lat="41.0624233" lon="14.3263467"><ele>58.0</ele><time>2026-04-24T15:29:52.385Z</time></trkpt><trkpt lat="41.06249" lon="14.3263517"><ele>57.99999999999999</ele><time>2026-04-24T15:29:53.385Z</time></trkpt><trkpt lat="41.0625583" lon="14.3263567"><ele>58.0</ele><time>2026-04-24T15:29:54.385Z</time></trkpt><trkpt lat="41.06263" lon="14.32636"><ele>58.14285714285715</ele><time>2026-04-24T15:29:55.385Z</time></trkpt><trkpt lat="41.0627017" lon="14.326365"><ele>58.28571428571429</ele><time>2026-04-24T15:29:56.386Z</time></trkpt><trkpt lat="41.062775" lon="14.3263717"><ele>58.42857142857143</ele><time>2026-04-24T15:29:57.385Z</time></trkpt><trkpt lat="41.0628483" lon="14.3263817"><ele>58.57142857142858</ele><time>2026-04-24T15:29:58.385Z</time></trkpt><trkpt lat="41.06292" lon="14.32639"><ele>58.71428571428572</ele><time>2026-04-24T15:29:59.385Z</time></trkpt><trkpt lat="41.06299" lon="14.326395"><ele>58.857142857142854</ele><time>2026-04-24T15:30:00.385Z</time></trkpt><trkpt lat="41.06306" lon="14.3264"><ele>59.0</ele><time>2026-04-24T15:30:01.385Z</time></trkpt><trkpt lat="41.0631283" lon="14.326405"><ele>59.0</ele><time>2026-04-24T15:30:02.384Z</time></trkpt><trkpt lat="41.0631983" lon="14.32641"><ele>59.0</ele><time>2026-04-24T15:30:03.385Z</time></trkpt><trkpt lat="41.063265" lon="14.3264117"><ele>59.0</ele><time>2026-04-24T15:30:04.385Z</time></trkpt><trkpt lat="41.0633317" lon="14.3264167"><ele>59.0</ele><time>2026-04-24T15:30:05.385Z</time></trkpt><trkpt lat="41.0633983" lon="14.3264183"><ele>59.0</ele><time>2026-04-24T15:30:06.383Z</time></trkpt><trkpt lat="41.063465" lon="14.32642"><ele>59.0</ele><time>2026-04-24T15:30:07.384Z</time></trkpt><trkpt lat="41.0635333" lon="14.3264233"><ele>59.0</ele><time>2026-04-24T15:30:08.384Z</time></trkpt><trkpt lat="41.0636" lon="14.32643"><ele>59.00000000000001</ele><time>2026-04-24T15:30:09.384Z</time></trkpt><trkpt lat="41.0636667" lon="14.3264367"><ele>59.0</ele><time>2026-04-24T15:30:10.382Z</time></trkpt><trkpt lat="41.063735" lon="14.3264433"><ele>59.0</ele><time>2026-04-24T15:30:11.384Z</time></trkpt><trkpt lat="41.0638" lon="14.32645"><ele>59.0</ele><time>2026-04-24T15:30:12.382Z</time></trkpt><trkpt lat="41.0639217" lon="14.32646"><ele>59.00000000000001</ele><time>2026-04-24T15:30:14.384Z</time></trkpt><trkpt lat="41.0640383" lon="14.3264667"><ele>59.0</ele><time>2026-04-24T15:30:16.381Z</time></trkpt><trkpt lat="41.064155" lon="14.3264767"><ele>59.0</ele><time>2026-04-24T15:30:18.383Z</time></trkpt><trkpt lat="41.06428" lon="14.3264883"><ele>59.00000000000001</ele><time>2026-04-24T15:30:20.383Z</time></trkpt><trkpt lat="41.0644067" lon="14.3265017"><ele>59.00000000000001</ele><time>2026-04-24T15:30:22.382Z</time></trkpt><trkpt lat="41.0644717" lon="14.3265083"><ele>59.0</ele><time>2026-04-24T15:30:23.384Z</time></trkpt><trkpt lat="41.0645367" lon="14.3265117"><ele>59.0</ele><time>2026-04-24T15:30:24.385Z</time></trkpt><trkpt lat="41.064605" lon="14.3265183"><ele>59.0</ele><time>2026-04-24T15:30:25.386Z</time></trkpt><trkpt lat="41.0646733" lon="14.3265267"><ele>59.0</ele><time>2026-04-24T15:30:26.386Z</time></trkpt><trkpt lat="41.06474" lon="14.3265333"><ele>59.0</ele><time>2026-04-24T15:30:27.384Z</time></trkpt><trkpt lat="41.0648033" lon="14.326535"><ele>59.0</ele><time>2026-04-24T15:30:28.386Z</time></trkpt><trkpt lat="41.0648667" lon="14.3265383"><ele>59.0</ele><time>2026-04-24T15:30:29.384Z</time></trkpt><trkpt lat="41.0649317" lon="14.3265433"><ele>59.0</ele><time>2026-04-24T15:30:30.383Z</time></trkpt><trkpt lat="41.064995" lon="14.3265467"><ele>59.0</ele><time>2026-04-24T15:30:31.384Z</time></trkpt><trkpt lat="41.0650583" lon="14.32655"><ele>58.833333333333336</ele><time>2026-04-24T15:30:32.386Z</time></trkpt><trkpt lat="41.0651217" lon="14.3265533"><ele>58.66666666666667</ele><time>2026-04-24T15:30:33.382Z</time></trkpt><trkpt lat="41.065185" lon="14.3265617"><ele>58.5</ele><time>2026-04-24T15:30:34.386Z</time></trkpt><trkpt lat="41.06531" lon="14.3265733"><ele>58.33333333333333</ele><time>2026-04-24T15:30:36.382Z</time></trkpt><trkpt lat="41.0653733" lon="14.3265783"><ele>58.166666666666664</ele><time>2026-04-24T15:30:37.383Z</time></trkpt><trkpt lat="41.0654933" lon="14.32659"><ele>58.0</ele><time>2026-04-24T15:30:39.385Z</time></trkpt><trkpt lat="41.0656133" lon="14.326595"><ele>58.0</ele><time>2026-04-24T15:30:41.384Z</time></trkpt><trkpt lat="41.0657083" lon="14.3265933"><ele>58.0</ele><time>2026-04-24T15:30:43.383Z</time></trkpt><trkpt lat="41.065795" lon="14.3266017"><ele>58.0</ele><time>2026-04-24T15:30:45.386Z</time></trkpt><trkpt lat="41.065875" lon="14.3266517"><ele>58.0</ele><time>2026-04-24T15:30:47.382Z</time></trkpt><trkpt lat="41.0659517" lon="14.32672"><ele>58.0</ele><time>2026-04-24T15:30:49.386Z</time></trkpt><trkpt lat="41.0660217" lon="14.32681"><ele>58.4</ele><time>2026-04-24T15:30:51.386Z</time></trkpt><trkpt lat="41.0660767" lon="14.326915"><ele>58.8</ele><time>2026-04-24T15:30:53.386Z</time></trkpt><trkpt lat="41.0661383" lon="14.3270383"><ele>59.2</ele><time>2026-04-24T15:30:55.386Z</time></trkpt><trkpt lat="41.0661967" lon="14.3271583"><ele>59.6</ele><time>2026-04-24T15:30:57.383Z</time></trkpt><trkpt lat="41.0662517" lon="14.3272683"><ele>60.0</ele><time>2026-04-24T15:30:59.384Z</time></trkpt><trkpt lat="41.0662983" lon="14.3273717"><ele>60.0</ele><time>2026-04-24T15:31:01.383Z</time></trkpt><trkpt lat="41.0663517" lon="14.3274867"><ele>60.0</ele><time>2026-04-24T15:31:03.381Z</time></trkpt><trkpt lat="41.06641" lon="14.32761"><ele>60.0</ele><time>2026-04-24T15:31:05.384Z</time></trkpt><trkpt lat="41.0664733" lon="14.3277467"><ele>60.0</ele><time>2026-04-24T15:31:07.384Z</time></trkpt><trkpt lat="41.0665033" lon="14.327825"><ele>60.0</ele><time>2026-04-24T15:31:08.383Z</time></trkpt><trkpt lat="41.06656" lon="14.32797"><ele>60.2</ele><time>2026-04-24T15:31:10.383Z</time></trkpt><trkpt lat="41.0666183" lon="14.3280967"><ele>60.4</ele><time>2026-04-24T15:31:12.384Z</time></trkpt><trkpt lat="41.0666667" lon="14.3282167"><ele>60.599999999999994</ele><time>2026-04-24T15:31:14.383Z</time></trkpt><trkpt lat="41.0667083" lon="14.3283283"><ele>60.8</ele><time>2026-04-24T15:31:16.383Z</time></trkpt><trkpt lat="41.0667567" lon="14.3284267"><ele>61.0</ele><time>2026-04-24T15:31:18.384Z</time></trkpt><trkpt lat="41.066795" lon="14.328515"><ele>61.0</ele><time>2026-04-24T15:31:20.384Z</time></trkpt><trkpt lat="41.06683" lon="14.3286017"><ele>60.99999999999999</ele><time>2026-04-24T15:31:22.384Z</time></trkpt><trkpt lat="41.066865" lon="14.3287117"><ele>60.99999999999999</ele><time>2026-04-24T15:31:24.382Z</time></trkpt><trkpt lat="41.066915" lon="14.3288233"><ele>61.0</ele><time>2026-04-24T15:31:26.384Z</time></trkpt><trkpt lat="41.0669683" lon="14.3289433"><ele>61.0</ele><time>2026-04-24T15:31:28.381Z</time></trkpt><trkpt lat="41.0670233" lon="14.3290683"><ele>61.0</ele><time>2026-04-24T15:31:30.385Z</time></trkpt><trkpt lat="41.06708" lon="14.3291983"><ele>61.0</ele><time>2026-04-24T15:31:32.385Z</time></trkpt><trkpt lat="41.06713" lon="14.3293333"><ele>61.0</ele><time>2026-04-24T15:31:34.384Z</time></trkpt><trkpt lat="41.067185" lon="14.32947"><ele>61.0</ele><time>2026-04-24T15:31:36.384Z</time></trkpt><trkpt lat="41.06724" lon="14.3296067"><ele>61.49999999999999</ele><time>2026-04-24T15:31:38.383Z</time></trkpt><trkpt lat="41.0673" lon="14.329745"><ele>62.0</ele><time>2026-04-24T15:31:40.384Z</time></trkpt><trkpt lat="41.0673583" lon="14.3298917"><ele>62.5</ele><time>2026-04-24T15:31:42.386Z</time></trkpt><trkpt lat="41.0673917" lon="14.3299683"><ele>63.0</ele><time>2026-04-24T15:31:43.386Z</time></trkpt><trkpt lat="41.067425" lon="14.3300467"><ele>63.49999999999999</ele><time>2026-04-24T15:31:44.385Z</time></trkpt><trkpt lat="41.0674683" lon="14.330115"><ele>64.0</ele><time>2026-04-24T15:31:45.386Z</time></trkpt><trkpt lat="41.0675167" lon="14.33018"><ele>64.0</ele><time>2026-04-24T15:31:46.386Z</time></trkpt><trkpt lat="41.0675633" lon="14.33024"><ele>63.99999999999999</ele><time>2026-04-24T15:31:47.385Z</time></trkpt><trkpt lat="41.0676133" lon="14.3302933"><ele>64.0</ele><time>2026-04-24T15:31:48.386Z</time></trkpt><trkpt lat="41.067665" lon="14.3303433"><ele>64.0</ele><time>2026-04-24T15:31:49.384Z</time></trkpt><trkpt lat="41.0677217" lon="14.3303833"><ele>63.99999999999999</ele><time>2026-04-24T15:31:50.386Z</time></trkpt><trkpt lat="41.0677833" lon="14.33042"><ele>64.0</ele><time>2026-04-24T15:31:51.386Z</time></trkpt><trkpt lat="41.06785" lon="14.330445"><ele>64.0</ele><time>2026-04-24T15:31:52.384Z</time></trkpt><trkpt lat="41.0679183" lon="14.3304633"><ele>64.0</ele><time>2026-04-24T15:31:53.383Z</time></trkpt><trkpt lat="41.0679867" lon="14.33047"><ele>63.99999999999999</ele><time>2026-04-24T15:31:54.387Z</time></trkpt><trkpt lat="41.068055" lon="14.3304733"><ele>64.0</ele><time>2026-04-24T15:31:55.386Z</time></trkpt><trkpt lat="41.0681233" lon="14.3304767"><ele>64.0</ele><time>2026-04-24T15:31:56.385Z</time></trkpt><trkpt lat="41.068195" lon="14.3304817"><ele>63.99999999999999</ele><time>2026-04-24T15:31:57.385Z</time></trkpt><trkpt lat="41.068265" lon="14.3304867"><ele>64.0</ele><time>2026-04-24T15:31:58.383Z</time></trkpt><trkpt lat="41.0683383" lon="14.3304917"><ele>64.0</ele><time>2026-04-24T15:31:59.383Z</time></trkpt><trkpt lat="41.0684083" lon="14.3304967"><ele>64.28571428571428</ele><time>2026-04-24T15:32:00.383Z</time></trkpt><trkpt lat="41.06848" lon="14.3305017"><ele>64.57142857142857</ele><time>2026-04-24T15:32:01.384Z</time></trkpt><trkpt lat="41.0685517" lon="14.3305017"><ele>64.85714285714286</ele><time>2026-04-24T15:32:02.383Z</time></trkpt><trkpt lat="41.0686233" lon="14.3305033"><ele>65.14285714285714</ele><time>2026-04-24T15:32:03.383Z</time></trkpt><trkpt lat="41.0686917" lon="14.330505"><ele>65.42857142857143</ele><time>2026-04-24T15:32:04.384Z</time></trkpt><trkpt lat="41.0687633" lon="14.3305067"><ele>65.71428571428571</ele><time>2026-04-24T15:32:05.384Z</time></trkpt><trkpt lat="41.0688383" lon="14.33051"><ele>66.0</ele><time>2026-04-24T15:32:06.385Z</time></trkpt><trkpt lat="41.068915" lon="14.3305167"><ele>66.0</ele><time>2026-04-24T15:32:07.383Z</time></trkpt><trkpt lat="41.0689917" lon="14.3305283"><ele>66.0</ele><time>2026-04-24T15:32:08.384Z</time></trkpt><trkpt lat="41.06907" lon="14.33054"><ele>66.0</ele><time>2026-04-24T15:32:09.384Z</time></trkpt><trkpt lat="41.0691533" lon="14.33055"><ele>66.0</ele><time>2026-04-24T15:32:10.384Z</time></trkpt><trkpt lat="41.0692367" lon="14.3305567"><ele>66.0</ele><time>2026-04-24T15:32:11.386Z</time></trkpt><trkpt lat="41.0693217" lon="14.3305617"><ele>66.0</ele><time>2026-04-24T15:32:12.382Z</time></trkpt><trkpt lat="41.0694067" lon="14.3305683"><ele>66.83333333333333</ele><time>2026-04-24T15:32:13.384Z</time></trkpt><trkpt lat="41.0694917" lon="14.3305717"><ele>67.66666666666667</ele><time>2026-04-24T15:32:14.385Z</time></trkpt><trkpt lat="41.0695767" lon="14.3305783"><ele>68.5</ele><time>2026-04-24T15:32:15.385Z</time></trkpt><trkpt lat="41.0696633" lon="14.3305883"><ele>69.33333333333334</ele><time>2026-04-24T15:32:16.384Z</time></trkpt><trkpt lat="41.0697433" lon="14.3306133"><ele>70.16666666666667</ele><time>2026-04-24T15:32:17.386Z</time></trkpt><trkpt lat="41.0698233" lon="14.3306583"><ele>71.0</ele><time>2026-04-24T15:32:18.386Z</time></trkpt><trkpt lat="41.0698967" lon="14.3307117"><ele>70.57142857142857</ele><time>2026-04-24T15:32:19.382Z</time></trkpt><trkpt lat="41.0699567" lon="14.33077"><ele>70.14285714285714</ele><time>2026-04-24T15:32:20.386Z</time></trkpt><trkpt lat="41.07001" lon="14.330835"><ele>69.71428571428571</ele><time>2026-04-24T15:32:21.384Z</time></trkpt><trkpt lat="41.070055" lon="14.3309083"><ele>69.28571428571428</ele><time>2026-04-24T15:32:22.385Z</time></trkpt><trkpt lat="41.07009" lon="14.3309933"><ele>68.85714285714286</ele><time>2026-04-24T15:32:23.385Z</time></trkpt><trkpt lat="41.0701133" lon="14.3310883"><ele>68.42857142857142</ele><time>2026-04-24T15:32:24.383Z</time></trkpt><trkpt lat="41.0701267" lon="14.3311867"><ele>68.0</ele><time>2026-04-24T15:32:25.384Z</time></trkpt><trkpt lat="41.070135" lon="14.3312817"><ele>68.0</ele><time>2026-04-24T15:32:26.384Z</time></trkpt><trkpt lat="41.0701383" lon="14.3313683"><ele>68.0</ele><time>2026-04-24T15:32:27.384Z</time></trkpt><trkpt lat="41.0701483" lon="14.3315267"><ele>68.0</ele><time>2026-04-24T15:32:29.384Z</time></trkpt><trkpt lat="41.0701567" lon="14.3316867"><ele>68.0</ele><time>2026-04-24T15:32:31.384Z</time></trkpt><trkpt lat="41.0701467" lon="14.3318433"><ele>68.0</ele><time>2026-04-24T15:32:33.384Z</time></trkpt><trkpt lat="41.07014" lon="14.3319983"><ele>68.5</ele><time>2026-04-24T15:32:35.383Z</time></trkpt><trkpt lat="41.0701133" lon="14.3321533"><ele>69.0</ele><time>2026-04-24T15:32:37.383Z</time></trkpt><trkpt lat="41.0701017" lon="14.3323167"><ele>69.5</ele><time>2026-04-24T15:32:39.383Z</time></trkpt><trkpt lat="41.0701033" lon="14.3324017"><ele>70.0</ele><time>2026-04-24T15:32:40.383Z</time></trkpt><trkpt lat="41.070105" lon="14.3324867"><ele>70.5</ele><time>2026-04-24T15:32:41.385Z</time></trkpt><trkpt lat="41.0701033" lon="14.3325733"><ele>71.0</ele><time>2026-04-24T15:32:42.383Z</time></trkpt><trkpt lat="41.0700967" lon="14.3327367"><ele>71.0</ele><time>2026-04-24T15:32:44.384Z</time></trkpt><trkpt lat="41.0700767" lon="14.3329067"><ele>71.0</ele><time>2026-04-24T15:32:46.384Z</time></trkpt><trkpt lat="41.0700667" lon="14.332995"><ele>71.0</ele><time>2026-04-24T15:32:47.385Z</time></trkpt><trkpt lat="41.0700633" lon="14.3330883"><ele>71.0</ele><time>2026-04-24T15:32:48.385Z</time></trkpt><trkpt lat="41.0700517" lon="14.3331783"><ele>71.0</ele><time>2026-04-24T15:32:49.383Z</time></trkpt><trkpt lat="41.0700433" lon="14.3332667"><ele>71.0</ele><time>2026-04-24T15:32:50.385Z</time></trkpt><trkpt lat="41.0700367" lon="14.3333567"><ele>70.66666666666667</ele><time>2026-04-24T15:32:51.384Z</time></trkpt><trkpt lat="41.07003" lon="14.3334467"><ele>70.33333333333334</ele><time>2026-04-24T15:32:52.382Z</time></trkpt><trkpt lat="41.070025" lon="14.3335383"><ele>70.0</ele><time>2026-04-24T15:32:53.385Z</time></trkpt><trkpt lat="41.070025" lon="14.333625"><ele>69.66666666666667</ele><time>2026-04-24T15:32:54.384Z</time></trkpt><trkpt lat="41.0700283" lon="14.33371"><ele>69.33333333333333</ele><time>2026-04-24T15:32:55.385Z</time></trkpt><trkpt lat="41.070015" lon="14.3338733"><ele>69.0</ele><time>2026-04-24T15:32:57.387Z</time></trkpt><trkpt lat="41.0700167" lon="14.3340383"><ele>69.0</ele><time>2026-04-24T15:32:59.386Z</time></trkpt><trkpt lat="41.07002" lon="14.3342017"><ele>69.0</ele><time>2026-04-24T15:33:01.384Z</time></trkpt><trkpt lat="41.0700117" lon="14.3343633"><ele>69.0</ele><time>2026-04-24T15:33:03.385Z</time></trkpt><trkpt lat="41.0700033" lon="14.33445"><ele>69.0</ele><time>2026-04-24T15:33:04.386Z</time></trkpt><trkpt lat="41.0699983" lon="14.3345417"><ele>69.0</ele><time>2026-04-24T15:33:05.386Z</time></trkpt><trkpt lat="41.069995" lon="14.334635"><ele>69.28571428571429</ele><time>2026-04-24T15:33:06.383Z</time></trkpt><trkpt lat="41.06999" lon="14.3347283"><ele>69.57142857142858</ele><time>2026-04-24T15:33:07.384Z</time></trkpt><trkpt lat="41.069985" lon="14.3348217"><ele>69.85714285714286</ele><time>2026-04-24T15:33:08.385Z</time></trkpt><trkpt lat="41.0699783" lon="14.3349133"><ele>70.14285714285714</ele><time>2026-04-24T15:33:09.383Z</time></trkpt><trkpt lat="41.0699767" lon="14.335"><ele>70.42857142857142</ele><time>2026-04-24T15:33:10.386Z</time></trkpt><trkpt lat="41.0699733" lon="14.3350883"><ele>70.71428571428571</ele><time>2026-04-24T15:33:11.385Z</time></trkpt><trkpt lat="41.06997" lon="14.3351767"><ele>71.0</ele><time>2026-04-24T15:33:12.384Z</time></trkpt><trkpt lat="41.069965" lon="14.3352683"><ele>71.0</ele><time>2026-04-24T15:33:13.383Z</time></trkpt><trkpt lat="41.06996" lon="14.3353567"><ele>71.0</ele><time>2026-04-24T15:33:14.384Z</time></trkpt><trkpt lat="41.0699533" lon="14.3354967"><ele>71.0</ele><time>2026-04-24T15:33:16.384Z</time></trkpt><trkpt lat="41.0699467" lon="14.335615"><ele>71.0</ele><time>2026-04-24T15:33:18.382Z</time></trkpt><trkpt lat="41.0699433" lon="14.3357317"><ele>71.0</ele><time>2026-04-24T15:33:20.386Z</time></trkpt><trkpt lat="41.0699367" lon="14.3358533"><ele>71.0</ele><time>2026-04-24T15:33:22.384Z</time></trkpt><trkpt lat="41.0699367" lon="14.335985"><ele>71.2</ele><time>2026-04-24T15:33:24.386Z</time></trkpt><trkpt lat="41.0699333" lon="14.3361383"><ele>71.39999999999999</ele><time>2026-04-24T15:33:26.384Z</time></trkpt><trkpt lat="41.0699283" lon="14.3362217"><ele>71.6</ele><time>2026-04-24T15:33:27.382Z</time></trkpt><trkpt lat="41.0699267" lon="14.336385"><ele>71.8</ele><time>2026-04-24T15:33:29.386Z</time></trkpt><trkpt lat="41.0699217" lon="14.3365567"><ele>72.0</ele><time>2026-04-24T15:33:31.384Z</time></trkpt><trkpt lat="41.06992" lon="14.3366433"><ele>72.00000000000001</ele><time>2026-04-24T15:33:32.385Z</time></trkpt><trkpt lat="41.0699217" lon="14.336735"><ele>72.0</ele><time>2026-04-24T15:33:33.382Z</time></trkpt><trkpt lat="41.0699217" lon="14.3368267"><ele>72.0</ele><time>2026-04-24T15:33:34.383Z</time></trkpt><trkpt lat="41.06992" lon="14.3369183"><ele>72.0</ele><time>2026-04-24T15:33:35.384Z</time></trkpt><trkpt lat="41.0699167" lon="14.3370083"><ele>72.0</ele><time>2026-04-24T15:33:36.384Z</time></trkpt><trkpt lat="41.0699133" lon="14.3371033"><ele>72.00000000000001</ele><time>2026-04-24T15:33:37.383Z</time></trkpt><trkpt lat="41.06991" lon="14.3371917"><ele>72.0</ele><time>2026-04-24T15:33:38.385Z</time></trkpt><trkpt lat="41.0699017" lon="14.3372817"><ele>72.00000000000001</ele><time>2026-04-24T15:33:39.382Z</time></trkpt><trkpt lat="41.0698983" lon="14.3373717"><ele>72.0</ele><time>2026-04-24T15:33:40.381Z</time></trkpt><trkpt lat="41.0699033" lon="14.3374667"><ele>72.0</ele><time>2026-04-24T15:33:41.384Z</time></trkpt><trkpt lat="41.069905" lon="14.337555"><ele>72.0</ele><time>2026-04-24T15:33:42.383Z</time></trkpt><trkpt lat="41.069905" lon="14.3376417"><ele>72.0</ele><time>2026-04-24T15:33:43.385Z</time></trkpt><trkpt lat="41.06991" lon="14.3377283"><ele>72.00000000000001</ele><time>2026-04-24T15:33:44.383Z</time></trkpt><trkpt lat="41.0699067" lon="14.337815"><ele>72.0</ele><time>2026-04-24T15:33:45.384Z</time></trkpt><trkpt lat="41.0698967" lon="14.3379"><ele>72.0</ele><time>2026-04-24T15:33:46.382Z</time></trkpt><trkpt lat="41.06989" lon="14.3379883"><ele>72.0</ele><time>2026-04-24T15:33:47.383Z</time></trkpt><trkpt lat="41.0698917" lon="14.3380817"><ele>72.0</ele><time>2026-04-24T15:33:48.383Z</time></trkpt><trkpt lat="41.06989" lon="14.3381717"><ele>72.0</ele><time>2026-04-24T15:33:49.384Z</time></trkpt><trkpt lat="41.069885" lon="14.3382633"><ele>72.0</ele><time>2026-04-24T15:33:50.385Z</time></trkpt><trkpt lat="41.0698717" lon="14.3383517"><ele>72.0</ele><time>2026-04-24T15:33:51.383Z</time></trkpt><trkpt lat="41.0698467" lon="14.3385"><ele>71.6</ele><time>2026-04-24T15:33:53.384Z</time></trkpt><trkpt lat="41.0698383" lon="14.3386433"><ele>71.2</ele><time>2026-04-24T15:33:55.383Z</time></trkpt><trkpt lat="41.0698333" lon="14.3387733"><ele>70.8</ele><time>2026-04-24T15:33:57.383Z</time></trkpt><trkpt lat="41.0698317" lon="14.338895"><ele>70.4</ele><time>2026-04-24T15:33:59.386Z</time></trkpt><trkpt lat="41.06982" lon="14.3390217"><ele>70.0</ele><time>2026-04-24T15:34:01.384Z</time></trkpt><trkpt lat="41.0698067" lon="14.339165"><ele>70.0</ele><time>2026-04-24T15:34:03.386Z</time></trkpt><trkpt lat="41.0697883" lon="14.3393067"><ele>70.0</ele><time>2026-04-24T15:34:05.384Z</time></trkpt><trkpt lat="41.069785" lon="14.3394517"><ele>70.0</ele><time>2026-04-24T15:34:07.386Z</time></trkpt><trkpt lat="41.0697733" lon="14.3396133"><ele>70.0</ele><time>2026-04-24T15:34:09.386Z</time></trkpt><trkpt lat="41.0697583" lon="14.3397733"><ele>70.4</ele><time>2026-04-24T15:34:11.385Z</time></trkpt><trkpt lat="41.0697433" lon="14.339925"><ele>70.8</ele><time>2026-04-24T15:34:13.385Z</time></trkpt><trkpt lat="41.0697433" lon="14.340075"><ele>71.2</ele><time>2026-04-24T15:34:15.385Z</time></trkpt><trkpt lat="41.0697517" lon="14.3402117"><ele>71.6</ele><time>2026-04-24T15:34:17.384Z</time></trkpt><trkpt lat="41.0697417" lon="14.3403467"><ele>72.0</ele><time>2026-04-24T15:34:19.384Z</time></trkpt><trkpt lat="41.0697367" lon="14.3404983"><ele>72.0</ele><time>2026-04-24T15:34:21.383Z</time></trkpt><trkpt lat="41.0697317" lon="14.3406567"><ele>72.0</ele><time>2026-04-24T15:34:23.383Z</time></trkpt><trkpt lat="41.069725" lon="14.3408067"><ele>72.0</ele><time>2026-04-24T15:34:25.383Z</time></trkpt><trkpt lat="41.0697183" lon="14.3409467"><ele>72.0</ele><time>2026-04-24T15:34:27.384Z</time></trkpt><trkpt lat="41.0697133" lon="14.3410633"><ele>72.0</ele><time>2026-04-24T15:34:29.383Z</time></trkpt><trkpt lat="41.0697067" lon="14.3411583"><ele>72.0</ele><time>2026-04-24T15:34:31.384Z</time></trkpt><trkpt lat="41.0697083" lon="14.341245"><ele>72.0</ele><time>2026-04-24T15:34:33.384Z</time></trkpt><trkpt lat="41.069735" lon="14.341325"><ele>72.0</ele><time>2026-04-24T15:34:35.383Z</time></trkpt><trkpt lat="41.0698117" lon="14.3413617"><ele>72.0</ele><time>2026-04-24T15:34:38.385Z</time></trkpt><trkpt lat="41.0698867" lon="14.3413583"><ele>72.0</ele><time>2026-04-24T15:34:40.383Z</time></trkpt><trkpt lat="41.0699767" lon="14.3413583"><ele>72.0</ele><time>2026-04-24T15:34:42.383Z</time></trkpt><trkpt lat="41.0700717" lon="14.341365"><ele>71.6</ele><time>2026-04-24T15:34:44.385Z</time></trkpt><trkpt lat="41.0701733" lon="14.3413767"><ele>71.2</ele><time>2026-04-24T15:34:46.383Z</time></trkpt><trkpt lat="41.0702817" lon="14.3413783"><ele>70.8</ele><time>2026-04-24T15:34:48.384Z</time></trkpt><trkpt lat="41.0704017" lon="14.3413783"><ele>70.4</ele><time>2026-04-24T15:34:50.384Z</time></trkpt><trkpt lat="41.070465" lon="14.3413783"><ele>70.0</ele><time>2026-04-24T15:34:51.384Z</time></trkpt><trkpt lat="41.070595" lon="14.34138"><ele>70.0</ele><time>2026-04-24T15:34:53.385Z</time></trkpt><trkpt lat="41.0706583" lon="14.3413817"><ele>70.0</ele><time>2026-04-24T15:34:54.385Z</time></trkpt><trkpt lat="41.0707233" lon="14.3413867"><ele>70.0</ele><time>2026-04-24T15:34:55.381Z</time></trkpt><trkpt lat="41.0707867" lon="14.341385"><ele>70.0</ele><time>2026-04-24T15:34:56.385Z</time></trkpt><trkpt lat="41.0708567" lon="14.3413917"><ele>70.0</ele><time>2026-04-24T15:34:57.383Z</time></trkpt><trkpt lat="41.070925" lon="14.3413933"><ele>70.0</ele><time>2026-04-24T15:34:58.382Z</time></trkpt><trkpt lat="41.07099" lon="14.3414"><ele>70.0</ele><time>2026-04-24T15:34:59.384Z</time></trkpt><trkpt lat="41.0710583" lon="14.3414083"><ele>70.0</ele><time>2026-04-24T15:35:00.382Z</time></trkpt><trkpt lat="41.0711217" lon="14.34141"><ele>70.0</ele><time>2026-04-24T15:35:01.384Z</time></trkpt><trkpt lat="41.0711867" lon="14.3414083"><ele>70.0</ele><time>2026-04-24T15:35:02.387Z</time></trkpt><trkpt lat="41.0712517" lon="14.3414117"><ele>70.0</ele><time>2026-04-24T15:35:03.384Z</time></trkpt><trkpt lat="41.0713183" lon="14.3414117"><ele>70.0</ele><time>2026-04-24T15:35:04.384Z</time></trkpt><trkpt lat="41.07144" lon="14.34142"><ele>70.0</ele><time>2026-04-24T15:35:06.383Z</time></trkpt><trkpt lat="41.07156" lon="14.3414317"><ele>70.25</ele><time>2026-04-24T15:35:08.382Z</time></trkpt><trkpt lat="41.0716683" lon="14.3414383"><ele>70.5</ele><time>2026-04-24T15:35:10.384Z</time></trkpt><trkpt lat="41.0717783" lon="14.3414483"><ele>70.75</ele><time>2026-04-24T15:35:12.385Z</time></trkpt><trkpt lat="41.071895" lon="14.3414617"><ele>71.0</ele><time>2026-04-24T15:35:14.385Z</time></trkpt><trkpt lat="41.072015" lon="14.34147"><ele>71.0</ele><time>2026-04-24T15:35:16.383Z</time></trkpt><trkpt lat="41.072135" lon="14.34147"><ele>71.0</ele><time>2026-04-24T15:35:18.383Z</time></trkpt><trkpt lat="41.0722" lon="14.3414717"><ele>71.0</ele><time>2026-04-24T15:35:19.383Z</time></trkpt><trkpt lat="41.0723217" lon="14.3414817"><ele>71.0</ele><time>2026-04-24T15:35:21.384Z</time></trkpt><trkpt lat="41.0723867" lon="14.34149"><ele>71.0</ele><time>2026-04-24T15:35:22.382Z</time></trkpt><trkpt lat="41.07251" lon="14.3414983"><ele>71.2</ele><time>2026-04-24T15:35:24.382Z</time></trkpt><trkpt lat="41.072625" lon="14.3415067"><ele>71.39999999999999</ele><time>2026-04-24T15:35:26.386Z</time></trkpt><trkpt lat="41.07273" lon="14.341515"><ele>71.6</ele><time>2026-04-24T15:35:28.382Z</time></trkpt><trkpt lat="41.0728283" lon="14.341515"><ele>71.8</ele><time>2026-04-24T15:35:30.384Z</time></trkpt><trkpt lat="41.0729317" lon="14.3415167"><ele>72.0</ele><time>2026-04-24T15:35:32.384Z</time></trkpt><trkpt lat="41.0730283" lon="14.3415533"><ele>72.0</ele><time>2026-04-24T15:35:34.384Z</time></trkpt><trkpt lat="41.0731033" lon="14.3416217"><ele>72.0</ele><time>2026-04-24T15:35:36.383Z</time></trkpt><trkpt lat="41.073175" lon="14.3417067"><ele>72.0</ele><time>2026-04-24T15:35:38.385Z</time></trkpt><trkpt lat="41.0732317" lon="14.3418183"><ele>72.0</ele><time>2026-04-24T15:35:40.384Z</time></trkpt><trkpt lat="41.0732767" lon="14.341955"><ele>72.0</ele><time>2026-04-24T15:35:42.383Z</time></trkpt><trkpt lat="41.0732967" lon="14.3420367"><ele>72.0</ele><time>2026-04-24T15:35:43.384Z</time></trkpt><trkpt lat="41.073325" lon="14.3421933"><ele>72.0</ele><time>2026-04-24T15:35:45.383Z</time></trkpt><trkpt lat="41.0733383" lon="14.3423467"><ele>72.0</ele><time>2026-04-24T15:35:47.385Z</time></trkpt><trkpt lat="41.0733467" lon="14.3424883"><ele>72.0</ele><time>2026-04-24T15:35:49.383Z</time></trkpt><trkpt lat="41.0733583" lon="14.3426283"><ele>72.0</ele><time>2026-04-24T15:35:51.383Z</time></trkpt><trkpt lat="41.0733733" lon="14.3427733"><ele>72.0</ele><time>2026-04-24T15:35:53.383Z</time></trkpt><trkpt lat="41.073385" lon="14.3429233"><ele>72.0</ele><time>2026-04-24T15:35:55.384Z</time></trkpt><trkpt lat="41.0733967" lon="14.3430667"><ele>72.0</ele><time>2026-04-24T15:35:57.384Z</time></trkpt><trkpt lat="41.0734083" lon="14.3432217"><ele>72.25</ele><time>2026-04-24T15:35:59.383Z</time></trkpt><trkpt lat="41.073425" lon="14.343375"><ele>72.5</ele><time>2026-04-24T15:36:01.383Z</time></trkpt><trkpt lat="41.07342" lon="14.34354"><ele>72.75</ele><time>2026-04-24T15:36:03.385Z</time></trkpt><trkpt lat="41.0734167" lon="14.3437033"><ele>73.0</ele><time>2026-04-24T15:36:05.383Z</time></trkpt><trkpt lat="41.073425" lon="14.3438583"><ele>73.0</ele><time>2026-04-24T15:36:07.383Z</time></trkpt><trkpt lat="41.07343" lon="14.3440183"><ele>73.0</ele><time>2026-04-24T15:36:09.385Z</time></trkpt><trkpt lat="41.0734417" lon="14.344175"><ele>73.0</ele><time>2026-04-24T15:36:11.384Z</time></trkpt><trkpt lat="41.0734533" lon="14.34434"><ele>73.0</ele><time>2026-04-24T15:36:13.384Z</time></trkpt><trkpt lat="41.0734567" lon="14.3445017"><ele>73.0</ele><time>2026-04-24T15:36:15.383Z</time></trkpt><trkpt lat="41.07346" lon="14.3446567"><ele>73.0</ele><time>2026-04-24T15:36:17.383Z</time></trkpt><trkpt lat="41.07347" lon="14.3448267"><ele>73.0</ele><time>2026-04-24T15:36:19.384Z</time></trkpt><trkpt lat="41.0734767" lon="14.3449133"><ele>73.0</ele><time>2026-04-24T15:36:20.383Z</time></trkpt><trkpt lat="41.0734817" lon="14.345"><ele>73.0</ele><time>2026-04-24T15:36:21.384Z</time></trkpt><trkpt lat="41.0734783" lon="14.345165"><ele>73.0</ele><time>2026-04-24T15:36:23.385Z</time></trkpt><trkpt lat="41.0734783" lon="14.3453367"><ele>73.0</ele><time>2026-04-24T15:36:25.385Z</time></trkpt><trkpt lat="41.07348" lon="14.3454217"><ele>73.0</ele><time>2026-04-24T15:36:26.384Z</time></trkpt><trkpt lat="41.073485" lon="14.3455083"><ele>73.0</ele><time>2026-04-24T15:36:27.384Z</time></trkpt><trkpt lat="41.073505" lon="14.3456733"><ele>73.0</ele><time>2026-04-24T15:36:29.383Z</time></trkpt><trkpt lat="41.07352" lon="14.3457633"><ele>73.16666666666666</ele><time>2026-04-24T15:36:30.385Z</time></trkpt><trkpt lat="41.0735317" lon="14.3458567"><ele>73.33333333333333</ele><time>2026-04-24T15:36:31.383Z</time></trkpt><trkpt lat="41.07354" lon="14.34595"><ele>73.5</ele><time>2026-04-24T15:36:32.383Z</time></trkpt><trkpt lat="41.07355" lon="14.3460417"><ele>73.66666666666667</ele><time>2026-04-24T15:36:33.383Z</time></trkpt><trkpt lat="41.0735517" lon="14.3461317"><ele>73.83333333333334</ele><time>2026-04-24T15:36:34.384Z</time></trkpt><trkpt lat="41.0735633" lon="14.346285"><ele>74.0</ele><time>2026-04-24T15:36:36.385Z</time></trkpt><trkpt lat="41.073575" lon="14.3464317"><ele>74.2</ele><time>2026-04-24T15:36:38.384Z</time></trkpt><trkpt lat="41.0735767" lon="14.34658"><ele>74.4</ele><time>2026-04-24T15:36:40.383Z</time></trkpt><trkpt lat="41.0735883" lon="14.3467417"><ele>74.6</ele><time>2026-04-24T15:36:42.385Z</time></trkpt><trkpt lat="41.0735967" lon="14.3468967"><ele>74.8</ele><time>2026-04-24T15:36:44.384Z</time></trkpt><trkpt lat="41.073605" lon="14.3469817"><ele>75.0</ele><time>2026-04-24T15:36:45.383Z</time></trkpt><trkpt lat="41.0736117" lon="14.347155"><ele>74.83333333333333</ele><time>2026-04-24T15:36:47.383Z</time></trkpt><trkpt lat="41.0736117" lon="14.3472467"><ele>74.66666666666667</ele><time>2026-04-24T15:36:48.384Z</time></trkpt><trkpt lat="41.0736183" lon="14.3473317"><ele>74.5</ele><time>2026-04-24T15:36:49.383Z</time></trkpt><trkpt lat="41.0736267" lon="14.347415"><ele>74.33333333333334</ele><time>2026-04-24T15:36:50.384Z</time></trkpt><trkpt lat="41.0736317" lon="14.34751"><ele>74.16666666666667</ele><time>2026-04-24T15:36:51.384Z</time></trkpt><trkpt lat="41.07363" lon="14.347675"><ele>74.0</ele><time>2026-04-24T15:36:53.382Z</time></trkpt><trkpt lat="41.0736267" lon="14.34783"><ele>74.0</ele><time>2026-04-24T15:36:55.384Z</time></trkpt><trkpt lat="41.0736183" lon="14.3479167"><ele>74.0</ele><time>2026-04-24T15:36:56.384Z</time></trkpt><trkpt lat="41.0736017" lon="14.348005"><ele>74.0</ele><time>2026-04-24T15:36:57.383Z</time></trkpt><trkpt lat="41.07362" lon="14.3481417"><ele>74.0</ele><time>2026-04-24T15:36:59.384Z</time></trkpt><trkpt lat="41.0736417" lon="14.3482683"><ele>74.0</ele><time>2026-04-24T15:37:01.383Z</time></trkpt><trkpt lat="41.0736583" lon="14.34839"><ele>74.0</ele><time>2026-04-24T15:37:03.383Z</time></trkpt><trkpt lat="41.073675" lon="14.3485117"><ele>74.0</ele><time>2026-04-24T15:37:05.384Z</time></trkpt><trkpt lat="41.0736817" lon="14.348635"><ele>74.0</ele><time>2026-04-24T15:37:07.384Z</time></trkpt><trkpt lat="41.0736467" lon="14.348705"><ele>74.0</ele><time>2026-04-24T15:37:08.383Z</time></trkpt><trkpt lat="41.073645" lon="14.3488067"><ele>74.0</ele><time>2026-04-24T15:37:10.383Z</time></trkpt><trkpt lat="41.0736183" lon="14.348945"><ele>74.0</ele><time>2026-04-24T15:37:12.385Z</time></trkpt><trkpt lat="41.0735917" lon="14.3490783"><ele>74.0</ele><time>2026-04-24T15:37:14.384Z</time></trkpt><trkpt lat="41.0735667" lon="14.3492183"><ele>74.5</ele><time>2026-04-24T15:37:16.384Z</time></trkpt><trkpt lat="41.073565" lon="14.3493617"><ele>75.0</ele><time>2026-04-24T15:37:18.384Z</time></trkpt><trkpt lat="41.07355" lon="14.3495167"><ele>75.5</ele><time>2026-04-24T15:37:20.384Z</time></trkpt><trkpt lat="41.0735433" lon="14.3496"><ele>76.0</ele><time>2026-04-24T15:37:21.383Z</time></trkpt><trkpt lat="41.0735333" lon="14.349685"><ele>76.5</ele><time>2026-04-24T15:37:22.382Z</time></trkpt><trkpt lat="41.07352" lon="14.3497767"><ele>77.0</ele><time>2026-04-24T15:37:23.383Z</time></trkpt><trkpt lat="41.0735067" lon="14.34987"><ele>77.28571428571429</ele><time>2026-04-24T15:37:24.384Z</time></trkpt><trkpt lat="41.0734983" lon="14.3499633"><ele>77.57142857142857</ele><time>2026-04-24T15:37:25.383Z</time></trkpt><trkpt lat="41.0734933" lon="14.3500517"><ele>77.85714285714286</ele><time>2026-04-24T15:37:26.384Z</time></trkpt><trkpt lat="41.0734917" lon="14.3501383"><ele>78.14285714285714</ele><time>2026-04-24T15:37:27.383Z</time></trkpt><trkpt lat="41.0734883" lon="14.35023"><ele>78.42857142857143</ele><time>2026-04-24T15:37:28.383Z</time></trkpt><trkpt lat="41.0734817" lon="14.3503217"><ele>78.71428571428572</ele><time>2026-04-24T15:37:29.382Z</time></trkpt><trkpt lat="41.0734767" lon="14.3504133"><ele>79.0</ele><time>2026-04-24T15:37:30.386Z</time></trkpt><trkpt lat="41.073475" lon="14.3505033"><ele>79.0</ele><time>2026-04-24T15:37:31.382Z</time></trkpt><trkpt lat="41.0734733" lon="14.3505967"><ele>79.0</ele><time>2026-04-24T15:37:32.384Z</time></trkpt><trkpt lat="41.07347" lon="14.3506867"><ele>79.0</ele><time>2026-04-24T15:37:33.382Z</time></trkpt><trkpt lat="41.0734717" lon="14.350775"><ele>79.0</ele><time>2026-04-24T15:37:34.383Z</time></trkpt><trkpt lat="41.0734683" lon="14.35086"><ele>79.0</ele><time>2026-04-24T15:37:35.383Z</time></trkpt><trkpt lat="41.07346" lon="14.3510233"><ele>79.0</ele><time>2026-04-24T15:37:37.383Z</time></trkpt><trkpt lat="41.0734567" lon="14.3511833"><ele>79.0</ele><time>2026-04-24T15:37:39.382Z</time></trkpt><trkpt lat="41.07346" lon="14.351345"><ele>79.0</ele><time>2026-04-24T15:37:41.383Z</time></trkpt><trkpt lat="41.0734517" lon="14.3515"><ele>79.0</ele><time>2026-04-24T15:37:43.383Z</time></trkpt><trkpt lat="41.0734483" lon="14.351645"><ele>79.0</ele><time>2026-04-24T15:37:45.384Z</time></trkpt><trkpt lat="41.0734317" lon="14.3517867"><ele>79.0</ele><time>2026-04-24T15:37:47.384Z</time></trkpt><trkpt lat="41.0734217" lon="14.3519217"><ele>79.0</ele><time>2026-04-24T15:37:49.383Z</time></trkpt><trkpt lat="41.0734183" lon="14.35205"><ele>79.0</ele><time>2026-04-24T15:37:51.385Z</time></trkpt><trkpt lat="41.073425" lon="14.3521933"><ele>79.0</ele><time>2026-04-24T15:37:53.385Z</time></trkpt><trkpt lat="41.07343" lon="14.3523483"><ele>79.0</ele><time>2026-04-24T15:37:55.383Z</time></trkpt><trkpt lat="41.0734383" lon="14.3525067"><ele>79.0</ele><time>2026-04-24T15:37:57.384Z</time></trkpt><trkpt lat="41.07345" lon="14.3526517"><ele>79.0</ele><time>2026-04-24T15:37:59.385Z</time></trkpt><trkpt lat="41.0734867" lon="14.3527767"><ele>79.0</ele><time>2026-04-24T15:38:01.386Z</time></trkpt><trkpt lat="41.0735483" lon="14.3528767"><ele>79.0</ele><time>2026-04-24T15:38:03.387Z</time></trkpt><trkpt lat="41.0736317" lon="14.3529633"><ele>79.0</ele><time>2026-04-24T15:38:05.384Z</time></trkpt><trkpt lat="41.0737117" lon="14.3530433"><ele>79.0</ele><time>2026-04-24T15:38:07.384Z</time></trkpt><trkpt lat="41.0737883" lon="14.3531267"><ele>79.0</ele><time>2026-04-24T15:38:09.387Z</time></trkpt><trkpt lat="41.0738717" lon="14.3532083"><ele>79.0</ele><time>2026-04-24T15:38:11.386Z</time></trkpt><trkpt lat="41.0739467" lon="14.3532917"><ele>79.0</ele><time>2026-04-24T15:38:13.385Z</time></trkpt><trkpt lat="41.0740167" lon="14.3533767"><ele>79.0</ele><time>2026-04-24T15:38:15.385Z</time></trkpt><trkpt lat="41.0740783" lon="14.35345"><ele>79.33333333333333</ele><time>2026-04-24T15:38:17.385Z</time></trkpt><trkpt lat="41.0741383" lon="14.3535233"><ele>79.66666666666666</ele><time>2026-04-24T15:38:19.384Z</time></trkpt><trkpt lat="41.0741967" lon="14.3535917"><ele>80.0</ele><time>2026-04-24T15:38:21.384Z</time></trkpt><trkpt lat="41.0742533" lon="14.35366"><ele>80.33333333333333</ele><time>2026-04-24T15:38:23.385Z</time></trkpt><trkpt lat="41.074305" lon="14.353725"><ele>80.66666666666667</ele><time>2026-04-24T15:38:25.384Z</time></trkpt><trkpt lat="41.0743533" lon="14.3537917"><ele>81.0</ele><time>2026-04-24T15:38:27.384Z</time></trkpt><trkpt lat="41.0744033" lon="14.3538633"><ele>81.6</ele><time>2026-04-24T15:38:29.385Z</time></trkpt><trkpt lat="41.0744583" lon="14.3539483"><ele>82.19999999999999</ele><time>2026-04-24T15:38:31.385Z</time></trkpt><trkpt lat="41.074525" lon="14.3540367"><ele>82.80000000000001</ele><time>2026-04-24T15:38:33.384Z</time></trkpt><trkpt lat="41.07461" lon="14.354105"><ele>83.4</ele><time>2026-04-24T15:38:35.387Z</time></trkpt><trkpt lat="41.0746833" lon="14.3541867"><ele>84.0</ele><time>2026-04-24T15:38:37.383Z</time></trkpt><trkpt lat="41.0747633" lon="14.35428"><ele>84.0</ele><time>2026-04-24T15:38:39.385Z</time></trkpt><trkpt lat="41.074845" lon="14.35438"><ele>84.0</ele><time>2026-04-24T15:38:41.384Z</time></trkpt><trkpt lat="41.07492" lon="14.35449"><ele>84.0</ele><time>2026-04-24T15:38:43.384Z</time></trkpt><trkpt lat="41.0750067" lon="14.3546033"><ele>84.0</ele><time>2026-04-24T15:38:45.385Z</time></trkpt><trkpt lat="41.0750983" lon="14.354715"><ele>84.0</ele><time>2026-04-24T15:38:47.387Z</time></trkpt><trkpt lat="41.075195" lon="14.3548217"><ele>84.0</ele><time>2026-04-24T15:38:49.383Z</time></trkpt><trkpt lat="41.0752883" lon="14.35493"><ele>84.0</ele><time>2026-04-24T15:38:51.386Z</time></trkpt><trkpt lat="41.07533" lon="14.3549933"><ele>84.0</ele><time>2026-04-24T15:38:52.386Z</time></trkpt><trkpt lat="41.0753733" lon="14.3550583"><ele>84.0</ele><time>2026-04-24T15:38:53.385Z</time></trkpt><trkpt lat="41.0754617" lon="14.3551733"><ele>84.0</ele><time>2026-04-24T15:38:55.386Z</time></trkpt><trkpt lat="41.0755583" lon="14.35525"><ele>84.0</ele><time>2026-04-24T15:38:57.382Z</time></trkpt><trkpt lat="41.075645" lon="14.3553383"><ele>84.0</ele><time>2026-04-24T15:38:59.385Z</time></trkpt><trkpt lat="41.0756933" lon="14.3553967"><ele>84.0</ele><time>2026-04-24T15:39:00.384Z</time></trkpt><trkpt lat="41.075775" lon="14.3555083"><ele>84.0</ele><time>2026-04-24T15:39:02.385Z</time></trkpt><trkpt lat="41.0758167" lon="14.3555717"><ele>84.0</ele><time>2026-04-24T15:39:03.385Z</time></trkpt><trkpt lat="41.0759083" lon="14.3556867"><ele>84.0</ele><time>2026-04-24T15:39:05.386Z</time></trkpt><trkpt lat="41.0759533" lon="14.3557467"><ele>84.0</ele><time>2026-04-24T15:39:06.384Z</time></trkpt><trkpt lat="41.0760017" lon="14.355805"><ele>84.0</ele><time>2026-04-24T15:39:07.386Z</time></trkpt><trkpt lat="41.0760467" lon="14.3558667"><ele>84.0</ele><time>2026-04-24T15:39:08.387Z</time></trkpt><trkpt lat="41.076095" lon="14.3559283"><ele>84.0</ele><time>2026-04-24T15:39:09.386Z</time></trkpt><trkpt lat="41.0761433" lon="14.3559917"><ele>84.0</ele><time>2026-04-24T15:39:10.386Z</time></trkpt><trkpt lat="41.0761867" lon="14.3560533"><ele>84.0</ele><time>2026-04-24T15:39:11.387Z</time></trkpt><trkpt lat="41.0762317" lon="14.3561117"><ele>84.0</ele><time>2026-04-24T15:39:12.384Z</time></trkpt><trkpt lat="41.07628" lon="14.3561683"><ele>84.0</ele><time>2026-04-24T15:39:13.385Z</time></trkpt><trkpt lat="41.0763733" lon="14.35625"><ele>84.0</ele><time>2026-04-24T15:39:15.385Z</time></trkpt><trkpt lat="41.0764533" lon="14.3563267"><ele>84.0</ele><time>2026-04-24T15:39:17.384Z</time></trkpt><trkpt lat="41.0765283" lon="14.3564"><ele>84.4</ele><time>2026-04-24T15:39:19.385Z</time></trkpt><trkpt lat="41.0766083" lon="14.35646"><ele>84.80000000000001</ele><time>2026-04-24T15:39:21.383Z</time></trkpt><trkpt lat="41.076705" lon="14.3565333"><ele>85.19999999999999</ele><time>2026-04-24T15:39:23.385Z</time></trkpt><trkpt lat="41.076795" lon="14.3566333"><ele>85.6</ele><time>2026-04-24T15:39:25.385Z</time></trkpt><trkpt lat="41.07689" lon="14.3567217"><ele>86.0</ele><time>2026-04-24T15:39:27.385Z</time></trkpt><trkpt lat="41.07697" lon="14.35681"><ele>86.0</ele><time>2026-04-24T15:39:29.384Z</time></trkpt><trkpt lat="41.077065" lon="14.35689"><ele>86.0</ele><time>2026-04-24T15:39:31.383Z</time></trkpt><trkpt lat="41.0771667" lon="14.3569767"><ele>86.0</ele><time>2026-04-24T15:39:33.388Z</time></trkpt><trkpt lat="41.0772683" lon="14.357065"><ele>86.0</ele><time>2026-04-24T15:39:35.384Z</time></trkpt><trkpt lat="41.0773217" lon="14.3571167"><ele>86.0</ele><time>2026-04-24T15:39:36.383Z</time></trkpt><trkpt lat="41.0773767" lon="14.3571617"><ele>86.0</ele><time>2026-04-24T15:39:37.384Z</time></trkpt><trkpt lat="41.0774367" lon="14.3572017"><ele>86.0</ele><time>2026-04-24T15:39:38.384Z</time></trkpt><trkpt lat="41.0774983" lon="14.3572367"><ele>86.0</ele><time>2026-04-24T15:39:39.385Z</time></trkpt><trkpt lat="41.0776133" lon="14.3572833"><ele>86.0</ele><time>2026-04-24T15:39:41.385Z</time></trkpt><trkpt lat="41.0777183" lon="14.3573333"><ele>86.0</ele><time>2026-04-24T15:39:43.383Z</time></trkpt><trkpt lat="41.077815" lon="14.3573967"><ele>86.6</ele><time>2026-04-24T15:39:45.384Z</time></trkpt><trkpt lat="41.0779067" lon="14.357435"><ele>87.19999999999999</ele><time>2026-04-24T15:39:47.384Z</time></trkpt><trkpt lat="41.0780133" lon="14.3574717"><ele>87.80000000000001</ele><time>2026-04-24T15:39:49.385Z</time></trkpt><trkpt lat="41.0781167" lon="14.3575117"><ele>88.4</ele><time>2026-04-24T15:39:51.384Z</time></trkpt><trkpt lat="41.0782183" lon="14.3575717"><ele>89.0</ele><time>2026-04-24T15:39:53.384Z</time></trkpt><trkpt lat="41.0783267" lon="14.3576333"><ele>89.0</ele><time>2026-04-24T15:39:55.386Z</time></trkpt><trkpt lat="41.0784333" lon="14.3576917"><ele>89.0</ele><time>2026-04-24T15:39:57.385Z</time></trkpt><trkpt lat="41.078545" lon="14.35775"><ele>89.0</ele><time>2026-04-24T15:39:59.383Z</time></trkpt><trkpt lat="41.078655" lon="14.3578067"><ele>89.0</ele><time>2026-04-24T15:40:01.385Z</time></trkpt><trkpt lat="41.07876" lon="14.3578483"><ele>89.0</ele><time>2026-04-24T15:40:03.383Z</time></trkpt><trkpt lat="41.0788533" lon="14.3578833"><ele>89.0</ele><time>2026-04-24T15:40:05.386Z</time></trkpt><trkpt lat="41.07895" lon="14.357925"><ele>89.0</ele><time>2026-04-24T15:40:07.387Z</time></trkpt><trkpt lat="41.0790467" lon="14.3579783"><ele>89.0</ele><time>2026-04-24T15:40:09.386Z</time></trkpt><trkpt lat="41.079155" lon="14.3580367"><ele>89.0</ele><time>2026-04-24T15:40:11.385Z</time></trkpt><trkpt lat="41.079255" lon="14.3581117"><ele>89.6</ele><time>2026-04-24T15:40:13.387Z</time></trkpt><trkpt lat="41.079345" lon="14.358185"><ele>90.2</ele><time>2026-04-24T15:40:15.385Z</time></trkpt><trkpt lat="41.079445" lon="14.3582533"><ele>90.8</ele><time>2026-04-24T15:40:17.387Z</time></trkpt><trkpt lat="41.0795433" lon="14.358325"><ele>91.39999999999999</ele><time>2026-04-24T15:40:19.385Z</time></trkpt><trkpt lat="41.0796283" lon="14.3583983"><ele>92.0</ele><time>2026-04-24T15:40:21.384Z</time></trkpt><trkpt lat="41.0796933" lon="14.35849"><ele>92.0</ele><time>2026-04-24T15:40:23.383Z</time></trkpt><trkpt lat="41.079755" lon="14.358595"><ele>92.0</ele><time>2026-04-24T15:40:25.384Z</time></trkpt><trkpt lat="41.0798417" lon="14.358685"><ele>92.0</ele><time>2026-04-24T15:40:27.385Z</time></trkpt><trkpt lat="41.0799483" lon="14.3587717"><ele>92.0</ele><time>2026-04-24T15:40:29.384Z</time></trkpt><trkpt lat="41.0800317" lon="14.3588767"><ele>92.39999999999999</ele><time>2026-04-24T15:40:31.387Z</time></trkpt><trkpt lat="41.0800983" lon="14.3589833"><ele>92.8</ele><time>2026-04-24T15:40:33.386Z</time></trkpt><trkpt lat="41.0801317" lon="14.359095"><ele>93.2</ele><time>2026-04-24T15:40:35.385Z</time></trkpt><trkpt lat="41.0801567" lon="14.35921"><ele>93.6</ele><time>2026-04-24T15:40:37.385Z</time></trkpt><trkpt lat="41.0801783" lon="14.35933"><ele>94.0</ele><time>2026-04-24T15:40:39.384Z</time></trkpt><trkpt lat="41.0801717" lon="14.3594467"><ele>94.0</ele><time>2026-04-24T15:40:41.386Z</time></trkpt><trkpt lat="41.0801517" lon="14.3595617"><ele>94.0</ele><time>2026-04-24T15:40:43.386Z</time></trkpt><trkpt lat="41.0801383" lon="14.3596717"><ele>94.0</ele><time>2026-04-24T15:40:45.385Z</time></trkpt><trkpt lat="41.0801167" lon="14.3597717"><ele>94.0</ele><time>2026-04-24T15:40:47.385Z</time></trkpt><trkpt lat="41.0801" lon="14.35988"><ele>94.0</ele><time>2026-04-24T15:40:49.385Z</time></trkpt><trkpt lat="41.0800817" lon="14.3599867"><ele>94.0</ele><time>2026-04-24T15:40:51.384Z</time></trkpt><trkpt lat="41.0800567" lon="14.360105"><ele>94.4</ele><time>2026-04-24T15:40:53.385Z</time></trkpt><trkpt lat="41.08004" lon="14.3602367"><ele>94.80000000000001</ele><time>2026-04-24T15:40:55.385Z</time></trkpt><trkpt lat="41.0800233" lon="14.36037"><ele>95.19999999999999</ele><time>2026-04-24T15:40:57.386Z</time></trkpt><trkpt lat="41.080005" lon="14.36049"><ele>95.6</ele><time>2026-04-24T15:40:59.386Z</time></trkpt><trkpt lat="41.0799817" lon="14.3606083"><ele>96.0</ele><time>2026-04-24T15:41:01.385Z</time></trkpt><trkpt lat="41.0799583" lon="14.3607267"><ele>96.0</ele><time>2026-04-24T15:41:03.386Z</time></trkpt><trkpt lat="41.0799417" lon="14.3608533"><ele>96.0</ele><time>2026-04-24T15:41:05.386Z</time></trkpt><trkpt lat="41.0799283" lon="14.36098"><ele>96.0</ele><time>2026-04-24T15:41:07.385Z</time></trkpt><trkpt lat="41.07991" lon="14.3611017"><ele>96.0</ele><time>2026-04-24T15:41:09.383Z</time></trkpt><trkpt lat="41.0798917" lon="14.3612283"><ele>96.0</ele><time>2026-04-24T15:41:11.387Z</time></trkpt><trkpt lat="41.0798733" lon="14.3613567"><ele>96.19999999999999</ele><time>2026-04-24T15:41:13.384Z</time></trkpt><trkpt lat="41.0798517" lon="14.3614833"><ele>96.39999999999999</ele><time>2026-04-24T15:41:15.384Z</time></trkpt><trkpt lat="41.0798267" lon="14.3616167"><ele>96.6</ele><time>2026-04-24T15:41:17.384Z</time></trkpt><trkpt lat="41.0797967" lon="14.361745"><ele>96.8</ele><time>2026-04-24T15:41:19.385Z</time></trkpt><trkpt lat="41.079775" lon="14.3618767"><ele>97.0</ele><time>2026-04-24T15:41:21.385Z</time></trkpt><trkpt lat="41.079755" lon="14.3620133"><ele>97.0</ele><time>2026-04-24T15:41:23.385Z</time></trkpt><trkpt lat="41.0797333" lon="14.3621483"><ele>97.0</ele><time>2026-04-24T15:41:25.385Z</time></trkpt><trkpt lat="41.0797133" lon="14.3622767"><ele>97.0</ele><time>2026-04-24T15:41:27.384Z</time></trkpt><trkpt lat="41.079695" lon="14.3623617"><ele>97.0</ele><time>2026-04-24T15:41:29.383Z</time></trkpt><trkpt lat="41.07975" lon="14.3624533"><ele>97.0</ele><time>2026-04-24T15:41:48.385Z</time></trkpt><trkpt lat="41.079805" lon="14.3625983"><ele>97.71428571428571</ele><time>2026-04-24T15:43:59.382Z</time></trkpt><trkpt lat="41.079755" lon="14.36266"><ele>98.42857142857143</ele><time>2026-04-24T15:44:03.382Z</time></trkpt><trkpt lat="41.0796983" lon="14.3627417"><ele>99.14285714285714</ele><time>2026-04-24T15:44:06.384Z</time></trkpt><trkpt lat="41.0796717" lon="14.3628267"><ele>99.85714285714286</ele><time>2026-04-24T15:44:08.382Z</time></trkpt><trkpt lat="41.0796583" lon="14.3629167"><ele>100.57142857142858</ele><time>2026-04-24T15:44:10.383Z</time></trkpt><trkpt lat="41.079635" lon="14.3630167"><ele>101.28571428571429</ele><time>2026-04-24T15:44:12.383Z</time></trkpt><trkpt lat="41.0796167" lon="14.3631083"><ele>102.0</ele><time>2026-04-24T15:44:14.384Z</time></trkpt><trkpt lat="41.0795983" lon="14.3632033"><ele>102.71428571428572</ele><time>2026-04-24T15:44:16.382Z</time></trkpt><trkpt lat="41.0795817" lon="14.3632967"><ele>103.42857142857143</ele><time>2026-04-24T15:44:18.386Z</time></trkpt><trkpt lat="41.07957" lon="14.363395"><ele>104.14285714285714</ele><time>2026-04-24T15:44:20.384Z</time></trkpt><trkpt lat="41.0795667" lon="14.3634933"><ele>104.85714285714286</ele><time>2026-04-24T15:44:22.386Z</time></trkpt><trkpt lat="41.07956" lon="14.3635883"><ele>105.57142857142857</ele><time>2026-04-24T15:44:24.384Z</time></trkpt><trkpt lat="41.0795467" lon="14.3636867"><ele>106.28571428571429</ele><time>2026-04-24T15:44:26.385Z</time></trkpt><trkpt lat="41.07953" lon="14.363785"><ele>107.0</ele><time>2026-04-24T15:44:28.382Z</time></trkpt><trkpt lat="41.0795167" lon="14.3638933"><ele>107.49999999999999</ele><time>2026-04-24T15:44:30.384Z</time></trkpt><trkpt lat="41.0795067" lon="14.3640017"><ele>108.0</ele><time>2026-04-24T15:44:32.385Z</time></trkpt><trkpt lat="41.079495" lon="14.3641033"><ele>108.5</ele><time>2026-04-24T15:44:34.381Z</time></trkpt><trkpt lat="41.079485" lon="14.3642033"><ele>109.0</ele><time>2026-04-24T15:44:36.383Z</time></trkpt><trkpt lat="41.0794783" lon="14.3643"><ele>109.49999999999999</ele><time>2026-04-24T15:44:38.383Z</time></trkpt><trkpt lat="41.0794733" lon="14.3644"><ele>110.0</ele><time>2026-04-24T15:44:40.383Z</time></trkpt><trkpt lat="41.0794767" lon="14.364495"><ele>109.99999999999999</ele><time>2026-04-24T15:44:42.385Z</time></trkpt><trkpt lat="41.079485" lon="14.3645833"><ele>110.0</ele><time>2026-04-24T15:44:44.381Z</time></trkpt><trkpt lat="41.079495" lon="14.3646767"><ele>110.0</ele><time>2026-04-24T15:44:46.385Z</time></trkpt><trkpt lat="41.079505" lon="14.36477"><ele>110.0</ele><time>2026-04-24T15:44:48.384Z</time></trkpt><trkpt lat="41.0795083" lon="14.36487"><ele>110.0</ele><time>2026-04-24T15:44:50.384Z</time></trkpt><trkpt lat="41.079515" lon="14.3649667"><ele>109.99999999999999</ele><time>2026-04-24T15:44:52.382Z</time></trkpt><trkpt lat="41.07952" lon="14.36506"><ele>110.0</ele><time>2026-04-24T15:44:54.382Z</time></trkpt><trkpt lat="41.0795183" lon="14.3651533"><ele>110.57142857142856</ele><time>2026-04-24T15:44:56.384Z</time></trkpt><trkpt lat="41.0795183" lon="14.3652483"><ele>111.14285714285714</ele><time>2026-04-24T15:44:58.382Z</time></trkpt><trkpt lat="41.0795217" lon="14.3653483"><ele>111.71428571428571</ele><time>2026-04-24T15:45:00.384Z</time></trkpt><trkpt lat="41.0795267" lon="14.36545"><ele>112.28571428571428</ele><time>2026-04-24T15:45:02.382Z</time></trkpt><trkpt lat="41.079525" lon="14.3655467"><ele>112.85714285714285</ele><time>2026-04-24T15:45:04.383Z</time></trkpt><trkpt lat="41.0795267" lon="14.3656467"><ele>113.42857142857142</ele><time>2026-04-24T15:45:06.382Z</time></trkpt><trkpt lat="41.0795233" lon="14.3657467"><ele>114.0</ele><time>2026-04-24T15:45:08.385Z</time></trkpt><trkpt lat="41.0795183" lon="14.3658533"><ele>114.33333333333333</ele><time>2026-04-24T15:45:10.386Z</time></trkpt><trkpt lat="41.0795117" lon="14.3659533"><ele>114.66666666666666</ele><time>2026-04-24T15:45:12.383Z</time></trkpt><trkpt lat="41.0795017" lon="14.366055"><ele>115.0</ele><time>2026-04-24T15:45:14.384Z</time></trkpt><trkpt lat="41.0794867" lon="14.366155"><ele>115.33333333333333</ele><time>2026-04-24T15:45:16.383Z</time></trkpt><trkpt lat="41.0794717" lon="14.366255"><ele>115.66666666666666</ele><time>2026-04-24T15:45:18.384Z</time></trkpt><trkpt lat="41.0794483" lon="14.3663567"><ele>116.0</ele><time>2026-04-24T15:45:20.383Z</time></trkpt><trkpt lat="41.0794233" lon="14.366455"><ele>116.33333333333333</ele><time>2026-04-24T15:45:22.382Z</time></trkpt><trkpt lat="41.0793867" lon="14.3665633"><ele>116.66666666666666</ele><time>2026-04-24T15:45:24.385Z</time></trkpt><trkpt lat="41.079355" lon="14.3666717"><ele>117.0</ele><time>2026-04-24T15:45:26.386Z</time></trkpt><trkpt lat="41.0793217" lon="14.3667733"><ele>117.33333333333334</ele><time>2026-04-24T15:45:28.382Z</time></trkpt><trkpt lat="41.07929" lon="14.3668767"><ele>117.66666666666667</ele><time>2026-04-24T15:45:30.387Z</time></trkpt><trkpt lat="41.0792617" lon="14.36698"><ele>118.0</ele><time>2026-04-24T15:45:32.384Z</time></trkpt><trkpt lat="41.079235" lon="14.3670867"><ele>118.0</ele><time>2026-04-24T15:45:34.384Z</time></trkpt><trkpt lat="41.0792033" lon="14.3671883"><ele>118.00000000000001</ele><time>2026-04-24T15:45:36.384Z</time></trkpt><trkpt lat="41.0791617" lon="14.3673"><ele>118.00000000000001</ele><time>2026-04-24T15:45:38.384Z</time></trkpt><trkpt lat="41.079125" lon="14.3674133"><ele>118.0</ele><time>2026-04-24T15:45:40.382Z</time></trkpt><trkpt lat="41.0790967" lon="14.3675283"><ele>118.0</ele><time>2026-04-24T15:45:42.386Z</time></trkpt><trkpt lat="41.0790533" lon="14.3676383"><ele>120.33333333333334</ele><time>2026-04-24T15:45:44.385Z</time></trkpt><trkpt lat="41.079015" lon="14.367755"><ele>122.66666666666667</ele><time>2026-04-24T15:45:46.382Z</time></trkpt><trkpt lat="41.0789783" lon="14.3678633"><ele>125.0</ele><time>2026-04-24T15:45:48.384Z</time></trkpt><trkpt lat="41.07895" lon="14.3679633"><ele>127.33333333333334</ele><time>2026-04-24T15:45:50.384Z</time></trkpt><trkpt lat="41.07892" lon="14.36807"><ele>129.66666666666666</ele><time>2026-04-24T15:45:52.385Z</time></trkpt><trkpt lat="41.078885" lon="14.36818"><ele>132.0</ele><time>2026-04-24T15:45:54.385Z</time></trkpt><trkpt lat="41.078845" lon="14.368285"><ele>132.0</ele><time>2026-04-24T15:45:56.386Z</time></trkpt><trkpt lat="41.0788017" lon="14.3683983"><ele>132.0</ele><time>2026-04-24T15:45:58.386Z</time></trkpt><trkpt lat="41.0787633" lon="14.3684983"><ele>132.0</ele><time>2026-04-24T15:46:00.382Z</time></trkpt><trkpt lat="41.078715" lon="14.3686033"><ele>132.0</ele><time>2026-04-24T15:46:02.384Z</time></trkpt><trkpt lat="41.0786667" lon="14.3687"><ele>132.0</ele><time>2026-04-24T15:46:04.385Z</time></trkpt><trkpt lat="41.0786067" lon="14.3687867"><ele>132.0</ele><time>2026-04-24T15:46:06.384Z</time></trkpt><trkpt lat="41.0785483" lon="14.368885"><ele>131.6</ele><time>2026-04-24T15:46:08.386Z</time></trkpt><trkpt lat="41.0784867" lon="14.368985"><ele>131.2</ele><time>2026-04-24T15:46:10.386Z</time></trkpt><trkpt lat="41.0784267" lon="14.3690767"><ele>130.8</ele><time>2026-04-24T15:46:12.384Z</time></trkpt><trkpt lat="41.0783683" lon="14.3691683"><ele>130.4</ele><time>2026-04-24T15:46:14.387Z</time></trkpt><trkpt lat="41.078305" lon="14.369255"><ele>130.0</ele><time>2026-04-24T15:46:16.385Z</time></trkpt><trkpt lat="41.0782417" lon="14.36934"><ele>131.6</ele><time>2026-04-24T15:46:18.385Z</time></trkpt><trkpt lat="41.0781767" lon="14.36942"><ele>133.2</ele><time>2026-04-24T15:46:20.384Z</time></trkpt><trkpt lat="41.0781167" lon="14.36951"><ele>134.8</ele><time>2026-04-24T15:46:22.383Z</time></trkpt><trkpt lat="41.0780517" lon="14.3696"><ele>136.4</ele><time>2026-04-24T15:46:24.386Z</time></trkpt><trkpt lat="41.0779917" lon="14.3696883"><ele>138.0</ele><time>2026-04-24T15:46:26.385Z</time></trkpt><trkpt lat="41.0779267" lon="14.3697783"><ele>138.0</ele><time>2026-04-24T15:46:28.386Z</time></trkpt><trkpt lat="41.0778633" lon="14.36988"><ele>138.0</ele><time>2026-04-24T15:46:30.386Z</time></trkpt><trkpt lat="41.0778" lon="14.36998"><ele>138.0</ele><time>2026-04-24T15:46:32.388Z</time></trkpt><trkpt lat="41.0777333" lon="14.37008"><ele>138.0</ele><time>2026-04-24T15:46:34.386Z</time></trkpt><trkpt lat="41.0776667" lon="14.3701817"><ele>138.0</ele><time>2026-04-24T15:46:36.386Z</time></trkpt><trkpt lat="41.0775917" lon="14.370275"><ele>138.0</ele><time>2026-04-24T15:46:38.386Z</time></trkpt><trkpt lat="41.0775233" lon="14.3703633"><ele>138.0</ele><time>2026-04-24T15:46:40.386Z</time></trkpt><trkpt lat="41.07746" lon="14.3704567"><ele>138.0</ele><time>2026-04-24T15:46:42.386Z</time></trkpt><trkpt lat="41.077395" lon="14.3705467"><ele>138.0</ele><time>2026-04-24T15:46:44.387Z</time></trkpt><trkpt lat="41.07733" lon="14.3706333"><ele>138.0</ele><time>2026-04-24T15:46:46.386Z</time></trkpt><trkpt lat="41.0772633" lon="14.3707233"><ele>139.0</ele><time>2026-04-24T15:46:48.382Z</time></trkpt><trkpt lat="41.0771933" lon="14.3708083"><ele>140.0</ele><time>2026-04-24T15:46:50.382Z</time></trkpt><trkpt lat="41.0771233" lon="14.3708983"><ele>141.0</ele><time>2026-04-24T15:46:52.383Z</time></trkpt><trkpt lat="41.07706" lon="14.37099"><ele>142.0</ele><time>2026-04-24T15:46:54.385Z</time></trkpt><trkpt lat="41.0769983" lon="14.3710767"><ele>143.0</ele><time>2026-04-24T15:46:56.383Z</time></trkpt><trkpt lat="41.0769383" lon="14.3711533"><ele>143.0</ele><time>2026-04-24T15:46:58.382Z</time></trkpt><trkpt lat="41.0768917" lon="14.3712433"><ele>143.0</ele><time>2026-04-24T15:47:00.385Z</time></trkpt><trkpt lat="41.076845" lon="14.3713317"><ele>143.0</ele><time>2026-04-24T15:47:02.386Z</time></trkpt><trkpt lat="41.076795" lon="14.3714267"><ele>143.0</ele><time>2026-04-24T15:47:04.387Z</time></trkpt><trkpt lat="41.0767483" lon="14.3715167"><ele>143.0</ele><time>2026-04-24T15:47:06.381Z</time></trkpt><trkpt lat="41.07671" lon="14.3716083"><ele>143.0</ele><time>2026-04-24T15:47:08.383Z</time></trkpt><trkpt lat="41.07667" lon="14.3716933"><ele>143.28571428571428</ele><time>2026-04-24T15:47:10.382Z</time></trkpt><trkpt lat="41.076635" lon="14.371775"><ele>143.57142857142856</ele><time>2026-04-24T15:47:12.385Z</time></trkpt><trkpt lat="41.0766067" lon="14.3718567"><ele>143.85714285714286</ele><time>2026-04-24T15:47:14.385Z</time></trkpt><trkpt lat="41.0765833" lon="14.3719417"><ele>144.14285714285714</ele><time>2026-04-24T15:47:16.383Z</time></trkpt><trkpt lat="41.0765533" lon="14.372025"><ele>144.42857142857144</ele><time>2026-04-24T15:47:18.383Z</time></trkpt><trkpt lat="41.07651" lon="14.3721067"><ele>144.71428571428572</ele><time>2026-04-24T15:47:20.383Z</time></trkpt><trkpt lat="41.0764567" lon="14.3721833"><ele>145.0</ele><time>2026-04-24T15:47:22.384Z</time></trkpt><trkpt lat="41.0764033" lon="14.3722483"><ele>145.0</ele><time>2026-04-24T15:47:24.384Z</time></trkpt><trkpt lat="41.076355" lon="14.372335"><ele>145.0</ele><time>2026-04-24T15:47:26.384Z</time></trkpt><trkpt lat="41.07635" lon="14.3724367"><ele>145.0</ele><time>2026-04-24T15:47:28.384Z</time></trkpt><trkpt lat="41.076395" lon="14.372525"><ele>145.0</ele><time>2026-04-24T15:47:30.385Z</time></trkpt><trkpt lat="41.07647" lon="14.3725817"><ele>145.0</ele><time>2026-04-24T15:47:32.386Z</time></trkpt><trkpt lat="41.0765467" lon="14.3726667"><ele>145.0</ele><time>2026-04-24T15:47:34.385Z</time></trkpt><trkpt lat="41.0766217" lon="14.37277"><ele>143.0</ele><time>2026-04-24T15:47:36.385Z</time></trkpt><trkpt lat="41.07669" lon="14.3728967"><ele>141.0</ele><time>2026-04-24T15:47:38.382Z</time></trkpt><trkpt lat="41.07675" lon="14.37304"><ele>139.0</ele><time>2026-04-24T15:47:40.383Z</time></trkpt><trkpt lat="41.076775" lon="14.3731167"><ele>137.0</ele><time>2026-04-24T15:47:41.385Z</time></trkpt><trkpt lat="41.0768233" lon="14.3732467"><ele>135.0</ele><time>2026-04-24T15:47:43.384Z</time></trkpt><trkpt lat="41.0769017" lon="14.373315"><ele>135.0</ele><time>2026-04-24T15:47:45.385Z</time></trkpt><trkpt lat="41.07698" lon="14.37327"><ele>135.0</ele><time>2026-04-24T15:47:47.384Z</time></trkpt><trkpt lat="41.0770367" lon="14.3731867"><ele>135.0</ele><time>2026-04-24T15:47:49.384Z</time></trkpt><trkpt lat="41.0771033" lon="14.37315"><ele>135.0</ele><time>2026-04-24T15:47:51.384Z</time></trkpt><trkpt lat="41.0771767" lon="14.3731067"><ele>135.0</ele><time>2026-04-24T15:47:53.385Z</time></trkpt><trkpt lat="41.077255" lon="14.3730367"><ele>135.0</ele><time>2026-04-24T15:47:55.382Z</time></trkpt><trkpt lat="41.0773383" lon="14.372945"><ele>134.83333333333334</ele><time>2026-04-24T15:47:57.384Z</time></trkpt><trkpt lat="41.0774217" lon="14.372845"><ele>134.66666666666666</ele><time>2026-04-24T15:47:59.383Z</time></trkpt><trkpt lat="41.0775167" lon="14.37274"><ele>134.5</ele><time>2026-04-24T15:48:01.383Z</time></trkpt><trkpt lat="41.07757" lon="14.3726867"><ele>134.33333333333331</ele><time>2026-04-24T15:48:02.385Z</time></trkpt><trkpt lat="41.077625" lon="14.3726317"><ele>134.16666666666666</ele><time>2026-04-24T15:48:03.383Z</time></trkpt><trkpt lat="41.0776767" lon="14.372565"><ele>134.0</ele><time>2026-04-24T15:48:04.383Z</time></trkpt><trkpt lat="41.0777317" lon="14.3725"><ele>133.5</ele><time>2026-04-24T15:48:05.384Z</time></trkpt><trkpt lat="41.0777883" lon="14.3724367"><ele>133.0</ele><time>2026-04-24T15:48:06.384Z</time></trkpt><trkpt lat="41.0778467" lon="14.3723667"><ele>132.5</ele><time>2026-04-24T15:48:07.385Z</time></trkpt><trkpt lat="41.0779017" lon="14.3722983"><ele>132.0</ele><time>2026-04-24T15:48:08.382Z</time></trkpt><trkpt lat="41.0779567" lon="14.3722283"><ele>131.5</ele><time>2026-04-24T15:48:09.384Z</time></trkpt><trkpt lat="41.0780117" lon="14.3721583"><ele>131.0</ele><time>2026-04-24T15:48:10.382Z</time></trkpt><trkpt lat="41.07807" lon="14.372095"><ele>130.85714285714286</ele><time>2026-04-24T15:48:11.383Z</time></trkpt><trkpt lat="41.078125" lon="14.3720317"><ele>130.71428571428572</ele><time>2026-04-24T15:48:12.386Z</time></trkpt><trkpt lat="41.078185" lon="14.3719667"><ele>130.57142857142858</ele><time>2026-04-24T15:48:13.384Z</time></trkpt><trkpt lat="41.0782467" lon="14.3719083"><ele>130.42857142857144</ele><time>2026-04-24T15:48:14.384Z</time></trkpt><trkpt lat="41.0783017" lon="14.3718417"><ele>130.28571428571428</ele><time>2026-04-24T15:48:15.386Z</time></trkpt><trkpt lat="41.0783583" lon="14.3717783"><ele>130.14285714285717</ele><time>2026-04-24T15:48:16.382Z</time></trkpt><trkpt lat="41.0784167" lon="14.37172"><ele>130.0</ele><time>2026-04-24T15:48:17.385Z</time></trkpt><trkpt lat="41.0784767" lon="14.37166"><ele>129.85714285714286</ele><time>2026-04-24T15:48:18.385Z</time></trkpt><trkpt lat="41.0785283" lon="14.371595"><ele>129.71428571428572</ele><time>2026-04-24T15:48:19.385Z</time></trkpt><trkpt lat="41.0785817" lon="14.3715283"><ele>129.57142857142856</ele><time>2026-04-24T15:48:20.384Z</time></trkpt><trkpt lat="41.0786317" lon="14.3714583"><ele>129.42857142857144</ele><time>2026-04-24T15:48:21.384Z</time></trkpt><trkpt lat="41.078675" lon="14.371385"><ele>129.28571428571428</ele><time>2026-04-24T15:48:22.383Z</time></trkpt><trkpt lat="41.0787183" lon="14.371315"><ele>129.14285714285714</ele><time>2026-04-24T15:48:23.385Z</time></trkpt><trkpt lat="41.0787633" lon="14.3712417"><ele>129.0</ele><time>2026-04-24T15:48:24.384Z</time></trkpt><trkpt lat="41.0788083" lon="14.37117"><ele>128.99999999999997</ele><time>2026-04-24T15:48:25.384Z</time></trkpt><trkpt lat="41.078855" lon="14.3711083"><ele>129.0</ele><time>2026-04-24T15:48:26.384Z</time></trkpt><trkpt lat="41.0789" lon="14.3710483"><ele>129.0</ele><time>2026-04-24T15:48:27.385Z</time></trkpt><trkpt lat="41.0789467" lon="14.3709867"><ele>129.0</ele><time>2026-04-24T15:48:28.385Z</time></trkpt><trkpt lat="41.0789983" lon="14.3709283"><ele>129.0</ele><time>2026-04-24T15:48:29.385Z</time></trkpt><trkpt lat="41.0790467" lon="14.3708683"><ele>128.99999999999997</ele><time>2026-04-24T15:48:30.385Z</time></trkpt><trkpt lat="41.0790967" lon="14.370805"><ele>129.0</ele><time>2026-04-24T15:48:31.384Z</time></trkpt><trkpt lat="41.0791483" lon="14.3707433"><ele>128.7142857142857</ele><time>2026-04-24T15:48:32.384Z</time></trkpt><trkpt lat="41.079205" lon="14.3706817"><ele>128.42857142857142</ele><time>2026-04-24T15:48:33.384Z</time></trkpt><trkpt lat="41.07926" lon="14.37062"><ele>128.14285714285714</ele><time>2026-04-24T15:48:34.384Z</time></trkpt><trkpt lat="41.0793133" lon="14.3705583"><ele>127.85714285714285</ele><time>2026-04-24T15:48:35.384Z</time></trkpt><trkpt lat="41.0793733" lon="14.3704967"><ele>127.57142857142856</ele><time>2026-04-24T15:48:36.384Z</time></trkpt><trkpt lat="41.0794333" lon="14.37044"><ele>127.28571428571429</ele><time>2026-04-24T15:48:37.387Z</time></trkpt><trkpt lat="41.0794933" lon="14.370385"><ele>127.0</ele><time>2026-04-24T15:48:38.387Z</time></trkpt><trkpt lat="41.0795517" lon="14.370335"><ele>126.85714285714286</ele><time>2026-04-24T15:48:39.386Z</time></trkpt><trkpt lat="41.07961" lon="14.3702867"><ele>126.71428571428571</ele><time>2026-04-24T15:48:40.387Z</time></trkpt><trkpt lat="41.0796733" lon="14.3702433"><ele>126.57142857142857</ele><time>2026-04-24T15:48:41.387Z</time></trkpt><trkpt lat="41.0797317" lon="14.3701917"><ele>126.42857142857143</ele><time>2026-04-24T15:48:42.384Z</time></trkpt><trkpt lat="41.0797917" lon="14.3701383"><ele>126.28571428571428</ele><time>2026-04-24T15:48:43.384Z</time></trkpt><trkpt lat="41.0798533" lon="14.3700867"><ele>126.14285714285714</ele><time>2026-04-24T15:48:44.386Z</time></trkpt><trkpt lat="41.0799133" lon="14.3700333"><ele>126.0</ele><time>2026-04-24T15:48:45.385Z</time></trkpt><trkpt lat="41.0799733" lon="14.3699867"><ele>126.0</ele><time>2026-04-24T15:48:46.385Z</time></trkpt><trkpt lat="41.0800333" lon="14.3699417"><ele>126.0</ele><time>2026-04-24T15:48:47.385Z</time></trkpt><trkpt lat="41.080095" lon="14.3699017"><ele>126.0</ele><time>2026-04-24T15:48:48.385Z</time></trkpt><trkpt lat="41.0801583" lon="14.3698583"><ele>126.0</ele><time>2026-04-24T15:48:49.385Z</time></trkpt><trkpt lat="41.0802233" lon="14.3698117"><ele>126.0</ele><time>2026-04-24T15:48:50.385Z</time></trkpt><trkpt lat="41.0802883" lon="14.3697617"><ele>126.0</ele><time>2026-04-24T15:48:51.385Z</time></trkpt><trkpt lat="41.0803533" lon="14.3697083"><ele>126.0</ele><time>2026-04-24T15:48:52.385Z</time></trkpt><trkpt lat="41.0804167" lon="14.3696567"><ele>125.85714285714286</ele><time>2026-04-24T15:48:53.385Z</time></trkpt><trkpt lat="41.0804767" lon="14.3696017"><ele>125.71428571428572</ele><time>2026-04-24T15:48:54.386Z</time></trkpt><trkpt lat="41.08054" lon="14.369555"><ele>125.57142857142857</ele><time>2026-04-24T15:48:55.386Z</time></trkpt><trkpt lat="41.080605" lon="14.369515"><ele>125.42857142857143</ele><time>2026-04-24T15:48:56.383Z</time></trkpt><trkpt lat="41.080665" lon="14.3694717"><ele>125.28571428571429</ele><time>2026-04-24T15:48:57.385Z</time></trkpt><trkpt lat="41.080725" lon="14.3694233"><ele>125.14285714285714</ele><time>2026-04-24T15:48:58.385Z</time></trkpt><trkpt lat="41.0807833" lon="14.3693767"><ele>125.0</ele><time>2026-04-24T15:48:59.384Z</time></trkpt><trkpt lat="41.0808417" lon="14.3693333"><ele>125.0</ele><time>2026-04-24T15:49:00.385Z</time></trkpt><trkpt lat="41.0808933" lon="14.3692833"><ele>125.0</ele><time>2026-04-24T15:49:01.385Z</time></trkpt><trkpt lat="41.0809983" lon="14.3692"><ele>125.0</ele><time>2026-04-24T15:49:03.385Z</time></trkpt><trkpt lat="41.081105" lon="14.369125"><ele>125.0</ele><time>2026-04-24T15:49:05.383Z</time></trkpt><trkpt lat="41.0812117" lon="14.3690533"><ele>125.0</ele><time>2026-04-24T15:49:07.386Z</time></trkpt><trkpt lat="41.0813217" lon="14.3689867"><ele>125.0</ele><time>2026-04-24T15:49:09.384Z</time></trkpt><trkpt lat="41.081425" lon="14.3689233"><ele>125.0</ele><time>2026-04-24T15:49:11.386Z</time></trkpt><trkpt lat="41.081525" lon="14.368855"><ele>125.0</ele><time>2026-04-24T15:49:13.387Z</time></trkpt><trkpt lat="41.0816217" lon="14.36879"><ele>125.0</ele><time>2026-04-24T15:49:15.385Z</time></trkpt><trkpt lat="41.08172" lon="14.3687367"><ele>125.0</ele><time>2026-04-24T15:49:17.385Z</time></trkpt><trkpt lat="41.0818167" lon="14.3686717"><ele>124.66666666666666</ele><time>2026-04-24T15:49:19.384Z</time></trkpt><trkpt lat="41.0819033" lon="14.36861"><ele>124.33333333333333</ele><time>2026-04-24T15:49:21.383Z</time></trkpt><trkpt lat="41.08199" lon="14.3685517"><ele>124.0</ele><time>2026-04-24T15:49:23.385Z</time></trkpt><trkpt lat="41.0820683" lon="14.3684933"><ele>123.66666666666666</ele><time>2026-04-24T15:49:25.384Z</time></trkpt><trkpt lat="41.0821333" lon="14.3684467"><ele>123.33333333333333</ele><time>2026-04-24T15:49:27.386Z</time></trkpt><trkpt lat="41.0822" lon="14.3683817"><ele>123.0</ele><time>2026-04-24T15:49:29.384Z</time></trkpt><trkpt lat="41.0822733" lon="14.3682933"><ele>123.0</ele><time>2026-04-24T15:49:31.385Z</time></trkpt><trkpt lat="41.0823467" lon="14.3682033"><ele>123.00000000000001</ele><time>2026-04-24T15:49:33.385Z</time></trkpt><trkpt lat="41.08241" lon="14.3680983"><ele>123.00000000000001</ele><time>2026-04-24T15:49:35.385Z</time></trkpt><trkpt lat="41.0824833" lon="14.3679917"><ele>123.0</ele><time>2026-04-24T15:49:37.385Z</time></trkpt><trkpt lat="41.0825717" lon="14.3679017"><ele>123.0</ele><time>2026-04-24T15:49:39.384Z</time></trkpt><trkpt lat="41.0826617" lon="14.3678317"><ele>123.33333333333333</ele><time>2026-04-24T15:49:41.386Z</time></trkpt><trkpt lat="41.0827517" lon="14.3677667"><ele>123.66666666666666</ele><time>2026-04-24T15:49:43.385Z</time></trkpt><trkpt lat="41.0828333" lon="14.3677233"><ele>124.0</ele><time>2026-04-24T15:49:45.385Z</time></trkpt><trkpt lat="41.0829083" lon="14.3677033"><ele>124.33333333333333</ele><time>2026-04-24T15:49:47.385Z</time></trkpt><trkpt lat="41.08298" lon="14.3676833"><ele>124.66666666666666</ele><time>2026-04-24T15:49:49.384Z</time></trkpt><trkpt lat="41.0830667" lon="14.3676683"><ele>125.0</ele><time>2026-04-24T15:49:52.384Z</time></trkpt><trkpt lat="41.0831417" lon="14.3676333"><ele>125.0</ele><time>2026-04-24T15:49:55.387Z</time></trkpt><trkpt lat="41.0831667" lon="14.3675017"><ele>125.0</ele><time>2026-04-24T15:49:58.384Z</time></trkpt><trkpt lat="41.08318" lon="14.3673883"><ele>125.0</ele><time>2026-04-24T15:50:00.383Z</time></trkpt><trkpt lat="41.0831967" lon="14.36726"><ele>125.0</ele><time>2026-04-24T15:50:02.386Z</time></trkpt><trkpt lat="41.0832" lon="14.3671367"><ele>125.0</ele><time>2026-04-24T15:50:04.383Z</time></trkpt><trkpt lat="41.0831917" lon="14.367015"><ele>124.4</ele><time>2026-04-24T15:50:06.385Z</time></trkpt><trkpt lat="41.0831883" lon="14.3668817"><ele>123.8</ele><time>2026-04-24T15:50:08.385Z</time></trkpt><trkpt lat="41.083195" lon="14.36674"><ele>123.19999999999999</ele><time>2026-04-24T15:50:10.385Z</time></trkpt><trkpt lat="41.08324" lon="14.3666"><ele>122.6</ele><time>2026-04-24T15:50:12.385Z</time></trkpt><trkpt lat="41.08328" lon="14.3665317"><ele>122.0</ele><time>2026-04-24T15:50:13.385Z</time></trkpt><trkpt lat="41.08334" lon="14.3664133"><ele>123.25</ele><time>2026-04-24T15:50:15.386Z</time></trkpt><trkpt lat="41.0834033" lon="14.3663033"><ele>124.5</ele><time>2026-04-24T15:50:17.385Z</time></trkpt><trkpt lat="41.08348" lon="14.3661883"><ele>125.75</ele><time>2026-04-24T15:50:19.387Z</time></trkpt><trkpt lat="41.08356" lon="14.3660683"><ele>127.0</ele><time>2026-04-24T15:50:21.385Z</time></trkpt><trkpt lat="41.0836367" lon="14.365955"><ele>127.0</ele><time>2026-04-24T15:50:23.384Z</time></trkpt><trkpt lat="41.0837" lon="14.36586"><ele>127.0</ele><time>2026-04-24T15:50:25.385Z</time></trkpt><trkpt lat="41.0837417" lon="14.3657833"><ele>127.0</ele><time>2026-04-24T15:50:27.385Z</time></trkpt><trkpt lat="41.0837783" lon="14.3657017"><ele>127.0</ele><time>2026-04-24T15:50:29.384Z</time></trkpt><trkpt lat="41.08383" lon="14.3656317"><ele>127.0</ele><time>2026-04-24T15:50:31.385Z</time></trkpt><trkpt lat="41.0838817" lon="14.36558"><ele>127.0</ele><time>2026-04-24T15:50:33.386Z</time></trkpt><trkpt lat="41.0839317" lon="14.3655283"><ele>127.0</ele><time>2026-04-24T15:50:35.384Z</time></trkpt><trkpt lat="41.0839883" lon="14.36548"><ele>126.66666666666667</ele><time>2026-04-24T15:50:37.384Z</time></trkpt><trkpt lat="41.08403" lon="14.3654017"><ele>126.33333333333334</ele><time>2026-04-24T15:50:39.385Z</time></trkpt><trkpt lat="41.0840783" lon="14.3653367"><ele>126.0</ele><time>2026-04-24T15:50:41.384Z</time></trkpt><trkpt lat="41.0841483" lon="14.3652533"><ele>125.66666666666666</ele><time>2026-04-24T15:50:44.386Z</time></trkpt><trkpt lat="41.0842083" lon="14.365195"><ele>125.33333333333333</ele><time>2026-04-24T15:50:46.385Z</time></trkpt><trkpt lat="41.08426" lon="14.3651383"><ele>125.0</ele><time>2026-04-24T15:50:48.385Z</time></trkpt><trkpt lat="41.08434" lon="14.365135"><ele>126.28571428571428</ele><time>2026-04-24T15:50:51.385Z</time></trkpt><trkpt lat="41.0844033" lon="14.3652217"><ele>127.57142857142858</ele><time>2026-04-24T15:50:54.385Z</time></trkpt><trkpt lat="41.0844517" lon="14.3653183"><ele>128.85714285714286</ele><time>2026-04-24T15:50:57.384Z</time></trkpt><trkpt lat="41.0844983" lon="14.3653767"><ele>130.14285714285714</ele><time>2026-04-24T15:50:59.384Z</time></trkpt><trkpt lat="41.0845433" lon="14.3654433"><ele>131.42857142857142</ele><time>2026-04-24T15:51:01.385Z</time></trkpt><trkpt lat="41.0845917" lon="14.36551"><ele>132.71428571428572</ele><time>2026-04-24T15:51:03.384Z</time></trkpt><trkpt lat="41.08464" lon="14.3655733"><ele>134.0</ele><time>2026-04-24T15:51:05.386Z</time></trkpt><trkpt lat="41.0847067" lon="14.365645"><ele>134.0</ele><time>2026-04-24T15:51:08.385Z</time></trkpt><trkpt lat="41.0847917" lon="14.3656367"><ele>134.0</ele><time>2026-04-24T15:51:12.386Z</time></trkpt><trkpt lat="41.0848517" lon="14.3655933"><ele>134.0</ele><time>2026-04-24T15:51:14.385Z</time></trkpt><trkpt lat="41.0849217" lon="14.365525"><ele>134.0</ele><time>2026-04-24T15:51:17.385Z</time></trkpt><trkpt lat="41.0849817" lon="14.3654633"><ele>134.0</ele><time>2026-04-24T15:51:20.385Z</time></trkpt><trkpt lat="41.0850567" lon="14.3653833"><ele>134.0</ele><time>2026-04-24T15:51:23.385Z</time></trkpt><trkpt lat="41.0851233" lon="14.3653033"><ele>135.0</ele><time>2026-04-24T15:51:25.385Z</time></trkpt><trkpt lat="41.0851933" lon="14.3652283"><ele>136.0</ele><time>2026-04-24T15:51:27.384Z</time></trkpt><trkpt lat="41.0852567" lon="14.36516"><ele>137.0</ele><time>2026-04-24T15:51:29.385Z</time></trkpt><trkpt lat="41.085315" lon="14.365095"><ele>138.0</ele><time>2026-04-24T15:51:31.385Z</time></trkpt><trkpt lat="41.08538" lon="14.36504"><ele>139.0</ele><time>2026-04-24T15:51:33.386Z</time></trkpt><trkpt lat="41.0854433" lon="14.3649717"><ele>140.0</ele><time>2026-04-24T15:51:35.385Z</time></trkpt><trkpt lat="41.0855083" lon="14.3649067"><ele>140.0</ele><time>2026-04-24T15:51:37.385Z</time></trkpt><trkpt lat="41.0855683" lon="14.3648367"><ele>140.0</ele><time>2026-04-24T15:51:39.385Z</time></trkpt><trkpt lat="41.0856267" lon="14.3647733"><ele>140.0</ele><time>2026-04-24T15:51:41.384Z</time></trkpt><trkpt lat="41.08568" lon="14.3647067"><ele>140.0</ele><time>2026-04-24T15:51:43.388Z</time></trkpt><trkpt lat="41.0857567" lon="14.3646433"><ele>140.0</ele><time>2026-04-24T15:51:46.385Z</time></trkpt><trkpt lat="41.0858367" lon="14.36457"><ele>140.0</ele><time>2026-04-24T15:51:49.385Z</time></trkpt><trkpt lat="41.0859117" lon="14.3645217"><ele>140.4</ele><time>2026-04-24T15:51:51.385Z</time></trkpt><trkpt lat="41.0859867" lon="14.3644617"><ele>140.8</ele><time>2026-04-24T15:51:53.384Z</time></trkpt><trkpt lat="41.0860617" lon="14.3643767"><ele>141.2</ele><time>2026-04-24T15:51:55.385Z</time></trkpt><trkpt lat="41.0861417" lon="14.3642533"><ele>141.6</ele><time>2026-04-24T15:51:57.385Z</time></trkpt><trkpt lat="41.086215" lon="14.36414"><ele>142.0</ele><time>2026-04-24T15:51:59.383Z</time></trkpt><trkpt lat="41.0862767" lon="14.3640367"><ele>142.0</ele><time>2026-04-24T15:52:01.385Z</time></trkpt><trkpt lat="41.0863633" lon="14.36398"><ele>142.0</ele><time>2026-04-24T15:52:03.385Z</time></trkpt><trkpt lat="41.08646" lon="14.3639333"><ele>142.0</ele><time>2026-04-24T15:52:05.384Z</time></trkpt><trkpt lat="41.08655" lon="14.3638967"><ele>142.0</ele><time>2026-04-24T15:52:07.383Z</time></trkpt><trkpt lat="41.0866367" lon="14.36386"><ele>142.0</ele><time>2026-04-24T15:52:09.384Z</time></trkpt><trkpt lat="41.0867183" lon="14.3638283"><ele>142.0</ele><time>2026-04-24T15:52:11.385Z</time></trkpt><trkpt lat="41.086795" lon="14.363775"><ele>142.0</ele><time>2026-04-24T15:52:13.384Z</time></trkpt><trkpt lat="41.0868733" lon="14.3637183"><ele>142.0</ele><time>2026-04-24T15:52:15.385Z</time></trkpt><trkpt lat="41.0869483" lon="14.3636817"><ele>142.0</ele><time>2026-04-24T15:52:17.386Z</time></trkpt><trkpt lat="41.0870233" lon="14.36365"><ele>142.0</ele><time>2026-04-24T15:52:19.384Z</time></trkpt><trkpt lat="41.0871" lon="14.363605"><ele>142.0</ele><time>2026-04-24T15:52:21.384Z</time></trkpt><trkpt lat="41.0871933" lon="14.3635283"><ele>142.0</ele><time>2026-04-24T15:52:23.385Z</time></trkpt><trkpt lat="41.08729" lon="14.3634483"><ele>142.0</ele><time>2026-04-24T15:52:25.386Z</time></trkpt><trkpt lat="41.08734" lon="14.363395"><ele>142.0</ele><time>2026-04-24T15:52:26.385Z</time></trkpt><trkpt lat="41.0873867" lon="14.3633283"><ele>142.0</ele><time>2026-04-24T15:52:27.386Z</time></trkpt><trkpt lat="41.0874267" lon="14.3632583"><ele>142.0</ele><time>2026-04-24T15:52:28.386Z</time></trkpt><trkpt lat="41.0874667" lon="14.363185"><ele>142.0</ele><time>2026-04-24T15:52:29.385Z</time></trkpt><trkpt lat="41.08754" lon="14.3630567"><ele>142.4</ele><time>2026-04-24T15:52:31.383Z</time></trkpt><trkpt lat="41.08762" lon="14.3629483"><ele>142.79999999999998</ele><time>2026-04-24T15:52:33.385Z</time></trkpt><trkpt lat="41.0877233" lon="14.362845"><ele>143.2</ele><time>2026-04-24T15:52:35.384Z</time></trkpt><trkpt lat="41.087775" lon="14.3627933"><ele>143.6</ele><time>2026-04-24T15:52:36.385Z</time></trkpt><trkpt lat="41.087865" lon="14.3627133"><ele>144.0</ele><time>2026-04-24T15:52:38.384Z</time></trkpt><trkpt lat="41.08795" lon="14.3626233"><ele>144.0</ele><time>2026-04-24T15:52:40.385Z</time></trkpt><trkpt lat="41.0880367" lon="14.362525"><ele>144.0</ele><time>2026-04-24T15:52:42.385Z</time></trkpt><trkpt lat="41.0881217" lon="14.36242"><ele>144.0</ele><time>2026-04-24T15:52:44.388Z</time></trkpt><trkpt lat="41.0882067" lon="14.3623317"><ele>144.0</ele><time>2026-04-24T15:52:46.385Z</time></trkpt><trkpt lat="41.0882933" lon="14.3622383"><ele>144.6</ele><time>2026-04-24T15:52:48.385Z</time></trkpt><trkpt lat="41.0883833" lon="14.3621733"><ele>145.2</ele><time>2026-04-24T15:52:50.385Z</time></trkpt><trkpt lat="41.0884933" lon="14.3621067"><ele>145.79999999999998</ele><time>2026-04-24T15:52:52.385Z</time></trkpt><trkpt lat="41.0885533" lon="14.36207"><ele>146.4</ele><time>2026-04-24T15:52:53.386Z</time></trkpt><trkpt lat="41.0886117" lon="14.3620333"><ele>147.0</ele><time>2026-04-24T15:52:54.386Z</time></trkpt><trkpt lat="41.0887233" lon="14.3619817"><ele>147.0</ele><time>2026-04-24T15:52:56.386Z</time></trkpt><trkpt lat="41.088835" lon="14.3619317"><ele>147.0</ele><time>2026-04-24T15:52:58.385Z</time></trkpt><trkpt lat="41.0889433" lon="14.3618717"><ele>147.0</ele><time>2026-04-24T15:53:00.386Z</time></trkpt><trkpt lat="41.0890383" lon="14.3618233"><ele>147.0</ele><time>2026-04-24T15:53:02.385Z</time></trkpt><trkpt lat="41.0891317" lon="14.36176"><ele>147.0</ele><time>2026-04-24T15:53:04.384Z</time></trkpt><trkpt lat="41.089225" lon="14.3616833"><ele>148.75</ele><time>2026-04-24T15:53:06.386Z</time></trkpt><trkpt lat="41.0893283" lon="14.3616017"><ele>150.5</ele><time>2026-04-24T15:53:08.385Z</time></trkpt><trkpt lat="41.089425" lon="14.3615233"><ele>152.25</ele><time>2026-04-24T15:53:10.385Z</time></trkpt><trkpt lat="41.0895217" lon="14.36145"><ele>154.0</ele><time>2026-04-24T15:53:12.384Z</time></trkpt><trkpt lat="41.0896167" lon="14.361375"><ele>153.8</ele><time>2026-04-24T15:53:14.387Z</time></trkpt><trkpt lat="41.089715" lon="14.3613233"><ele>153.60000000000002</ele><time>2026-04-24T15:53:16.387Z</time></trkpt><trkpt lat="41.0898067" lon="14.3612667"><ele>153.4</ele><time>2026-04-24T15:53:18.385Z</time></trkpt><trkpt lat="41.089895" lon="14.3612083"><ele>153.20000000000002</ele><time>2026-04-24T15:53:20.386Z</time></trkpt><trkpt lat="41.0899583" lon="14.3611217"><ele>153.0</ele><time>2026-04-24T15:53:22.385Z</time></trkpt><trkpt lat="41.090005" lon="14.3610133"><ele>153.0</ele><time>2026-04-24T15:53:24.386Z</time></trkpt><trkpt lat="41.0900533" lon="14.3608967"><ele>153.0</ele><time>2026-04-24T15:53:26.385Z</time></trkpt><trkpt lat="41.0901067" lon="14.36076"><ele>153.0</ele><time>2026-04-24T15:53:28.384Z</time></trkpt><trkpt lat="41.090165" lon="14.3606267"><ele>153.0</ele><time>2026-04-24T15:53:30.385Z</time></trkpt><trkpt lat="41.0901967" lon="14.3605517"><ele>153.0</ele><time>2026-04-24T15:53:31.385Z</time></trkpt><trkpt lat="41.0902267" lon="14.3604733"><ele>152.33333333333334</ele><time>2026-04-24T15:53:32.384Z</time></trkpt><trkpt lat="41.090275" lon="14.3603183"><ele>151.66666666666666</ele><time>2026-04-24T15:53:34.386Z</time></trkpt><trkpt lat="41.090305" lon="14.3602433"><ele>151.0</ele><time>2026-04-24T15:53:35.386Z</time></trkpt><trkpt lat="41.0903383" lon="14.3601717"><ele>150.33333333333331</ele><time>2026-04-24T15:53:36.383Z</time></trkpt><trkpt lat="41.0903933" lon="14.3600217"><ele>149.66666666666666</ele><time>2026-04-24T15:53:38.383Z</time></trkpt><trkpt lat="41.0904283" lon="14.35995"><ele>149.0</ele><time>2026-04-24T15:53:39.386Z</time></trkpt><trkpt lat="41.09046" lon="14.3598717"><ele>149.0</ele><time>2026-04-24T15:53:40.384Z</time></trkpt><trkpt lat="41.090515" lon="14.3597417"><ele>149.0</ele><time>2026-04-24T15:53:42.385Z</time></trkpt><trkpt lat="41.0905717" lon="14.3596167"><ele>149.0</ele><time>2026-04-24T15:53:44.386Z</time></trkpt><trkpt lat="41.090645" lon="14.3594817"><ele>149.0</ele><time>2026-04-24T15:53:46.385Z</time></trkpt><trkpt lat="41.0907217" lon="14.3593517"><ele>149.0</ele><time>2026-04-24T15:53:48.386Z</time></trkpt><trkpt lat="41.0907633" lon="14.3592867"><ele>149.0</ele><time>2026-04-24T15:53:49.385Z</time></trkpt><trkpt lat="41.090805" lon="14.3592183"><ele>149.0</ele><time>2026-04-24T15:53:50.385Z</time></trkpt><trkpt lat="41.0908433" lon="14.3591483"><ele>149.0</ele><time>2026-04-24T15:53:51.386Z</time></trkpt><trkpt lat="41.0908667" lon="14.359065"><ele>149.0</ele><time>2026-04-24T15:53:52.385Z</time></trkpt><trkpt lat="41.09088" lon="14.35898"><ele>149.0</ele><time>2026-04-24T15:53:53.385Z</time></trkpt><trkpt lat="41.0908867" lon="14.3588233"><ele>149.0</ele><time>2026-04-24T15:53:55.384Z</time></trkpt><trkpt lat="41.09088" lon="14.358665"><ele>148.6</ele><time>2026-04-24T15:53:57.386Z</time></trkpt><trkpt lat="41.0908833" lon="14.3585133"><ele>148.2</ele><time>2026-04-24T15:53:59.385Z</time></trkpt><trkpt lat="41.0909017" lon="14.358355"><ele>147.79999999999998</ele><time>2026-04-24T15:54:01.385Z</time></trkpt><trkpt lat="41.0909133" lon="14.3582717"><ele>147.4</ele><time>2026-04-24T15:54:02.386Z</time></trkpt><trkpt lat="41.09092" lon="14.3581883"><ele>147.0</ele><time>2026-04-24T15:54:03.386Z</time></trkpt><trkpt lat="41.0909483" lon="14.35803"><ele>146.71428571428572</ele><time>2026-04-24T15:54:05.385Z</time></trkpt><trkpt lat="41.0909717" lon="14.35795"><ele>146.42857142857144</ele><time>2026-04-24T15:54:06.385Z</time></trkpt><trkpt lat="41.0910017" lon="14.3578683"><ele>146.14285714285714</ele><time>2026-04-24T15:54:07.386Z</time></trkpt><trkpt lat="41.091035" lon="14.3577867"><ele>145.85714285714286</ele><time>2026-04-24T15:54:08.385Z</time></trkpt><trkpt lat="41.0910667" lon="14.3577083"><ele>145.57142857142858</ele><time>2026-04-24T15:54:09.384Z</time></trkpt><trkpt lat="41.09109" lon="14.3576267"><ele>145.28571428571428</ele><time>2026-04-24T15:54:10.385Z</time></trkpt><trkpt lat="41.091115" lon="14.3575433"><ele>145.0</ele><time>2026-04-24T15:54:11.386Z</time></trkpt><trkpt lat="41.09115" lon="14.35746"><ele>145.0</ele><time>2026-04-24T15:54:12.383Z</time></trkpt><trkpt lat="41.0911817" lon="14.3573767"><ele>145.0</ele><time>2026-04-24T15:54:13.385Z</time></trkpt><trkpt lat="41.0912117" lon="14.35729"><ele>145.0</ele><time>2026-04-24T15:54:14.386Z</time></trkpt><trkpt lat="41.0912417" lon="14.35721"><ele>145.0</ele><time>2026-04-24T15:54:15.385Z</time></trkpt><trkpt lat="41.0912767" lon="14.35713"><ele>145.0</ele><time>2026-04-24T15:54:16.384Z</time></trkpt><trkpt lat="41.0913133" lon="14.357045"><ele>145.0</ele><time>2026-04-24T15:54:17.384Z</time></trkpt><trkpt lat="41.0913483" lon="14.3569617"><ele>145.0</ele><time>2026-04-24T15:54:18.386Z</time></trkpt><trkpt lat="41.09138" lon="14.3568783"><ele>145.0</ele><time>2026-04-24T15:54:19.385Z</time></trkpt><trkpt lat="41.0914067" lon="14.356795"><ele>145.0</ele><time>2026-04-24T15:54:20.386Z</time></trkpt><trkpt lat="41.091435" lon="14.3567183"><ele>145.0</ele><time>2026-04-24T15:54:21.385Z</time></trkpt><trkpt lat="41.0914683" lon="14.3566417"><ele>145.0</ele><time>2026-04-24T15:54:22.385Z</time></trkpt><trkpt lat="41.0915333" lon="14.3565"><ele>145.0</ele><time>2026-04-24T15:54:24.383Z</time></trkpt><trkpt lat="41.0915983" lon="14.3563933"><ele>145.0</ele><time>2026-04-24T15:54:26.386Z</time></trkpt><trkpt lat="41.0916683" lon="14.3563217"><ele>145.0</ele><time>2026-04-24T15:54:28.385Z</time></trkpt><trkpt lat="41.0917367" lon="14.3562433"><ele>145.0</ele><time>2026-04-24T15:54:30.384Z</time></trkpt><trkpt lat="41.0918033" lon="14.35616"><ele>145.0</ele><time>2026-04-24T15:54:32.385Z</time></trkpt><trkpt lat="41.0918683" lon="14.3560767"><ele>145.0</ele><time>2026-04-24T15:54:34.384Z</time></trkpt><trkpt lat="41.0919217" lon="14.355985"><ele>145.0</ele><time>2026-04-24T15:54:36.385Z</time></trkpt><trkpt lat="41.0919717" lon="14.355885"><ele>145.0</ele><time>2026-04-24T15:54:38.385Z</time></trkpt><trkpt lat="41.092045" lon="14.355785"><ele>145.0</ele><time>2026-04-24T15:54:40.385Z</time></trkpt><trkpt lat="41.0921" lon="14.3556633"><ele>145.0</ele><time>2026-04-24T15:54:42.384Z</time></trkpt><trkpt lat="41.0921317" lon="14.3555017"><ele>145.0</ele><time>2026-04-24T15:54:44.384Z</time></trkpt><trkpt lat="41.09216" lon="14.35534"><ele>144.0</ele><time>2026-04-24T15:54:46.385Z</time></trkpt><trkpt lat="41.0921733" lon="14.3552583"><ele>143.0</ele><time>2026-04-24T15:54:47.385Z</time></trkpt><trkpt lat="41.0921967" lon="14.3551033"><ele>142.0</ele><time>2026-04-24T15:54:49.385Z</time></trkpt><trkpt lat="41.0922433" lon="14.354965"><ele>141.0</ele><time>2026-04-24T15:54:51.385Z</time></trkpt><trkpt lat="41.0923067" lon="14.3548567"><ele>140.0</ele><time>2026-04-24T15:54:53.385Z</time></trkpt><trkpt lat="41.0923867" lon="14.3548067"><ele>140.8</ele><time>2026-04-24T15:54:55.382Z</time></trkpt><trkpt lat="41.0924867" lon="14.3547717"><ele>141.6</ele><time>2026-04-24T15:54:57.384Z</time></trkpt><trkpt lat="41.09258" lon="14.3547133"><ele>142.4</ele><time>2026-04-24T15:54:59.383Z</time></trkpt><trkpt lat="41.0926467" lon="14.354605"><ele>143.2</ele><time>2026-04-24T15:55:01.385Z</time></trkpt><trkpt lat="41.0926783" lon="14.3544783"><ele>144.0</ele><time>2026-04-24T15:55:03.384Z</time></trkpt><trkpt lat="41.09271" lon="14.3543533"><ele>144.0</ele><time>2026-04-24T15:55:05.384Z</time></trkpt><trkpt lat="41.0927283" lon="14.3542317"><ele>144.0</ele><time>2026-04-24T15:55:07.386Z</time></trkpt><trkpt lat="41.092745" lon="14.354115"><ele>144.0</ele><time>2026-04-24T15:55:09.385Z</time></trkpt><trkpt lat="41.0927567" lon="14.3539983"><ele>144.0</ele><time>2026-04-24T15:55:11.384Z</time></trkpt><trkpt lat="41.0927683" lon="14.3538833"><ele>144.0</ele><time>2026-04-24T15:55:13.385Z</time></trkpt><trkpt lat="41.0927683" lon="14.3537883"><ele>144.0</ele><time>2026-04-24T15:55:15.384Z</time></trkpt><trkpt lat="41.0928183" lon="14.35373"><ele>144.33333333333334</ele><time>2026-04-24T15:55:18.386Z</time></trkpt><trkpt lat="41.0929133" lon="14.3537233"><ele>144.66666666666666</ele><time>2026-04-24T15:55:21.384Z</time></trkpt><trkpt lat="41.0929967" lon="14.353725"><ele>145.0</ele><time>2026-04-24T15:55:23.385Z</time></trkpt><trkpt lat="41.093085" lon="14.3537283"><ele>145.33333333333331</ele><time>2026-04-24T15:55:25.386Z</time></trkpt><trkpt lat="41.09318" lon="14.353745"><ele>145.66666666666666</ele><time>2026-04-24T15:55:27.385Z</time></trkpt><trkpt lat="41.0932617" lon="14.3537717"><ele>146.0</ele><time>2026-04-24T15:55:29.383Z</time></trkpt><trkpt lat="41.0933467" lon="14.3537933"><ele>146.0</ele><time>2026-04-24T15:55:31.385Z</time></trkpt><trkpt lat="41.09343" lon="14.3538133"><ele>146.0</ele><time>2026-04-24T15:55:33.386Z</time></trkpt><trkpt lat="41.09352" lon="14.3538183"><ele>146.0</ele><time>2026-04-24T15:55:35.385Z</time></trkpt><trkpt lat="41.09362" lon="14.3538267"><ele>146.0</ele><time>2026-04-24T15:55:37.384Z</time></trkpt><trkpt lat="41.09372" lon="14.3538317"><ele>146.0</ele><time>2026-04-24T15:55:39.384Z</time></trkpt><trkpt lat="41.0938167" lon="14.3538567"><ele>146.4</ele><time>2026-04-24T15:55:41.385Z</time></trkpt><trkpt lat="41.0939017" lon="14.3539067"><ele>146.8</ele><time>2026-04-24T15:55:43.385Z</time></trkpt><trkpt lat="41.0939933" lon="14.3539517"><ele>147.20000000000002</ele><time>2026-04-24T15:55:45.383Z</time></trkpt><trkpt lat="41.0940733" lon="14.3540167"><ele>147.6</ele><time>2026-04-24T15:55:47.385Z</time></trkpt><trkpt lat="41.094155" lon="14.3541"><ele>148.0</ele><time>2026-04-24T15:55:49.385Z</time></trkpt><trkpt lat="41.0942317" lon="14.3541783"><ele>148.83333333333334</ele><time>2026-04-24T15:55:51.387Z</time></trkpt><trkpt lat="41.0943183" lon="14.3542517"><ele>149.66666666666669</ele><time>2026-04-24T15:55:53.387Z</time></trkpt><trkpt lat="41.0943883" lon="14.3543167"><ele>150.5</ele><time>2026-04-24T15:55:55.386Z</time></trkpt><trkpt lat="41.0944533" lon="14.3543683"><ele>151.33333333333334</ele><time>2026-04-24T15:55:57.385Z</time></trkpt><trkpt lat="41.0945317" lon="14.3543283"><ele>152.16666666666666</ele><time>2026-04-24T15:56:01.385Z</time></trkpt><trkpt lat="41.0945533" lon="14.3542483"><ele>153.0</ele><time>2026-04-24T15:56:04.383Z</time></trkpt><trkpt lat="41.09457" lon="14.3541617"><ele>153.0</ele><time>2026-04-24T15:56:07.384Z</time></trkpt><trkpt lat="41.0945867" lon="14.354055"><ele>153.0</ele><time>2026-04-24T15:56:10.384Z</time></trkpt><trkpt lat="41.094595" lon="14.3539483"><ele>153.0</ele><time>2026-04-24T15:56:13.385Z</time></trkpt><trkpt lat="41.0946033" lon="14.35385"><ele>153.0</ele><time>2026-04-24T15:56:16.384Z</time></trkpt><trkpt lat="41.09461" lon="14.3537317"><ele>153.0</ele><time>2026-04-24T15:56:19.384Z</time></trkpt><trkpt lat="41.0946233" lon="14.353635"><ele>153.0</ele><time>2026-04-24T15:56:21.385Z</time></trkpt><trkpt lat="41.0946217" lon="14.3535333"><ele>152.5</ele><time>2026-04-24T15:56:23.385Z</time></trkpt><trkpt lat="41.0946233" lon="14.3534267"><ele>152.0</ele><time>2026-04-24T15:56:25.384Z</time></trkpt><trkpt lat="41.0946167" lon="14.35332"><ele>151.5</ele><time>2026-04-24T15:56:27.384Z</time></trkpt><trkpt lat="41.0946033" lon="14.3532083"><ele>151.0</ele><time>2026-04-24T15:56:29.387Z</time></trkpt><trkpt lat="41.0946033" lon="14.353075"><ele>150.5</ele><time>2026-04-24T15:56:31.384Z</time></trkpt><trkpt lat="41.0946033" lon="14.35296"><ele>150.0</ele><time>2026-04-24T15:56:33.387Z</time></trkpt><trkpt lat="41.0946" lon="14.352855"><ele>149.6</ele><time>2026-04-24T15:56:35.385Z</time></trkpt><trkpt lat="41.09461" lon="14.35274"><ele>149.2</ele><time>2026-04-24T15:56:37.385Z</time></trkpt><trkpt lat="41.0946" lon="14.3526033"><ele>148.8</ele><time>2026-04-24T15:56:39.384Z</time></trkpt><trkpt lat="41.094595" lon="14.3524533"><ele>148.4</ele><time>2026-04-24T15:56:41.385Z</time></trkpt><trkpt lat="41.0945767" lon="14.35229"><ele>148.0</ele><time>2026-04-24T15:56:43.385Z</time></trkpt><trkpt lat="41.0945817" lon="14.352195"><ele>147.4</ele><time>2026-04-24T15:56:44.386Z</time></trkpt><trkpt lat="41.0945767" lon="14.3521083"><ele>146.8</ele><time>2026-04-24T15:56:45.386Z</time></trkpt><trkpt lat="41.0945667" lon="14.3519633"><ele>146.2</ele><time>2026-04-24T15:56:47.384Z</time></trkpt><trkpt lat="41.0945633" lon="14.3518567"><ele>145.6</ele><time>2026-04-24T15:56:49.386Z</time></trkpt><trkpt lat="41.09457" lon="14.351735"><ele>145.0</ele><time>2026-04-24T15:56:51.384Z</time></trkpt><trkpt lat="41.0945667" lon="14.3515983"><ele>145.0</ele><time>2026-04-24T15:56:53.385Z</time></trkpt><trkpt lat="41.0945733" lon="14.3514767"><ele>145.0</ele><time>2026-04-24T15:56:55.384Z</time></trkpt><trkpt lat="41.0945767" lon="14.3513767"><ele>145.0</ele><time>2026-04-24T15:56:57.385Z</time></trkpt><trkpt lat="41.094575" lon="14.3512683"><ele>145.0</ele><time>2026-04-24T15:56:59.387Z</time></trkpt><trkpt lat="41.0945667" lon="14.3511483"><ele>145.0</ele><time>2026-04-24T15:57:01.386Z</time></trkpt><trkpt lat="41.0945717" lon="14.3510117"><ele>145.0</ele><time>2026-04-24T15:57:03.387Z</time></trkpt><trkpt lat="41.0945833" lon="14.3508633"><ele>144.75</ele><time>2026-04-24T15:57:05.385Z</time></trkpt><trkpt lat="41.0945983" lon="14.3507117"><ele>144.5</ele><time>2026-04-24T15:57:07.387Z</time></trkpt><trkpt lat="41.0946217" lon="14.35056"><ele>144.25</ele><time>2026-04-24T15:57:09.385Z</time></trkpt><trkpt lat="41.0946417" lon="14.3504083"><ele>144.0</ele><time>2026-04-24T15:57:11.384Z</time></trkpt><trkpt lat="41.09469" lon="14.3502467"><ele>143.42857142857144</ele><time>2026-04-24T15:57:13.384Z</time></trkpt><trkpt lat="41.0947083" lon="14.3501633"><ele>142.85714285714286</ele><time>2026-04-24T15:57:14.385Z</time></trkpt><trkpt lat="41.0947333" lon="14.3500833"><ele>142.28571428571428</ele><time>2026-04-24T15:57:15.388Z</time></trkpt><trkpt lat="41.094765" lon="14.3500067"><ele>141.71428571428572</ele><time>2026-04-24T15:57:16.385Z</time></trkpt><trkpt lat="41.0947983" lon="14.3499283"><ele>141.14285714285714</ele><time>2026-04-24T15:57:17.385Z</time></trkpt><trkpt lat="41.0948317" lon="14.3498517"><ele>140.57142857142858</ele><time>2026-04-24T15:57:18.385Z</time></trkpt><trkpt lat="41.09487" lon="14.3497817"><ele>140.0</ele><time>2026-04-24T15:57:19.386Z</time></trkpt><trkpt lat="41.0949117" lon="14.3497167"><ele>141.2</ele><time>2026-04-24T15:57:20.386Z</time></trkpt><trkpt lat="41.09495" lon="14.34965"><ele>142.4</ele><time>2026-04-24T15:57:21.385Z</time></trkpt><trkpt lat="41.09503" lon="14.3495267"><ele>143.6</ele><time>2026-04-24T15:57:23.384Z</time></trkpt><trkpt lat="41.0951033" lon="14.3494117"><ele>144.8</ele><time>2026-04-24T15:57:25.386Z</time></trkpt><trkpt lat="41.09517" lon="14.34931"><ele>146.0</ele><time>2026-04-24T15:57:27.385Z</time></trkpt><trkpt lat="41.0952267" lon="14.3492"><ele>146.0</ele><time>2026-04-24T15:57:29.385Z</time></trkpt><trkpt lat="41.0952817" lon="14.3491083"><ele>146.0</ele><time>2026-04-24T15:57:31.386Z</time></trkpt><trkpt lat="41.095325" lon="14.3490183"><ele>146.0</ele><time>2026-04-24T15:57:33.388Z</time></trkpt><trkpt lat="41.0953733" lon="14.3489467"><ele>146.0</ele><time>2026-04-24T15:57:35.385Z</time></trkpt><trkpt lat="41.0954117" lon="14.3488683"><ele>146.0</ele><time>2026-04-24T15:57:37.385Z</time></trkpt><trkpt lat="41.0954617" lon="14.3487883"><ele>146.0</ele><time>2026-04-24T15:57:39.387Z</time></trkpt><trkpt lat="41.09552" lon="14.3487083"><ele>145.5</ele><time>2026-04-24T15:57:41.386Z</time></trkpt><trkpt lat="41.095575" lon="14.348625"><ele>145.0</ele><time>2026-04-24T15:57:43.387Z</time></trkpt><trkpt lat="41.0956333" lon="14.3485433"><ele>144.5</ele><time>2026-04-24T15:57:45.386Z</time></trkpt><trkpt lat="41.0956933" lon="14.3484533"><ele>144.0</ele><time>2026-04-24T15:57:47.386Z</time></trkpt><trkpt lat="41.0957467" lon="14.34836"><ele>143.5</ele><time>2026-04-24T15:57:49.386Z</time></trkpt><trkpt lat="41.0958083" lon="14.3482683"><ele>143.0</ele><time>2026-04-24T15:57:51.385Z</time></trkpt><trkpt lat="41.095875" lon="14.34818"><ele>144.6</ele><time>2026-04-24T15:57:53.385Z</time></trkpt><trkpt lat="41.09594" lon="14.348085"><ele>146.20000000000002</ele><time>2026-04-24T15:57:55.386Z</time></trkpt><trkpt lat="41.09601" lon="14.3479967"><ele>147.8</ele><time>2026-04-24T15:57:57.387Z</time></trkpt><trkpt lat="41.0960567" lon="14.34789"><ele>149.4</ele><time>2026-04-24T15:57:59.384Z</time></trkpt><trkpt lat="41.0961117" lon="14.3477933"><ele>151.0</ele><time>2026-04-24T15:58:01.384Z</time></trkpt><trkpt lat="41.0961683" lon="14.3477083"><ele>151.0</ele><time>2026-04-24T15:58:03.387Z</time></trkpt><trkpt lat="41.09622" lon="14.347625"><ele>151.0</ele><time>2026-04-24T15:58:05.387Z</time></trkpt><trkpt lat="41.0962733" lon="14.34755"><ele>151.0</ele><time>2026-04-24T15:58:07.386Z</time></trkpt><trkpt lat="41.09633" lon="14.347475"><ele>151.0</ele><time>2026-04-24T15:58:09.384Z</time></trkpt><trkpt lat="41.096385" lon="14.3473817"><ele>151.0</ele><time>2026-04-24T15:58:11.383Z</time></trkpt><trkpt lat="41.09644" lon="14.3472767"><ele>151.0</ele><time>2026-04-24T15:58:13.384Z</time></trkpt><trkpt lat="41.0965017" lon="14.3471783"><ele>151.6</ele><time>2026-04-24T15:58:15.385Z</time></trkpt><trkpt lat="41.0965633" lon="14.347085"><ele>152.2</ele><time>2026-04-24T15:58:17.385Z</time></trkpt><trkpt lat="41.09663" lon="14.3469817"><ele>152.8</ele><time>2026-04-24T15:58:19.385Z</time></trkpt><trkpt lat="41.0966967" lon="14.3468833"><ele>153.4</ele><time>2026-04-24T15:58:21.385Z</time></trkpt><trkpt lat="41.0967617" lon="14.34679"><ele>154.0</ele><time>2026-04-24T15:58:23.385Z</time></trkpt><trkpt lat="41.096825" lon="14.3466967"><ele>154.0</ele><time>2026-04-24T15:58:25.387Z</time></trkpt><trkpt lat="41.0968767" lon="14.3466033"><ele>154.0</ele><time>2026-04-24T15:58:27.384Z</time></trkpt><trkpt lat="41.096935" lon="14.3465117"><ele>154.0</ele><time>2026-04-24T15:58:29.385Z</time></trkpt><trkpt lat="41.0969967" lon="14.3464167"><ele>154.0</ele><time>2026-04-24T15:58:31.386Z</time></trkpt><trkpt lat="41.097065" lon="14.3463233"><ele>154.0</ele><time>2026-04-24T15:58:33.386Z</time></trkpt><trkpt lat="41.0971283" lon="14.3462233"><ele>154.2</ele><time>2026-04-24T15:58:35.386Z</time></trkpt><trkpt lat="41.0971917" lon="14.3461167"><ele>154.4</ele><time>2026-04-24T15:58:37.384Z</time></trkpt><trkpt lat="41.0972583" lon="14.34601"><ele>154.6</ele><time>2026-04-24T15:58:39.385Z</time></trkpt><trkpt lat="41.0973267" lon="14.3459167"><ele>154.8</ele><time>2026-04-24T15:58:41.386Z</time></trkpt><trkpt lat="41.0974033" lon="14.3458583"><ele>155.0</ele><time>2026-04-24T15:58:43.384Z</time></trkpt><trkpt lat="41.0974783" lon="14.345825"><ele>155.66666666666666</ele><time>2026-04-24T15:58:45.385Z</time></trkpt><trkpt lat="41.0975083" lon="14.3457433"><ele>156.33333333333331</ele><time>2026-04-24T15:58:47.386Z</time></trkpt><trkpt lat="41.0975067" lon="14.3456383"><ele>157.0</ele><time>2026-04-24T15:58:49.384Z</time></trkpt><trkpt lat="41.097545" lon="14.345535"><ele>157.66666666666666</ele><time>2026-04-24T15:58:51.385Z</time></trkpt><trkpt lat="41.097605" lon="14.34545"><ele>158.33333333333334</ele><time>2026-04-24T15:58:53.384Z</time></trkpt><trkpt lat="41.09767" lon="14.345365"><ele>159.0</ele><time>2026-04-24T15:58:55.384Z</time></trkpt><trkpt lat="41.097725" lon="14.3452833"><ele>159.0</ele><time>2026-04-24T15:58:57.385Z</time></trkpt><trkpt lat="41.097775" lon="14.345195"><ele>159.0</ele><time>2026-04-24T15:58:59.385Z</time></trkpt><trkpt lat="41.0978217" lon="14.345085"><ele>159.0</ele><time>2026-04-24T15:59:01.385Z</time></trkpt><trkpt lat="41.097865" lon="14.3449767"><ele>159.0</ele><time>2026-04-24T15:59:03.387Z</time></trkpt><trkpt lat="41.0979233" lon="14.3448883"><ele>159.0</ele><time>2026-04-24T15:59:05.385Z</time></trkpt><trkpt lat="41.0979833" lon="14.344805"><ele>159.0</ele><time>2026-04-24T15:59:07.385Z</time></trkpt><trkpt lat="41.09804" lon="14.3447133"><ele>158.66666666666666</ele><time>2026-04-24T15:59:09.387Z</time></trkpt><trkpt lat="41.0981" lon="14.34463"><ele>158.33333333333334</ele><time>2026-04-24T15:59:11.384Z</time></trkpt><trkpt lat="41.0981583" lon="14.344535"><ele>158.0</ele><time>2026-04-24T15:59:13.384Z</time></trkpt><trkpt lat="41.0982233" lon="14.3444633"><ele>157.66666666666669</ele><time>2026-04-24T15:59:15.387Z</time></trkpt><trkpt lat="41.0983067" lon="14.34444"><ele>157.33333333333334</ele><time>2026-04-24T15:59:17.384Z</time></trkpt><trkpt lat="41.09839" lon="14.344425"><ele>157.0</ele><time>2026-04-24T15:59:19.383Z</time></trkpt><trkpt lat="41.0984683" lon="14.344385"><ele>158.66666666666669</ele><time>2026-04-24T15:59:21.383Z</time></trkpt><trkpt lat="41.0985317" lon="14.3443267"><ele>160.33333333333334</ele><time>2026-04-24T15:59:23.385Z</time></trkpt><trkpt lat="41.0985867" lon="14.3442467"><ele>162.0</ele><time>2026-04-24T15:59:26.384Z</time></trkpt><trkpt lat="41.0986017" lon="14.34415"><ele>163.66666666666666</ele><time>2026-04-24T16:01:05.386Z</time></trkpt><trkpt lat="41.09864" lon="14.34408"><ele>165.33333333333331</ele><time>2026-04-24T16:01:08.385Z</time></trkpt><trkpt lat="41.098685" lon="14.3439833"><ele>167.0</ele><time>2026-04-24T16:01:11.387Z</time></trkpt><trkpt lat="41.09872" lon="14.3438983"><ele>166.39999999999998</ele><time>2026-04-24T16:01:13.386Z</time></trkpt><trkpt lat="41.0987533" lon="14.343785"><ele>165.79999999999998</ele><time>2026-04-24T16:01:15.385Z</time></trkpt><trkpt lat="41.0987783" lon="14.343645"><ele>165.2</ele><time>2026-04-24T16:01:17.385Z</time></trkpt><trkpt lat="41.0988017" lon="14.3435083"><ele>164.6</ele><time>2026-04-24T16:01:19.386Z</time></trkpt><trkpt lat="41.0988333" lon="14.3433583"><ele>164.0</ele><time>2026-04-24T16:01:21.386Z</time></trkpt><trkpt lat="41.09885" lon="14.3432283"><ele>164.0</ele><time>2026-04-24T16:01:23.385Z</time></trkpt><trkpt lat="41.0988567" lon="14.3431133"><ele>164.0</ele><time>2026-04-24T16:01:25.383Z</time></trkpt><trkpt lat="41.0988483" lon="14.343005"><ele>164.0</ele><time>2026-04-24T16:01:27.387Z</time></trkpt><trkpt lat="41.09885" lon="14.3428933"><ele>164.0</ele><time>2026-04-24T16:01:29.386Z</time></trkpt><trkpt lat="41.09885" lon="14.34274"><ele>164.0</ele><time>2026-04-24T16:01:31.386Z</time></trkpt><trkpt lat="41.0988417" lon="14.34257"><ele>163.85714285714283</ele><time>2026-04-24T16:01:33.386Z</time></trkpt><trkpt lat="41.0988383" lon="14.3424817"><ele>163.71428571428572</ele><time>2026-04-24T16:01:34.385Z</time></trkpt><trkpt lat="41.0988367" lon="14.3423883"><ele>163.57142857142856</ele><time>2026-04-24T16:01:35.385Z</time></trkpt><trkpt lat="41.0988333" lon="14.3422883"><ele>163.42857142857142</ele><time>2026-04-24T16:01:36.385Z</time></trkpt><trkpt lat="41.09883" lon="14.3421867"><ele>163.28571428571428</ele><time>2026-04-24T16:01:37.386Z</time></trkpt><trkpt lat="41.0988333" lon="14.3420867"><ele>163.14285714285714</ele><time>2026-04-24T16:01:38.383Z</time></trkpt><trkpt lat="41.0988367" lon="14.341985"><ele>163.0</ele><time>2026-04-24T16:01:39.384Z</time></trkpt><trkpt lat="41.0988383" lon="14.341885"><ele>162.85714285714286</ele><time>2026-04-24T16:01:40.385Z</time></trkpt><trkpt lat="41.098835" lon="14.3417817"><ele>162.7142857142857</ele><time>2026-04-24T16:01:41.387Z</time></trkpt><trkpt lat="41.0988283" lon="14.3416817"><ele>162.57142857142856</ele><time>2026-04-24T16:01:42.387Z</time></trkpt><trkpt lat="41.0988233" lon="14.3415833"><ele>162.42857142857144</ele><time>2026-04-24T16:01:43.387Z</time></trkpt><trkpt lat="41.0988167" lon="14.3414917"><ele>162.28571428571428</ele><time>2026-04-24T16:01:44.383Z</time></trkpt><trkpt lat="41.0988133" lon="14.3413983"><ele>162.14285714285714</ele><time>2026-04-24T16:01:45.386Z</time></trkpt><trkpt lat="41.0988133" lon="14.3413083"><ele>162.0</ele><time>2026-04-24T16:01:46.388Z</time></trkpt><trkpt lat="41.09881" lon="14.34114"><ele>162.0</ele><time>2026-04-24T16:01:48.383Z</time></trkpt><trkpt lat="41.0987933" lon="14.3409817"><ele>162.0</ele><time>2026-04-24T16:01:50.386Z</time></trkpt><trkpt lat="41.0987733" lon="14.3408217"><ele>162.0</ele><time>2026-04-24T16:01:52.384Z</time></trkpt><trkpt lat="41.0987717" lon="14.340735"><ele>162.0</ele><time>2026-04-24T16:01:53.385Z</time></trkpt><trkpt lat="41.0987717" lon="14.3406467"><ele>162.0</ele><time>2026-04-24T16:01:54.385Z</time></trkpt><trkpt lat="41.09877" lon="14.3405567"><ele>162.0</ele><time>2026-04-24T16:01:55.386Z</time></trkpt><trkpt lat="41.0987633" lon="14.34047"><ele>162.5</ele><time>2026-04-24T16:01:56.384Z</time></trkpt><trkpt lat="41.0987583" lon="14.3403833"><ele>163.0</ele><time>2026-04-24T16:01:57.386Z</time></trkpt><trkpt lat="41.098755" lon="14.3402983"><ele>163.5</ele><time>2026-04-24T16:01:58.386Z</time></trkpt><trkpt lat="41.0987533" lon="14.3401333"><ele>164.0</ele><time>2026-04-24T16:02:00.384Z</time></trkpt><trkpt lat="41.0987583" lon="14.34005"><ele>164.5</ele><time>2026-04-24T16:02:01.385Z</time></trkpt><trkpt lat="41.098765" lon="14.3398883"><ele>165.0</ele><time>2026-04-24T16:02:03.384Z</time></trkpt><trkpt lat="41.0987667" lon="14.3397217"><ele>166.5</ele><time>2026-04-24T16:02:05.383Z</time></trkpt><trkpt lat="41.0987633" lon="14.3395567"><ele>168.0</ele><time>2026-04-24T16:02:07.384Z</time></trkpt><trkpt lat="41.09877" lon="14.339395"><ele>169.5</ele><time>2026-04-24T16:02:09.385Z</time></trkpt><trkpt lat="41.0987733" lon="14.3392333"><ele>171.0</ele><time>2026-04-24T16:02:11.386Z</time></trkpt><trkpt lat="41.098775" lon="14.339075"><ele>171.0</ele><time>2026-04-24T16:02:13.385Z</time></trkpt><trkpt lat="41.098765" lon="14.3389167"><ele>171.0</ele><time>2026-04-24T16:02:15.386Z</time></trkpt><trkpt lat="41.0987517" lon="14.3387683"><ele>171.0</ele><time>2026-04-24T16:02:17.385Z</time></trkpt><trkpt lat="41.0987517" lon="14.3386167"><ele>171.0</ele><time>2026-04-24T16:02:19.385Z</time></trkpt><trkpt lat="41.0987483" lon="14.33847"><ele>170.8</ele><time>2026-04-24T16:02:21.385Z</time></trkpt><trkpt lat="41.0987533" lon="14.3383283"><ele>170.60000000000002</ele><time>2026-04-24T16:02:23.386Z</time></trkpt><trkpt lat="41.0987633" lon="14.33819"><ele>170.4</ele><time>2026-04-24T16:02:25.384Z</time></trkpt><trkpt lat="41.09877" lon="14.3380533"><ele>170.2</ele><time>2026-04-24T16:02:27.383Z</time></trkpt><trkpt lat="41.09877" lon="14.33792"><ele>170.0</ele><time>2026-04-24T16:02:29.382Z</time></trkpt><trkpt lat="41.0987617" lon="14.33779"><ele>170.0</ele><time>2026-04-24T16:02:31.384Z</time></trkpt><trkpt lat="41.09873" lon="14.3376767"><ele>170.0</ele><time>2026-04-24T16:02:33.383Z</time></trkpt><trkpt lat="41.0986933" lon="14.3375783"><ele>170.0</ele><time>2026-04-24T16:02:35.385Z</time></trkpt><trkpt lat="41.0986283" lon="14.3375117"><ele>170.0</ele><time>2026-04-24T16:02:37.383Z</time></trkpt><trkpt lat="41.0985317" lon="14.3374833"><ele>170.0</ele><time>2026-04-24T16:02:39.386Z</time></trkpt><trkpt lat="41.0984183" lon="14.33746"><ele>170.0</ele><time>2026-04-24T16:02:41.386Z</time></trkpt><trkpt lat="41.0983533" lon="14.3374533"><ele>170.0</ele><time>2026-04-24T16:02:42.383Z</time></trkpt><trkpt lat="41.0982817" lon="14.3374483"><ele>170.0</ele><time>2026-04-24T16:02:43.386Z</time></trkpt><trkpt lat="41.0982083" lon="14.337445"><ele>170.0</ele><time>2026-04-24T16:02:44.386Z</time></trkpt><trkpt lat="41.0981317" lon="14.3374367"><ele>170.0</ele><time>2026-04-24T16:02:45.386Z</time></trkpt><trkpt lat="41.0980483" lon="14.3374233"><ele>170.0</ele><time>2026-04-24T16:02:46.383Z</time></trkpt><trkpt lat="41.0979617" lon="14.3374033"><ele>167.2</ele><time>2026-04-24T16:02:47.386Z</time></trkpt><trkpt lat="41.0978717" lon="14.3373733"><ele>164.4</ele><time>2026-04-24T16:02:48.386Z</time></trkpt><trkpt lat="41.097785" lon="14.337335"><ele>161.6</ele><time>2026-04-24T16:02:49.384Z</time></trkpt><trkpt lat="41.0976983" lon="14.3372917"><ele>158.8</ele><time>2026-04-24T16:02:50.387Z</time></trkpt><trkpt lat="41.0976167" lon="14.3372517"><ele>156.0</ele><time>2026-04-24T16:02:51.386Z</time></trkpt><trkpt lat="41.0975317" lon="14.3372217"><ele>154.2</ele><time>2026-04-24T16:02:52.386Z</time></trkpt><trkpt lat="41.0974383" lon="14.3372117"><ele>152.39999999999998</ele><time>2026-04-24T16:02:53.386Z</time></trkpt><trkpt lat="41.0973367" lon="14.337215"><ele>150.6</ele><time>2026-04-24T16:02:54.386Z</time></trkpt><trkpt lat="41.0972367" lon="14.3372233"><ele>148.79999999999998</ele><time>2026-04-24T16:02:55.384Z</time></trkpt><trkpt lat="41.0971333" lon="14.33724"><ele>147.0</ele><time>2026-04-24T16:02:56.385Z</time></trkpt><trkpt lat="41.0970317" lon="14.3372617"><ele>145.79999999999998</ele><time>2026-04-24T16:02:57.383Z</time></trkpt><trkpt lat="41.0969333" lon="14.3372833"><ele>144.6</ele><time>2026-04-24T16:02:58.383Z</time></trkpt><trkpt lat="41.0968383" lon="14.3373183"><ele>143.39999999999998</ele><time>2026-04-24T16:02:59.384Z</time></trkpt><trkpt lat="41.09674" lon="14.337365"><ele>142.2</ele><time>2026-04-24T16:03:00.384Z</time></trkpt><trkpt lat="41.0966467" lon="14.337425"><ele>141.0</ele><time>2026-04-24T16:03:01.384Z</time></trkpt><trkpt lat="41.09655" lon="14.3374967"><ele>139.0</ele><time>2026-04-24T16:03:02.382Z</time></trkpt><trkpt lat="41.0964583" lon="14.337575"><ele>137.0</ele><time>2026-04-24T16:03:03.384Z</time></trkpt><trkpt lat="41.0963733" lon="14.337655"><ele>135.0</ele><time>2026-04-24T16:03:04.383Z</time></trkpt><trkpt lat="41.0963033" lon="14.3377233"><ele>133.0</ele><time>2026-04-24T16:03:05.386Z</time></trkpt><trkpt lat="41.09625" lon="14.3377767"><ele>131.0</ele><time>2026-04-24T16:03:06.386Z</time></trkpt><trkpt lat="41.096165" lon="14.3378383"><ele>131.0</ele><time>2026-04-24T16:03:08.386Z</time></trkpt><trkpt lat="41.0961" lon="14.3378017"><ele>131.0</ele><time>2026-04-24T16:03:10.384Z</time></trkpt><trkpt lat="41.096125" lon="14.3376967"><ele>131.0</ele><time>2026-04-24T16:03:12.384Z</time></trkpt><trkpt lat="41.096205" lon="14.3376067"><ele>131.0</ele><time>2026-04-24T16:03:14.384Z</time></trkpt><trkpt lat="41.0962567" lon="14.3375567"><ele>131.0</ele><time>2026-04-24T16:03:15.384Z</time></trkpt><trkpt lat="41.096305" lon="14.3375"><ele>131.0</ele><time>2026-04-24T16:03:16.382Z</time></trkpt><trkpt lat="41.0963533" lon="14.3374433"><ele>131.0</ele><time>2026-04-24T16:03:17.384Z</time></trkpt><trkpt lat="41.0964017" lon="14.33738"><ele>131.0</ele><time>2026-04-24T16:03:18.384Z</time></trkpt><trkpt lat="41.0964533" lon="14.3373183"><ele>131.0</ele><time>2026-04-24T16:03:19.382Z</time></trkpt><trkpt lat="41.09651" lon="14.33725"><ele>131.0</ele><time>2026-04-24T16:03:20.383Z</time></trkpt><trkpt lat="41.0965683" lon="14.3371817"><ele>131.0</ele><time>2026-04-24T16:03:21.383Z</time></trkpt><trkpt lat="41.09663" lon="14.3371183"><ele>131.0</ele><time>2026-04-24T16:03:22.384Z</time></trkpt><trkpt lat="41.0966983" lon="14.33706"><ele>131.83333333333331</ele><time>2026-04-24T16:03:23.382Z</time></trkpt><trkpt lat="41.09677" lon="14.337005"><ele>132.66666666666666</ele><time>2026-04-24T16:03:24.384Z</time></trkpt><trkpt lat="41.0968483" lon="14.3369533"><ele>133.5</ele><time>2026-04-24T16:03:25.383Z</time></trkpt><trkpt lat="41.0969233" lon="14.3369033"><ele>134.33333333333334</ele><time>2026-04-24T16:03:26.383Z</time></trkpt><trkpt lat="41.096995" lon="14.3368433"><ele>135.16666666666669</ele><time>2026-04-24T16:03:27.384Z</time></trkpt><trkpt lat="41.09706" lon="14.3367717"><ele>136.0</ele><time>2026-04-24T16:03:28.384Z</time></trkpt><trkpt lat="41.09711" lon="14.336685"><ele>136.0</ele><time>2026-04-24T16:03:29.385Z</time></trkpt><trkpt lat="41.0971467" lon="14.3365917"><ele>136.0</ele><time>2026-04-24T16:03:30.383Z</time></trkpt><trkpt lat="41.0971817" lon="14.33649"><ele>136.0</ele><time>2026-04-24T16:03:31.385Z</time></trkpt><trkpt lat="41.0972167" lon="14.3363867"><ele>136.0</ele><time>2026-04-24T16:03:32.384Z</time></trkpt><trkpt lat="41.09725" lon="14.33628"><ele>136.0</ele><time>2026-04-24T16:03:33.385Z</time></trkpt><trkpt lat="41.0972867" lon="14.3361717"><ele>136.0</ele><time>2026-04-24T16:03:34.384Z</time></trkpt><trkpt lat="41.097325" lon="14.33607"><ele>137.0</ele><time>2026-04-24T16:03:35.386Z</time></trkpt><trkpt lat="41.0973667" lon="14.3359767"><ele>138.0</ele><time>2026-04-24T16:03:36.382Z</time></trkpt><trkpt lat="41.0974017" lon="14.3358933"><ele>139.0</ele><time>2026-04-24T16:03:37.385Z</time></trkpt><trkpt lat="41.0974517" lon="14.33576"><ele>140.0</ele><time>2026-04-24T16:03:39.385Z</time></trkpt><trkpt lat="41.0974267" lon="14.335625"><ele>141.0</ele><time>2026-04-24T16:03:41.386Z</time></trkpt><trkpt lat="41.0973717" lon="14.3355683"><ele>142.0</ele><time>2026-04-24T16:03:42.385Z</time></trkpt><trkpt lat="41.0973033" lon="14.33552"><ele>139.66666666666669</ele><time>2026-04-24T16:03:43.384Z</time></trkpt><trkpt lat="41.097225" lon="14.3354717"><ele>137.33333333333334</ele><time>2026-04-24T16:03:44.385Z</time></trkpt><trkpt lat="41.09715" lon="14.3354217"><ele>135.0</ele><time>2026-04-24T16:03:45.387Z</time></trkpt><trkpt lat="41.0970733" lon="14.3353733"><ele>132.66666666666666</ele><time>2026-04-24T16:03:46.384Z</time></trkpt><trkpt lat="41.097" lon="14.335315"><ele>130.33333333333331</ele><time>2026-04-24T16:03:47.384Z</time></trkpt><trkpt lat="41.096925" lon="14.3352483"><ele>128.0</ele><time>2026-04-24T16:03:48.383Z</time></trkpt><trkpt lat="41.09686" lon="14.3351833"><ele>127.99999999999999</ele><time>2026-04-24T16:03:49.384Z</time></trkpt><trkpt lat="41.0968033" lon="14.3351183"><ele>128.0</ele><time>2026-04-24T16:03:50.384Z</time></trkpt><trkpt lat="41.096745" lon="14.33506"><ele>128.0</ele><time>2026-04-24T16:03:51.384Z</time></trkpt><trkpt lat="41.0966833" lon="14.3350083"><ele>128.0</ele><time>2026-04-24T16:03:52.383Z</time></trkpt><trkpt lat="41.0966233" lon="14.33497"><ele>127.99999999999999</ele><time>2026-04-24T16:03:53.384Z</time></trkpt><trkpt lat="41.0965083" lon="14.33492"><ele>128.0</ele><time>2026-04-24T16:03:55.383Z</time></trkpt><trkpt lat="41.096375" lon="14.3349033"><ele>127.0</ele><time>2026-04-24T16:03:57.383Z</time></trkpt><trkpt lat="41.0963033" lon="14.3349233"><ele>125.99999999999999</ele><time>2026-04-24T16:03:58.383Z</time></trkpt><trkpt lat="41.096245" lon="14.3349683"><ele>125.0</ele><time>2026-04-24T16:03:59.381Z</time></trkpt><trkpt lat="41.09619" lon="14.33503"><ele>124.0</ele><time>2026-04-24T16:04:00.386Z</time></trkpt><trkpt lat="41.0961467" lon="14.3350933"><ele>122.99999999999999</ele><time>2026-04-24T16:04:01.386Z</time></trkpt><trkpt lat="41.0961067" lon="14.3351617"><ele>122.0</ele><time>2026-04-24T16:04:02.384Z</time></trkpt><trkpt lat="41.0960683" lon="14.335235"><ele>121.0</ele><time>2026-04-24T16:04:03.383Z</time></trkpt><trkpt lat="41.0960333" lon="14.3353067"><ele>121.0</ele><time>2026-04-24T16:04:04.386Z</time></trkpt><trkpt lat="41.0959933" lon="14.3354667"><ele>121.0</ele><time>2026-04-24T16:04:06.384Z</time></trkpt><trkpt lat="41.09596" lon="14.335625"><ele>121.0</ele><time>2026-04-24T16:04:08.385Z</time></trkpt><trkpt lat="41.0959283" lon="14.3357817"><ele>121.0</ele><time>2026-04-24T16:04:10.384Z</time></trkpt><trkpt lat="41.0959033" lon="14.3359333"><ele>121.19999999999999</ele><time>2026-04-24T16:04:12.384Z</time></trkpt><trkpt lat="41.095885" lon="14.3360933"><ele>121.39999999999999</ele><time>2026-04-24T16:04:14.384Z</time></trkpt><trkpt lat="41.0958683" lon="14.3362533"><ele>121.6</ele><time>2026-04-24T16:04:16.383Z</time></trkpt><trkpt lat="41.0958633" lon="14.336415"><ele>121.8</ele><time>2026-04-24T16:04:18.384Z</time></trkpt><trkpt lat="41.0958567" lon="14.3365"><ele>122.0</ele><time>2026-04-24T16:04:19.384Z</time></trkpt><trkpt lat="41.0958417" lon="14.3365917"><ele>122.42857142857142</ele><time>2026-04-24T16:04:20.384Z</time></trkpt><trkpt lat="41.0958233" lon="14.3366783"><ele>122.85714285714286</ele><time>2026-04-24T16:04:21.383Z</time></trkpt><trkpt lat="41.095795" lon="14.3367633"><ele>123.28571428571428</ele><time>2026-04-24T16:04:22.382Z</time></trkpt><trkpt lat="41.0957517" lon="14.3368333"><ele>123.71428571428571</ele><time>2026-04-24T16:04:23.384Z</time></trkpt><trkpt lat="41.0956933" lon="14.33689"><ele>124.14285714285714</ele><time>2026-04-24T16:04:24.383Z</time></trkpt><trkpt lat="41.0956267" lon="14.3369367"><ele>124.57142857142857</ele><time>2026-04-24T16:04:25.384Z</time></trkpt><trkpt lat="41.0955567" lon="14.33698"><ele>125.0</ele><time>2026-04-24T16:04:26.384Z</time></trkpt><trkpt lat="41.095485" lon="14.3370217"><ele>123.83333333333333</ele><time>2026-04-24T16:04:27.383Z</time></trkpt><trkpt lat="41.095415" lon="14.3370633"><ele>122.66666666666666</ele><time>2026-04-24T16:04:28.383Z</time></trkpt><trkpt lat="41.0953483" lon="14.33711"><ele>121.5</ele><time>2026-04-24T16:04:29.387Z</time></trkpt><trkpt lat="41.095285" lon="14.3371567"><ele>120.33333333333334</ele><time>2026-04-24T16:04:30.387Z</time></trkpt><trkpt lat="41.09522" lon="14.3372067"><ele>119.16666666666667</ele><time>2026-04-24T16:04:31.386Z</time></trkpt><trkpt lat="41.0951433" lon="14.3372517"><ele>118.0</ele><time>2026-04-24T16:04:32.385Z</time></trkpt><trkpt lat="41.0950567" lon="14.3372983"><ele>118.0</ele><time>2026-04-24T16:04:33.383Z</time></trkpt><trkpt lat="41.094965" lon="14.3373283"><ele>118.00000000000001</ele><time>2026-04-24T16:04:34.386Z</time></trkpt><trkpt lat="41.0948633" lon="14.337345"><ele>118.00000000000001</ele><time>2026-04-24T16:04:35.386Z</time></trkpt><trkpt lat="41.0947667" lon="14.3373567"><ele>118.0</ele><time>2026-04-24T16:04:36.385Z</time></trkpt><trkpt lat="41.094675" lon="14.3373667"><ele>118.0</ele><time>2026-04-24T16:04:37.386Z</time></trkpt><trkpt lat="41.0945867" lon="14.3373817"><ele>117.16666666666667</ele><time>2026-04-24T16:04:38.385Z</time></trkpt><trkpt lat="41.0945033" lon="14.3374"><ele>116.33333333333334</ele><time>2026-04-24T16:04:39.385Z</time></trkpt><trkpt lat="41.094425" lon="14.337415"><ele>115.5</ele><time>2026-04-24T16:04:40.384Z</time></trkpt><trkpt lat="41.0943483" lon="14.3374267"><ele>114.66666666666666</ele><time>2026-04-24T16:04:41.384Z</time></trkpt><trkpt lat="41.094275" lon="14.3374317"><ele>113.83333333333333</ele><time>2026-04-24T16:04:42.386Z</time></trkpt><trkpt lat="41.094205" lon="14.3374317"><ele>113.0</ele><time>2026-04-24T16:04:43.384Z</time></trkpt><trkpt lat="41.0941383" lon="14.337415"><ele>112.28571428571429</ele><time>2026-04-24T16:04:44.386Z</time></trkpt><trkpt lat="41.094075" lon="14.3373867"><ele>111.57142857142857</ele><time>2026-04-24T16:04:45.386Z</time></trkpt><trkpt lat="41.0940167" lon="14.3373467"><ele>110.85714285714286</ele><time>2026-04-24T16:04:46.385Z</time></trkpt><trkpt lat="41.0939583" lon="14.3373067"><ele>110.14285714285714</ele><time>2026-04-24T16:04:47.383Z</time></trkpt><trkpt lat="41.0938983" lon="14.3372683"><ele>109.42857142857142</ele><time>2026-04-24T16:04:48.385Z</time></trkpt><trkpt lat="41.0938383" lon="14.3372283"><ele>108.71428571428571</ele><time>2026-04-24T16:04:49.384Z</time></trkpt><trkpt lat="41.0937767" lon="14.3371917"><ele>108.0</ele><time>2026-04-24T16:04:50.384Z</time></trkpt><trkpt lat="41.0937117" lon="14.33716"><ele>107.85714285714286</ele><time>2026-04-24T16:04:51.385Z</time></trkpt><trkpt lat="41.0936417" lon="14.3371233"><ele>107.71428571428571</ele><time>2026-04-24T16:04:52.384Z</time></trkpt><trkpt lat="41.09357" lon="14.3370833"><ele>107.57142857142858</ele><time>2026-04-24T16:04:53.383Z</time></trkpt><trkpt lat="41.0934933" lon="14.337055"><ele>107.42857142857143</ele><time>2026-04-24T16:04:54.384Z</time></trkpt><trkpt lat="41.093425" lon="14.337025"><ele>107.28571428571429</ele><time>2026-04-24T16:04:55.385Z</time></trkpt><trkpt lat="41.09336" lon="14.3369983"><ele>107.14285714285715</ele><time>2026-04-24T16:04:56.383Z</time></trkpt><trkpt lat="41.0932967" lon="14.3369667"><ele>107.0</ele><time>2026-04-24T16:04:57.384Z</time></trkpt><trkpt lat="41.093235" lon="14.33693"><ele>106.33333333333333</ele><time>2026-04-24T16:04:58.383Z</time></trkpt><trkpt lat="41.09317" lon="14.33689"><ele>105.66666666666666</ele><time>2026-04-24T16:04:59.384Z</time></trkpt><trkpt lat="41.0931033" lon="14.33685"><ele>105.0</ele><time>2026-04-24T16:05:00.383Z</time></trkpt><trkpt lat="41.09303" lon="14.3368167"><ele>104.33333333333334</ele><time>2026-04-24T16:05:01.384Z</time></trkpt><trkpt lat="41.0929567" lon="14.3367817"><ele>103.66666666666667</ele><time>2026-04-24T16:05:02.382Z</time></trkpt><trkpt lat="41.0928867" lon="14.3367417"><ele>103.0</ele><time>2026-04-24T16:05:03.382Z</time></trkpt><trkpt lat="41.092815" lon="14.3367"><ele>103.00000000000001</ele><time>2026-04-24T16:05:04.384Z</time></trkpt><trkpt lat="41.09275" lon="14.3366417"><ele>103.0</ele><time>2026-04-24T16:05:05.384Z</time></trkpt><trkpt lat="41.0926883" lon="14.33658"><ele>103.0</ele><time>2026-04-24T16:05:06.383Z</time></trkpt><trkpt lat="41.092625" lon="14.336515"><ele>103.0</ele><time>2026-04-24T16:05:07.383Z</time></trkpt><trkpt lat="41.09256" lon="14.336455"><ele>103.00000000000001</ele><time>2026-04-24T16:05:08.383Z</time></trkpt><trkpt lat="41.0924967" lon="14.3363967"><ele>103.0</ele><time>2026-04-24T16:05:09.385Z</time></trkpt><trkpt lat="41.0924183" lon="14.33635"><ele>102.4</ele><time>2026-04-24T16:05:10.384Z</time></trkpt><trkpt lat="41.0923633" lon="14.3362833"><ele>101.80000000000001</ele><time>2026-04-24T16:05:11.384Z</time></trkpt><trkpt lat="41.0922733" lon="14.336195"><ele>101.2</ele><time>2026-04-24T16:05:13.384Z</time></trkpt><trkpt lat="41.0922067" lon="14.3361283"><ele>100.6</ele><time>2026-04-24T16:05:15.385Z</time></trkpt><trkpt lat="41.0921283" lon="14.33605"><ele>100.0</ele><time>2026-04-24T16:05:17.382Z</time></trkpt><trkpt lat="41.0920417" lon="14.3359567"><ele>100.00000000000001</ele><time>2026-04-24T16:05:19.383Z</time></trkpt><trkpt lat="41.0919483" lon="14.33585"><ele>100.0</ele><time>2026-04-24T16:05:21.384Z</time></trkpt><trkpt lat="41.0918983" lon="14.3357933"><ele>100.0</ele><time>2026-04-24T16:05:22.381Z</time></trkpt><trkpt lat="41.091845" lon="14.335735"><ele>100.0</ele><time>2026-04-24T16:05:23.384Z</time></trkpt><trkpt lat="41.0917883" lon="14.33568"><ele>100.00000000000001</ele><time>2026-04-24T16:05:24.385Z</time></trkpt><trkpt lat="41.0917317" lon="14.3356233"><ele>100.0</ele><time>2026-04-24T16:05:25.386Z</time></trkpt><trkpt lat="41.0916717" lon="14.33557"><ele>100.00000000000001</ele><time>2026-04-24T16:05:26.385Z</time></trkpt><trkpt lat="41.09161" lon="14.33552"><ele>100.0</ele><time>2026-04-24T16:05:27.386Z</time></trkpt><trkpt lat="41.0915517" lon="14.335465"><ele>100.0</ele><time>2026-04-24T16:05:28.386Z</time></trkpt><trkpt lat="41.09149" lon="14.33541"><ele>100.0</ele><time>2026-04-24T16:05:29.383Z</time></trkpt><trkpt lat="41.09143" lon="14.3353533"><ele>100.00000000000001</ele><time>2026-04-24T16:05:30.384Z</time></trkpt><trkpt lat="41.09137" lon="14.3353083"><ele>100.0</ele><time>2026-04-24T16:05:31.384Z</time></trkpt><trkpt lat="41.0912733" lon="14.335215"><ele>99.50000000000001</ele><time>2026-04-24T16:05:33.383Z</time></trkpt><trkpt lat="41.0912283" lon="14.3350683"><ele>99.0</ele><time>2026-04-24T16:05:35.386Z</time></trkpt><trkpt lat="41.0912233" lon="14.3349833"><ele>98.5</ele><time>2026-04-24T16:05:36.383Z</time></trkpt><trkpt lat="41.0912267" lon="14.3348917"><ele>98.0</ele><time>2026-04-24T16:05:37.382Z</time></trkpt><trkpt lat="41.0912367" lon="14.3347983"><ele>97.50000000000001</ele><time>2026-04-24T16:05:38.384Z</time></trkpt><trkpt lat="41.09125" lon="14.3347033"><ele>97.0</ele><time>2026-04-24T16:05:39.383Z</time></trkpt><trkpt lat="41.0912633" lon="14.334615"><ele>97.0</ele><time>2026-04-24T16:05:40.386Z</time></trkpt><trkpt lat="41.0912783" lon="14.334525"><ele>97.0</ele><time>2026-04-24T16:05:41.386Z</time></trkpt><trkpt lat="41.0912933" lon="14.334435"><ele>97.0</ele><time>2026-04-24T16:05:42.384Z</time></trkpt><trkpt lat="41.091315" lon="14.3343417"><ele>97.0</ele><time>2026-04-24T16:05:43.383Z</time></trkpt><trkpt lat="41.0913233" lon="14.3342433"><ele>97.0</ele><time>2026-04-24T16:05:44.384Z</time></trkpt><trkpt lat="41.0913283" lon="14.33415"><ele>97.0</ele><time>2026-04-24T16:05:45.385Z</time></trkpt><trkpt lat="41.0913333" lon="14.3340533"><ele>97.0</ele><time>2026-04-24T16:05:46.384Z</time></trkpt><trkpt lat="41.09134" lon="14.3339567"><ele>96.85714285714285</ele><time>2026-04-24T16:05:47.384Z</time></trkpt><trkpt lat="41.09134" lon="14.3338617"><ele>96.71428571428572</ele><time>2026-04-24T16:05:48.385Z</time></trkpt><trkpt lat="41.091335" lon="14.3337717"><ele>96.57142857142857</ele><time>2026-04-24T16:05:49.384Z</time></trkpt><trkpt lat="41.09133" lon="14.3336817"><ele>96.42857142857142</ele><time>2026-04-24T16:05:50.385Z</time></trkpt><trkpt lat="41.09133" lon="14.3335933"><ele>96.28571428571428</ele><time>2026-04-24T16:05:51.383Z</time></trkpt><trkpt lat="41.0913317" lon="14.3335033"><ele>96.14285714285714</ele><time>2026-04-24T16:05:52.382Z</time></trkpt><trkpt lat="41.0913333" lon="14.3334133"><ele>96.0</ele><time>2026-04-24T16:05:53.384Z</time></trkpt><trkpt lat="41.0913317" lon="14.333325"><ele>96.0</ele><time>2026-04-24T16:05:54.387Z</time></trkpt><trkpt lat="41.0913267" lon="14.3331483"><ele>96.0</ele><time>2026-04-24T16:05:56.384Z</time></trkpt><trkpt lat="41.0913167" lon="14.3330583"><ele>96.0</ele><time>2026-04-24T16:05:57.386Z</time></trkpt><trkpt lat="41.0913117" lon="14.3329683"><ele>96.0</ele><time>2026-04-24T16:05:58.384Z</time></trkpt><trkpt lat="41.0913083" lon="14.332875"><ele>96.0</ele><time>2026-04-24T16:05:59.385Z</time></trkpt><trkpt lat="41.0913" lon="14.3327883"><ele>96.0</ele><time>2026-04-24T16:06:00.383Z</time></trkpt><trkpt lat="41.0912667" lon="14.332715"><ele>95.85714285714285</ele><time>2026-04-24T16:06:01.384Z</time></trkpt><trkpt lat="41.0912283" lon="14.3326467"><ele>95.71428571428571</ele><time>2026-04-24T16:06:02.387Z</time></trkpt><trkpt lat="41.09119" lon="14.33258"><ele>95.57142857142857</ele><time>2026-04-24T16:06:03.382Z</time></trkpt><trkpt lat="41.09115" lon="14.3325083"><ele>95.42857142857142</ele><time>2026-04-24T16:06:04.384Z</time></trkpt><trkpt lat="41.091105" lon="14.3324383"><ele>95.28571428571429</ele><time>2026-04-24T16:06:05.385Z</time></trkpt><trkpt lat="41.0910617" lon="14.3323633"><ele>95.14285714285714</ele><time>2026-04-24T16:06:06.384Z</time></trkpt><trkpt lat="41.09102" lon="14.33229"><ele>95.0</ele><time>2026-04-24T16:06:07.386Z</time></trkpt><trkpt lat="41.0909783" lon="14.3322167"><ele>95.0</ele><time>2026-04-24T16:06:08.386Z</time></trkpt><trkpt lat="41.0909383" lon="14.3321383"><ele>95.0</ele><time>2026-04-24T16:06:09.383Z</time></trkpt><trkpt lat="41.090895" lon="14.332065"><ele>95.0</ele><time>2026-04-24T16:06:10.382Z</time></trkpt><trkpt lat="41.0908483" lon="14.3319883"><ele>95.0</ele><time>2026-04-24T16:06:11.383Z</time></trkpt><trkpt lat="41.0907983" lon="14.3319083"><ele>95.0</ele><time>2026-04-24T16:06:12.384Z</time></trkpt><trkpt lat="41.09075" lon="14.33183"><ele>95.0</ele><time>2026-04-24T16:06:13.384Z</time></trkpt><trkpt lat="41.0906983" lon="14.3317567"><ele>95.0</ele><time>2026-04-24T16:06:14.386Z</time></trkpt><trkpt lat="41.090645" lon="14.33168"><ele>95.0</ele><time>2026-04-24T16:06:15.386Z</time></trkpt><trkpt lat="41.09059" lon="14.3316033"><ele>95.0</ele><time>2026-04-24T16:06:16.384Z</time></trkpt><trkpt lat="41.09054" lon="14.3315217"><ele>95.0</ele><time>2026-04-24T16:06:17.385Z</time></trkpt><trkpt lat="41.0904917" lon="14.331445"><ele>95.0</ele><time>2026-04-24T16:06:18.385Z</time></trkpt><trkpt lat="41.09045" lon="14.3313733"><ele>95.0</ele><time>2026-04-24T16:06:19.385Z</time></trkpt><trkpt lat="41.0903917" lon="14.331265"><ele>95.0</ele><time>2026-04-24T16:06:21.387Z</time></trkpt><trkpt lat="41.090315" lon="14.331215"><ele>94.8</ele><time>2026-04-24T16:06:23.386Z</time></trkpt><trkpt lat="41.09022" lon="14.331215"><ele>94.6</ele><time>2026-04-24T16:06:25.386Z</time></trkpt><trkpt lat="41.0901333" lon="14.331245"><ele>94.4</ele><time>2026-04-24T16:06:27.382Z</time></trkpt><trkpt lat="41.090045" lon="14.3312567"><ele>94.2</ele><time>2026-04-24T16:06:29.383Z</time></trkpt><trkpt lat="41.08995" lon="14.331275"><ele>94.0</ele><time>2026-04-24T16:06:31.386Z</time></trkpt><trkpt lat="41.0898433" lon="14.3312833"><ele>93.33333333333333</ele><time>2026-04-24T16:06:33.382Z</time></trkpt><trkpt lat="41.0897333" lon="14.3312733"><ele>92.66666666666666</ele><time>2026-04-24T16:06:35.386Z</time></trkpt><trkpt lat="41.0896083" lon="14.331275"><ele>92.0</ele><time>2026-04-24T16:06:37.385Z</time></trkpt><trkpt lat="41.0895433" lon="14.33127"><ele>91.33333333333333</ele><time>2026-04-24T16:06:38.384Z</time></trkpt><trkpt lat="41.0894767" lon="14.331265"><ele>90.66666666666667</ele><time>2026-04-24T16:06:39.382Z</time></trkpt><trkpt lat="41.0894117" lon="14.3312633"><ele>90.0</ele><time>2026-04-24T16:06:40.384Z</time></trkpt><trkpt lat="41.089345" lon="14.331265"><ele>90.0</ele><time>2026-04-24T16:06:41.385Z</time></trkpt><trkpt lat="41.0892783" lon="14.3312683"><ele>90.0</ele><time>2026-04-24T16:06:42.385Z</time></trkpt><trkpt lat="41.0892083" lon="14.3312667"><ele>90.0</ele><time>2026-04-24T16:06:43.385Z</time></trkpt><trkpt lat="41.0891417" lon="14.331265"><ele>90.0</ele><time>2026-04-24T16:06:44.385Z</time></trkpt><trkpt lat="41.0890733" lon="14.33126"><ele>90.0</ele><time>2026-04-24T16:06:45.385Z</time></trkpt><trkpt lat="41.089005" lon="14.3312567"><ele>90.0</ele><time>2026-04-24T16:06:46.383Z</time></trkpt><trkpt lat="41.0889317" lon="14.3312583"><ele>90.0</ele><time>2026-04-24T16:06:47.384Z</time></trkpt><trkpt lat="41.08886" lon="14.33126"><ele>89.5</ele><time>2026-04-24T16:06:48.387Z</time></trkpt><trkpt lat="41.0887867" lon="14.33126"><ele>89.0</ele><time>2026-04-24T16:06:49.386Z</time></trkpt><trkpt lat="41.0887133" lon="14.3312617"><ele>88.5</ele><time>2026-04-24T16:06:50.385Z</time></trkpt><trkpt lat="41.08864" lon="14.331265"><ele>88.0</ele><time>2026-04-24T16:06:51.384Z</time></trkpt><trkpt lat="41.0885683" lon="14.3312617"><ele>87.5</ele><time>2026-04-24T16:06:52.383Z</time></trkpt><trkpt lat="41.0885017" lon="14.3312633"><ele>87.0</ele><time>2026-04-24T16:06:53.384Z</time></trkpt><trkpt lat="41.0884" lon="14.3312583"><ele>87.0</ele><time>2026-04-24T16:06:55.384Z</time></trkpt><trkpt lat="41.0883267" lon="14.3312533"><ele>87.0</ele><time>2026-04-24T16:06:57.383Z</time></trkpt><trkpt lat="41.0882467" lon="14.3312483"><ele>87.0</ele><time>2026-04-24T16:07:00.383Z</time></trkpt><trkpt lat="41.0881733" lon="14.3312467"><ele>87.0</ele><time>2026-04-24T16:07:02.382Z</time></trkpt><trkpt lat="41.0880833" lon="14.3312533"><ele>87.0</ele><time>2026-04-24T16:07:04.385Z</time></trkpt><trkpt lat="41.0879783" lon="14.3312617"><ele>87.0</ele><time>2026-04-24T16:07:06.387Z</time></trkpt><trkpt lat="41.0878667" lon="14.331275"><ele>86.83333333333333</ele><time>2026-04-24T16:07:08.385Z</time></trkpt><trkpt lat="41.08775" lon="14.331285"><ele>86.66666666666667</ele><time>2026-04-24T16:07:10.384Z</time></trkpt><trkpt lat="41.087625" lon="14.3312967"><ele>86.5</ele><time>2026-04-24T16:07:12.384Z</time></trkpt><trkpt lat="41.08756" lon="14.3312967"><ele>86.33333333333334</ele><time>2026-04-24T16:07:13.386Z</time></trkpt><trkpt lat="41.087495" lon="14.3312983"><ele>86.16666666666667</ele><time>2026-04-24T16:07:14.383Z</time></trkpt><trkpt lat="41.08743" lon="14.3312967"><ele>86.0</ele><time>2026-04-24T16:07:15.385Z</time></trkpt><trkpt lat="41.0873633" lon="14.33129"><ele>86.00000000000001</ele><time>2026-04-24T16:07:16.386Z</time></trkpt><trkpt lat="41.0873" lon="14.3312883"><ele>86.0</ele><time>2026-04-24T16:07:17.383Z</time></trkpt><trkpt lat="41.087235" lon="14.3312917"><ele>86.0</ele><time>2026-04-24T16:07:18.387Z</time></trkpt><trkpt lat="41.0871667" lon="14.3312983"><ele>86.0</ele><time>2026-04-24T16:07:19.386Z</time></trkpt><trkpt lat="41.0870983" lon="14.3313"><ele>86.0</ele><time>2026-04-24T16:07:20.384Z</time></trkpt><trkpt lat="41.0870267" lon="14.3313017"><ele>86.00000000000001</ele><time>2026-04-24T16:07:21.387Z</time></trkpt><trkpt lat="41.086955" lon="14.3313033"><ele>86.0</ele><time>2026-04-24T16:07:22.383Z</time></trkpt><trkpt lat="41.0868817" lon="14.3313033"><ele>86.00000000000001</ele><time>2026-04-24T16:07:23.385Z</time></trkpt><trkpt lat="41.0868117" lon="14.3313"><ele>86.0</ele><time>2026-04-24T16:07:24.386Z</time></trkpt><trkpt lat="41.08674" lon="14.3312917"><ele>86.0</ele><time>2026-04-24T16:07:25.386Z</time></trkpt><trkpt lat="41.0866683" lon="14.3312917"><ele>86.0</ele><time>2026-04-24T16:07:26.386Z</time></trkpt><trkpt lat="41.0865967" lon="14.331295"><ele>86.0</ele><time>2026-04-24T16:07:27.384Z</time></trkpt><trkpt lat="41.0865233" lon="14.3312967"><ele>86.00000000000001</ele><time>2026-04-24T16:07:28.386Z</time></trkpt><trkpt lat="41.0864517" lon="14.3312967"><ele>86.0</ele><time>2026-04-24T16:07:29.383Z</time></trkpt><trkpt lat="41.0863817" lon="14.3313033"><ele>85.57142857142858</ele><time>2026-04-24T16:07:30.387Z</time></trkpt><trkpt lat="41.0863117" lon="14.3313067"><ele>85.14285714285714</ele><time>2026-04-24T16:07:31.384Z</time></trkpt><trkpt lat="41.0862433" lon="14.33131"><ele>84.71428571428572</ele><time>2026-04-24T16:07:32.385Z</time></trkpt><trkpt lat="41.0861733" lon="14.331305"><ele>84.28571428571429</ele><time>2026-04-24T16:07:33.384Z</time></trkpt><trkpt lat="41.0861033" lon="14.3312967"><ele>83.85714285714286</ele><time>2026-04-24T16:07:34.386Z</time></trkpt><trkpt lat="41.0860317" lon="14.3312917"><ele>83.42857142857143</ele><time>2026-04-24T16:07:35.384Z</time></trkpt><trkpt lat="41.0859617" lon="14.3312883"><ele>83.0</ele><time>2026-04-24T16:07:36.386Z</time></trkpt><trkpt lat="41.0858917" lon="14.3312867"><ele>83.0</ele><time>2026-04-24T16:07:37.383Z</time></trkpt><trkpt lat="41.0858217" lon="14.3312833"><ele>83.0</ele><time>2026-04-24T16:07:38.385Z</time></trkpt><trkpt lat="41.085755" lon="14.3312817"><ele>83.0</ele><time>2026-04-24T16:07:39.384Z</time></trkpt><trkpt lat="41.0856883" lon="14.331285"><ele>83.0</ele><time>2026-04-24T16:07:40.386Z</time></trkpt><trkpt lat="41.0856233" lon="14.33129"><ele>83.0</ele><time>2026-04-24T16:07:41.385Z</time></trkpt><trkpt lat="41.08556" lon="14.3312883"><ele>83.0</ele><time>2026-04-24T16:07:42.383Z</time></trkpt><trkpt lat="41.085435" lon="14.3312967"><ele>82.25</ele><time>2026-04-24T16:07:44.385Z</time></trkpt><trkpt lat="41.0853183" lon="14.331315"><ele>81.5</ele><time>2026-04-24T16:07:46.383Z</time></trkpt><trkpt lat="41.085205" lon="14.33132"><ele>80.75</ele><time>2026-04-24T16:07:48.384Z</time></trkpt><trkpt lat="41.08508" lon="14.331325"><ele>80.0</ele><time>2026-04-24T16:07:50.386Z</time></trkpt><trkpt lat="41.0849517" lon="14.3313217"><ele>79.85714285714286</ele><time>2026-04-24T16:07:52.385Z</time></trkpt><trkpt lat="41.084885" lon="14.3313217"><ele>79.71428571428572</ele><time>2026-04-24T16:07:53.383Z</time></trkpt><trkpt lat="41.084815" lon="14.3313233"><ele>79.57142857142858</ele><time>2026-04-24T16:07:54.384Z</time></trkpt><trkpt lat="41.0847467" lon="14.3313233"><ele>79.42857142857143</ele><time>2026-04-24T16:07:55.384Z</time></trkpt><trkpt lat="41.0846767" lon="14.3313233"><ele>79.28571428571429</ele><time>2026-04-24T16:07:56.387Z</time></trkpt><trkpt lat="41.0846067" lon="14.3313217"><ele>79.14285714285715</ele><time>2026-04-24T16:07:57.387Z</time></trkpt><trkpt lat="41.0845367" lon="14.3313217"><ele>79.0</ele><time>2026-04-24T16:07:58.386Z</time></trkpt><trkpt lat="41.0844667" lon="14.3313167"><ele>79.00000000000001</ele><time>2026-04-24T16:07:59.386Z</time></trkpt><trkpt lat="41.0843983" lon="14.3313067"><ele>79.0</ele><time>2026-04-24T16:08:00.385Z</time></trkpt><trkpt lat="41.08433" lon="14.3312933"><ele>79.0</ele><time>2026-04-24T16:08:01.383Z</time></trkpt><trkpt lat="41.084265" lon="14.33128"><ele>79.0</ele><time>2026-04-24T16:08:02.383Z</time></trkpt><trkpt lat="41.0841983" lon="14.331275"><ele>79.0</ele><time>2026-04-24T16:08:03.383Z</time></trkpt><trkpt lat="41.0841317" lon="14.3312733"><ele>79.00000000000001</ele><time>2026-04-24T16:08:04.383Z</time></trkpt><trkpt lat="41.0840633" lon="14.3312783"><ele>79.0</ele><time>2026-04-24T16:08:05.384Z</time></trkpt><trkpt lat="41.0839883" lon="14.33128"><ele>78.66666666666666</ele><time>2026-04-24T16:08:06.383Z</time></trkpt><trkpt lat="41.0839217" lon="14.3312833"><ele>78.33333333333333</ele><time>2026-04-24T16:08:07.385Z</time></trkpt><trkpt lat="41.083855" lon="14.3312867"><ele>78.0</ele><time>2026-04-24T16:08:08.382Z</time></trkpt><trkpt lat="41.0837883" lon="14.331285"><ele>77.66666666666667</ele><time>2026-04-24T16:08:09.386Z</time></trkpt><trkpt lat="41.08372" lon="14.3312833"><ele>77.33333333333334</ele><time>2026-04-24T16:08:10.383Z</time></trkpt><trkpt lat="41.083655" lon="14.3312867"><ele>77.0</ele><time>2026-04-24T16:08:11.383Z</time></trkpt><trkpt lat="41.0835333" lon="14.3312967"><ele>77.0</ele><time>2026-04-24T16:08:13.383Z</time></trkpt><trkpt lat="41.0834267" lon="14.331305"><ele>77.0</ele><time>2026-04-24T16:08:15.385Z</time></trkpt><trkpt lat="41.08334" lon="14.3313117"><ele>77.0</ele><time>2026-04-24T16:08:17.384Z</time></trkpt><trkpt lat="41.0832717" lon="14.3313183"><ele>77.0</ele><time>2026-04-24T16:08:19.383Z</time></trkpt><trkpt lat="41.0832033" lon="14.3313117"><ele>77.0</ele><time>2026-04-24T16:08:21.385Z</time></trkpt><trkpt lat="41.0831133" lon="14.331285"><ele>77.0</ele><time>2026-04-24T16:08:23.383Z</time></trkpt><trkpt lat="41.0830083" lon="14.33127"><ele>77.0</ele><time>2026-04-24T16:08:25.383Z</time></trkpt><trkpt lat="41.0828933" lon="14.3312783"><ele>77.0</ele><time>2026-04-24T16:08:27.384Z</time></trkpt><trkpt lat="41.0827783" lon="14.331295"><ele>77.0</ele><time>2026-04-24T16:08:29.386Z</time></trkpt><trkpt lat="41.0826583" lon="14.3312933"><ele>77.0</ele><time>2026-04-24T16:08:31.383Z</time></trkpt><trkpt lat="41.08254" lon="14.3312867"><ele>77.66666666666667</ele><time>2026-04-24T16:08:33.384Z</time></trkpt><trkpt lat="41.0824167" lon="14.33128"><ele>78.33333333333334</ele><time>2026-04-24T16:08:35.383Z</time></trkpt><trkpt lat="41.08235" lon="14.3312783"><ele>79.0</ele><time>2026-04-24T16:08:36.386Z</time></trkpt><trkpt lat="41.0822833" lon="14.3312817"><ele>79.66666666666667</ele><time>2026-04-24T16:08:37.385Z</time></trkpt><trkpt lat="41.0822183" lon="14.3312817"><ele>80.33333333333333</ele><time>2026-04-24T16:08:38.385Z</time></trkpt><trkpt lat="41.0820933" lon="14.331275"><ele>81.0</ele><time>2026-04-24T16:08:40.386Z</time></trkpt><trkpt lat="41.081975" lon="14.331275"><ele>81.0</ele><time>2026-04-24T16:08:42.385Z</time></trkpt><trkpt lat="41.081865" lon="14.33129"><ele>81.0</ele><time>2026-04-24T16:08:44.386Z</time></trkpt><trkpt lat="41.0817583" lon="14.3312883"><ele>81.0</ele><time>2026-04-24T16:08:46.385Z</time></trkpt><trkpt lat="41.081685" lon="14.3312783"><ele>81.0</ele><time>2026-04-24T16:08:48.384Z</time></trkpt><trkpt lat="41.081615" lon="14.3312617"><ele>81.0</ele><time>2026-04-24T16:08:51.384Z</time></trkpt><trkpt lat="41.0815483" lon="14.3312367"><ele>81.0</ele><time>2026-04-24T16:08:54.385Z</time></trkpt><trkpt lat="41.08146" lon="14.3312367"><ele>81.0</ele><time>2026-04-24T16:08:57.386Z</time></trkpt><trkpt lat="41.0813933" lon="14.3312433"><ele>81.0</ele><time>2026-04-24T16:08:59.382Z</time></trkpt><trkpt lat="41.0813217" lon="14.3312467"><ele>81.0</ele><time>2026-04-24T16:09:01.385Z</time></trkpt><trkpt lat="41.0812317" lon="14.3312617"><ele>81.0</ele><time>2026-04-24T16:09:03.385Z</time></trkpt><trkpt lat="41.0811333" lon="14.331265"><ele>81.0</ele><time>2026-04-24T16:09:05.383Z</time></trkpt><trkpt lat="41.0810317" lon="14.3312783"><ele>81.0</ele><time>2026-04-24T16:09:07.384Z</time></trkpt><trkpt lat="41.080925" lon="14.3312733"><ele>81.0</ele><time>2026-04-24T16:09:09.384Z</time></trkpt><trkpt lat="41.0808183" lon="14.3312733"><ele>81.0</ele><time>2026-04-24T16:09:11.382Z</time></trkpt><trkpt lat="41.0807033" lon="14.3312683"><ele>81.0</ele><time>2026-04-24T16:09:13.383Z</time></trkpt><trkpt lat="41.080575" lon="14.3312617"><ele>81.0</ele><time>2026-04-24T16:09:15.385Z</time></trkpt><trkpt lat="41.0805117" lon="14.331255"><ele>81.0</ele><time>2026-04-24T16:09:16.384Z</time></trkpt><trkpt lat="41.0804483" lon="14.3312517"><ele>80.75</ele><time>2026-04-24T16:09:17.383Z</time></trkpt><trkpt lat="41.0803267" lon="14.3312583"><ele>80.5</ele><time>2026-04-24T16:09:19.383Z</time></trkpt><trkpt lat="41.0802083" lon="14.3312533"><ele>80.25</ele><time>2026-04-24T16:09:21.384Z</time></trkpt><trkpt lat="41.0800967" lon="14.33126"><ele>80.0</ele><time>2026-04-24T16:09:23.386Z</time></trkpt><trkpt lat="41.0799867" lon="14.3312667"><ele>80.6</ele><time>2026-04-24T16:09:25.387Z</time></trkpt><trkpt lat="41.0798683" lon="14.331275"><ele>81.2</ele><time>2026-04-24T16:09:27.384Z</time></trkpt><trkpt lat="41.079745" lon="14.3312783"><ele>81.80000000000001</ele><time>2026-04-24T16:09:29.384Z</time></trkpt><trkpt lat="41.07962" lon="14.33128"><ele>82.4</ele><time>2026-04-24T16:09:31.384Z</time></trkpt><trkpt lat="41.079555" lon="14.3312783"><ele>83.0</ele><time>2026-04-24T16:09:32.385Z</time></trkpt><trkpt lat="41.0794333" lon="14.3312867"><ele>83.0</ele><time>2026-04-24T16:09:34.383Z</time></trkpt><trkpt lat="41.0793683" lon="14.3312933"><ele>83.0</ele><time>2026-04-24T16:09:35.382Z</time></trkpt><trkpt lat="41.0793017" lon="14.33129"><ele>83.0</ele><time>2026-04-24T16:09:36.385Z</time></trkpt><trkpt lat="41.079235" lon="14.331285"><ele>83.0</ele><time>2026-04-24T16:09:37.387Z</time></trkpt><trkpt lat="41.0791683" lon="14.3312783"><ele>83.0</ele><time>2026-04-24T16:09:38.385Z</time></trkpt><trkpt lat="41.0791033" lon="14.3312783"><ele>83.0</ele><time>2026-04-24T16:09:39.386Z</time></trkpt><trkpt lat="41.0790383" lon="14.3312767"><ele>83.0</ele><time>2026-04-24T16:09:40.383Z</time></trkpt><trkpt lat="41.0789717" lon="14.3312833"><ele>82.66666666666667</ele><time>2026-04-24T16:09:41.383Z</time></trkpt><trkpt lat="41.0789067" lon="14.331285"><ele>82.33333333333334</ele><time>2026-04-24T16:09:42.385Z</time></trkpt><trkpt lat="41.0788433" lon="14.33129"><ele>82.0</ele><time>2026-04-24T16:09:43.384Z</time></trkpt><trkpt lat="41.07878" lon="14.3312917"><ele>81.66666666666667</ele><time>2026-04-24T16:09:44.384Z</time></trkpt><trkpt lat="41.0786583" lon="14.3312783"><ele>81.33333333333333</ele><time>2026-04-24T16:09:46.385Z</time></trkpt><trkpt lat="41.07854" lon="14.331265"><ele>81.0</ele><time>2026-04-24T16:09:48.384Z</time></trkpt><trkpt lat="41.0784167" lon="14.3312567"><ele>81.0</ele><time>2026-04-24T16:09:50.385Z</time></trkpt><trkpt lat="41.0783533" lon="14.3312583"><ele>81.0</ele><time>2026-04-24T16:09:51.385Z</time></trkpt><trkpt lat="41.0782283" lon="14.331255"><ele>81.0</ele><time>2026-04-24T16:09:53.384Z</time></trkpt><trkpt lat="41.0781083" lon="14.3312667"><ele>81.0</ele><time>2026-04-24T16:09:55.384Z</time></trkpt><trkpt lat="41.0779917" lon="14.33128"><ele>81.0</ele><time>2026-04-24T16:09:57.384Z</time></trkpt><trkpt lat="41.0778783" lon="14.3312883"><ele>80.75</ele><time>2026-04-24T16:09:59.384Z</time></trkpt><trkpt lat="41.07776" lon="14.3312967"><ele>80.5</ele><time>2026-04-24T16:10:01.384Z</time></trkpt><trkpt lat="41.0776417" lon="14.331295"><ele>80.25</ele><time>2026-04-24T16:10:03.385Z</time></trkpt><trkpt lat="41.0775233" lon="14.3312933"><ele>80.0</ele><time>2026-04-24T16:10:05.383Z</time></trkpt><trkpt lat="41.0774133" lon="14.3313067"><ele>78.4</ele><time>2026-04-24T16:10:07.382Z</time></trkpt><trkpt lat="41.0773133" lon="14.3313067"><ele>76.8</ele><time>2026-04-24T16:10:09.383Z</time></trkpt><trkpt lat="41.07721" lon="14.3313117"><ele>75.2</ele><time>2026-04-24T16:10:11.385Z</time></trkpt><trkpt lat="41.077115" lon="14.33132"><ele>73.6</ele><time>2026-04-24T16:10:13.385Z</time></trkpt><trkpt lat="41.0770133" lon="14.3313233"><ele>72.0</ele><time>2026-04-24T16:10:15.384Z</time></trkpt><trkpt lat="41.0769033" lon="14.331315"><ele>72.0</ele><time>2026-04-24T16:10:17.384Z</time></trkpt><trkpt lat="41.07679" lon="14.3313033"><ele>72.0</ele><time>2026-04-24T16:10:19.384Z</time></trkpt><trkpt lat="41.0766783" lon="14.3312983"><ele>72.0</ele><time>2026-04-24T16:10:21.385Z</time></trkpt><trkpt lat="41.0765633" lon="14.331295"><ele>72.0</ele><time>2026-04-24T16:10:23.384Z</time></trkpt><trkpt lat="41.0764533" lon="14.331295"><ele>72.2</ele><time>2026-04-24T16:10:25.386Z</time></trkpt><trkpt lat="41.07634" lon="14.3313"><ele>72.4</ele><time>2026-04-24T16:10:27.385Z</time></trkpt><trkpt lat="41.076235" lon="14.3312967"><ele>72.6</ele><time>2026-04-24T16:10:29.384Z</time></trkpt><trkpt lat="41.0761267" lon="14.3312983"><ele>72.8</ele><time>2026-04-24T16:10:31.384Z</time></trkpt><trkpt lat="41.0760217" lon="14.3313117"><ele>73.0</ele><time>2026-04-24T16:10:33.385Z</time></trkpt><trkpt lat="41.075915" lon="14.3313183"><ele>73.0</ele><time>2026-04-24T16:10:35.384Z</time></trkpt><trkpt lat="41.0758133" lon="14.33132"><ele>73.0</ele><time>2026-04-24T16:10:37.386Z</time></trkpt><trkpt lat="41.0757167" lon="14.33133"><ele>73.0</ele><time>2026-04-24T16:10:39.386Z</time></trkpt><trkpt lat="41.0756217" lon="14.3313383"><ele>73.0</ele><time>2026-04-24T16:10:41.386Z</time></trkpt><trkpt lat="41.0755267" lon="14.331335"><ele>73.0</ele><time>2026-04-24T16:10:43.386Z</time></trkpt><trkpt lat="41.0754367" lon="14.331335"><ele>73.16666666666666</ele><time>2026-04-24T16:10:45.386Z</time></trkpt><trkpt lat="41.0753467" lon="14.3313317"><ele>73.33333333333333</ele><time>2026-04-24T16:10:47.384Z</time></trkpt><trkpt lat="41.0752533" lon="14.33133"><ele>73.5</ele><time>2026-04-24T16:10:49.385Z</time></trkpt><trkpt lat="41.0751667" lon="14.3313367"><ele>73.66666666666667</ele><time>2026-04-24T16:10:51.384Z</time></trkpt><trkpt lat="41.0750833" lon="14.3313383"><ele>73.83333333333334</ele><time>2026-04-24T16:10:53.382Z</time></trkpt><trkpt lat="41.0750083" lon="14.3313467"><ele>74.0</ele><time>2026-04-24T16:10:55.386Z</time></trkpt><trkpt lat="41.074935" lon="14.331365"><ele>74.0</ele><time>2026-04-24T16:10:57.385Z</time></trkpt><trkpt lat="41.074855" lon="14.3313783"><ele>74.0</ele><time>2026-04-24T16:10:59.383Z</time></trkpt><trkpt lat="41.074775" lon="14.3313717"><ele>74.0</ele><time>2026-04-24T16:11:01.386Z</time></trkpt><trkpt lat="41.0746917" lon="14.3313667"><ele>74.0</ele><time>2026-04-24T16:11:03.384Z</time></trkpt><trkpt lat="41.0746083" lon="14.3313683"><ele>74.0</ele><time>2026-04-24T16:11:05.386Z</time></trkpt><trkpt lat="41.0745217" lon="14.3313717"><ele>74.0</ele><time>2026-04-24T16:11:07.383Z</time></trkpt><trkpt lat="41.0744367" lon="14.331365"><ele>74.0</ele><time>2026-04-24T16:11:09.384Z</time></trkpt><trkpt lat="41.0743667" lon="14.3313583"><ele>74.0</ele><time>2026-04-24T16:11:11.383Z</time></trkpt><trkpt lat="41.0742833" lon="14.3313433"><ele>74.0</ele><time>2026-04-24T16:11:14.383Z</time></trkpt><trkpt lat="41.074215" lon="14.331335"><ele>74.0</ele><time>2026-04-24T16:11:16.384Z</time></trkpt><trkpt lat="41.07414" lon="14.3313233"><ele>74.0</ele><time>2026-04-24T16:11:18.384Z</time></trkpt><trkpt lat="41.0740517" lon="14.3313117"><ele>74.0</ele><time>2026-04-24T16:11:20.384Z</time></trkpt><trkpt lat="41.0739617" lon="14.3313083"><ele>74.0</ele><time>2026-04-24T16:11:22.384Z</time></trkpt><trkpt lat="41.0738733" lon="14.3313133"><ele>74.0</ele><time>2026-04-24T16:11:24.385Z</time></trkpt><trkpt lat="41.0737867" lon="14.3313067"><ele>74.0</ele><time>2026-04-24T16:11:26.383Z</time></trkpt><trkpt lat="41.0737167" lon="14.33131"><ele>74.0</ele><time>2026-04-24T16:11:28.384Z</time></trkpt><trkpt lat="41.0736533" lon="14.3313167"><ele>74.0</ele><time>2026-04-24T16:11:31.383Z</time></trkpt><trkpt lat="41.07357" lon="14.331315"><ele>74.0</ele><time>2026-04-24T16:11:34.383Z</time></trkpt><trkpt lat="41.0734967" lon="14.3313167"><ele>74.0</ele><time>2026-04-24T16:11:36.384Z</time></trkpt><trkpt lat="41.0734233" lon="14.331305"><ele>74.0</ele><time>2026-04-24T16:11:38.385Z</time></trkpt><trkpt lat="41.0733417" lon="14.3312917"><ele>74.0</ele><time>2026-04-24T16:11:40.382Z</time></trkpt><trkpt lat="41.0732633" lon="14.3313033"><ele>74.0</ele><time>2026-04-24T16:11:42.385Z</time></trkpt><trkpt lat="41.0731783" lon="14.33131"><ele>74.0</ele><time>2026-04-24T16:11:44.385Z</time></trkpt><trkpt lat="41.0730933" lon="14.3313183"><ele>74.0</ele><time>2026-04-24T16:11:46.384Z</time></trkpt><trkpt lat="41.07301" lon="14.3313217"><ele>73.71428571428572</ele><time>2026-04-24T16:11:48.384Z</time></trkpt><trkpt lat="41.072925" lon="14.3313183"><ele>73.42857142857143</ele><time>2026-04-24T16:11:50.383Z</time></trkpt><trkpt lat="41.0728417" lon="14.331315"><ele>73.14285714285714</ele><time>2026-04-24T16:11:52.383Z</time></trkpt><trkpt lat="41.0727683" lon="14.331315"><ele>72.85714285714286</ele><time>2026-04-24T16:11:54.385Z</time></trkpt><trkpt lat="41.0727" lon="14.3313117"><ele>72.57142857142857</ele><time>2026-04-24T16:11:56.383Z</time></trkpt><trkpt lat="41.0726317" lon="14.3313133"><ele>72.28571428571429</ele><time>2026-04-24T16:11:58.382Z</time></trkpt><trkpt lat="41.072565" lon="14.331325"><ele>72.0</ele><time>2026-04-24T16:12:00.385Z</time></trkpt><trkpt lat="41.0724967" lon="14.33132"><ele>71.83333333333333</ele><time>2026-04-24T16:12:02.384Z</time></trkpt><trkpt lat="41.07242" lon="14.331325"><ele>71.66666666666667</ele><time>2026-04-24T16:12:04.383Z</time></trkpt><trkpt lat="41.07235" lon="14.3313067"><ele>71.5</ele><time>2026-04-24T16:12:06.384Z</time></trkpt><trkpt lat="41.07227" lon="14.331295"><ele>71.33333333333334</ele><time>2026-04-24T16:12:08.385Z</time></trkpt><trkpt lat="41.0722" lon="14.3313033"><ele>71.16666666666667</ele><time>2026-04-24T16:12:10.384Z</time></trkpt><trkpt lat="41.0721067" lon="14.3313033"><ele>71.0</ele><time>2026-04-24T16:12:13.383Z</time></trkpt><trkpt lat="41.0720383" lon="14.3312967"><ele>71.0</ele><time>2026-04-24T16:12:15.385Z</time></trkpt><trkpt lat="41.0719683" lon="14.331285"><ele>71.0</ele><time>2026-04-24T16:12:17.385Z</time></trkpt><trkpt lat="41.0718783" lon="14.3312767"><ele>71.0</ele><time>2026-04-24T16:12:20.385Z</time></trkpt><trkpt lat="41.0717983" lon="14.3312683"><ele>71.0</ele><time>2026-04-24T16:12:23.384Z</time></trkpt><trkpt lat="41.0717083" lon="14.3312733"><ele>71.0</ele><time>2026-04-24T16:12:26.385Z</time></trkpt><trkpt lat="41.07162" lon="14.331275"><ele>71.0</ele><time>2026-04-24T16:12:29.384Z</time></trkpt><trkpt lat="41.071555" lon="14.3312717"><ele>70.33333333333334</ele><time>2026-04-24T16:12:31.383Z</time></trkpt><trkpt lat="41.0714917" lon="14.33127"><ele>69.66666666666667</ele><time>2026-04-24T16:12:33.383Z</time></trkpt><trkpt lat="41.0714067" lon="14.331265"><ele>69.0</ele><time>2026-04-24T16:12:36.386Z</time></trkpt><trkpt lat="41.07132" lon="14.3312667"><ele>68.33333333333333</ele><time>2026-04-24T16:12:39.383Z</time></trkpt><trkpt lat="41.0712367" lon="14.3312767"><ele>67.66666666666666</ele><time>2026-04-24T16:12:42.385Z</time></trkpt><trkpt lat="41.0711583" lon="14.3312733"><ele>67.0</ele><time>2026-04-24T16:12:45.384Z</time></trkpt><trkpt lat="41.07108" lon="14.3312533"><ele>67.0</ele><time>2026-04-24T16:12:48.383Z</time></trkpt><trkpt lat="41.0710133" lon="14.331245"><ele>67.0</ele><time>2026-04-24T16:12:50.385Z</time></trkpt><trkpt lat="41.0709367" lon="14.3312383"><ele>67.0</ele><time>2026-04-24T16:12:52.383Z</time></trkpt><trkpt lat="41.0708617" lon="14.331235"><ele>67.0</ele><time>2026-04-24T16:12:54.384Z</time></trkpt><trkpt lat="41.0707867" lon="14.33124"><ele>67.0</ele><time>2026-04-24T16:12:56.385Z</time></trkpt><trkpt lat="41.0707083" lon="14.3312517"><ele>67.0</ele><time>2026-04-24T16:12:58.385Z</time></trkpt><trkpt lat="41.0706333" lon="14.3312783"><ele>67.14285714285714</ele><time>2026-04-24T16:13:00.385Z</time></trkpt><trkpt lat="41.07056" lon="14.3312867"><ele>67.28571428571428</ele><time>2026-04-24T16:13:02.384Z</time></trkpt><trkpt lat="41.0704883" lon="14.3312883"><ele>67.42857142857142</ele><time>2026-04-24T16:13:04.384Z</time></trkpt><trkpt lat="41.0704167" lon="14.3312767"><ele>67.57142857142857</ele><time>2026-04-24T16:13:06.384Z</time></trkpt><trkpt lat="41.0703433" lon="14.3312683"><ele>67.71428571428571</ele><time>2026-04-24T16:13:08.383Z</time></trkpt><trkpt lat="41.0702767" lon="14.3312833"><ele>67.85714285714285</ele><time>2026-04-24T16:13:11.383Z</time></trkpt><trkpt lat="41.0702767" lon="14.3313867"><ele>68.0</ele><time>2026-04-24T16:13:13.384Z</time></trkpt><trkpt lat="41.07028" lon="14.3314883"><ele>68.0</ele><time>2026-04-24T16:13:15.384Z</time></trkpt><trkpt lat="41.0702133" lon="14.3314433"><ele>68.0</ele><time>2026-04-24T16:13:38.384Z</time></trkpt><trkpt lat="41.0701967" lon="14.3313433"><ele>68.0</ele><time>2026-04-24T16:13:41.386Z</time></trkpt><trkpt lat="41.0701233" lon="14.3313233"><ele>68.0</ele><time>2026-04-24T16:13:43.386Z</time></trkpt><trkpt lat="41.0700533" lon="14.3312933"><ele>68.0</ele><time>2026-04-24T16:13:45.382Z</time></trkpt><trkpt lat="41.069995" lon="14.3312417"><ele>68.0</ele><time>2026-04-24T16:13:47.384Z</time></trkpt><trkpt lat="41.0700167" lon="14.3311267"><ele>67.99999999999999</ele><time>2026-04-24T16:13:51.385Z</time></trkpt><trkpt lat="41.07003" lon="14.3310417"><ele>68.0</ele><time>2026-04-24T16:13:53.385Z</time></trkpt><trkpt lat="41.0700217" lon="14.330955"><ele>68.0</ele><time>2026-04-24T16:13:55.383Z</time></trkpt><trkpt lat="41.0699967" lon="14.3308767"><ele>68.0</ele><time>2026-04-24T16:13:57.385Z</time></trkpt><trkpt lat="41.0699533" lon="14.3307983"><ele>68.0</ele><time>2026-04-24T16:13:59.385Z</time></trkpt><trkpt lat="41.0698883" lon="14.3307317"><ele>67.99999999999999</ele><time>2026-04-24T16:14:02.384Z</time></trkpt><trkpt lat="41.06981" lon="14.3306883"><ele>68.0</ele><time>2026-04-24T16:14:05.385Z</time></trkpt><trkpt lat="41.0697417" lon="14.3306567"><ele>68.42857142857142</ele><time>2026-04-24T16:14:07.386Z</time></trkpt><trkpt lat="41.0696717" lon="14.330645"><ele>68.85714285714286</ele><time>2026-04-24T16:14:09.383Z</time></trkpt><trkpt lat="41.0695983" lon="14.3306383"><ele>69.28571428571428</ele><time>2026-04-24T16:14:11.384Z</time></trkpt><trkpt lat="41.069535" lon="14.33064"><ele>69.71428571428571</ele><time>2026-04-24T16:14:13.384Z</time></trkpt><trkpt lat="41.0694583" lon="14.3306283"><ele>70.14285714285714</ele><time>2026-04-24T16:14:15.383Z</time></trkpt><trkpt lat="41.069385" lon="14.3306267"><ele>70.57142857142857</ele><time>2026-04-24T16:14:17.382Z</time></trkpt><trkpt lat="41.0693183" lon="14.3306333"><ele>71.0</ele><time>2026-04-24T16:14:19.382Z</time></trkpt><trkpt lat="41.0692483" lon="14.330625"><ele>71.0</ele><time>2026-04-24T16:14:21.383Z</time></trkpt><trkpt lat="41.0691783" lon="14.3306233"><ele>71.0</ele><time>2026-04-24T16:14:23.384Z</time></trkpt><trkpt lat="41.0691083" lon="14.3306117"><ele>71.0</ele><time>2026-04-24T16:14:25.386Z</time></trkpt><trkpt lat="41.069035" lon="14.3306033"><ele>71.0</ele><time>2026-04-24T16:14:27.383Z</time></trkpt><trkpt lat="41.0689633" lon="14.3305917"><ele>71.0</ele><time>2026-04-24T16:14:29.383Z</time></trkpt><trkpt lat="41.068875" lon="14.3305817"><ele>71.0</ele><time>2026-04-24T16:14:31.384Z</time></trkpt><trkpt lat="41.0687867" lon="14.330575"><ele>70.16666666666667</ele><time>2026-04-24T16:14:33.383Z</time></trkpt><trkpt lat="41.0687033" lon="14.3305633"><ele>69.33333333333334</ele><time>2026-04-24T16:14:35.383Z</time></trkpt><trkpt lat="41.0686133" lon="14.3305533"><ele>68.5</ele><time>2026-04-24T16:14:37.384Z</time></trkpt><trkpt lat="41.0685267" lon="14.3305433"><ele>67.66666666666667</ele><time>2026-04-24T16:14:39.383Z</time></trkpt><trkpt lat="41.0684417" lon="14.330535"><ele>66.83333333333333</ele><time>2026-04-24T16:14:41.382Z</time></trkpt><trkpt lat="41.0683567" lon="14.33053"><ele>66.0</ele><time>2026-04-24T16:14:43.386Z</time></trkpt><trkpt lat="41.0682717" lon="14.3305233"><ele>65.66666666666667</ele><time>2026-04-24T16:14:45.383Z</time></trkpt><trkpt lat="41.068185" lon="14.3305183"><ele>65.33333333333333</ele><time>2026-04-24T16:14:47.385Z</time></trkpt><trkpt lat="41.0681017" lon="14.3305133"><ele>65.0</ele><time>2026-04-24T16:14:49.385Z</time></trkpt><trkpt lat="41.0680133" lon="14.330505"><ele>64.66666666666666</ele><time>2026-04-24T16:14:51.386Z</time></trkpt><trkpt lat="41.0679267" lon="14.3305"><ele>64.33333333333333</ele><time>2026-04-24T16:14:53.386Z</time></trkpt><trkpt lat="41.0678383" lon="14.330475"><ele>64.0</ele><time>2026-04-24T16:14:55.382Z</time></trkpt><trkpt lat="41.0677567" lon="14.3304383"><ele>64.0</ele><time>2026-04-24T16:14:57.383Z</time></trkpt><trkpt lat="41.0676783" lon="14.3303917"><ele>64.0</ele><time>2026-04-24T16:14:59.383Z</time></trkpt><trkpt lat="41.067605" lon="14.3303317"><ele>64.0</ele><time>2026-04-24T16:15:01.386Z</time></trkpt><trkpt lat="41.067535" lon="14.33026"><ele>64.0</ele><time>2026-04-24T16:15:03.384Z</time></trkpt><trkpt lat="41.0674633" lon="14.3301683"><ele>64.0</ele><time>2026-04-24T16:15:05.384Z</time></trkpt><trkpt lat="41.0673967" lon="14.3300517"><ele>64.0</ele><time>2026-04-24T16:15:07.383Z</time></trkpt><trkpt lat="41.0673433" lon="14.329925"><ele>64.0</ele><time>2026-04-24T16:15:09.383Z</time></trkpt><trkpt lat="41.067295" lon="14.3298"><ele>64.0</ele><time>2026-04-24T16:15:11.384Z</time></trkpt><trkpt lat="41.0672383" lon="14.3296667"><ele>64.0</ele><time>2026-04-24T16:15:13.385Z</time></trkpt><trkpt lat="41.0671833" lon="14.3295283"><ele>64.0</ele><time>2026-04-24T16:15:15.382Z</time></trkpt><trkpt lat="41.0671267" lon="14.32939"><ele>63.49999999999999</ele><time>2026-04-24T16:15:17.385Z</time></trkpt><trkpt lat="41.0670783" lon="14.329275"><ele>63.0</ele><time>2026-04-24T16:15:19.384Z</time></trkpt><trkpt lat="41.0670233" lon="14.3291583"><ele>62.5</ele><time>2026-04-24T16:15:21.383Z</time></trkpt><trkpt lat="41.0669833" lon="14.329075"><ele>62.0</ele><time>2026-04-24T16:15:23.384Z</time></trkpt><trkpt lat="41.0669517" lon="14.3289967"><ele>61.49999999999999</ele><time>2026-04-24T16:15:27.383Z</time></trkpt><trkpt lat="41.0669517" lon="14.32886"><ele>61.0</ele><time>2026-04-24T16:15:30.385Z</time></trkpt><trkpt lat="41.0669417" lon="14.3287417"><ele>61.0</ele><time>2026-04-24T16:15:32.384Z</time></trkpt><trkpt lat="41.0669017" lon="14.328625"><ele>60.99999999999999</ele><time>2026-04-24T16:15:34.383Z</time></trkpt><trkpt lat="41.066855" lon="14.3285017"><ele>60.99999999999999</ele><time>2026-04-24T16:15:36.384Z</time></trkpt><trkpt lat="41.066805" lon="14.3283817"><ele>61.0</ele><time>2026-04-24T16:15:38.386Z</time></trkpt><trkpt lat="41.066755" lon="14.3282533"><ele>61.0</ele><time>2026-04-24T16:15:40.381Z</time></trkpt><trkpt lat="41.0666983" lon="14.328115"><ele>60.8</ele><time>2026-04-24T16:15:42.382Z</time></trkpt><trkpt lat="41.06664" lon="14.3279767"><ele>60.599999999999994</ele><time>2026-04-24T16:15:44.385Z</time></trkpt><trkpt lat="41.066585" lon="14.327835"><ele>60.4</ele><time>2026-04-24T16:15:46.382Z</time></trkpt><trkpt lat="41.0665283" lon="14.3276917"><ele>60.2</ele><time>2026-04-24T16:15:48.383Z</time></trkpt><trkpt lat="41.0664967" lon="14.3276183"><ele>60.0</ele><time>2026-04-24T16:15:49.384Z</time></trkpt><trkpt lat="41.066435" lon="14.3274683"><ele>60.0</ele><time>2026-04-24T16:15:51.383Z</time></trkpt><trkpt lat="41.0664017" lon="14.3273867"><ele>60.0</ele><time>2026-04-24T16:15:52.382Z</time></trkpt><trkpt lat="41.0663667" lon="14.327305"><ele>60.0</ele><time>2026-04-24T16:15:53.383Z</time></trkpt><trkpt lat="41.066335" lon="14.32723"><ele>60.0</ele><time>2026-04-24T16:15:54.384Z</time></trkpt><trkpt lat="41.0663067" lon="14.327155"><ele>60.0</ele><time>2026-04-24T16:15:55.382Z</time></trkpt><trkpt lat="41.0662533" lon="14.3270167"><ele>60.0</ele><time>2026-04-24T16:15:57.384Z</time></trkpt><trkpt lat="41.0662" lon="14.3268733"><ele>60.0</ele><time>2026-04-24T16:15:59.384Z</time></trkpt><trkpt lat="41.0661517" lon="14.3267333"><ele>60.0</ele><time>2026-04-24T16:16:01.384Z</time></trkpt><trkpt lat="41.0660983" lon="14.3266067"><ele>60.0</ele><time>2026-04-24T16:16:03.386Z</time></trkpt><trkpt lat="41.0660167" lon="14.326525"><ele>60.0</ele><time>2026-04-24T16:16:05.382Z</time></trkpt><trkpt lat="41.0659" lon="14.3264783"><ele>59.666666666666664</ele><time>2026-04-24T16:16:07.384Z</time></trkpt><trkpt lat="41.065775" lon="14.3264617"><ele>59.33333333333333</ele><time>2026-04-24T16:16:09.386Z</time></trkpt><trkpt lat="41.0656483" lon="14.3264533"><ele>59.0</ele><time>2026-04-24T16:16:11.382Z</time></trkpt><trkpt lat="41.0655833" lon="14.32645"><ele>58.666666666666664</ele><time>2026-04-24T16:16:12.384Z</time></trkpt><trkpt lat="41.0655183" lon="14.3264417"><ele>58.33333333333333</ele><time>2026-04-24T16:16:13.384Z</time></trkpt><trkpt lat="41.0654517" lon="14.3264383"><ele>58.0</ele><time>2026-04-24T16:16:14.383Z</time></trkpt><trkpt lat="41.065385" lon="14.32644"><ele>58.00000000000001</ele><time>2026-04-24T16:16:15.383Z</time></trkpt><trkpt lat="41.0653167" lon="14.3264333"><ele>58.0</ele><time>2026-04-24T16:16:16.386Z</time></trkpt><trkpt lat="41.0652483" lon="14.32643"><ele>58.00000000000001</ele><time>2026-04-24T16:16:17.385Z</time></trkpt><trkpt lat="41.06518" lon="14.3264233"><ele>58.00000000000001</ele><time>2026-04-24T16:16:18.383Z</time></trkpt><trkpt lat="41.0651117" lon="14.3264117"><ele>58.0</ele><time>2026-04-24T16:16:19.383Z</time></trkpt><trkpt lat="41.0650433" lon="14.3264017"><ele>58.00000000000001</ele><time>2026-04-24T16:16:20.384Z</time></trkpt><trkpt lat="41.0649733" lon="14.326395"><ele>58.00000000000001</ele><time>2026-04-24T16:16:21.383Z</time></trkpt><trkpt lat="41.0649017" lon="14.32639"><ele>58.00000000000001</ele><time>2026-04-24T16:16:22.383Z</time></trkpt><trkpt lat="41.06483" lon="14.3263833"><ele>58.0</ele><time>2026-04-24T16:16:23.384Z</time></trkpt><trkpt lat="41.06476" lon="14.3263783"><ele>58.00000000000001</ele><time>2026-04-24T16:16:24.385Z</time></trkpt><trkpt lat="41.0646917" lon="14.326375"><ele>58.00000000000001</ele><time>2026-04-24T16:16:25.384Z</time></trkpt><trkpt lat="41.064625" lon="14.3263683"><ele>58.0</ele><time>2026-04-24T16:16:26.384Z</time></trkpt><trkpt lat="41.0645567" lon="14.3263617"><ele>58.00000000000001</ele><time>2026-04-24T16:16:27.383Z</time></trkpt><trkpt lat="41.0644883" lon="14.3263583"><ele>58.00000000000001</ele><time>2026-04-24T16:16:28.383Z</time></trkpt><trkpt lat="41.0644217" lon="14.326355"><ele>57.99999999999999</ele><time>2026-04-24T16:16:29.384Z</time></trkpt><trkpt lat="41.0643567" lon="14.3263533"><ele>58.0</ele><time>2026-04-24T16:16:30.385Z</time></trkpt><trkpt lat="41.0642317" lon="14.3263417"><ele>58.0</ele><time>2026-04-24T16:16:32.383Z</time></trkpt><trkpt lat="41.0641683" lon="14.3263383"><ele>58.0</ele><time>2026-04-24T16:16:33.385Z</time></trkpt><trkpt lat="41.064045" lon="14.32633"><ele>57.99999999999999</ele><time>2026-04-24T16:16:35.382Z</time></trkpt><trkpt lat="41.0639783" lon="14.3263267"><ele>58.0</ele><time>2026-04-24T16:16:36.384Z</time></trkpt><trkpt lat="41.0639117" lon="14.326325"><ele>58.14285714285715</ele><time>2026-04-24T16:16:37.384Z</time></trkpt><trkpt lat="41.0638433" lon="14.3263183"><ele>58.28571428571429</ele><time>2026-04-24T16:16:38.387Z</time></trkpt><trkpt lat="41.063775" lon="14.3263117"><ele>58.42857142857143</ele><time>2026-04-24T16:16:39.384Z</time></trkpt><trkpt lat="41.0637067" lon="14.32631"><ele>58.57142857142858</ele><time>2026-04-24T16:16:40.384Z</time></trkpt><trkpt lat="41.0636383" lon="14.3263067"><ele>58.71428571428572</ele><time>2026-04-24T16:16:41.386Z</time></trkpt><trkpt lat="41.0635683" lon="14.3263033"><ele>58.857142857142854</ele><time>2026-04-24T16:16:42.383Z</time></trkpt><trkpt lat="41.0634967" lon="14.3262983"><ele>59.0</ele><time>2026-04-24T16:16:43.384Z</time></trkpt><trkpt lat="41.0634233" lon="14.32629"><ele>59.0</ele><time>2026-04-24T16:16:44.384Z</time></trkpt><trkpt lat="41.063355" lon="14.3262817"><ele>59.0</ele><time>2026-04-24T16:16:45.384Z</time></trkpt><trkpt lat="41.0632883" lon="14.3262717"><ele>59.0</ele><time>2026-04-24T16:16:46.383Z</time></trkpt><trkpt lat="41.0632183" lon="14.326265"><ele>59.0</ele><time>2026-04-24T16:16:47.383Z</time></trkpt><trkpt lat="41.0631483" lon="14.3262617"><ele>59.0</ele><time>2026-04-24T16:16:48.384Z</time></trkpt><trkpt lat="41.0630783" lon="14.326255"><ele>59.0</ele><time>2026-04-24T16:16:49.382Z</time></trkpt><trkpt lat="41.06301" lon="14.3262483"><ele>59.0</ele><time>2026-04-24T16:16:50.384Z</time></trkpt><trkpt lat="41.06294" lon="14.3262417"><ele>59.0</ele><time>2026-04-24T16:16:51.384Z</time></trkpt><trkpt lat="41.0628683" lon="14.3262383"><ele>59.0</ele><time>2026-04-24T16:16:52.383Z</time></trkpt><trkpt lat="41.0627967" lon="14.3262333"><ele>59.0</ele><time>2026-04-24T16:16:53.384Z</time></trkpt><trkpt lat="41.0627267" lon="14.3262283"><ele>59.0</ele><time>2026-04-24T16:16:54.383Z</time></trkpt><trkpt lat="41.062655" lon="14.32622"><ele>59.0</ele><time>2026-04-24T16:16:55.384Z</time></trkpt><trkpt lat="41.0625833" lon="14.3262133"><ele>59.0</ele><time>2026-04-24T16:16:56.384Z</time></trkpt><trkpt lat="41.0625117" lon="14.32621"><ele>59.0</ele><time>2026-04-24T16:16:57.382Z</time></trkpt><trkpt lat="41.0624383" lon="14.326205"><ele>58.857142857142854</ele><time>2026-04-24T16:16:58.383Z</time></trkpt><trkpt lat="41.0623667" lon="14.3261967"><ele>58.71428571428572</ele><time>2026-04-24T16:16:59.382Z</time></trkpt><trkpt lat="41.0622917" lon="14.326185"><ele>58.57142857142858</ele><time>2026-04-24T16:17:00.386Z</time></trkpt><trkpt lat="41.0622167" lon="14.326175"><ele>58.42857142857143</ele><time>2026-04-24T16:17:01.383Z</time></trkpt><trkpt lat="41.0621433" lon="14.32617"><ele>58.28571428571429</ele><time>2026-04-24T16:17:02.384Z</time></trkpt><trkpt lat="41.0620683" lon="14.326165"><ele>58.14285714285715</ele><time>2026-04-24T16:17:03.383Z</time></trkpt><trkpt lat="41.061995" lon="14.3261583"><ele>58.00000000000001</ele><time>2026-04-24T16:17:04.382Z</time></trkpt><trkpt lat="41.0619217" lon="14.3261533"><ele>58.00000000000001</ele><time>2026-04-24T16:17:05.383Z</time></trkpt><trkpt lat="41.0618483" lon="14.32615"><ele>58.0</ele><time>2026-04-24T16:17:06.383Z</time></trkpt><trkpt lat="41.0617733" lon="14.326145"><ele>58.00000000000001</ele><time>2026-04-24T16:17:07.385Z</time></trkpt><trkpt lat="41.0617017" lon="14.3261417"><ele>58.00000000000001</ele><time>2026-04-24T16:17:08.383Z</time></trkpt><trkpt lat="41.0616283" lon="14.326135"><ele>58.0</ele><time>2026-04-24T16:17:09.384Z</time></trkpt><trkpt lat="41.0615533" lon="14.326125"><ele>58.00000000000001</ele><time>2026-04-24T16:17:10.383Z</time></trkpt><trkpt lat="41.0614783" lon="14.3261183"><ele>58.00000000000001</ele><time>2026-04-24T16:17:11.384Z</time></trkpt><trkpt lat="41.0614017" lon="14.3261133"><ele>57.666666666666664</ele><time>2026-04-24T16:17:12.386Z</time></trkpt><trkpt lat="41.0613267" lon="14.3261067"><ele>57.33333333333333</ele><time>2026-04-24T16:17:13.383Z</time></trkpt><trkpt lat="41.0612533" lon="14.3260983"><ele>57.0</ele><time>2026-04-24T16:17:14.382Z</time></trkpt><trkpt lat="41.0611783" lon="14.326095"><ele>56.66666666666667</ele><time>2026-04-24T16:17:15.383Z</time></trkpt><trkpt lat="41.0611017" lon="14.3260917"><ele>56.333333333333336</ele><time>2026-04-24T16:17:16.382Z</time></trkpt><trkpt lat="41.061025" lon="14.3260917"><ele>56.0</ele><time>2026-04-24T16:17:17.383Z</time></trkpt><trkpt lat="41.0609483" lon="14.3260883"><ele>56.00000000000001</ele><time>2026-04-24T16:17:18.384Z</time></trkpt><trkpt lat="41.0608733" lon="14.326085"><ele>56.0</ele><time>2026-04-24T16:17:19.385Z</time></trkpt><trkpt lat="41.060795" lon="14.3260783"><ele>56.0</ele><time>2026-04-24T16:17:20.383Z</time></trkpt><trkpt lat="41.0607183" lon="14.3260683"><ele>56.0</ele><time>2026-04-24T16:17:21.384Z</time></trkpt><trkpt lat="41.0606433" lon="14.3260633"><ele>56.00000000000001</ele><time>2026-04-24T16:17:22.382Z</time></trkpt><trkpt lat="41.0605683" lon="14.3260583"><ele>56.0</ele><time>2026-04-24T16:17:23.384Z</time></trkpt><trkpt lat="41.0604933" lon="14.3260533"><ele>55.857142857142854</ele><time>2026-04-24T16:17:24.385Z</time></trkpt><trkpt lat="41.0604217" lon="14.32605"><ele>55.714285714285715</ele><time>2026-04-24T16:17:25.386Z</time></trkpt><trkpt lat="41.06035" lon="14.3260467"><ele>55.57142857142857</ele><time>2026-04-24T16:17:26.382Z</time></trkpt><trkpt lat="41.060275" lon="14.3260383"><ele>55.42857142857143</ele><time>2026-04-24T16:17:27.386Z</time></trkpt><trkpt lat="41.0602017" lon="14.326035"><ele>55.285714285714285</ele><time>2026-04-24T16:17:28.386Z</time></trkpt><trkpt lat="41.0601283" lon="14.3260283"><ele>55.14285714285714</ele><time>2026-04-24T16:17:29.383Z</time></trkpt><trkpt lat="41.0600533" lon="14.3260233"><ele>55.0</ele><time>2026-04-24T16:17:30.385Z</time></trkpt><trkpt lat="41.05998" lon="14.3260183"><ele>54.99999999999999</ele><time>2026-04-24T16:17:31.383Z</time></trkpt><trkpt lat="41.059905" lon="14.3260117"><ele>55.0</ele><time>2026-04-24T16:17:32.382Z</time></trkpt><trkpt lat="41.0598283" lon="14.3260033"><ele>55.0</ele><time>2026-04-24T16:17:33.386Z</time></trkpt><trkpt lat="41.0597533" lon="14.325995"><ele>55.0</ele><time>2026-04-24T16:17:34.386Z</time></trkpt><trkpt lat="41.0596767" lon="14.3259883"><ele>54.99999999999999</ele><time>2026-04-24T16:17:35.384Z</time></trkpt><trkpt lat="41.0595967" lon="14.325985"><ele>55.0</ele><time>2026-04-24T16:17:36.386Z</time></trkpt><trkpt lat="41.0595183" lon="14.3259817"><ele>54.99999999999999</ele><time>2026-04-24T16:17:37.386Z</time></trkpt><trkpt lat="41.0594383" lon="14.3259767"><ele>55.0</ele><time>2026-04-24T16:17:38.386Z</time></trkpt><trkpt lat="41.0593583" lon="14.3259733"><ele>55.0</ele><time>2026-04-24T16:17:39.386Z</time></trkpt><trkpt lat="41.0592783" lon="14.32597"><ele>55.0</ele><time>2026-04-24T16:17:40.386Z</time></trkpt><trkpt lat="41.059195" lon="14.325965"><ele>54.99999999999999</ele><time>2026-04-24T16:17:41.385Z</time></trkpt><trkpt lat="41.059115" lon="14.3259567"><ele>55.0</ele><time>2026-04-24T16:17:42.384Z</time></trkpt><trkpt lat="41.059035" lon="14.3259483"><ele>54.83333333333333</ele><time>2026-04-24T16:17:43.383Z</time></trkpt><trkpt lat="41.0589567" lon="14.3259417"><ele>54.666666666666664</ele><time>2026-04-24T16:17:44.383Z</time></trkpt><trkpt lat="41.0588767" lon="14.325935"><ele>54.5</ele><time>2026-04-24T16:17:45.383Z</time></trkpt><trkpt lat="41.0587967" lon="14.3259267"><ele>54.33333333333333</ele><time>2026-04-24T16:17:46.382Z</time></trkpt><trkpt lat="41.058715" lon="14.32592"><ele>54.166666666666664</ele><time>2026-04-24T16:17:47.383Z</time></trkpt><trkpt lat="41.0586333" lon="14.3259133"><ele>54.0</ele><time>2026-04-24T16:17:48.384Z</time></trkpt><trkpt lat="41.0585517" lon="14.3259083"><ele>54.0</ele><time>2026-04-24T16:17:49.385Z</time></trkpt><trkpt lat="41.05847" lon="14.3259033"><ele>54.0</ele><time>2026-04-24T16:17:50.384Z</time></trkpt><trkpt lat="41.0583883" lon="14.3258983"><ele>54.0</ele><time>2026-04-24T16:17:51.383Z</time></trkpt><trkpt lat="41.058305" lon="14.3258917"><ele>54.0</ele><time>2026-04-24T16:17:52.383Z</time></trkpt><trkpt lat="41.0582217" lon="14.325885"><ele>54.0</ele><time>2026-04-24T16:17:53.383Z</time></trkpt><trkpt lat="41.05814" lon="14.3258783"><ele>54.0</ele><time>2026-04-24T16:17:54.383Z</time></trkpt><trkpt lat="41.0580567" lon="14.3258733"><ele>53.666666666666664</ele><time>2026-04-24T16:17:55.383Z</time></trkpt><trkpt lat="41.0579733" lon="14.3258633"><ele>53.33333333333333</ele><time>2026-04-24T16:17:56.383Z</time></trkpt><trkpt lat="41.0578883" lon="14.3258533"><ele>53.0</ele><time>2026-04-24T16:17:57.383Z</time></trkpt><trkpt lat="41.057805" lon="14.32585"><ele>52.666666666666664</ele><time>2026-04-24T16:17:58.384Z</time></trkpt><trkpt lat="41.0577217" lon="14.325845"><ele>52.33333333333333</ele><time>2026-04-24T16:17:59.384Z</time></trkpt><trkpt lat="41.0576417" lon="14.3258383"><ele>52.0</ele><time>2026-04-24T16:18:00.386Z</time></trkpt><trkpt lat="41.05756" lon="14.325835"><ele>51.99999999999999</ele><time>2026-04-24T16:18:01.386Z</time></trkpt><trkpt lat="41.0574767" lon="14.3258317"><ele>52.0</ele><time>2026-04-24T16:18:02.386Z</time></trkpt><trkpt lat="41.057395" lon="14.3258233"><ele>52.0</ele><time>2026-04-24T16:18:03.386Z</time></trkpt><trkpt lat="41.0573167" lon="14.3258167"><ele>52.0</ele><time>2026-04-24T16:18:04.385Z</time></trkpt><trkpt lat="41.0572367" lon="14.325815"><ele>51.99999999999999</ele><time>2026-04-24T16:18:05.386Z</time></trkpt><trkpt lat="41.05716" lon="14.3258133"><ele>52.0</ele><time>2026-04-24T16:18:06.386Z</time></trkpt><trkpt lat="41.0570933" lon="14.325805"><ele>52.5</ele><time>2026-04-24T16:18:07.383Z</time></trkpt><trkpt lat="41.05698" lon="14.3257483"><ele>53.0</ele><time>2026-04-24T16:18:09.383Z</time></trkpt><trkpt lat="41.0568817" lon="14.32566"><ele>53.5</ele><time>2026-04-24T16:18:11.385Z</time></trkpt><trkpt lat="41.0567683" lon="14.325635"><ele>54.0</ele><time>2026-04-24T16:18:13.384Z</time></trkpt><trkpt lat="41.0566483" lon="14.32568"><ele>53.857142857142854</ele><time>2026-04-24T16:18:15.383Z</time></trkpt><trkpt lat="41.056585" lon="14.3257083"><ele>53.71428571428571</ele><time>2026-04-24T16:18:16.382Z</time></trkpt><trkpt lat="41.0565183" lon="14.32573"><ele>53.57142857142857</ele><time>2026-04-24T16:18:17.385Z</time></trkpt><trkpt lat="41.0564533" lon="14.3257367"><ele>53.42857142857143</ele><time>2026-04-24T16:18:18.381Z</time></trkpt><trkpt lat="41.056385" lon="14.3257317"><ele>53.285714285714285</ele><time>2026-04-24T16:18:19.387Z</time></trkpt><trkpt lat="41.0563133" lon="14.3257217"><ele>53.142857142857146</ele><time>2026-04-24T16:18:20.383Z</time></trkpt><trkpt lat="41.0562383" lon="14.325715"><ele>53.0</ele><time>2026-04-24T16:18:21.384Z</time></trkpt><trkpt lat="41.0561633" lon="14.32571"><ele>53.00000000000001</ele><time>2026-04-24T16:18:22.386Z</time></trkpt><trkpt lat="41.0560867" lon="14.3257033"><ele>53.0</ele><time>2026-04-24T16:18:23.384Z</time></trkpt><trkpt lat="41.05601" lon="14.3256983"><ele>53.0</ele><time>2026-04-24T16:18:24.384Z</time></trkpt><trkpt lat="41.0559333" lon="14.3256967"><ele>53.0</ele><time>2026-04-24T16:18:25.384Z</time></trkpt><trkpt lat="41.0558567" lon="14.3256917"><ele>53.00000000000001</ele><time>2026-04-24T16:18:26.384Z</time></trkpt><trkpt lat="41.0557783" lon="14.3256883"><ele>53.0</ele><time>2026-04-24T16:18:27.383Z</time></trkpt><trkpt lat="41.0557" lon="14.3256817"><ele>52.50000000000001</ele><time>2026-04-24T16:18:28.383Z</time></trkpt><trkpt lat="41.0556217" lon="14.325675"><ele>52.0</ele><time>2026-04-24T16:18:29.383Z</time></trkpt><trkpt lat="41.0555417" lon="14.3256667"><ele>51.5</ele><time>2026-04-24T16:18:30.385Z</time></trkpt><trkpt lat="41.0554617" lon="14.3256617"><ele>51.0</ele><time>2026-04-24T16:18:31.382Z</time></trkpt><trkpt lat="41.0553817" lon="14.3256533"><ele>50.50000000000001</ele><time>2026-04-24T16:18:32.385Z</time></trkpt><trkpt lat="41.0553017" lon="14.3256417"><ele>50.0</ele><time>2026-04-24T16:18:33.386Z</time></trkpt><trkpt lat="41.05522" lon="14.32563"><ele>50.00000000000001</ele><time>2026-04-24T16:18:34.382Z</time></trkpt><trkpt lat="41.0551383" lon="14.3256217"><ele>50.0</ele><time>2026-04-24T16:18:35.386Z</time></trkpt><trkpt lat="41.0550583" lon="14.3256117"><ele>50.0</ele><time>2026-04-24T16:18:36.386Z</time></trkpt><trkpt lat="41.0549767" lon="14.325605"><ele>50.0</ele><time>2026-04-24T16:18:37.386Z</time></trkpt><trkpt lat="41.0549" lon="14.3255983"><ele>50.00000000000001</ele><time>2026-04-24T16:18:38.386Z</time></trkpt><trkpt lat="41.05482" lon="14.3255983"><ele>50.0</ele><time>2026-04-24T16:18:39.386Z</time></trkpt><trkpt lat="41.05474" lon="14.3255933"><ele>50.50000000000001</ele><time>2026-04-24T16:18:40.383Z</time></trkpt><trkpt lat="41.05466" lon="14.325585"><ele>51.0</ele><time>2026-04-24T16:18:41.384Z</time></trkpt><trkpt lat="41.05458" lon="14.32558"><ele>51.5</ele><time>2026-04-24T16:18:42.385Z</time></trkpt><trkpt lat="41.0545" lon="14.325575"><ele>52.0</ele><time>2026-04-24T16:18:43.383Z</time></trkpt><trkpt lat="41.05442" lon="14.32557"><ele>52.50000000000001</ele><time>2026-04-24T16:18:44.387Z</time></trkpt><trkpt lat="41.0543417" lon="14.325565"><ele>53.0</ele><time>2026-04-24T16:18:45.387Z</time></trkpt><trkpt lat="41.0542617" lon="14.3255567"><ele>53.00000000000001</ele><time>2026-04-24T16:18:46.386Z</time></trkpt><trkpt lat="41.054185" lon="14.32555"><ele>53.0</ele><time>2026-04-24T16:18:47.385Z</time></trkpt><trkpt lat="41.0541083" lon="14.3255433"><ele>53.0</ele><time>2026-04-24T16:18:48.382Z</time></trkpt><trkpt lat="41.05403" lon="14.3255367"><ele>53.0</ele><time>2026-04-24T16:18:49.383Z</time></trkpt><trkpt lat="41.0539517" lon="14.3255333"><ele>53.00000000000001</ele><time>2026-04-24T16:18:50.384Z</time></trkpt><trkpt lat="41.053875" lon="14.3255267"><ele>53.0</ele><time>2026-04-24T16:18:51.386Z</time></trkpt><trkpt lat="41.0537983" lon="14.3255183"><ele>53.00000000000001</ele><time>2026-04-24T16:18:52.386Z</time></trkpt><trkpt lat="41.05372" lon="14.3255133"><ele>53.0</ele><time>2026-04-24T16:18:53.385Z</time></trkpt><trkpt lat="41.0536417" lon="14.3255067"><ele>53.0</ele><time>2026-04-24T16:18:54.382Z</time></trkpt><trkpt lat="41.053565" lon="14.3255033"><ele>53.0</ele><time>2026-04-24T16:18:55.387Z</time></trkpt><trkpt lat="41.0534883" lon="14.3254967"><ele>53.00000000000001</ele><time>2026-04-24T16:18:56.384Z</time></trkpt><trkpt lat="41.0534133" lon="14.32549"><ele>53.0</ele><time>2026-04-24T16:18:57.383Z</time></trkpt><trkpt lat="41.0533383" lon="14.325485"><ele>53.0</ele><time>2026-04-24T16:18:58.382Z</time></trkpt><trkpt lat="41.0532633" lon="14.32548"><ele>53.0</ele><time>2026-04-24T16:18:59.385Z</time></trkpt><trkpt lat="41.05319" lon="14.3254767"><ele>53.0</ele><time>2026-04-24T16:19:00.385Z</time></trkpt><trkpt lat="41.0531183" lon="14.32547"><ele>53.0</ele><time>2026-04-24T16:19:01.386Z</time></trkpt><trkpt lat="41.0530483" lon="14.3254633"><ele>53.0</ele><time>2026-04-24T16:19:02.386Z</time></trkpt><trkpt lat="41.0529783" lon="14.3254567"><ele>53.0</ele><time>2026-04-24T16:19:03.384Z</time></trkpt><trkpt lat="41.05291" lon="14.32545"><ele>53.0</ele><time>2026-04-24T16:19:04.384Z</time></trkpt><trkpt lat="41.0528383" lon="14.325445"><ele>53.0</ele><time>2026-04-24T16:19:05.385Z</time></trkpt><trkpt lat="41.0527683" lon="14.3254383"><ele>53.0</ele><time>2026-04-24T16:19:06.382Z</time></trkpt><trkpt lat="41.0527" lon="14.32543"><ele>53.0</ele><time>2026-04-24T16:19:07.384Z</time></trkpt><trkpt lat="41.0526317" lon="14.3254217"><ele>53.0</ele><time>2026-04-24T16:19:08.386Z</time></trkpt><trkpt lat="41.0525633" lon="14.3254167"><ele>53.0</ele><time>2026-04-24T16:19:09.385Z</time></trkpt><trkpt lat="41.052495" lon="14.3254133"><ele>53.0</ele><time>2026-04-24T16:19:10.386Z</time></trkpt><trkpt lat="41.0524233" lon="14.3254083"><ele>53.0</ele><time>2026-04-24T16:19:11.383Z</time></trkpt><trkpt lat="41.0523533" lon="14.3254017"><ele>52.714285714285715</ele><time>2026-04-24T16:19:12.384Z</time></trkpt><trkpt lat="41.0522833" lon="14.325395"><ele>52.42857142857142</ele><time>2026-04-24T16:19:13.385Z</time></trkpt><trkpt lat="41.05221" lon="14.3253867"><ele>52.14285714285714</ele><time>2026-04-24T16:19:14.387Z</time></trkpt><trkpt lat="41.0521367" lon="14.32538"><ele>51.85714285714286</ele><time>2026-04-24T16:19:15.383Z</time></trkpt><trkpt lat="41.0520633" lon="14.325375"><ele>51.57142857142857</ele><time>2026-04-24T16:19:16.384Z</time></trkpt><trkpt lat="41.0519867" lon="14.32537"><ele>51.285714285714285</ele><time>2026-04-24T16:19:17.383Z</time></trkpt><trkpt lat="41.0519133" lon="14.3253667"><ele>51.0</ele><time>2026-04-24T16:19:18.384Z</time></trkpt><trkpt lat="41.051835" lon="14.3253583"><ele>51.0</ele><time>2026-04-24T16:19:19.385Z</time></trkpt><trkpt lat="41.0517567" lon="14.3253483"><ele>51.0</ele><time>2026-04-24T16:19:20.384Z</time></trkpt><trkpt lat="41.0516783" lon="14.3253417"><ele>51.0</ele><time>2026-04-24T16:19:21.383Z</time></trkpt><trkpt lat="41.0516033" lon="14.3253383"><ele>51.0</ele><time>2026-04-24T16:19:22.382Z</time></trkpt><trkpt lat="41.0515267" lon="14.3253367"><ele>51.0</ele><time>2026-04-24T16:19:23.386Z</time></trkpt><trkpt lat="41.05145" lon="14.3253317"><ele>51.0</ele><time>2026-04-24T16:19:24.384Z</time></trkpt><trkpt lat="41.0513733" lon="14.3253267"><ele>51.0</ele><time>2026-04-24T16:19:25.385Z</time></trkpt><trkpt lat="41.0512933" lon="14.3253233"><ele>51.0</ele><time>2026-04-24T16:19:26.387Z</time></trkpt><trkpt lat="41.0512117" lon="14.325315"><ele>51.0</ele><time>2026-04-24T16:19:27.384Z</time></trkpt><trkpt lat="41.05113" lon="14.3253067"><ele>51.0</ele><time>2026-04-24T16:19:28.386Z</time></trkpt><trkpt lat="41.0510467" lon="14.3253"><ele>51.0</ele><time>2026-04-24T16:19:29.385Z</time></trkpt><trkpt lat="41.050965" lon="14.3252933"><ele>51.0</ele><time>2026-04-24T16:19:30.383Z</time></trkpt><trkpt lat="41.050885" lon="14.325285"><ele>51.0</ele><time>2026-04-24T16:19:31.383Z</time></trkpt><trkpt lat="41.0508033" lon="14.3252783"><ele>51.0</ele><time>2026-04-24T16:19:32.384Z</time></trkpt><trkpt lat="41.0507233" lon="14.325275"><ele>51.0</ele><time>2026-04-24T16:19:33.384Z</time></trkpt><trkpt lat="41.0506467" lon="14.3252717"><ele>51.0</ele><time>2026-04-24T16:19:34.386Z</time></trkpt><trkpt lat="41.0505733" lon="14.325265"><ele>51.0</ele><time>2026-04-24T16:19:35.382Z</time></trkpt><trkpt lat="41.0504967" lon="14.32526"><ele>51.0</ele><time>2026-04-24T16:19:36.382Z</time></trkpt><trkpt lat="41.0504183" lon="14.3252533"><ele>51.0</ele><time>2026-04-24T16:19:37.383Z</time></trkpt><trkpt lat="41.0503383" lon="14.3252517"><ele>51.0</ele><time>2026-04-24T16:19:38.384Z</time></trkpt><trkpt lat="41.0502583" lon="14.3252483"><ele>51.0</ele><time>2026-04-24T16:19:39.382Z</time></trkpt><trkpt lat="41.050175" lon="14.3252417"><ele>51.0</ele><time>2026-04-24T16:19:40.385Z</time></trkpt><trkpt lat="41.050095" lon="14.3252317"><ele>51.0</ele><time>2026-04-24T16:19:41.386Z</time></trkpt><trkpt lat="41.0500117" lon="14.325225"><ele>51.0</ele><time>2026-04-24T16:19:42.386Z</time></trkpt><trkpt lat="41.0499283" lon="14.32522"><ele>51.0</ele><time>2026-04-24T16:19:43.382Z</time></trkpt><trkpt lat="41.04985" lon="14.3252183"><ele>51.0</ele><time>2026-04-24T16:19:44.384Z</time></trkpt><trkpt lat="41.0497683" lon="14.3252133"><ele>51.0</ele><time>2026-04-24T16:19:45.384Z</time></trkpt><trkpt lat="41.0496883" lon="14.325205"><ele>51.0</ele><time>2026-04-24T16:19:46.384Z</time></trkpt><trkpt lat="41.0496067" lon="14.3251983"><ele>51.0</ele><time>2026-04-24T16:19:47.385Z</time></trkpt><trkpt lat="41.0495233" lon="14.3251917"><ele>51.0</ele><time>2026-04-24T16:19:48.384Z</time></trkpt><trkpt lat="41.0494433" lon="14.3251867"><ele>51.0</ele><time>2026-04-24T16:19:49.384Z</time></trkpt><trkpt lat="41.0493667" lon="14.32518"><ele>51.0</ele><time>2026-04-24T16:19:50.384Z</time></trkpt><trkpt lat="41.0492883" lon="14.3251767"><ele>51.0</ele><time>2026-04-24T16:19:51.384Z</time></trkpt><trkpt lat="41.04921" lon="14.3251717"><ele>51.0</ele><time>2026-04-24T16:19:52.382Z</time></trkpt><trkpt lat="41.0491317" lon="14.3251633"><ele>51.0</ele><time>2026-04-24T16:19:53.384Z</time></trkpt><trkpt lat="41.0490517" lon="14.3251533"><ele>51.0</ele><time>2026-04-24T16:19:54.383Z</time></trkpt><trkpt lat="41.0489717" lon="14.3251483"><ele>50.833333333333336</ele><time>2026-04-24T16:19:55.386Z</time></trkpt><trkpt lat="41.04889" lon="14.3251383"><ele>50.66666666666667</ele><time>2026-04-24T16:19:56.382Z</time></trkpt><trkpt lat="41.0488083" lon="14.3251317"><ele>50.5</ele><time>2026-04-24T16:19:57.383Z</time></trkpt><trkpt lat="41.0487267" lon="14.3251283"><ele>50.333333333333336</ele><time>2026-04-24T16:19:58.384Z</time></trkpt><trkpt lat="41.0486433" lon="14.3251233"><ele>50.16666666666667</ele><time>2026-04-24T16:19:59.385Z</time></trkpt><trkpt lat="41.0485583" lon="14.3251167"><ele>50.0</ele><time>2026-04-24T16:20:00.382Z</time></trkpt><trkpt lat="41.0484717" lon="14.32511"><ele>50.00000000000001</ele><time>2026-04-24T16:20:01.386Z</time></trkpt><trkpt lat="41.0483867" lon="14.3251033"><ele>50.0</ele><time>2026-04-24T16:20:02.387Z</time></trkpt><trkpt lat="41.0483" lon="14.3250967"><ele>50.0</ele><time>2026-04-24T16:20:03.384Z</time></trkpt><trkpt lat="41.048215" lon="14.3250933"><ele>50.0</ele><time>2026-04-24T16:20:04.386Z</time></trkpt><trkpt lat="41.04813" lon="14.3250883"><ele>50.00000000000001</ele><time>2026-04-24T16:20:05.385Z</time></trkpt><trkpt lat="41.048045" lon="14.3250833"><ele>50.0</ele><time>2026-04-24T16:20:06.385Z</time></trkpt><trkpt lat="41.0479583" lon="14.3250733"><ele>49.66666666666667</ele><time>2026-04-24T16:20:07.383Z</time></trkpt><trkpt lat="41.0478717" lon="14.3250667"><ele>49.333333333333336</ele><time>2026-04-24T16:20:08.386Z</time></trkpt><trkpt lat="41.0477883" lon="14.32506"><ele>49.0</ele><time>2026-04-24T16:20:09.382Z</time></trkpt><trkpt lat="41.0477067" lon="14.3250517"><ele>48.66666666666667</ele><time>2026-04-24T16:20:10.383Z</time></trkpt><trkpt lat="41.0476233" lon="14.3250467"><ele>48.333333333333336</ele><time>2026-04-24T16:20:11.384Z</time></trkpt><trkpt lat="41.0475417" lon="14.325045"><ele>48.0</ele><time>2026-04-24T16:20:12.385Z</time></trkpt><trkpt lat="41.0474633" lon="14.3250433"><ele>48.166666666666664</ele><time>2026-04-24T16:20:13.385Z</time></trkpt><trkpt lat="41.0473867" lon="14.3250367"><ele>48.33333333333333</ele><time>2026-04-24T16:20:14.385Z</time></trkpt><trkpt lat="41.0473083" lon="14.3250283"><ele>48.5</ele><time>2026-04-24T16:20:15.383Z</time></trkpt><trkpt lat="41.0472317" lon="14.3250217"><ele>48.666666666666664</ele><time>2026-04-24T16:20:16.384Z</time></trkpt><trkpt lat="41.0471567" lon="14.3250183"><ele>48.83333333333333</ele><time>2026-04-24T16:20:17.384Z</time></trkpt><trkpt lat="41.0470783" lon="14.32501"><ele>49.0</ele><time>2026-04-24T16:20:18.385Z</time></trkpt><trkpt lat="41.0469983" lon="14.3250033"><ele>48.99999999999999</ele><time>2026-04-24T16:20:19.384Z</time></trkpt><trkpt lat="41.0469167" lon="14.3249917"><ele>49.0</ele><time>2026-04-24T16:20:20.383Z</time></trkpt><trkpt lat="41.0468367" lon="14.3249833"><ele>49.0</ele><time>2026-04-24T16:20:21.386Z</time></trkpt><trkpt lat="41.0467583" lon="14.3249767"><ele>49.0</ele><time>2026-04-24T16:20:22.384Z</time></trkpt><trkpt lat="41.0466783" lon="14.32497"><ele>48.99999999999999</ele><time>2026-04-24T16:20:23.383Z</time></trkpt><trkpt lat="41.046595" lon="14.324965"><ele>49.0</ele><time>2026-04-24T16:20:24.384Z</time></trkpt><trkpt lat="41.0465133" lon="14.3249567"><ele>48.49999999999999</ele><time>2026-04-24T16:20:25.384Z</time></trkpt><trkpt lat="41.04643" lon="14.32495"><ele>48.0</ele><time>2026-04-24T16:20:26.383Z</time></trkpt><trkpt lat="41.04635" lon="14.3249433"><ele>47.5</ele><time>2026-04-24T16:20:27.384Z</time></trkpt><trkpt lat="41.04627" lon="14.3249333"><ele>47.0</ele><time>2026-04-24T16:20:28.384Z</time></trkpt><trkpt lat="41.0461933" lon="14.3249267"><ele>46.5</ele><time>2026-04-24T16:20:29.384Z</time></trkpt><trkpt lat="41.0461183" lon="14.3249217"><ele>46.0</ele><time>2026-04-24T16:20:30.385Z</time></trkpt><trkpt lat="41.0460433" lon="14.3249133"><ele>46.0</ele><time>2026-04-24T16:20:31.383Z</time></trkpt><trkpt lat="41.0459767" lon="14.3249067"><ele>46.0</ele><time>2026-04-24T16:20:32.385Z</time></trkpt><trkpt lat="41.045875" lon="14.3248967"><ele>46.0</ele><time>2026-04-24T16:20:34.382Z</time></trkpt><trkpt lat="41.0457933" lon="14.324895"><ele>46.0</ele><time>2026-04-24T16:20:57.386Z</time></trkpt><trkpt lat="41.04572" lon="14.324885"><ele>46.0</ele><time>2026-04-24T16:20:59.385Z</time></trkpt><trkpt lat="41.0456283" lon="14.3248717"><ele>46.0</ele><time>2026-04-24T16:21:01.382Z</time></trkpt><trkpt lat="41.0455083" lon="14.3248667"><ele>45.85714285714286</ele><time>2026-04-24T16:21:03.384Z</time></trkpt><trkpt lat="41.04544" lon="14.3248633"><ele>45.71428571428571</ele><time>2026-04-24T16:21:04.384Z</time></trkpt><trkpt lat="41.045365" lon="14.3248533"><ele>45.57142857142857</ele><time>2026-04-24T16:21:05.386Z</time></trkpt><trkpt lat="41.0452883" lon="14.3248483"><ele>45.42857142857143</ele><time>2026-04-24T16:21:06.386Z</time></trkpt><trkpt lat="41.045215" lon="14.3248467"><ele>45.28571428571429</ele><time>2026-04-24T16:21:07.385Z</time></trkpt><trkpt lat="41.04514" lon="14.3248417"><ele>45.14285714285714</ele><time>2026-04-24T16:21:08.387Z</time></trkpt><trkpt lat="41.045065" lon="14.3248367"><ele>45.0</ele><time>2026-04-24T16:21:09.386Z</time></trkpt><trkpt lat="41.0449883" lon="14.3248317"><ele>44.666666666666664</ele><time>2026-04-24T16:21:10.384Z</time></trkpt><trkpt lat="41.04491" lon="14.324825"><ele>44.333333333333336</ele><time>2026-04-24T16:21:11.385Z</time></trkpt><trkpt lat="41.044825" lon="14.3248167"><ele>44.0</ele><time>2026-04-24T16:21:12.385Z</time></trkpt><trkpt lat="41.0447433" lon="14.3248067"><ele>43.66666666666667</ele><time>2026-04-24T16:21:13.384Z</time></trkpt><trkpt lat="41.04466" lon="14.3247983"><ele>43.333333333333336</ele><time>2026-04-24T16:21:14.384Z</time></trkpt><trkpt lat="41.044575" lon="14.32479"><ele>43.0</ele><time>2026-04-24T16:21:15.384Z</time></trkpt><trkpt lat="41.04449" lon="14.3247833"><ele>43.0</ele><time>2026-04-24T16:21:16.384Z</time></trkpt><trkpt lat="41.044405" lon="14.3247817"><ele>43.0</ele><time>2026-04-24T16:21:17.383Z</time></trkpt><trkpt lat="41.0443217" lon="14.324775"><ele>43.0</ele><time>2026-04-24T16:21:18.384Z</time></trkpt><trkpt lat="41.0442367" lon="14.3247667"><ele>43.0</ele><time>2026-04-24T16:21:19.384Z</time></trkpt><trkpt lat="41.04415" lon="14.3247567"><ele>43.0</ele><time>2026-04-24T16:21:20.386Z</time></trkpt><trkpt lat="41.044065" lon="14.3247467"><ele>43.0</ele><time>2026-04-24T16:21:21.386Z</time></trkpt><trkpt lat="41.04398" lon="14.3247417"><ele>42.8</ele><time>2026-04-24T16:21:22.386Z</time></trkpt><trkpt lat="41.0438983" lon="14.32474"><ele>42.599999999999994</ele><time>2026-04-24T16:21:23.385Z</time></trkpt><trkpt lat="41.0438167" lon="14.3247333"><ele>42.400000000000006</ele><time>2026-04-24T16:21:24.383Z</time></trkpt><trkpt lat="41.0437467" lon="14.3247233"><ele>42.2</ele><time>2026-04-24T16:21:25.385Z</time></trkpt><trkpt lat="41.04364" lon="14.3247"><ele>42.0</ele><time>2026-04-24T16:21:27.385Z</time></trkpt><trkpt lat="41.0435317" lon="14.3246833"><ele>42.0</ele><time>2026-04-24T16:21:29.384Z</time></trkpt><trkpt lat="41.0434183" lon="14.3246817"><ele>42.0</ele><time>2026-04-24T16:21:31.387Z</time></trkpt><trkpt lat="41.043295" lon="14.3246683"><ele>42.0</ele><time>2026-04-24T16:21:33.386Z</time></trkpt><trkpt lat="41.0432317" lon="14.3246617"><ele>42.0</ele><time>2026-04-24T16:21:34.383Z</time></trkpt><trkpt lat="41.0431633" lon="14.3246633"><ele>42.0</ele><time>2026-04-24T16:21:35.386Z</time></trkpt><trkpt lat="41.0430967" lon="14.3246617"><ele>42.0</ele><time>2026-04-24T16:21:36.386Z</time></trkpt><trkpt lat="41.043025" lon="14.3246567"><ele>41.833333333333336</ele><time>2026-04-24T16:21:37.385Z</time></trkpt><trkpt lat="41.04295" lon="14.32466"><ele>41.666666666666664</ele><time>2026-04-24T16:21:38.385Z</time></trkpt><trkpt lat="41.0428717" lon="14.3246617"><ele>41.5</ele><time>2026-04-24T16:21:39.386Z</time></trkpt><trkpt lat="41.042795" lon="14.3246617"><ele>41.33333333333333</ele><time>2026-04-24T16:21:40.386Z</time></trkpt><trkpt lat="41.0427167" lon="14.32466"><ele>41.166666666666664</ele><time>2026-04-24T16:21:41.384Z</time></trkpt><trkpt lat="41.0426383" lon="14.3246633"><ele>41.0</ele><time>2026-04-24T16:21:42.386Z</time></trkpt><trkpt lat="41.0425567" lon="14.3246667"><ele>41.0</ele><time>2026-04-24T16:21:43.385Z</time></trkpt><trkpt lat="41.0424767" lon="14.32467"><ele>41.0</ele><time>2026-04-24T16:21:44.383Z</time></trkpt><trkpt lat="41.042395" lon="14.3246683"><ele>41.0</ele><time>2026-04-24T16:21:45.387Z</time></trkpt><trkpt lat="41.042315" lon="14.3246717"><ele>41.0</ele><time>2026-04-24T16:21:46.384Z</time></trkpt><trkpt lat="41.0422367" lon="14.3246817"><ele>41.0</ele><time>2026-04-24T16:21:47.384Z</time></trkpt><trkpt lat="41.0421533" lon="14.3246867"><ele>41.0</ele><time>2026-04-24T16:21:48.383Z</time></trkpt><trkpt lat="41.0420733" lon="14.3246867"><ele>41.33333333333333</ele><time>2026-04-24T16:21:49.384Z</time></trkpt><trkpt lat="41.0419933" lon="14.3246867"><ele>41.666666666666664</ele><time>2026-04-24T16:21:50.385Z</time></trkpt><trkpt lat="41.041915" lon="14.32469"><ele>42.0</ele><time>2026-04-24T16:21:51.385Z</time></trkpt><trkpt lat="41.0418383" lon="14.3246917"><ele>42.333333333333336</ele><time>2026-04-24T16:21:52.382Z</time></trkpt><trkpt lat="41.0417617" lon="14.3246917"><ele>42.66666666666667</ele><time>2026-04-24T16:21:53.382Z</time></trkpt><trkpt lat="41.041685" lon="14.324695"><ele>43.0</ele><time>2026-04-24T16:21:54.386Z</time></trkpt><trkpt lat="41.041605" lon="14.3246983"><ele>42.333333333333336</ele><time>2026-04-24T16:21:55.385Z</time></trkpt><trkpt lat="41.0415233" lon="14.324695"><ele>41.66666666666667</ele><time>2026-04-24T16:21:56.385Z</time></trkpt><trkpt lat="41.04144" lon="14.3246967"><ele>41.0</ele><time>2026-04-24T16:21:57.385Z</time></trkpt><trkpt lat="41.041355" lon="14.3246933"><ele>40.333333333333336</ele><time>2026-04-24T16:21:58.385Z</time></trkpt><trkpt lat="41.0412717" lon="14.324695"><ele>39.666666666666664</ele><time>2026-04-24T16:21:59.386Z</time></trkpt><trkpt lat="41.0411867" lon="14.3246933"><ele>39.0</ele><time>2026-04-24T16:22:00.385Z</time></trkpt><trkpt lat="41.0411033" lon="14.32469"><ele>39.0</ele><time>2026-04-24T16:22:01.385Z</time></trkpt><trkpt lat="41.0410217" lon="14.3246883"><ele>39.0</ele><time>2026-04-24T16:22:02.386Z</time></trkpt><trkpt lat="41.0409383" lon="14.3246883"><ele>39.0</ele><time>2026-04-24T16:22:03.385Z</time></trkpt><trkpt lat="41.040855" lon="14.324685"><ele>39.0</ele><time>2026-04-24T16:22:04.386Z</time></trkpt><trkpt lat="41.0407717" lon="14.3246817"><ele>39.0</ele><time>2026-04-24T16:22:05.383Z</time></trkpt><trkpt lat="41.04069" lon="14.3246783"><ele>39.0</ele><time>2026-04-24T16:22:06.386Z</time></trkpt><trkpt lat="41.040605" lon="14.324675"><ele>39.166666666666664</ele><time>2026-04-24T16:22:07.385Z</time></trkpt><trkpt lat="41.0405217" lon="14.3246767"><ele>39.333333333333336</ele><time>2026-04-24T16:22:08.385Z</time></trkpt><trkpt lat="41.0404367" lon="14.3246767"><ele>39.5</ele><time>2026-04-24T16:22:09.384Z</time></trkpt><trkpt lat="41.0403517" lon="14.3246717"><ele>39.66666666666667</ele><time>2026-04-24T16:22:10.382Z</time></trkpt><trkpt lat="41.0402683" lon="14.3246733"><ele>39.833333333333336</ele><time>2026-04-24T16:22:11.384Z</time></trkpt><trkpt lat="41.0401833" lon="14.3246717"><ele>40.0</ele><time>2026-04-24T16:22:12.386Z</time></trkpt><trkpt lat="41.0401" lon="14.3246733"><ele>40.0</ele><time>2026-04-24T16:22:13.386Z</time></trkpt><trkpt lat="41.040015" lon="14.3246717"><ele>40.0</ele><time>2026-04-24T16:22:14.384Z</time></trkpt><trkpt lat="41.03993" lon="14.324675"><ele>40.0</ele><time>2026-04-24T16:22:15.385Z</time></trkpt><trkpt lat="41.0398483" lon="14.3246783"><ele>40.0</ele><time>2026-04-24T16:22:16.386Z</time></trkpt><trkpt lat="41.039765" lon="14.3246917"><ele>40.0</ele><time>2026-04-24T16:22:17.382Z</time></trkpt><trkpt lat="41.0396817" lon="14.3247033"><ele>40.0</ele><time>2026-04-24T16:22:18.382Z</time></trkpt><trkpt lat="41.0395983" lon="14.32471"><ele>39.833333333333336</ele><time>2026-04-24T16:22:19.384Z</time></trkpt><trkpt lat="41.0395133" lon="14.3247133"><ele>39.66666666666667</ele><time>2026-04-24T16:22:20.383Z</time></trkpt><trkpt lat="41.0394317" lon="14.3247083"><ele>39.5</ele><time>2026-04-24T16:22:21.384Z</time></trkpt><trkpt lat="41.0393483" lon="14.3247017"><ele>39.333333333333336</ele><time>2026-04-24T16:22:22.383Z</time></trkpt><trkpt lat="41.039265" lon="14.3246967"><ele>39.166666666666664</ele><time>2026-04-24T16:22:23.383Z</time></trkpt><trkpt lat="41.039185" lon="14.32469"><ele>39.0</ele><time>2026-04-24T16:22:24.384Z</time></trkpt><trkpt lat="41.0391033" lon="14.3246883"><ele>38.833333333333336</ele><time>2026-04-24T16:22:25.383Z</time></trkpt><trkpt lat="41.03902" lon="14.3246867"><ele>38.666666666666664</ele><time>2026-04-24T16:22:26.385Z</time></trkpt><trkpt lat="41.038935" lon="14.324685"><ele>38.5</ele><time>2026-04-24T16:22:27.384Z</time></trkpt><trkpt lat="41.03885" lon="14.3246833"><ele>38.33333333333333</ele><time>2026-04-24T16:22:28.384Z</time></trkpt><trkpt lat="41.0387667" lon="14.3246833"><ele>38.166666666666664</ele><time>2026-04-24T16:22:29.384Z</time></trkpt><trkpt lat="41.038685" lon="14.3246883"><ele>38.0</ele><time>2026-04-24T16:22:30.385Z</time></trkpt><trkpt lat="41.0386" lon="14.3246883"><ele>38.0</ele><time>2026-04-24T16:22:31.386Z</time></trkpt><trkpt lat="41.0385167" lon="14.3246933"><ele>38.0</ele><time>2026-04-24T16:22:32.386Z</time></trkpt><trkpt lat="41.0384333" lon="14.3247017"><ele>38.0</ele><time>2026-04-24T16:22:33.386Z</time></trkpt><trkpt lat="41.0383517" lon="14.3247083"><ele>38.0</ele><time>2026-04-24T16:22:34.385Z</time></trkpt><trkpt lat="41.0382667" lon="14.3247083"><ele>38.0</ele><time>2026-04-24T16:22:35.386Z</time></trkpt><trkpt lat="41.03818" lon="14.32471"><ele>38.0</ele><time>2026-04-24T16:22:36.386Z</time></trkpt><trkpt lat="41.0380967" lon="14.3247117"><ele>38.166666666666664</ele><time>2026-04-24T16:22:37.386Z</time></trkpt><trkpt lat="41.0380133" lon="14.3247183"><ele>38.33333333333333</ele><time>2026-04-24T16:22:38.385Z</time></trkpt><trkpt lat="41.0379333" lon="14.3247217"><ele>38.5</ele><time>2026-04-24T16:22:39.385Z</time></trkpt><trkpt lat="41.0378567" lon="14.3247233"><ele>38.666666666666664</ele><time>2026-04-24T16:22:40.386Z</time></trkpt><trkpt lat="41.0377817" lon="14.3247217"><ele>38.833333333333336</ele><time>2026-04-24T16:22:41.386Z</time></trkpt><trkpt lat="41.0377067" lon="14.32472"><ele>39.0</ele><time>2026-04-24T16:22:42.385Z</time></trkpt><trkpt lat="41.0376283" lon="14.3247167"><ele>39.0</ele><time>2026-04-24T16:22:43.385Z</time></trkpt><trkpt lat="41.0375533" lon="14.3247167"><ele>39.0</ele><time>2026-04-24T16:22:44.387Z</time></trkpt><trkpt lat="41.0374767" lon="14.32472"><ele>39.0</ele><time>2026-04-24T16:22:45.386Z</time></trkpt><trkpt lat="41.0374017" lon="14.324725"><ele>39.0</ele><time>2026-04-24T16:22:46.386Z</time></trkpt><trkpt lat="41.0373267" lon="14.32473"><ele>39.0</ele><time>2026-04-24T16:22:47.383Z</time></trkpt><trkpt lat="41.0372483" lon="14.3247283"><ele>39.0</ele><time>2026-04-24T16:22:48.384Z</time></trkpt><trkpt lat="41.037165" lon="14.3247233"><ele>39.166666666666664</ele><time>2026-04-24T16:22:49.383Z</time></trkpt><trkpt lat="41.0370783" lon="14.3247117"><ele>39.333333333333336</ele><time>2026-04-24T16:22:50.385Z</time></trkpt><trkpt lat="41.0369867" lon="14.3247"><ele>39.5</ele><time>2026-04-24T16:22:51.384Z</time></trkpt><trkpt lat="41.0368967" lon="14.3247"><ele>39.66666666666667</ele><time>2026-04-24T16:22:52.384Z</time></trkpt><trkpt lat="41.0368067" lon="14.3247033"><ele>39.833333333333336</ele><time>2026-04-24T16:22:53.384Z</time></trkpt><trkpt lat="41.03672" lon="14.3247083"><ele>40.0</ele><time>2026-04-24T16:22:54.384Z</time></trkpt><trkpt lat="41.0366333" lon="14.3247117"><ele>39.5</ele><time>2026-04-24T16:22:55.385Z</time></trkpt><trkpt lat="41.0365433" lon="14.3247117"><ele>39.0</ele><time>2026-04-24T16:22:56.386Z</time></trkpt><trkpt lat="41.0364533" lon="14.32471"><ele>38.5</ele><time>2026-04-24T16:22:57.386Z</time></trkpt><trkpt lat="41.0363667" lon="14.3247117"><ele>38.0</ele><time>2026-04-24T16:22:58.382Z</time></trkpt><trkpt lat="41.0362767" lon="14.3247133"><ele>37.5</ele><time>2026-04-24T16:22:59.383Z</time></trkpt><trkpt lat="41.036185" lon="14.3247083"><ele>37.0</ele><time>2026-04-24T16:23:00.385Z</time></trkpt><trkpt lat="41.036095" lon="14.3247267"><ele>37.2</ele><time>2026-04-24T16:23:01.384Z</time></trkpt><trkpt lat="41.036005" lon="14.3247383"><ele>37.400000000000006</ele><time>2026-04-24T16:23:02.384Z</time></trkpt><trkpt lat="41.035915" lon="14.3247367"><ele>37.599999999999994</ele><time>2026-04-24T16:23:03.382Z</time></trkpt><trkpt lat="41.0358183" lon="14.3247317"><ele>37.8</ele><time>2026-04-24T16:23:04.381Z</time></trkpt><trkpt lat="41.035725" lon="14.32473"><ele>38.0</ele><time>2026-04-24T16:23:05.385Z</time></trkpt><trkpt lat="41.0356283" lon="14.3247267"><ele>37.4</ele><time>2026-04-24T16:23:06.386Z</time></trkpt><trkpt lat="41.035535" lon="14.3247183"><ele>36.8</ele><time>2026-04-24T16:23:07.386Z</time></trkpt><trkpt lat="41.0354433" lon="14.3247167"><ele>36.2</ele><time>2026-04-24T16:23:08.386Z</time></trkpt><trkpt lat="41.03535" lon="14.324715"><ele>35.6</ele><time>2026-04-24T16:23:09.383Z</time></trkpt><trkpt lat="41.0352533" lon="14.3247167"><ele>35.0</ele><time>2026-04-24T16:23:10.384Z</time></trkpt><trkpt lat="41.0351583" lon="14.3247217"><ele>35.0</ele><time>2026-04-24T16:23:11.386Z</time></trkpt><trkpt lat="41.035065" lon="14.324725"><ele>35.0</ele><time>2026-04-24T16:23:12.385Z</time></trkpt><trkpt lat="41.0349717" lon="14.3247283"><ele>35.0</ele><time>2026-04-24T16:23:13.385Z</time></trkpt><trkpt lat="41.034875" lon="14.3247283"><ele>35.0</ele><time>2026-04-24T16:23:14.387Z</time></trkpt><trkpt lat="41.03478" lon="14.3247233"><ele>35.0</ele><time>2026-04-24T16:23:15.385Z</time></trkpt><trkpt lat="41.034685" lon="14.3247233"><ele>35.0</ele><time>2026-04-24T16:23:16.386Z</time></trkpt><trkpt lat="41.0345933" lon="14.3247233"><ele>35.0</ele><time>2026-04-24T16:23:17.384Z</time></trkpt><trkpt lat="41.0345" lon="14.3247267"><ele>35.0</ele><time>2026-04-24T16:23:18.384Z</time></trkpt><trkpt lat="41.0344033" lon="14.3247267"><ele>35.0</ele><time>2026-04-24T16:23:19.384Z</time></trkpt><trkpt lat="41.034315" lon="14.3247333"><ele>35.0</ele><time>2026-04-24T16:23:20.385Z</time></trkpt><trkpt lat="41.0342233" lon="14.3247333"><ele>35.0</ele><time>2026-04-24T16:23:21.385Z</time></trkpt><trkpt lat="41.03413" lon="14.32473"><ele>35.0</ele><time>2026-04-24T16:23:22.384Z</time></trkpt><trkpt lat="41.034035" lon="14.32473"><ele>35.0</ele><time>2026-04-24T16:23:23.385Z</time></trkpt><trkpt lat="41.0339433" lon="14.3247317"><ele>35.0</ele><time>2026-04-24T16:23:24.384Z</time></trkpt><trkpt lat="41.03385" lon="14.3247283"><ele>35.0</ele><time>2026-04-24T16:23:25.387Z</time></trkpt><trkpt lat="41.0337583" lon="14.3247333"><ele>35.0</ele><time>2026-04-24T16:23:26.386Z</time></trkpt><trkpt lat="41.0336683" lon="14.3247383"><ele>35.0</ele><time>2026-04-24T16:23:27.386Z</time></trkpt><trkpt lat="41.0335767" lon="14.32474"><ele>35.0</ele><time>2026-04-24T16:23:28.386Z</time></trkpt><trkpt lat="41.0334817" lon="14.3247433"><ele>35.0</ele><time>2026-04-24T16:23:29.386Z</time></trkpt><trkpt lat="41.0333883" lon="14.3247483"><ele>35.0</ele><time>2026-04-24T16:23:30.385Z</time></trkpt><trkpt lat="41.0332967" lon="14.3247517"><ele>34.8</ele><time>2026-04-24T16:23:31.386Z</time></trkpt><trkpt lat="41.033205" lon="14.3247517"><ele>34.6</ele><time>2026-04-24T16:23:32.386Z</time></trkpt><trkpt lat="41.033115" lon="14.3247517"><ele>34.4</ele><time>2026-04-24T16:23:33.386Z</time></trkpt><trkpt lat="41.0330217" lon="14.3247483"><ele>34.2</ele><time>2026-04-24T16:23:34.383Z</time></trkpt><trkpt lat="41.03293" lon="14.324745"><ele>34.0</ele><time>2026-04-24T16:23:35.383Z</time></trkpt><trkpt lat="41.03284" lon="14.324745"><ele>34.0</ele><time>2026-04-24T16:23:36.384Z</time></trkpt><trkpt lat="41.0327483" lon="14.3247483"><ele>34.0</ele><time>2026-04-24T16:23:37.384Z</time></trkpt><trkpt lat="41.0326533" lon="14.32475"><ele>34.0</ele><time>2026-04-24T16:23:38.386Z</time></trkpt><trkpt lat="41.0325617" lon="14.3247533"><ele>34.0</ele><time>2026-04-24T16:23:39.383Z</time></trkpt><trkpt lat="41.0324717" lon="14.324755"><ele>34.0</ele><time>2026-04-24T16:23:40.385Z</time></trkpt><trkpt lat="41.03238" lon="14.324755"><ele>33.6</ele><time>2026-04-24T16:23:41.386Z</time></trkpt><trkpt lat="41.0322883" lon="14.32475"><ele>33.2</ele><time>2026-04-24T16:23:42.386Z</time></trkpt><trkpt lat="41.0321983" lon="14.3247517"><ele>32.800000000000004</ele><time>2026-04-24T16:23:43.385Z</time></trkpt><trkpt lat="41.032105" lon="14.32475"><ele>32.4</ele><time>2026-04-24T16:23:44.387Z</time></trkpt><trkpt lat="41.0320133" lon="14.3247517"><ele>32.0</ele><time>2026-04-24T16:23:45.386Z</time></trkpt><trkpt lat="41.03192" lon="14.32475"><ele>32.0</ele><time>2026-04-24T16:23:46.386Z</time></trkpt><trkpt lat="41.0318267" lon="14.3247483"><ele>32.0</ele><time>2026-04-24T16:23:47.384Z</time></trkpt><trkpt lat="41.0317333" lon="14.3247483"><ele>32.0</ele><time>2026-04-24T16:23:48.385Z</time></trkpt><trkpt lat="41.0316367" lon="14.324745"><ele>32.0</ele><time>2026-04-24T16:23:49.385Z</time></trkpt><trkpt lat="41.0315433" lon="14.3247483"><ele>32.0</ele><time>2026-04-24T16:23:50.385Z</time></trkpt><trkpt lat="41.0314517" lon="14.3247483"><ele>32.0</ele><time>2026-04-24T16:23:51.385Z</time></trkpt><trkpt lat="41.03136" lon="14.3247483"><ele>32.0</ele><time>2026-04-24T16:23:52.383Z</time></trkpt><trkpt lat="41.0312667" lon="14.3247483"><ele>32.0</ele><time>2026-04-24T16:23:53.384Z</time></trkpt><trkpt lat="41.031175" lon="14.3247483"><ele>32.0</ele><time>2026-04-24T16:23:54.385Z</time></trkpt><trkpt lat="41.0310833" lon="14.3247517"><ele>32.0</ele><time>2026-04-24T16:23:55.386Z</time></trkpt><trkpt lat="41.030995" lon="14.324755"><ele>32.0</ele><time>2026-04-24T16:23:56.386Z</time></trkpt><trkpt lat="41.0309017" lon="14.32476"><ele>32.0</ele><time>2026-04-24T16:23:57.384Z</time></trkpt><trkpt lat="41.0308067" lon="14.3247583"><ele>32.0</ele><time>2026-04-24T16:23:58.386Z</time></trkpt><trkpt lat="41.0307117" lon="14.324755"><ele>32.0</ele><time>2026-04-24T16:23:59.384Z</time></trkpt><trkpt lat="41.0306167" lon="14.3247517"><ele>32.0</ele><time>2026-04-24T16:24:00.385Z</time></trkpt><trkpt lat="41.03052" lon="14.3247483"><ele>31.8</ele><time>2026-04-24T16:24:01.386Z</time></trkpt><trkpt lat="41.0304267" lon="14.324745"><ele>31.6</ele><time>2026-04-24T16:24:02.385Z</time></trkpt><trkpt lat="41.0303317" lon="14.324745"><ele>31.400000000000002</ele><time>2026-04-24T16:24:03.384Z</time></trkpt><trkpt lat="41.0302367" lon="14.3247433"><ele>31.200000000000003</ele><time>2026-04-24T16:24:04.383Z</time></trkpt><trkpt lat="41.03014" lon="14.3247433"><ele>31.0</ele><time>2026-04-24T16:24:05.383Z</time></trkpt><trkpt lat="41.030045" lon="14.3247433"><ele>31.200000000000003</ele><time>2026-04-24T16:24:06.385Z</time></trkpt><trkpt lat="41.02995" lon="14.32474"><ele>31.400000000000002</ele><time>2026-04-24T16:24:07.385Z</time></trkpt><trkpt lat="41.0298533" lon="14.3247367"><ele>31.6</ele><time>2026-04-24T16:24:08.386Z</time></trkpt><trkpt lat="41.02976" lon="14.3247383"><ele>31.8</ele><time>2026-04-24T16:24:09.386Z</time></trkpt><trkpt lat="41.0296667" lon="14.3247417"><ele>32.0</ele><time>2026-04-24T16:24:10.385Z</time></trkpt><trkpt lat="41.0295717" lon="14.3247433"><ele>32.0</ele><time>2026-04-24T16:24:11.383Z</time></trkpt><trkpt lat="41.0294783" lon="14.3247467"><ele>32.0</ele><time>2026-04-24T16:24:12.387Z</time></trkpt><trkpt lat="41.0293867" lon="14.32475"><ele>32.0</ele><time>2026-04-24T16:24:13.386Z</time></trkpt><trkpt lat="41.0292933" lon="14.3247483"><ele>32.0</ele><time>2026-04-24T16:24:14.385Z</time></trkpt><trkpt lat="41.0292033" lon="14.324745"><ele>32.0</ele><time>2026-04-24T16:24:15.384Z</time></trkpt><trkpt lat="41.0291117" lon="14.324745"><ele>31.999999999999996</ele><time>2026-04-24T16:24:16.386Z</time></trkpt><trkpt lat="41.0290233" lon="14.3247483"><ele>32.0</ele><time>2026-04-24T16:24:17.384Z</time></trkpt><trkpt lat="41.028935" lon="14.32475"><ele>32.0</ele><time>2026-04-24T16:24:18.385Z</time></trkpt><trkpt lat="41.0288467" lon="14.32475"><ele>32.0</ele><time>2026-04-24T16:24:19.383Z</time></trkpt><trkpt lat="41.02876" lon="14.3247533"><ele>31.999999999999996</ele><time>2026-04-24T16:24:20.382Z</time></trkpt><trkpt lat="41.0286767" lon="14.3247567"><ele>32.0</ele><time>2026-04-24T16:24:21.384Z</time></trkpt><trkpt lat="41.0285917" lon="14.3247667"><ele>31.999999999999996</ele><time>2026-04-24T16:24:22.383Z</time></trkpt><trkpt lat="41.0285083" lon="14.3247783"><ele>32.0</ele><time>2026-04-24T16:24:23.385Z</time></trkpt><trkpt lat="41.028425" lon="14.3247833"><ele>32.0</ele><time>2026-04-24T16:24:24.385Z</time></trkpt><trkpt lat="41.0283367" lon="14.324775"><ele>32.0</ele><time>2026-04-24T16:24:25.384Z</time></trkpt><trkpt lat="41.0282483" lon="14.324765"><ele>31.999999999999996</ele><time>2026-04-24T16:24:26.386Z</time></trkpt><trkpt lat="41.0281583" lon="14.3247617"><ele>32.0</ele><time>2026-04-24T16:24:27.387Z</time></trkpt><trkpt lat="41.02807" lon="14.3247617"><ele>32.166666666666664</ele><time>2026-04-24T16:24:28.384Z</time></trkpt><trkpt lat="41.02798" lon="14.3247617"><ele>32.33333333333333</ele><time>2026-04-24T16:24:29.386Z</time></trkpt><trkpt lat="41.0278933" lon="14.3247617"><ele>32.5</ele><time>2026-04-24T16:24:30.387Z</time></trkpt><trkpt lat="41.0278083" lon="14.3247667"><ele>32.666666666666664</ele><time>2026-04-24T16:24:31.384Z</time></trkpt><trkpt lat="41.0277267" lon="14.32477"><ele>32.833333333333336</ele><time>2026-04-24T16:24:32.387Z</time></trkpt><trkpt lat="41.027645" lon="14.3247683"><ele>33.0</ele><time>2026-04-24T16:24:33.385Z</time></trkpt><trkpt lat="41.0275667" lon="14.3247717"><ele>33.0</ele><time>2026-04-24T16:24:34.386Z</time></trkpt><trkpt lat="41.0274883" lon="14.3247717"><ele>33.0</ele><time>2026-04-24T16:24:35.386Z</time></trkpt><trkpt lat="41.02741" lon="14.32477"><ele>33.0</ele><time>2026-04-24T16:24:36.386Z</time></trkpt><trkpt lat="41.027335" lon="14.3247667"><ele>33.0</ele><time>2026-04-24T16:24:37.386Z</time></trkpt><trkpt lat="41.0272583" lon="14.32477"><ele>33.0</ele><time>2026-04-24T16:24:38.386Z</time></trkpt><trkpt lat="41.0271783" lon="14.3247717"><ele>33.0</ele><time>2026-04-24T16:24:39.385Z</time></trkpt><trkpt lat="41.0270933" lon="14.3247733"><ele>32.5</ele><time>2026-04-24T16:24:40.386Z</time></trkpt><trkpt lat="41.0270083" lon="14.3247783"><ele>32.0</ele><time>2026-04-24T16:24:41.383Z</time></trkpt><trkpt lat="41.0269233" lon="14.3247767"><ele>31.5</ele><time>2026-04-24T16:24:42.385Z</time></trkpt><trkpt lat="41.0268367" lon="14.324775"><ele>31.0</ele><time>2026-04-24T16:24:43.384Z</time></trkpt><trkpt lat="41.0267483" lon="14.324775"><ele>30.5</ele><time>2026-04-24T16:24:44.385Z</time></trkpt><trkpt lat="41.0266633" lon="14.3247767"><ele>30.0</ele><time>2026-04-24T16:24:45.382Z</time></trkpt><trkpt lat="41.026575" lon="14.3247733"><ele>29.833333333333332</ele><time>2026-04-24T16:24:46.386Z</time></trkpt><trkpt lat="41.0264883" lon="14.32477"><ele>29.666666666666664</ele><time>2026-04-24T16:24:47.384Z</time></trkpt><trkpt lat="41.026405" lon="14.3247733"><ele>29.5</ele><time>2026-04-24T16:24:48.383Z</time></trkpt><trkpt lat="41.0263183" lon="14.324775"><ele>29.333333333333332</ele><time>2026-04-24T16:24:49.385Z</time></trkpt><trkpt lat="41.026235" lon="14.324775"><ele>29.166666666666664</ele><time>2026-04-24T16:24:50.385Z</time></trkpt><trkpt lat="41.02615" lon="14.324775"><ele>29.0</ele><time>2026-04-24T16:24:51.384Z</time></trkpt><trkpt lat="41.0260683" lon="14.324775"><ele>28.999999999999996</ele><time>2026-04-24T16:24:52.382Z</time></trkpt><trkpt lat="41.0259867" lon="14.324775"><ele>29.0</ele><time>2026-04-24T16:24:53.383Z</time></trkpt><trkpt lat="41.025905" lon="14.3247733"><ele>29.0</ele><time>2026-04-24T16:24:54.384Z</time></trkpt><trkpt lat="41.0258283" lon="14.3247783"><ele>29.0</ele><time>2026-04-24T16:24:55.384Z</time></trkpt><trkpt lat="41.02575" lon="14.3247833"><ele>28.999999999999996</ele><time>2026-04-24T16:24:56.387Z</time></trkpt><trkpt lat="41.0256683" lon="14.3247867"><ele>29.0</ele><time>2026-04-24T16:24:57.385Z</time></trkpt><trkpt lat="41.0255883" lon="14.3247933"><ele>28.833333333333332</ele><time>2026-04-24T16:24:58.387Z</time></trkpt><trkpt lat="41.02551" lon="14.3247983"><ele>28.666666666666664</ele><time>2026-04-24T16:24:59.386Z</time></trkpt><trkpt lat="41.0254283" lon="14.324805"><ele>28.5</ele><time>2026-04-24T16:25:00.383Z</time></trkpt><trkpt lat="41.0253483" lon="14.3248233"><ele>28.333333333333336</ele><time>2026-04-24T16:25:01.384Z</time></trkpt><trkpt lat="41.0252683" lon="14.3248383"><ele>28.166666666666668</ele><time>2026-04-24T16:25:02.384Z</time></trkpt><trkpt lat="41.0251933" lon="14.3248533"><ele>28.0</ele><time>2026-04-24T16:25:03.386Z</time></trkpt><trkpt lat="41.0251167" lon="14.32486"><ele>28.000000000000004</ele><time>2026-04-24T16:25:04.386Z</time></trkpt><trkpt lat="41.0250417" lon="14.3248617"><ele>28.0</ele><time>2026-04-24T16:25:05.386Z</time></trkpt><trkpt lat="41.02497" lon="14.3248667"><ele>28.0</ele><time>2026-04-24T16:25:06.382Z</time></trkpt><trkpt lat="41.0248933" lon="14.3248683"><ele>28.0</ele><time>2026-04-24T16:25:07.385Z</time></trkpt><trkpt lat="41.0248233" lon="14.3248717"><ele>28.000000000000004</ele><time>2026-04-24T16:25:08.387Z</time></trkpt><trkpt lat="41.024755" lon="14.32487"><ele>28.0</ele><time>2026-04-24T16:25:09.385Z</time></trkpt><trkpt lat="41.0246383" lon="14.324855"><ele>27.666666666666668</ele><time>2026-04-24T16:25:11.382Z</time></trkpt><trkpt lat="41.0245467" lon="14.32479"><ele>27.333333333333336</ele><time>2026-04-24T16:25:13.385Z</time></trkpt><trkpt lat="41.0244283" lon="14.3247517"><ele>27.0</ele><time>2026-04-24T16:25:15.386Z</time></trkpt><trkpt lat="41.0243617" lon="14.32475"><ele>26.666666666666664</ele><time>2026-04-24T16:25:16.386Z</time></trkpt><trkpt lat="41.0242883" lon="14.3247533"><ele>26.333333333333332</ele><time>2026-04-24T16:25:17.383Z</time></trkpt><trkpt lat="41.0242183" lon="14.3247633"><ele>26.0</ele><time>2026-04-24T16:25:18.385Z</time></trkpt><trkpt lat="41.02415" lon="14.3247683"><ele>26.142857142857142</ele><time>2026-04-24T16:25:19.385Z</time></trkpt><trkpt lat="41.0240817" lon="14.3247683"><ele>26.28571428571429</ele><time>2026-04-24T16:25:20.385Z</time></trkpt><trkpt lat="41.0240167" lon="14.324775"><ele>26.42857142857143</ele><time>2026-04-24T16:25:21.384Z</time></trkpt><trkpt lat="41.02395" lon="14.324785"><ele>26.57142857142857</ele><time>2026-04-24T16:25:22.383Z</time></trkpt><trkpt lat="41.0238833" lon="14.3247933"><ele>26.714285714285715</ele><time>2026-04-24T16:25:23.382Z</time></trkpt><trkpt lat="41.0238183" lon="14.3248"><ele>26.857142857142858</ele><time>2026-04-24T16:25:24.387Z</time></trkpt><trkpt lat="41.02375" lon="14.3248017"><ele>27.0</ele><time>2026-04-24T16:25:25.381Z</time></trkpt><trkpt lat="41.0236833" lon="14.3248"><ele>27.0</ele><time>2026-04-24T16:25:26.384Z</time></trkpt><trkpt lat="41.0236167" lon="14.3248017"><ele>27.0</ele><time>2026-04-24T16:25:27.386Z</time></trkpt><trkpt lat="41.0235483" lon="14.3248017"><ele>27.0</ele><time>2026-04-24T16:25:28.384Z</time></trkpt><trkpt lat="41.02348" lon="14.3248017"><ele>27.0</ele><time>2026-04-24T16:25:29.382Z</time></trkpt><trkpt lat="41.0234117" lon="14.3248033"><ele>27.0</ele><time>2026-04-24T16:25:30.383Z</time></trkpt><trkpt lat="41.0233433" lon="14.3248033"><ele>27.0</ele><time>2026-04-24T16:25:31.384Z</time></trkpt><trkpt lat="41.0232733" lon="14.324805"><ele>27.0</ele><time>2026-04-24T16:25:32.385Z</time></trkpt><trkpt lat="41.0232" lon="14.324805"><ele>27.0</ele><time>2026-04-24T16:25:33.386Z</time></trkpt><trkpt lat="41.0231217" lon="14.3248033"><ele>27.0</ele><time>2026-04-24T16:25:34.386Z</time></trkpt><trkpt lat="41.0230383" lon="14.3248017"><ele>27.0</ele><time>2026-04-24T16:25:35.386Z</time></trkpt><trkpt lat="41.0229517" lon="14.3248017"><ele>27.0</ele><time>2026-04-24T16:25:36.386Z</time></trkpt><trkpt lat="41.022865" lon="14.3248033"><ele>27.0</ele><time>2026-04-24T16:25:37.386Z</time></trkpt><trkpt lat="41.0227767" lon="14.3248083"><ele>27.0</ele><time>2026-04-24T16:25:38.385Z</time></trkpt><trkpt lat="41.0226867" lon="14.3248117"><ele>27.0</ele><time>2026-04-24T16:25:39.386Z</time></trkpt><trkpt lat="41.022595" lon="14.324815"><ele>27.000000000000004</ele><time>2026-04-24T16:25:40.384Z</time></trkpt><trkpt lat="41.0225033" lon="14.3248183"><ele>27.000000000000004</ele><time>2026-04-24T16:25:41.383Z</time></trkpt><trkpt lat="41.02241" lon="14.324815"><ele>27.0</ele><time>2026-04-24T16:25:42.384Z</time></trkpt><trkpt lat="41.0223167" lon="14.3248133"><ele>27.0</ele><time>2026-04-24T16:25:43.386Z</time></trkpt><trkpt lat="41.0222217" lon="14.324815"><ele>27.0</ele><time>2026-04-24T16:25:44.384Z</time></trkpt><trkpt lat="41.022125" lon="14.324815"><ele>27.000000000000004</ele><time>2026-04-24T16:25:45.386Z</time></trkpt><trkpt lat="41.02203" lon="14.324815"><ele>27.000000000000004</ele><time>2026-04-24T16:25:46.386Z</time></trkpt><trkpt lat="41.0219367" lon="14.3248167"><ele>27.0</ele><time>2026-04-24T16:25:47.384Z</time></trkpt><trkpt lat="41.0218433" lon="14.32482"><ele>27.0</ele><time>2026-04-24T16:25:48.387Z</time></trkpt><trkpt lat="41.0217483" lon="14.3248217"><ele>27.0</ele><time>2026-04-24T16:25:49.386Z</time></trkpt><trkpt lat="41.0216533" lon="14.3248217"><ele>27.000000000000004</ele><time>2026-04-24T16:25:50.386Z</time></trkpt><trkpt lat="41.02156" lon="14.3248233"><ele>27.000000000000004</ele><time>2026-04-24T16:25:51.385Z</time></trkpt><trkpt lat="41.0214667" lon="14.3248217"><ele>27.0</ele><time>2026-04-24T16:25:52.386Z</time></trkpt><trkpt lat="41.0213767" lon="14.324825"><ele>27.0</ele><time>2026-04-24T16:25:53.385Z</time></trkpt><trkpt lat="41.0212817" lon="14.3248233"><ele>26.8</ele><time>2026-04-24T16:25:54.384Z</time></trkpt><trkpt lat="41.0211883" lon="14.3248217"><ele>26.6</ele><time>2026-04-24T16:25:55.387Z</time></trkpt><trkpt lat="41.021095" lon="14.3248267"><ele>26.400000000000002</ele><time>2026-04-24T16:25:56.387Z</time></trkpt><trkpt lat="41.0210033" lon="14.3248267"><ele>26.200000000000003</ele><time>2026-04-24T16:25:57.386Z</time></trkpt><trkpt lat="41.0209133" lon="14.3248267"><ele>26.0</ele><time>2026-04-24T16:25:58.386Z</time></trkpt><trkpt lat="41.0208217" lon="14.3248267"><ele>25.8</ele><time>2026-04-24T16:25:59.386Z</time></trkpt><trkpt lat="41.02073" lon="14.3248317"><ele>25.6</ele><time>2026-04-24T16:26:00.386Z</time></trkpt><trkpt lat="41.0206367" lon="14.324835"><ele>25.4</ele><time>2026-04-24T16:26:01.386Z</time></trkpt><trkpt lat="41.020545" lon="14.3248333"><ele>25.2</ele><time>2026-04-24T16:26:02.386Z</time></trkpt><trkpt lat="41.020455" lon="14.324835"><ele>25.0</ele><time>2026-04-24T16:26:03.39Z</time></trkpt><trkpt lat="41.02036" lon="14.3248383"><ele>25.0</ele><time>2026-04-24T16:26:04.389Z</time></trkpt><trkpt lat="41.0202667" lon="14.3248367"><ele>25.0</ele><time>2026-04-24T16:26:05.384Z</time></trkpt><trkpt lat="41.02017" lon="14.3248367"><ele>25.0</ele><time>2026-04-24T16:26:06.384Z</time></trkpt><trkpt lat="41.020075" lon="14.3248333"><ele>25.0</ele><time>2026-04-24T16:26:07.391Z</time></trkpt><trkpt lat="41.01998" lon="14.32484"><ele>25.0</ele><time>2026-04-24T16:26:08.388Z</time></trkpt><trkpt lat="41.0198783" lon="14.324845"><ele>24.6</ele><time>2026-04-24T16:26:09.383Z</time></trkpt><trkpt lat="41.0197767" lon="14.32485"><ele>24.2</ele><time>2026-04-24T16:26:10.382Z</time></trkpt><trkpt lat="41.0196767" lon="14.3248533"><ele>23.799999999999997</ele><time>2026-04-24T16:26:11.384Z</time></trkpt><trkpt lat="41.0195717" lon="14.3248533"><ele>23.4</ele><time>2026-04-24T16:26:12.386Z</time></trkpt><trkpt lat="41.01947" lon="14.324855"><ele>23.0</ele><time>2026-04-24T16:26:13.384Z</time></trkpt><trkpt lat="41.0193683" lon="14.3248567"><ele>23.0</ele><time>2026-04-24T16:26:14.383Z</time></trkpt><trkpt lat="41.0192633" lon="14.32486"><ele>23.0</ele><time>2026-04-24T16:26:15.386Z</time></trkpt><trkpt lat="41.0191583" lon="14.3248633"><ele>23.0</ele><time>2026-04-24T16:26:16.384Z</time></trkpt><trkpt lat="41.019055" lon="14.32486"><ele>23.0</ele><time>2026-04-24T16:26:17.386Z</time></trkpt><trkpt lat="41.0189517" lon="14.32486"><ele>23.0</ele><time>2026-04-24T16:26:18.385Z</time></trkpt><trkpt lat="41.0188483" lon="14.3248567"><ele>23.2</ele><time>2026-04-24T16:26:19.387Z</time></trkpt><trkpt lat="41.0187483" lon="14.32485"><ele>23.4</ele><time>2026-04-24T16:26:20.387Z</time></trkpt><trkpt lat="41.0186533" lon="14.3248467"><ele>23.599999999999998</ele><time>2026-04-24T16:26:21.385Z</time></trkpt><trkpt lat="41.0185567" lon="14.3248467"><ele>23.799999999999997</ele><time>2026-04-24T16:26:22.385Z</time></trkpt><trkpt lat="41.0184633" lon="14.3248483"><ele>24.0</ele><time>2026-04-24T16:26:23.387Z</time></trkpt><trkpt lat="41.0183717" lon="14.3248533"><ele>23.799999999999997</ele><time>2026-04-24T16:26:24.387Z</time></trkpt><trkpt lat="41.0182767" lon="14.3248567"><ele>23.599999999999998</ele><time>2026-04-24T16:26:25.386Z</time></trkpt><trkpt lat="41.0181833" lon="14.32486"><ele>23.4</ele><time>2026-04-24T16:26:26.384Z</time></trkpt><trkpt lat="41.0180917" lon="14.3248667"><ele>23.2</ele><time>2026-04-24T16:26:27.385Z</time></trkpt><trkpt lat="41.018" lon="14.3248633"><ele>23.0</ele><time>2026-04-24T16:26:28.387Z</time></trkpt><trkpt lat="41.01791" lon="14.324865"><ele>23.0</ele><time>2026-04-24T16:26:29.383Z</time></trkpt><trkpt lat="41.0178217" lon="14.3248667"><ele>23.0</ele><time>2026-04-24T16:26:30.388Z</time></trkpt><trkpt lat="41.0177317" lon="14.324865"><ele>23.0</ele><time>2026-04-24T16:26:31.386Z</time></trkpt><trkpt lat="41.017645" lon="14.3248633"><ele>23.0</ele><time>2026-04-24T16:26:32.386Z</time></trkpt><trkpt lat="41.0175567" lon="14.32487"><ele>23.0</ele><time>2026-04-24T16:26:33.384Z</time></trkpt><trkpt lat="41.0174683" lon="14.3248833"><ele>23.0</ele><time>2026-04-24T16:26:34.387Z</time></trkpt><trkpt lat="41.0173783" lon="14.3248933"><ele>23.599999999999998</ele><time>2026-04-24T16:26:35.387Z</time></trkpt><trkpt lat="41.01729" lon="14.3249083"><ele>24.2</ele><time>2026-04-24T16:26:36.384Z</time></trkpt><trkpt lat="41.0171967" lon="14.3249217"><ele>24.8</ele><time>2026-04-24T16:26:37.387Z</time></trkpt><trkpt lat="41.0171017" lon="14.3249267"><ele>25.4</ele><time>2026-04-24T16:26:38.387Z</time></trkpt><trkpt lat="41.0170033" lon="14.32493"><ele>26.0</ele><time>2026-04-24T16:26:39.383Z</time></trkpt><trkpt lat="41.0169033" lon="14.3249333"><ele>26.0</ele><time>2026-04-24T16:26:40.387Z</time></trkpt><trkpt lat="41.016805" lon="14.324935"><ele>26.0</ele><time>2026-04-24T16:26:41.387Z</time></trkpt><trkpt lat="41.016705" lon="14.324935"><ele>26.0</ele><time>2026-04-24T16:26:42.387Z</time></trkpt><trkpt lat="41.0166033" lon="14.32493"><ele>26.0</ele><time>2026-04-24T16:26:43.387Z</time></trkpt><trkpt lat="41.0165033" lon="14.3249217"><ele>26.0</ele><time>2026-04-24T16:26:44.388Z</time></trkpt><trkpt lat="41.0164067" lon="14.3249167"><ele>25.6</ele><time>2026-04-24T16:26:45.386Z</time></trkpt><trkpt lat="41.0163083" lon="14.3249133"><ele>25.200000000000003</ele><time>2026-04-24T16:26:46.386Z</time></trkpt><trkpt lat="41.0162117" lon="14.32491"><ele>24.799999999999997</ele><time>2026-04-24T16:26:47.385Z</time></trkpt><trkpt lat="41.0161167" lon="14.3249083"><ele>24.4</ele><time>2026-04-24T16:26:48.385Z</time></trkpt><trkpt lat="41.0160217" lon="14.3249083"><ele>24.0</ele><time>2026-04-24T16:26:49.387Z</time></trkpt><trkpt lat="41.0159283" lon="14.32491"><ele>24.0</ele><time>2026-04-24T16:26:50.388Z</time></trkpt><trkpt lat="41.015835" lon="14.3249117"><ele>24.0</ele><time>2026-04-24T16:26:51.387Z</time></trkpt><trkpt lat="41.0157417" lon="14.32491"><ele>24.0</ele><time>2026-04-24T16:26:52.384Z</time></trkpt><trkpt lat="41.01565" lon="14.3249067"><ele>24.0</ele><time>2026-04-24T16:26:53.384Z</time></trkpt><trkpt lat="41.0155567" lon="14.3248933"><ele>24.0</ele><time>2026-04-24T16:26:54.388Z</time></trkpt><trkpt lat="41.0154667" lon="14.32488"><ele>24.0</ele><time>2026-04-24T16:26:55.387Z</time></trkpt><trkpt lat="41.01538" lon="14.32487"><ele>24.0</ele><time>2026-04-24T16:26:56.385Z</time></trkpt><trkpt lat="41.0152967" lon="14.324865"><ele>24.0</ele><time>2026-04-24T16:26:57.385Z</time></trkpt><trkpt lat="41.0152167" lon="14.324855"><ele>24.0</ele><time>2026-04-24T16:26:58.384Z</time></trkpt><trkpt lat="41.0151367" lon="14.3248433"><ele>24.0</ele><time>2026-04-24T16:26:59.385Z</time></trkpt><trkpt lat="41.0150567" lon="14.3248233"><ele>24.0</ele><time>2026-04-24T16:27:00.385Z</time></trkpt><trkpt lat="41.0149783" lon="14.324795"><ele>24.166666666666668</ele><time>2026-04-24T16:27:01.386Z</time></trkpt><trkpt lat="41.0149017" lon="14.3247667"><ele>24.333333333333336</ele><time>2026-04-24T16:27:02.386Z</time></trkpt><trkpt lat="41.0148183" lon="14.32474"><ele>24.5</ele><time>2026-04-24T16:27:03.384Z</time></trkpt><trkpt lat="41.0147333" lon="14.32471"><ele>24.666666666666668</ele><time>2026-04-24T16:27:04.384Z</time></trkpt><trkpt lat="41.0146483" lon="14.3246717"><ele>24.833333333333336</ele><time>2026-04-24T16:27:05.385Z</time></trkpt><trkpt lat="41.014565" lon="14.324625"><ele>25.0</ele><time>2026-04-24T16:27:06.384Z</time></trkpt><trkpt lat="41.01448" lon="14.3245783"><ele>25.000000000000004</ele><time>2026-04-24T16:27:07.385Z</time></trkpt><trkpt lat="41.0144" lon="14.32453"><ele>25.0</ele><time>2026-04-24T16:27:08.386Z</time></trkpt><trkpt lat="41.0143167" lon="14.32447"><ele>25.0</ele><time>2026-04-24T16:27:09.384Z</time></trkpt><trkpt lat="41.0142383" lon="14.3244217"><ele>25.0</ele><time>2026-04-24T16:27:10.385Z</time></trkpt><trkpt lat="41.0141633" lon="14.3243767"><ele>25.000000000000004</ele><time>2026-04-24T16:27:11.385Z</time></trkpt><trkpt lat="41.0140867" lon="14.3243267"><ele>25.0</ele><time>2026-04-24T16:27:12.385Z</time></trkpt><trkpt lat="41.01401" lon="14.3242767"><ele>25.000000000000004</ele><time>2026-04-24T16:27:13.386Z</time></trkpt><trkpt lat="41.01393" lon="14.3242217"><ele>25.0</ele><time>2026-04-24T16:27:14.386Z</time></trkpt><trkpt lat="41.01385" lon="14.3241683"><ele>25.0</ele><time>2026-04-24T16:27:15.387Z</time></trkpt><trkpt lat="41.0137733" lon="14.3241133"><ele>25.0</ele><time>2026-04-24T16:27:16.387Z</time></trkpt><trkpt lat="41.0136963" lon="14.3240597"><ele>25.000000000000004</ele><time>2026-04-24T16:27:17.387Z</time></trkpt><trkpt lat="41.0136199" lon="14.3240013"><ele>25.0</ele><time>2026-04-24T16:27:18.384Z</time></trkpt><trkpt lat="41.0135439" lon="14.3239449"><ele>25.166666666666668</ele><time>2026-04-24T16:27:19.384Z</time></trkpt><trkpt lat="41.0134699" lon="14.323887"><ele>25.333333333333336</ele><time>2026-04-24T16:27:20.384Z</time></trkpt><trkpt lat="41.013394" lon="14.323826"><ele>25.5</ele><time>2026-04-24T16:27:21.386Z</time></trkpt><trkpt lat="41.0133185" lon="14.323763"><ele>25.666666666666664</ele><time>2026-04-24T16:27:22.385Z</time></trkpt><trkpt lat="41.0132443" lon="14.3236967"><ele>25.833333333333332</ele><time>2026-04-24T16:27:23.385Z</time></trkpt><trkpt lat="41.0131735" lon="14.3236273"><ele>26.0</ele><time>2026-04-24T16:27:24.385Z</time></trkpt><trkpt lat="41.0131052" lon="14.3235551"><ele>25.999999999999996</ele><time>2026-04-24T16:27:25.385Z</time></trkpt><trkpt lat="41.0130374" lon="14.3234818"><ele>26.0</ele><time>2026-04-24T16:27:26.386Z</time></trkpt><trkpt lat="41.0129696" lon="14.3234091"><ele>26.0</ele><time>2026-04-24T16:27:27.385Z</time></trkpt><trkpt lat="41.0129084" lon="14.3233387"><ele>26.0</ele><time>2026-04-24T16:27:28.383Z</time></trkpt><trkpt lat="41.0128522" lon="14.3232627"><ele>25.999999999999996</ele><time>2026-04-24T16:27:29.385Z</time></trkpt><trkpt lat="41.0127994" lon="14.3231956"><ele>26.0</ele><time>2026-04-24T16:27:30.386Z</time></trkpt><trkpt lat="41.0127468" lon="14.3231346"><ele>26.0</ele><time>2026-04-24T16:27:31.384Z</time></trkpt><trkpt lat="41.0126896" lon="14.3230731"><ele>26.0</ele><time>2026-04-24T16:27:32.388Z</time></trkpt><trkpt lat="41.0126326" lon="14.3230094"><ele>26.0</ele><time>2026-04-24T16:27:33.387Z</time></trkpt><trkpt lat="41.0125762" lon="14.3229479"><ele>26.0</ele><time>2026-04-24T16:27:34.386Z</time></trkpt><trkpt lat="41.0125196" lon="14.3228846"><ele>26.0</ele><time>2026-04-24T16:27:35.384Z</time></trkpt><trkpt lat="41.0124647" lon="14.3228203"><ele>26.0</ele><time>2026-04-24T16:27:36.385Z</time></trkpt><trkpt lat="41.0124113" lon="14.3227594"><ele>26.0</ele><time>2026-04-24T16:27:37.385Z</time></trkpt><trkpt lat="41.0123577" lon="14.3226982"><ele>25.857142857142858</ele><time>2026-04-24T16:27:38.386Z</time></trkpt><trkpt lat="41.0123057" lon="14.3226352"><ele>25.714285714285715</ele><time>2026-04-24T16:27:39.387Z</time></trkpt><trkpt lat="41.0122544" lon="14.322572"><ele>25.571428571428573</ele><time>2026-04-24T16:27:40.387Z</time></trkpt><trkpt lat="41.0122026" lon="14.3225103"><ele>25.42857142857143</ele><time>2026-04-24T16:27:41.387Z</time></trkpt><trkpt lat="41.0121518" lon="14.3224504"><ele>25.285714285714285</ele><time>2026-04-24T16:27:42.387Z</time></trkpt><trkpt lat="41.0121022" lon="14.3223891"><ele>25.142857142857146</ele><time>2026-04-24T16:27:43.387Z</time></trkpt><trkpt lat="41.0120511" lon="14.3223262"><ele>25.0</ele><time>2026-04-24T16:27:44.388Z</time></trkpt><trkpt lat="41.0119998" lon="14.3222643"><ele>24.714285714285715</ele><time>2026-04-24T16:27:45.387Z</time></trkpt><trkpt lat="41.0119481" lon="14.322205"><ele>24.42857142857143</ele><time>2026-04-24T16:27:46.387Z</time></trkpt><trkpt lat="41.0118971" lon="14.3221442"><ele>24.142857142857146</ele><time>2026-04-24T16:27:47.386Z</time></trkpt><trkpt lat="41.0118433" lon="14.3220853"><ele>23.857142857142858</ele><time>2026-04-24T16:27:48.384Z</time></trkpt><trkpt lat="41.0117892" lon="14.3220234"><ele>23.57142857142857</ele><time>2026-04-24T16:27:49.384Z</time></trkpt><trkpt lat="41.011735" lon="14.3219517"><ele>23.28571428571429</ele><time>2026-04-24T16:27:50.385Z</time></trkpt><trkpt lat="41.0116767" lon="14.3218817"><ele>23.0</ele><time>2026-04-24T16:27:51.384Z</time></trkpt><trkpt lat="41.0116167" lon="14.3218167"><ele>23.0</ele><time>2026-04-24T16:27:52.385Z</time></trkpt><trkpt lat="41.0115567" lon="14.321755"><ele>23.0</ele><time>2026-04-24T16:27:53.384Z</time></trkpt><trkpt lat="41.011495" lon="14.3216933"><ele>23.0</ele><time>2026-04-24T16:27:54.386Z</time></trkpt><trkpt lat="41.011435" lon="14.32163"><ele>23.0</ele><time>2026-04-24T16:27:55.386Z</time></trkpt><trkpt lat="41.011375" lon="14.3215633"><ele>23.0</ele><time>2026-04-24T16:27:56.386Z</time></trkpt><trkpt lat="41.01132" lon="14.3214933"><ele>23.0</ele><time>2026-04-24T16:27:57.386Z</time></trkpt><trkpt lat="41.0112667" lon="14.3214167"><ele>22.833333333333336</ele><time>2026-04-24T16:27:58.384Z</time></trkpt><trkpt lat="41.0112083" lon="14.3213433"><ele>22.666666666666668</ele><time>2026-04-24T16:27:59.388Z</time></trkpt><trkpt lat="41.01115" lon="14.32127"><ele>22.5</ele><time>2026-04-24T16:28:00.387Z</time></trkpt><trkpt lat="41.0110883" lon="14.3212017"><ele>22.333333333333332</ele><time>2026-04-24T16:28:01.386Z</time></trkpt><trkpt lat="41.0110283" lon="14.32113"><ele>22.166666666666664</ele><time>2026-04-24T16:28:02.387Z</time></trkpt><trkpt lat="41.0109667" lon="14.3210583"><ele>22.0</ele><time>2026-04-24T16:28:03.386Z</time></trkpt><trkpt lat="41.0109067" lon="14.3209817"><ele>22.0</ele><time>2026-04-24T16:28:04.387Z</time></trkpt><trkpt lat="41.0108433" lon="14.3209017"><ele>22.0</ele><time>2026-04-24T16:28:05.386Z</time></trkpt><trkpt lat="41.0107783" lon="14.320825"><ele>22.0</ele><time>2026-04-24T16:28:06.387Z</time></trkpt><trkpt lat="41.0107083" lon="14.3207483"><ele>22.0</ele><time>2026-04-24T16:28:07.387Z</time></trkpt><trkpt lat="41.0106333" lon="14.3206767"><ele>22.0</ele><time>2026-04-24T16:28:08.388Z</time></trkpt><trkpt lat="41.0105567" lon="14.3206117"><ele>22.0</ele><time>2026-04-24T16:28:09.387Z</time></trkpt><trkpt lat="41.01048" lon="14.320555"><ele>22.166666666666664</ele><time>2026-04-24T16:28:10.387Z</time></trkpt><trkpt lat="41.0104" lon="14.3205017"><ele>22.333333333333332</ele><time>2026-04-24T16:28:11.386Z</time></trkpt><trkpt lat="41.01032" lon="14.3204483"><ele>22.5</ele><time>2026-04-24T16:28:12.385Z</time></trkpt><trkpt lat="41.0102383" lon="14.3204033"><ele>22.666666666666668</ele><time>2026-04-24T16:28:13.385Z</time></trkpt><trkpt lat="41.01015" lon="14.32037"><ele>22.833333333333336</ele><time>2026-04-24T16:28:14.387Z</time></trkpt><trkpt lat="41.010065" lon="14.32034"><ele>23.0</ele><time>2026-04-24T16:28:15.385Z</time></trkpt><trkpt lat="41.00998" lon="14.3203067"><ele>22.5</ele><time>2026-04-24T16:28:16.383Z</time></trkpt><trkpt lat="41.0098967" lon="14.3202717"><ele>22.0</ele><time>2026-04-24T16:28:17.384Z</time></trkpt><trkpt lat="41.009815" lon="14.3202433"><ele>21.5</ele><time>2026-04-24T16:28:18.386Z</time></trkpt><trkpt lat="41.00973" lon="14.3202133"><ele>21.0</ele><time>2026-04-24T16:28:19.384Z</time></trkpt><trkpt lat="41.0096467" lon="14.320185"><ele>20.5</ele><time>2026-04-24T16:28:20.385Z</time></trkpt><trkpt lat="41.0095683" lon="14.32015"><ele>20.0</ele><time>2026-04-24T16:28:21.383Z</time></trkpt><trkpt lat="41.0094883" lon="14.3201183"><ele>20.0</ele><time>2026-04-24T16:28:22.385Z</time></trkpt><trkpt lat="41.00941" lon="14.3200883"><ele>20.0</ele><time>2026-04-24T16:28:23.385Z</time></trkpt><trkpt lat="41.0093317" lon="14.32006"><ele>20.0</ele><time>2026-04-24T16:28:24.385Z</time></trkpt><trkpt lat="41.009255" lon="14.32003"><ele>20.0</ele><time>2026-04-24T16:28:25.385Z</time></trkpt><trkpt lat="41.009175" lon="14.32"><ele>20.0</ele><time>2026-04-24T16:28:26.386Z</time></trkpt><trkpt lat="41.009095" lon="14.3199717"><ele>20.0</ele><time>2026-04-24T16:28:27.385Z</time></trkpt><trkpt lat="41.0090167" lon="14.3199417"><ele>20.0</ele><time>2026-04-24T16:28:28.386Z</time></trkpt><trkpt lat="41.0089367" lon="14.3199133"><ele>20.0</ele><time>2026-04-24T16:28:29.388Z</time></trkpt><trkpt lat="41.0088567" lon="14.3198833"><ele>20.0</ele><time>2026-04-24T16:28:30.383Z</time></trkpt><trkpt lat="41.008775" lon="14.3198567"><ele>20.0</ele><time>2026-04-24T16:28:31.387Z</time></trkpt><trkpt lat="41.00869" lon="14.3198267"><ele>20.0</ele><time>2026-04-24T16:28:32.388Z</time></trkpt><trkpt lat="41.0086067" lon="14.3197967"><ele>20.0</ele><time>2026-04-24T16:28:33.386Z</time></trkpt><trkpt lat="41.0085217" lon="14.3197617"><ele>20.0</ele><time>2026-04-24T16:28:34.387Z</time></trkpt><trkpt lat="41.008435" lon="14.3197267"><ele>20.0</ele><time>2026-04-24T16:28:35.386Z</time></trkpt><trkpt lat="41.0083467" lon="14.3196967"><ele>20.0</ele><time>2026-04-24T16:28:36.387Z</time></trkpt><trkpt lat="41.008255" lon="14.319665"><ele>20.0</ele><time>2026-04-24T16:28:37.387Z</time></trkpt><trkpt lat="41.0081633" lon="14.319635"><ele>20.0</ele><time>2026-04-24T16:28:38.387Z</time></trkpt><trkpt lat="41.0080717" lon="14.319605"><ele>20.0</ele><time>2026-04-24T16:28:39.386Z</time></trkpt><trkpt lat="41.0079767" lon="14.3195767"><ele>20.0</ele><time>2026-04-24T16:28:40.387Z</time></trkpt><trkpt lat="41.0078817" lon="14.319545"><ele>20.0</ele><time>2026-04-24T16:28:41.386Z</time></trkpt><trkpt lat="41.0077867" lon="14.319515"><ele>20.0</ele><time>2026-04-24T16:28:42.385Z</time></trkpt><trkpt lat="41.0076933" lon="14.3194833"><ele>20.0</ele><time>2026-04-24T16:28:43.387Z</time></trkpt><trkpt lat="41.0076" lon="14.31945"><ele>20.0</ele><time>2026-04-24T16:28:44.385Z</time></trkpt><trkpt lat="41.0075083" lon="14.3194133"><ele>20.0</ele><time>2026-04-24T16:28:45.387Z</time></trkpt><trkpt lat="41.0074167" lon="14.3193817"><ele>20.0</ele><time>2026-04-24T16:28:46.387Z</time></trkpt><trkpt lat="41.0073283" lon="14.31935"><ele>20.0</ele><time>2026-04-24T16:28:47.384Z</time></trkpt><trkpt lat="41.0072417" lon="14.3193183"><ele>20.0</ele><time>2026-04-24T16:28:48.385Z</time></trkpt><trkpt lat="41.0071533" lon="14.3192833"><ele>20.166666666666668</ele><time>2026-04-24T16:28:49.386Z</time></trkpt><trkpt lat="41.007065" lon="14.3192583"><ele>20.333333333333336</ele><time>2026-04-24T16:28:50.386Z</time></trkpt><trkpt lat="41.006975" lon="14.3192317"><ele>20.5</ele><time>2026-04-24T16:28:51.385Z</time></trkpt><trkpt lat="41.00689" lon="14.319205"><ele>20.666666666666668</ele><time>2026-04-24T16:28:52.385Z</time></trkpt><trkpt lat="41.0068083" lon="14.3191767"><ele>20.833333333333332</ele><time>2026-04-24T16:28:53.386Z</time></trkpt><trkpt lat="41.0067267" lon="14.3191467"><ele>21.0</ele><time>2026-04-24T16:28:54.386Z</time></trkpt><trkpt lat="41.0066417" lon="14.3191183"><ele>21.0</ele><time>2026-04-24T16:28:55.383Z</time></trkpt><trkpt lat="41.0065567" lon="14.3190933"><ele>21.0</ele><time>2026-04-24T16:28:56.385Z</time></trkpt><trkpt lat="41.0064717" lon="14.3190617"><ele>21.0</ele><time>2026-04-24T16:28:57.384Z</time></trkpt><trkpt lat="41.0063867" lon="14.3190217"><ele>21.0</ele><time>2026-04-24T16:28:58.386Z</time></trkpt><trkpt lat="41.0063067" lon="14.318975"><ele>21.0</ele><time>2026-04-24T16:28:59.387Z</time></trkpt><trkpt lat="41.0062333" lon="14.31891"><ele>21.0</ele><time>2026-04-24T16:29:00.388Z</time></trkpt><trkpt lat="41.0061683" lon="14.318825"><ele>21.0</ele><time>2026-04-24T16:29:01.387Z</time></trkpt><trkpt lat="41.0061083" lon="14.3187367"><ele>21.0</ele><time>2026-04-24T16:29:02.386Z</time></trkpt><trkpt lat="41.0060467" lon="14.31865"><ele>21.0</ele><time>2026-04-24T16:29:03.386Z</time></trkpt><trkpt lat="41.0059717" lon="14.3185833"><ele>21.0</ele><time>2026-04-24T16:29:04.387Z</time></trkpt><trkpt lat="41.0058883" lon="14.3185433"><ele>21.0</ele><time>2026-04-24T16:29:05.386Z</time></trkpt><trkpt lat="41.0058017" lon="14.31854"><ele>21.0</ele><time>2026-04-24T16:29:06.388Z</time></trkpt><trkpt lat="41.0057233" lon="14.3185733"><ele>20.833333333333332</ele><time>2026-04-24T16:29:07.384Z</time></trkpt><trkpt lat="41.0056517" lon="14.3186283"><ele>20.666666666666668</ele><time>2026-04-24T16:29:08.388Z</time></trkpt><trkpt lat="41.0055817" lon="14.3186867"><ele>20.5</ele><time>2026-04-24T16:29:09.388Z</time></trkpt><trkpt lat="41.005515" lon="14.3187533"><ele>20.333333333333336</ele><time>2026-04-24T16:29:10.387Z</time></trkpt><trkpt lat="41.0054483" lon="14.3188283"><ele>20.166666666666668</ele><time>2026-04-24T16:29:11.384Z</time></trkpt><trkpt lat="41.00538" lon="14.3189017"><ele>20.0</ele><time>2026-04-24T16:29:12.388Z</time></trkpt><trkpt lat="41.00531" lon="14.3189767"><ele>20.4</ele><time>2026-04-24T16:29:13.385Z</time></trkpt><trkpt lat="41.005235" lon="14.3190483"><ele>20.8</ele><time>2026-04-24T16:29:14.387Z</time></trkpt><trkpt lat="41.0051517" lon="14.3191"><ele>21.200000000000003</ele><time>2026-04-24T16:29:15.385Z</time></trkpt><trkpt lat="41.0050633" lon="14.31913"><ele>21.6</ele><time>2026-04-24T16:29:16.387Z</time></trkpt><trkpt lat="41.004975" lon="14.3191317"><ele>22.0</ele><time>2026-04-24T16:29:17.385Z</time></trkpt><trkpt lat="41.00489" lon="14.319115"><ele>22.200000000000003</ele><time>2026-04-24T16:29:18.386Z</time></trkpt><trkpt lat="41.0048017" lon="14.3190767"><ele>22.4</ele><time>2026-04-24T16:29:19.384Z</time></trkpt><trkpt lat="41.0047133" lon="14.3190417"><ele>22.6</ele><time>2026-04-24T16:29:20.386Z</time></trkpt><trkpt lat="41.0046233" lon="14.319015"><ele>22.799999999999997</ele><time>2026-04-24T16:29:21.383Z</time></trkpt><trkpt lat="41.0045317" lon="14.31899"><ele>23.0</ele><time>2026-04-24T16:29:22.383Z</time></trkpt><trkpt lat="41.004435" lon="14.31896"><ele>23.0</ele><time>2026-04-24T16:29:23.386Z</time></trkpt><trkpt lat="41.0043383" lon="14.3189283"><ele>23.0</ele><time>2026-04-24T16:29:24.388Z</time></trkpt><trkpt lat="41.0042467" lon="14.3189017"><ele>23.0</ele><time>2026-04-24T16:29:25.387Z</time></trkpt><trkpt lat="41.0041583" lon="14.3188767"><ele>23.0</ele><time>2026-04-24T16:29:26.387Z</time></trkpt><trkpt lat="41.00407" lon="14.3188583"><ele>23.0</ele><time>2026-04-24T16:29:27.387Z</time></trkpt><trkpt lat="41.003985" lon="14.318845"><ele>22.333333333333336</ele><time>2026-04-24T16:29:28.385Z</time></trkpt><trkpt lat="41.0039017" lon="14.31883"><ele>21.666666666666668</ele><time>2026-04-24T16:29:29.386Z</time></trkpt><trkpt lat="41.0038167" lon="14.3188117"><ele>21.0</ele><time>2026-04-24T16:29:30.387Z</time></trkpt><trkpt lat="41.0037333" lon="14.3187967"><ele>20.333333333333332</ele><time>2026-04-24T16:29:31.387Z</time></trkpt><trkpt lat="41.00365" lon="14.318785"><ele>19.666666666666664</ele><time>2026-04-24T16:29:32.388Z</time></trkpt><trkpt lat="41.00357" lon="14.3187717"><ele>19.0</ele><time>2026-04-24T16:29:33.386Z</time></trkpt><trkpt lat="41.0034933" lon="14.3187583"><ele>19.0</ele><time>2026-04-24T16:29:34.385Z</time></trkpt><trkpt lat="41.0034133" lon="14.3187467"><ele>19.0</ele><time>2026-04-24T16:29:35.387Z</time></trkpt><trkpt lat="41.0033333" lon="14.318735"><ele>19.0</ele><time>2026-04-24T16:29:36.386Z</time></trkpt><trkpt lat="41.0032533" lon="14.3187283"><ele>19.0</ele><time>2026-04-24T16:29:37.387Z</time></trkpt><trkpt lat="41.0031767" lon="14.3187183"><ele>19.0</ele><time>2026-04-24T16:29:38.387Z</time></trkpt><trkpt lat="41.0030983" lon="14.31871"><ele>19.0</ele><time>2026-04-24T16:29:39.387Z</time></trkpt><trkpt lat="41.00302" lon="14.318705"><ele>19.5</ele><time>2026-04-24T16:29:40.387Z</time></trkpt><trkpt lat="41.0029417" lon="14.318695"><ele>20.0</ele><time>2026-04-24T16:29:41.387Z</time></trkpt><trkpt lat="41.0028617" lon="14.318685"><ele>20.5</ele><time>2026-04-24T16:29:42.385Z</time></trkpt><trkpt lat="41.002785" lon="14.3186783"><ele>21.0</ele><time>2026-04-24T16:29:43.387Z</time></trkpt><trkpt lat="41.0027033" lon="14.318675"><ele>21.5</ele><time>2026-04-24T16:29:44.386Z</time></trkpt><trkpt lat="41.0026233" lon="14.3186683"><ele>22.0</ele><time>2026-04-24T16:29:45.386Z</time></trkpt><trkpt lat="41.0025417" lon="14.31866"><ele>21.833333333333332</ele><time>2026-04-24T16:29:46.384Z</time></trkpt><trkpt lat="41.00246" lon="14.3186567"><ele>21.666666666666664</ele><time>2026-04-24T16:29:47.382Z</time></trkpt><trkpt lat="41.00238" lon="14.3186633"><ele>21.5</ele><time>2026-04-24T16:29:48.385Z</time></trkpt><trkpt lat="41.0023017" lon="14.3186767"><ele>21.333333333333332</ele><time>2026-04-24T16:29:49.385Z</time></trkpt><trkpt lat="41.002225" lon="14.3187"><ele>21.166666666666668</ele><time>2026-04-24T16:29:50.386Z</time></trkpt><trkpt lat="41.00215" lon="14.3187283"><ele>21.0</ele><time>2026-04-24T16:29:51.386Z</time></trkpt><trkpt lat="41.00208" lon="14.3187567"><ele>21.0</ele><time>2026-04-24T16:29:52.383Z</time></trkpt><trkpt lat="41.002005" lon="14.3187667"><ele>21.0</ele><time>2026-04-24T16:29:53.384Z</time></trkpt><trkpt lat="41.0019317" lon="14.318755"><ele>21.0</ele><time>2026-04-24T16:29:54.386Z</time></trkpt><trkpt lat="41.0018583" lon="14.3187233"><ele>21.0</ele><time>2026-04-24T16:29:55.387Z</time></trkpt><trkpt lat="41.0017833" lon="14.318695"><ele>21.0</ele><time>2026-04-24T16:29:56.388Z</time></trkpt><trkpt lat="41.0017033" lon="14.3186833"><ele>21.0</ele><time>2026-04-24T16:29:57.387Z</time></trkpt><trkpt lat="41.00162" lon="14.3186833"><ele>21.0</ele><time>2026-04-24T16:29:58.383Z</time></trkpt><trkpt lat="41.00154" lon="14.318685"><ele>21.0</ele><time>2026-04-24T16:29:59.385Z</time></trkpt><trkpt lat="41.00146" lon="14.3186683"><ele>21.0</ele><time>2026-04-24T16:30:00.385Z</time></trkpt><trkpt lat="41.001385" lon="14.3186333"><ele>21.0</ele><time>2026-04-24T16:30:01.384Z</time></trkpt><trkpt lat="41.00131" lon="14.3185867"><ele>21.0</ele><time>2026-04-24T16:30:02.386Z</time></trkpt><trkpt lat="41.0012367" lon="14.3185417"><ele>21.0</ele><time>2026-04-24T16:30:03.384Z</time></trkpt><trkpt lat="41.0011583" lon="14.31851"><ele>21.0</ele><time>2026-04-24T16:30:04.385Z</time></trkpt><trkpt lat="41.00108" lon="14.318495"><ele>21.0</ele><time>2026-04-24T16:30:05.386Z</time></trkpt><trkpt lat="41.0010017" lon="14.31849"><ele>21.0</ele><time>2026-04-24T16:30:06.384Z</time></trkpt><trkpt lat="41.000925" lon="14.318485"><ele>21.0</ele><time>2026-04-24T16:30:07.385Z</time></trkpt><trkpt lat="41.0008517" lon="14.3184717"><ele>21.0</ele><time>2026-04-24T16:30:08.384Z</time></trkpt><trkpt lat="41.0007783" lon="14.3184583"><ele>21.0</ele><time>2026-04-24T16:30:09.385Z</time></trkpt><trkpt lat="41.000705" lon="14.318445"><ele>21.0</ele><time>2026-04-24T16:30:10.385Z</time></trkpt><trkpt lat="41.000635" lon="14.3184333"><ele>21.0</ele><time>2026-04-24T16:30:11.387Z</time></trkpt><trkpt lat="41.00056" lon="14.3184217"><ele>21.0</ele><time>2026-04-24T16:30:12.387Z</time></trkpt><trkpt lat="41.0004883" lon="14.3184133"><ele>21.0</ele><time>2026-04-24T16:30:13.384Z</time></trkpt><trkpt lat="41.0004133" lon="14.3184083"><ele>21.0</ele><time>2026-04-24T16:30:14.387Z</time></trkpt><trkpt lat="41.0003367" lon="14.3183983"><ele>21.0</ele><time>2026-04-24T16:30:15.385Z</time></trkpt><trkpt lat="41.00026" lon="14.3183883"><ele>21.0</ele><time>2026-04-24T16:30:16.385Z</time></trkpt><trkpt lat="41.0001833" lon="14.31838"><ele>21.0</ele><time>2026-04-24T16:30:17.387Z</time></trkpt><trkpt lat="41.0001067" lon="14.3183717"><ele>21.0</ele><time>2026-04-24T16:30:18.388Z</time></trkpt><trkpt lat="41.000025" lon="14.318365"><ele>21.0</ele><time>2026-04-24T16:30:19.386Z</time></trkpt><trkpt lat="40.999945" lon="14.3183533"><ele>21.0</ele><time>2026-04-24T16:30:20.386Z</time></trkpt><trkpt lat="40.9998633" lon="14.3183433"><ele>21.0</ele><time>2026-04-24T16:30:21.386Z</time></trkpt><trkpt lat="40.999785" lon="14.3183333"><ele>21.0</ele><time>2026-04-24T16:30:22.387Z</time></trkpt><trkpt lat="40.999705" lon="14.3183217"><ele>21.0</ele><time>2026-04-24T16:30:23.385Z</time></trkpt><trkpt lat="40.999625" lon="14.3183133"><ele>21.0</ele><time>2026-04-24T16:30:24.385Z</time></trkpt><trkpt lat="40.9995467" lon="14.3183083"><ele>21.0</ele><time>2026-04-24T16:30:25.387Z</time></trkpt><trkpt lat="40.9994683" lon="14.3182983"><ele>21.0</ele><time>2026-04-24T16:30:26.386Z</time></trkpt><trkpt lat="40.99939" lon="14.31829"><ele>21.0</ele><time>2026-04-24T16:30:27.387Z</time></trkpt><trkpt lat="40.999315" lon="14.3182817"><ele>21.0</ele><time>2026-04-24T16:30:28.385Z</time></trkpt><trkpt lat="40.9992417" lon="14.318275"><ele>21.0</ele><time>2026-04-24T16:30:29.383Z</time></trkpt><trkpt lat="40.9991683" lon="14.3182683"><ele>21.0</ele><time>2026-04-24T16:30:30.385Z</time></trkpt><trkpt lat="40.9990983" lon="14.3182633"><ele>21.0</ele><time>2026-04-24T16:30:31.385Z</time></trkpt><trkpt lat="40.999025" lon="14.3182617"><ele>21.0</ele><time>2026-04-24T16:30:32.384Z</time></trkpt><trkpt lat="40.9989567" lon="14.3182617"><ele>21.0</ele><time>2026-04-24T16:30:33.384Z</time></trkpt><trkpt lat="40.9988883" lon="14.3182617"><ele>21.0</ele><time>2026-04-24T16:30:34.385Z</time></trkpt><trkpt lat="40.9988217" lon="14.318255"><ele>21.0</ele><time>2026-04-24T16:30:35.385Z</time></trkpt><trkpt lat="40.9987533" lon="14.3182483"><ele>21.0</ele><time>2026-04-24T16:30:36.384Z</time></trkpt><trkpt lat="40.99868" lon="14.31824"><ele>21.0</ele><time>2026-04-24T16:30:37.384Z</time></trkpt><trkpt lat="40.9986117" lon="14.3182333"><ele>21.0</ele><time>2026-04-24T16:30:38.386Z</time></trkpt><trkpt lat="40.9985433" lon="14.3182217"><ele>21.0</ele><time>2026-04-24T16:30:39.387Z</time></trkpt><trkpt lat="40.998475" lon="14.31821"><ele>21.0</ele><time>2026-04-24T16:30:40.383Z</time></trkpt><trkpt lat="40.9984067" lon="14.3182017"><ele>21.0</ele><time>2026-04-24T16:30:41.384Z</time></trkpt><trkpt lat="40.9983367" lon="14.3181933"><ele>21.0</ele><time>2026-04-24T16:30:42.386Z</time></trkpt><trkpt lat="40.9982667" lon="14.3181883"><ele>20.857142857142858</ele><time>2026-04-24T16:30:43.385Z</time></trkpt><trkpt lat="40.9981967" lon="14.31818"><ele>20.714285714285715</ele><time>2026-04-24T16:30:44.387Z</time></trkpt><trkpt lat="40.998125" lon="14.3181717"><ele>20.57142857142857</ele><time>2026-04-24T16:30:45.387Z</time></trkpt><trkpt lat="40.9980517" lon="14.3181617"><ele>20.42857142857143</ele><time>2026-04-24T16:30:46.385Z</time></trkpt><trkpt lat="40.9979783" lon="14.3181517"><ele>20.285714285714285</ele><time>2026-04-24T16:30:47.385Z</time></trkpt><trkpt lat="40.9979017" lon="14.3181433"><ele>20.142857142857142</ele><time>2026-04-24T16:30:48.385Z</time></trkpt><trkpt lat="40.9978283" lon="14.3181367"><ele>20.0</ele><time>2026-04-24T16:30:49.385Z</time></trkpt><trkpt lat="40.997755" lon="14.31813"><ele>20.0</ele><time>2026-04-24T16:30:50.386Z</time></trkpt><trkpt lat="40.99768" lon="14.3181233"><ele>20.0</ele><time>2026-04-24T16:30:51.385Z</time></trkpt><trkpt lat="40.9976017" lon="14.3181133"><ele>20.0</ele><time>2026-04-24T16:30:52.385Z</time></trkpt><trkpt lat="40.9975233" lon="14.3181033"><ele>20.0</ele><time>2026-04-24T16:30:53.388Z</time></trkpt><trkpt lat="40.997445" lon="14.3180967"><ele>20.0</ele><time>2026-04-24T16:30:54.386Z</time></trkpt><trkpt lat="40.9973683" lon="14.31809"><ele>20.0</ele><time>2026-04-24T16:30:55.386Z</time></trkpt><trkpt lat="40.9972917" lon="14.31808"><ele>20.166666666666668</ele><time>2026-04-24T16:30:56.387Z</time></trkpt><trkpt lat="40.9972133" lon="14.3180683"><ele>20.333333333333336</ele><time>2026-04-24T16:30:57.385Z</time></trkpt><trkpt lat="40.9971333" lon="14.31806"><ele>20.5</ele><time>2026-04-24T16:30:58.386Z</time></trkpt><trkpt lat="40.9970517" lon="14.3180517"><ele>20.666666666666668</ele><time>2026-04-24T16:30:59.386Z</time></trkpt><trkpt lat="40.9969683" lon="14.3180467"><ele>20.833333333333332</ele><time>2026-04-24T16:31:00.387Z</time></trkpt><trkpt lat="40.996885" lon="14.3180367"><ele>21.0</ele><time>2026-04-24T16:31:01.387Z</time></trkpt><trkpt lat="40.9968033" lon="14.3180267"><ele>20.833333333333332</ele><time>2026-04-24T16:31:02.388Z</time></trkpt><trkpt lat="40.9967233" lon="14.3180183"><ele>20.666666666666668</ele><time>2026-04-24T16:31:03.386Z</time></trkpt><trkpt lat="40.9966417" lon="14.31801"><ele>20.5</ele><time>2026-04-24T16:31:04.392Z</time></trkpt><trkpt lat="40.9965617" lon="14.318005"><ele>20.333333333333336</ele><time>2026-04-24T16:31:05.384Z</time></trkpt><trkpt lat="40.99648" lon="14.3179983"><ele>20.166666666666668</ele><time>2026-04-24T16:31:06.387Z</time></trkpt><trkpt lat="40.9964" lon="14.3179917"><ele>20.0</ele><time>2026-04-24T16:31:07.387Z</time></trkpt><trkpt lat="40.9963183" lon="14.317985"><ele>20.0</ele><time>2026-04-24T16:31:08.387Z</time></trkpt><trkpt lat="40.9962367" lon="14.3179783"><ele>20.0</ele><time>2026-04-24T16:31:09.385Z</time></trkpt><trkpt lat="40.9961517" lon="14.31797"><ele>20.0</ele><time>2026-04-24T16:31:10.385Z</time></trkpt><trkpt lat="40.9960683" lon="14.3179567"><ele>20.0</ele><time>2026-04-24T16:31:11.386Z</time></trkpt><trkpt lat="40.9959833" lon="14.3179433"><ele>20.0</ele><time>2026-04-24T16:31:12.387Z</time></trkpt><trkpt lat="40.9959017" lon="14.3179333"><ele>20.0</ele><time>2026-04-24T16:31:13.385Z</time></trkpt><trkpt lat="40.99582" lon="14.3179267"><ele>19.833333333333336</ele><time>2026-04-24T16:31:14.384Z</time></trkpt><trkpt lat="40.9957383" lon="14.31792"><ele>19.666666666666668</ele><time>2026-04-24T16:31:15.386Z</time></trkpt><trkpt lat="40.9956567" lon="14.3179183"><ele>19.5</ele><time>2026-04-24T16:31:16.387Z</time></trkpt><trkpt lat="40.9955767" lon="14.3179117"><ele>19.333333333333332</ele><time>2026-04-24T16:31:17.387Z</time></trkpt><trkpt lat="40.995495" lon="14.3179033"><ele>19.166666666666664</ele><time>2026-04-24T16:31:18.387Z</time></trkpt><trkpt lat="40.9954133" lon="14.3178983"><ele>19.0</ele><time>2026-04-24T16:31:19.385Z</time></trkpt><trkpt lat="40.99533" lon="14.3178933"><ele>19.0</ele><time>2026-04-24T16:31:20.387Z</time></trkpt><trkpt lat="40.99525" lon="14.3178867"><ele>19.0</ele><time>2026-04-24T16:31:21.387Z</time></trkpt><trkpt lat="40.9951683" lon="14.317875"><ele>19.0</ele><time>2026-04-24T16:31:22.387Z</time></trkpt><trkpt lat="40.995085" lon="14.317865"><ele>19.0</ele><time>2026-04-24T16:31:23.388Z</time></trkpt><trkpt lat="40.9950033" lon="14.3178533"><ele>19.0</ele><time>2026-04-24T16:31:24.386Z</time></trkpt><trkpt lat="40.9949183" lon="14.3178467"><ele>19.0</ele><time>2026-04-24T16:31:25.386Z</time></trkpt><trkpt lat="40.994835" lon="14.3178367"><ele>19.0</ele><time>2026-04-24T16:31:26.387Z</time></trkpt><trkpt lat="40.99475" lon="14.3178267"><ele>19.0</ele><time>2026-04-24T16:31:27.388Z</time></trkpt><trkpt lat="40.994665" lon="14.31782"><ele>19.0</ele><time>2026-04-24T16:31:28.387Z</time></trkpt><trkpt lat="40.9945817" lon="14.31781"><ele>19.0</ele><time>2026-04-24T16:31:29.387Z</time></trkpt><trkpt lat="40.994495" lon="14.3177967"><ele>19.0</ele><time>2026-04-24T16:31:30.387Z</time></trkpt><trkpt lat="40.9944117" lon="14.3177883"><ele>19.0</ele><time>2026-04-24T16:31:31.387Z</time></trkpt><trkpt lat="40.994325" lon="14.3177833"><ele>19.0</ele><time>2026-04-24T16:31:32.387Z</time></trkpt><trkpt lat="40.9942383" lon="14.3177783"><ele>19.0</ele><time>2026-04-24T16:31:33.385Z</time></trkpt><trkpt lat="40.994155" lon="14.31777"><ele>19.0</ele><time>2026-04-24T16:31:34.383Z</time></trkpt><trkpt lat="40.99407" lon="14.3177617"><ele>19.0</ele><time>2026-04-24T16:31:35.386Z</time></trkpt><trkpt lat="40.9939833" lon="14.3177517"><ele>19.0</ele><time>2026-04-24T16:31:36.384Z</time></trkpt><trkpt lat="40.993895" lon="14.31774"><ele>19.0</ele><time>2026-04-24T16:31:37.387Z</time></trkpt><trkpt lat="40.9938083" lon="14.31773"><ele>19.0</ele><time>2026-04-24T16:31:38.386Z</time></trkpt><trkpt lat="40.99372" lon="14.31772"><ele>19.0</ele><time>2026-04-24T16:31:39.384Z</time></trkpt><trkpt lat="40.9936333" lon="14.3177067"><ele>19.0</ele><time>2026-04-24T16:31:40.387Z</time></trkpt><trkpt lat="40.9935483" lon="14.3177017"><ele>19.0</ele><time>2026-04-24T16:31:41.386Z</time></trkpt><trkpt lat="40.9934617" lon="14.3176967"><ele>19.0</ele><time>2026-04-24T16:31:42.387Z</time></trkpt><trkpt lat="40.993375" lon="14.317685"><ele>19.0</ele><time>2026-04-24T16:31:43.386Z</time></trkpt><trkpt lat="40.99329" lon="14.3176683"><ele>19.0</ele><time>2026-04-24T16:31:44.387Z</time></trkpt><trkpt lat="40.9932033" lon="14.3176467"><ele>19.0</ele><time>2026-04-24T16:31:45.384Z</time></trkpt><trkpt lat="40.9931183" lon="14.317625"><ele>19.0</ele><time>2026-04-24T16:31:46.387Z</time></trkpt><trkpt lat="40.9930367" lon="14.3176033"><ele>19.0</ele><time>2026-04-24T16:31:47.386Z</time></trkpt><trkpt lat="40.9929583" lon="14.3175733"><ele>19.0</ele><time>2026-04-24T16:31:48.386Z</time></trkpt><trkpt lat="40.99288" lon="14.3175383"><ele>19.0</ele><time>2026-04-24T16:31:49.386Z</time></trkpt><trkpt lat="40.992805" lon="14.317495"><ele>19.0</ele><time>2026-04-24T16:31:50.387Z</time></trkpt><trkpt lat="40.99273" lon="14.3174483"><ele>19.0</ele><time>2026-04-24T16:31:51.385Z</time></trkpt><trkpt lat="40.992655" lon="14.3173967"><ele>19.0</ele><time>2026-04-24T16:31:52.387Z</time></trkpt><trkpt lat="40.9925817" lon="14.3173433"><ele>19.0</ele><time>2026-04-24T16:31:53.387Z</time></trkpt><trkpt lat="40.99251" lon="14.3172833"><ele>19.0</ele><time>2026-04-24T16:31:54.387Z</time></trkpt><trkpt lat="40.9924433" lon="14.3172233"><ele>19.0</ele><time>2026-04-24T16:31:55.387Z</time></trkpt><trkpt lat="40.9923767" lon="14.3171633"><ele>19.166666666666664</ele><time>2026-04-24T16:31:56.387Z</time></trkpt><trkpt lat="40.9923083" lon="14.3171017"><ele>19.333333333333332</ele><time>2026-04-24T16:31:57.385Z</time></trkpt><trkpt lat="40.9922417" lon="14.3170367"><ele>19.5</ele><time>2026-04-24T16:31:58.387Z</time></trkpt><trkpt lat="40.992175" lon="14.3169717"><ele>19.666666666666668</ele><time>2026-04-24T16:31:59.387Z</time></trkpt><trkpt lat="40.99211" lon="14.3169083"><ele>19.833333333333336</ele><time>2026-04-24T16:32:00.386Z</time></trkpt><trkpt lat="40.9920433" lon="14.31684"><ele>20.0</ele><time>2026-04-24T16:32:01.387Z</time></trkpt><trkpt lat="40.9919767" lon="14.31677"><ele>20.0</ele><time>2026-04-24T16:32:02.389Z</time></trkpt><trkpt lat="40.99191" lon="14.316705"><ele>20.0</ele><time>2026-04-24T16:32:03.384Z</time></trkpt><trkpt lat="40.991845" lon="14.31664"><ele>20.0</ele><time>2026-04-24T16:32:04.387Z</time></trkpt><trkpt lat="40.9917783" lon="14.3165767"><ele>20.0</ele><time>2026-04-24T16:32:05.386Z</time></trkpt><trkpt lat="40.9917117" lon="14.3165133"><ele>20.0</ele><time>2026-04-24T16:32:06.386Z</time></trkpt><trkpt lat="40.9916467" lon="14.3164483"><ele>20.0</ele><time>2026-04-24T16:32:07.383Z</time></trkpt><trkpt lat="40.9915817" lon="14.3163867"><ele>19.833333333333336</ele><time>2026-04-24T16:32:08.387Z</time></trkpt><trkpt lat="40.9915167" lon="14.3163233"><ele>19.666666666666668</ele><time>2026-04-24T16:32:09.383Z</time></trkpt><trkpt lat="40.9914533" lon="14.3162617"><ele>19.5</ele><time>2026-04-24T16:32:10.387Z</time></trkpt><trkpt lat="40.99139" lon="14.3161967"><ele>19.333333333333332</ele><time>2026-04-24T16:32:11.386Z</time></trkpt><trkpt lat="40.99133" lon="14.3161333"><ele>19.166666666666664</ele><time>2026-04-24T16:32:12.387Z</time></trkpt><trkpt lat="40.9912733" lon="14.3160717"><ele>19.0</ele><time>2026-04-24T16:32:13.387Z</time></trkpt><trkpt lat="40.991215" lon="14.31601"><ele>19.0</ele><time>2026-04-24T16:32:14.388Z</time></trkpt><trkpt lat="40.9911583" lon="14.3159467"><ele>19.0</ele><time>2026-04-24T16:32:15.387Z</time></trkpt><trkpt lat="40.9911033" lon="14.31589"><ele>19.0</ele><time>2026-04-24T16:32:16.387Z</time></trkpt><trkpt lat="40.99105" lon="14.3158333"><ele>19.0</ele><time>2026-04-24T16:32:17.386Z</time></trkpt><trkpt lat="40.990995" lon="14.315775"><ele>19.0</ele><time>2026-04-24T16:32:18.386Z</time></trkpt><trkpt lat="40.9909417" lon="14.3157133"><ele>19.0</ele><time>2026-04-24T16:32:19.386Z</time></trkpt><trkpt lat="40.9908867" lon="14.3156567"><ele>19.0</ele><time>2026-04-24T16:32:20.387Z</time></trkpt><trkpt lat="40.9908367" lon="14.3155983"><ele>19.166666666666664</ele><time>2026-04-24T16:32:21.385Z</time></trkpt><trkpt lat="40.9907483" lon="14.3154883"><ele>19.333333333333332</ele><time>2026-04-24T16:32:23.387Z</time></trkpt><trkpt lat="40.9906917" lon="14.3154033"><ele>19.5</ele><time>2026-04-24T16:32:25.387Z</time></trkpt><trkpt lat="40.9906533" lon="14.3153283"><ele>19.666666666666668</ele><time>2026-04-24T16:32:28.384Z</time></trkpt><trkpt lat="40.9905733" lon="14.315305"><ele>19.833333333333336</ele><time>2026-04-24T16:34:12.386Z</time></trkpt><trkpt lat="40.9905183" lon="14.3152633"><ele>20.0</ele><time>2026-04-24T16:34:14.383Z</time></trkpt><trkpt lat="40.9904533" lon="14.3151933"><ele>20.0</ele><time>2026-04-24T16:34:16.383Z</time></trkpt><trkpt lat="40.9903683" lon="14.3151133"><ele>20.0</ele><time>2026-04-24T16:34:18.386Z</time></trkpt><trkpt lat="40.9902717" lon="14.3150167"><ele>20.0</ele><time>2026-04-24T16:34:20.386Z</time></trkpt><trkpt lat="40.9901733" lon="14.31491"><ele>20.0</ele><time>2026-04-24T16:34:22.385Z</time></trkpt><trkpt lat="40.9901233" lon="14.3148517"><ele>20.0</ele><time>2026-04-24T16:34:23.385Z</time></trkpt><trkpt lat="40.99007" lon="14.31479"><ele>19.8</ele><time>2026-04-24T16:34:24.388Z</time></trkpt><trkpt lat="40.99002" lon="14.3147333"><ele>19.6</ele><time>2026-04-24T16:34:25.387Z</time></trkpt><trkpt lat="40.9899683" lon="14.3146783"><ele>19.4</ele><time>2026-04-24T16:34:26.387Z</time></trkpt><trkpt lat="40.989875" lon="14.314575"><ele>19.2</ele><time>2026-04-24T16:34:28.385Z</time></trkpt><trkpt lat="40.9897833" lon="14.3144783"><ele>19.0</ele><time>2026-04-24T16:34:30.385Z</time></trkpt><trkpt lat="40.989695" lon="14.3143867"><ele>19.4</ele><time>2026-04-24T16:34:32.386Z</time></trkpt><trkpt lat="40.9896017" lon="14.3142933"><ele>19.799999999999997</ele><time>2026-04-24T16:34:34.387Z</time></trkpt><trkpt lat="40.9895117" lon="14.3141967"><ele>20.200000000000003</ele><time>2026-04-24T16:34:36.386Z</time></trkpt><trkpt lat="40.9894283" lon="14.314105"><ele>20.6</ele><time>2026-04-24T16:34:38.387Z</time></trkpt><trkpt lat="40.989345" lon="14.314015"><ele>21.0</ele><time>2026-04-24T16:34:40.385Z</time></trkpt><trkpt lat="40.9892567" lon="14.31392"><ele>21.0</ele><time>2026-04-24T16:34:42.384Z</time></trkpt><trkpt lat="40.9891667" lon="14.31382"><ele>21.0</ele><time>2026-04-24T16:34:44.386Z</time></trkpt><trkpt lat="40.9890733" lon="14.3137233"><ele>21.0</ele><time>2026-04-24T16:34:46.386Z</time></trkpt><trkpt lat="40.9889817" lon="14.3136233"><ele>21.0</ele><time>2026-04-24T16:34:48.383Z</time></trkpt><trkpt lat="40.98889" lon="14.313525"><ele>21.0</ele><time>2026-04-24T16:34:50.385Z</time></trkpt><trkpt lat="40.9887933" lon="14.3134183"><ele>21.0</ele><time>2026-04-24T16:34:52.384Z</time></trkpt><trkpt lat="40.988695" lon="14.3133117"><ele>21.0</ele><time>2026-04-24T16:34:54.388Z</time></trkpt><trkpt lat="40.9886417" lon="14.3132633"><ele>21.0</ele><time>2026-04-24T16:34:55.385Z</time></trkpt><trkpt lat="40.9885867" lon="14.3132167"><ele>21.0</ele><time>2026-04-24T16:34:56.386Z</time></trkpt><trkpt lat="40.9885317" lon="14.3131667"><ele>21.0</ele><time>2026-04-24T16:34:57.385Z</time></trkpt><trkpt lat="40.98848" lon="14.3131183"><ele>20.833333333333332</ele><time>2026-04-24T16:34:58.385Z</time></trkpt><trkpt lat="40.98838" lon="14.313025"><ele>20.666666666666668</ele><time>2026-04-24T16:35:00.383Z</time></trkpt><trkpt lat="40.9883267" lon="14.3129783"><ele>20.5</ele><time>2026-04-24T16:35:01.385Z</time></trkpt><trkpt lat="40.98827" lon="14.3129267"><ele>20.333333333333336</ele><time>2026-04-24T16:35:02.388Z</time></trkpt><trkpt lat="40.9882133" lon="14.3128733"><ele>20.166666666666668</ele><time>2026-04-24T16:35:03.387Z</time></trkpt><trkpt lat="40.988155" lon="14.3128183"><ele>20.0</ele><time>2026-04-24T16:35:04.386Z</time></trkpt><trkpt lat="40.9880983" lon="14.3127633"><ele>19.833333333333336</ele><time>2026-04-24T16:35:05.386Z</time></trkpt><trkpt lat="40.9880417" lon="14.312705"><ele>19.666666666666668</ele><time>2026-04-24T16:35:06.386Z</time></trkpt><trkpt lat="40.987985" lon="14.312645"><ele>19.5</ele><time>2026-04-24T16:35:07.386Z</time></trkpt><trkpt lat="40.9879233" lon="14.3125817"><ele>19.333333333333332</ele><time>2026-04-24T16:35:08.385Z</time></trkpt><trkpt lat="40.9878617" lon="14.312525"><ele>19.166666666666664</ele><time>2026-04-24T16:35:09.387Z</time></trkpt><trkpt lat="40.9878" lon="14.3124633"><ele>19.0</ele><time>2026-04-24T16:35:10.386Z</time></trkpt><trkpt lat="40.9877383" lon="14.3124033"><ele>19.0</ele><time>2026-04-24T16:35:11.385Z</time></trkpt><trkpt lat="40.9876767" lon="14.3123467"><ele>19.0</ele><time>2026-04-24T16:35:12.387Z</time></trkpt><trkpt lat="40.9876167" lon="14.3122867"><ele>19.0</ele><time>2026-04-24T16:35:13.387Z</time></trkpt><trkpt lat="40.9875533" lon="14.3122267"><ele>19.0</ele><time>2026-04-24T16:35:14.387Z</time></trkpt><trkpt lat="40.9874917" lon="14.3121683"><ele>19.0</ele><time>2026-04-24T16:35:15.387Z</time></trkpt><trkpt lat="40.9874317" lon="14.3121117"><ele>19.0</ele><time>2026-04-24T16:35:16.387Z</time></trkpt><trkpt lat="40.98737" lon="14.3120533"><ele>19.166666666666664</ele><time>2026-04-24T16:35:17.384Z</time></trkpt><trkpt lat="40.98731" lon="14.3119917"><ele>19.333333333333332</ele><time>2026-04-24T16:35:18.384Z</time></trkpt><trkpt lat="40.98725" lon="14.31193"><ele>19.5</ele><time>2026-04-24T16:35:19.385Z</time></trkpt><trkpt lat="40.9871883" lon="14.3118717"><ele>19.666666666666668</ele><time>2026-04-24T16:35:20.384Z</time></trkpt><trkpt lat="40.9871233" lon="14.31182"><ele>19.833333333333336</ele><time>2026-04-24T16:35:21.385Z</time></trkpt><trkpt lat="40.9870583" lon="14.3117733"><ele>20.0</ele><time>2026-04-24T16:35:22.384Z</time></trkpt><trkpt lat="40.9869883" lon="14.311735"><ele>20.0</ele><time>2026-04-24T16:35:23.384Z</time></trkpt><trkpt lat="40.98692" lon="14.3117033"><ele>20.0</ele><time>2026-04-24T16:35:24.387Z</time></trkpt><trkpt lat="40.9868483" lon="14.3116833"><ele>20.0</ele><time>2026-04-24T16:35:25.384Z</time></trkpt><trkpt lat="40.9867767" lon="14.31167"><ele>20.0</ele><time>2026-04-24T16:35:26.386Z</time></trkpt><trkpt lat="40.9867033" lon="14.3116567"><ele>20.0</ele><time>2026-04-24T16:35:27.385Z</time></trkpt><trkpt lat="40.98663" lon="14.3116433"><ele>20.0</ele><time>2026-04-24T16:35:28.384Z</time></trkpt><trkpt lat="40.986555" lon="14.3116283"><ele>20.0</ele><time>2026-04-24T16:35:29.384Z</time></trkpt><trkpt lat="40.98648" lon="14.3116133"><ele>20.0</ele><time>2026-04-24T16:35:30.386Z</time></trkpt><trkpt lat="40.9864067" lon="14.3116033"><ele>20.0</ele><time>2026-04-24T16:35:31.386Z</time></trkpt><trkpt lat="40.9863283" lon="14.31159"><ele>20.0</ele><time>2026-04-24T16:35:32.388Z</time></trkpt><trkpt lat="40.9862517" lon="14.311575"><ele>20.0</ele><time>2026-04-24T16:35:33.387Z</time></trkpt><trkpt lat="40.9861717" lon="14.3115617"><ele>20.0</ele><time>2026-04-24T16:35:34.387Z</time></trkpt><trkpt lat="40.986095" lon="14.311545"><ele>20.0</ele><time>2026-04-24T16:35:35.386Z</time></trkpt><trkpt lat="40.9860167" lon="14.3115317"><ele>20.0</ele><time>2026-04-24T16:35:36.386Z</time></trkpt><trkpt lat="40.9859367" lon="14.31152"><ele>20.0</ele><time>2026-04-24T16:35:37.387Z</time></trkpt><trkpt lat="40.9858583" lon="14.3115083"><ele>20.0</ele><time>2026-04-24T16:35:38.387Z</time></trkpt><trkpt lat="40.9857783" lon="14.3114967"><ele>20.0</ele><time>2026-04-24T16:35:39.387Z</time></trkpt><trkpt lat="40.9857017" lon="14.3114817"><ele>20.0</ele><time>2026-04-24T16:35:40.385Z</time></trkpt><trkpt lat="40.985625" lon="14.311465"><ele>20.0</ele><time>2026-04-24T16:35:41.385Z</time></trkpt><trkpt lat="40.9855483" lon="14.31145"><ele>20.0</ele><time>2026-04-24T16:35:42.383Z</time></trkpt><trkpt lat="40.9854717" lon="14.3114383"><ele>20.0</ele><time>2026-04-24T16:35:43.385Z</time></trkpt><trkpt lat="40.9853967" lon="14.311435"><ele>20.0</ele><time>2026-04-24T16:35:44.385Z</time></trkpt><trkpt lat="40.9853217" lon="14.3114383"><ele>20.0</ele><time>2026-04-24T16:35:45.384Z</time></trkpt><trkpt lat="40.985245" lon="14.3114433"><ele>20.0</ele><time>2026-04-24T16:35:46.385Z</time></trkpt><trkpt lat="40.9851683" lon="14.3114517"><ele>20.0</ele><time>2026-04-24T16:35:47.384Z</time></trkpt><trkpt lat="40.98509" lon="14.3114717"><ele>20.0</ele><time>2026-04-24T16:35:48.385Z</time></trkpt><trkpt lat="40.9850133" lon="14.3114933"><ele>20.0</ele><time>2026-04-24T16:35:49.382Z</time></trkpt><trkpt lat="40.9849383" lon="14.3115233"><ele>20.0</ele><time>2026-04-24T16:35:50.383Z</time></trkpt><trkpt lat="40.9848633" lon="14.3115617"><ele>20.0</ele><time>2026-04-24T16:35:51.385Z</time></trkpt><trkpt lat="40.9847883" lon="14.3115983"><ele>20.0</ele><time>2026-04-24T16:35:52.383Z</time></trkpt><trkpt lat="40.98471" lon="14.3116383"><ele>20.0</ele><time>2026-04-24T16:35:53.385Z</time></trkpt><trkpt lat="40.9846333" lon="14.31168"><ele>20.0</ele><time>2026-04-24T16:35:54.384Z</time></trkpt><trkpt lat="40.9845567" lon="14.3117183"><ele>20.0</ele><time>2026-04-24T16:35:55.383Z</time></trkpt><trkpt lat="40.98448" lon="14.3117533"><ele>20.0</ele><time>2026-04-24T16:35:56.385Z</time></trkpt><trkpt lat="40.984405" lon="14.311795"><ele>20.0</ele><time>2026-04-24T16:35:57.385Z</time></trkpt><trkpt lat="40.9843283" lon="14.311835"><ele>20.0</ele><time>2026-04-24T16:35:58.382Z</time></trkpt><trkpt lat="40.9842533" lon="14.3118733"><ele>20.0</ele><time>2026-04-24T16:35:59.384Z</time></trkpt><trkpt lat="40.9841767" lon="14.3119133"><ele>20.0</ele><time>2026-04-24T16:36:00.384Z</time></trkpt><trkpt lat="40.9841017" lon="14.311955"><ele>20.0</ele><time>2026-04-24T16:36:01.385Z</time></trkpt><trkpt lat="40.9840283" lon="14.312"><ele>20.0</ele><time>2026-04-24T16:36:02.387Z</time></trkpt><trkpt lat="40.9839517" lon="14.3120383"><ele>20.0</ele><time>2026-04-24T16:36:03.385Z</time></trkpt><trkpt lat="40.9838733" lon="14.3120767"><ele>20.0</ele><time>2026-04-24T16:36:04.382Z</time></trkpt><trkpt lat="40.9838" lon="14.312115"><ele>20.0</ele><time>2026-04-24T16:36:05.383Z</time></trkpt><trkpt lat="40.983725" lon="14.312155"><ele>20.0</ele><time>2026-04-24T16:36:06.387Z</time></trkpt><trkpt lat="40.9836467" lon="14.3121967"><ele>20.0</ele><time>2026-04-24T16:36:07.385Z</time></trkpt><trkpt lat="40.9835717" lon="14.3122367"><ele>20.0</ele><time>2026-04-24T16:36:08.386Z</time></trkpt><trkpt lat="40.983495" lon="14.3122817"><ele>20.0</ele><time>2026-04-24T16:36:09.385Z</time></trkpt><trkpt lat="40.98342" lon="14.3123233"><ele>20.0</ele><time>2026-04-24T16:36:10.385Z</time></trkpt><trkpt lat="40.983345" lon="14.31236"><ele>20.0</ele><time>2026-04-24T16:36:11.384Z</time></trkpt><trkpt lat="40.9832633" lon="14.3123817"><ele>20.0</ele><time>2026-04-24T16:36:12.385Z</time></trkpt><trkpt lat="40.9831833" lon="14.3124033"><ele>20.0</ele><time>2026-04-24T16:36:13.384Z</time></trkpt><trkpt lat="40.9831" lon="14.312425"><ele>20.0</ele><time>2026-04-24T16:36:14.385Z</time></trkpt><trkpt lat="40.9830183" lon="14.31244"><ele>20.0</ele><time>2026-04-24T16:36:15.387Z</time></trkpt><trkpt lat="40.98293" lon="14.3124383"><ele>20.0</ele><time>2026-04-24T16:36:16.386Z</time></trkpt><trkpt lat="40.9828433" lon="14.31244"><ele>20.0</ele><time>2026-04-24T16:36:17.384Z</time></trkpt><trkpt lat="40.9827617" lon="14.3124383"><ele>20.0</ele><time>2026-04-24T16:36:18.386Z</time></trkpt><trkpt lat="40.9826783" lon="14.312435"><ele>20.0</ele><time>2026-04-24T16:36:19.384Z</time></trkpt><trkpt lat="40.982595" lon="14.3124317"><ele>20.0</ele><time>2026-04-24T16:36:20.383Z</time></trkpt><trkpt lat="40.982515" lon="14.3124333"><ele>20.0</ele><time>2026-04-24T16:36:21.385Z</time></trkpt><trkpt lat="40.9824333" lon="14.312435"><ele>20.0</ele><time>2026-04-24T16:36:22.386Z</time></trkpt><trkpt lat="40.98235" lon="14.3124333"><ele>20.0</ele><time>2026-04-24T16:36:23.383Z</time></trkpt><trkpt lat="40.9822667" lon="14.3124367"><ele>20.0</ele><time>2026-04-24T16:36:24.385Z</time></trkpt><trkpt lat="40.9821817" lon="14.312435"><ele>20.0</ele><time>2026-04-24T16:36:25.387Z</time></trkpt><trkpt lat="40.9820983" lon="14.312435"><ele>20.0</ele><time>2026-04-24T16:36:26.385Z</time></trkpt><trkpt lat="40.982015" lon="14.312435"><ele>20.0</ele><time>2026-04-24T16:36:27.386Z</time></trkpt><trkpt lat="40.9819333" lon="14.312435"><ele>20.0</ele><time>2026-04-24T16:36:28.385Z</time></trkpt><trkpt lat="40.9818517" lon="14.3124383"><ele>20.0</ele><time>2026-04-24T16:36:29.386Z</time></trkpt><trkpt lat="40.9817683" lon="14.3124383"><ele>20.0</ele><time>2026-04-24T16:36:30.385Z</time></trkpt><trkpt lat="40.981685" lon="14.3124317"><ele>20.0</ele><time>2026-04-24T16:36:31.386Z</time></trkpt><trkpt lat="40.9816" lon="14.3124217"><ele>20.0</ele><time>2026-04-24T16:36:32.386Z</time></trkpt><trkpt lat="40.9815167" lon="14.312405"><ele>20.0</ele><time>2026-04-24T16:36:33.386Z</time></trkpt><trkpt lat="40.981435" lon="14.3123783"><ele>20.0</ele><time>2026-04-24T16:36:34.383Z</time></trkpt><trkpt lat="40.981355" lon="14.3123467"><ele>20.0</ele><time>2026-04-24T16:36:35.385Z</time></trkpt><trkpt lat="40.9812733" lon="14.31231"><ele>20.166666666666668</ele><time>2026-04-24T16:36:36.387Z</time></trkpt><trkpt lat="40.9811967" lon="14.3122733"><ele>20.333333333333336</ele><time>2026-04-24T16:36:37.384Z</time></trkpt><trkpt lat="40.9811183" lon="14.3122367"><ele>20.5</ele><time>2026-04-24T16:36:38.386Z</time></trkpt><trkpt lat="40.9810417" lon="14.3122"><ele>20.666666666666668</ele><time>2026-04-24T16:36:39.387Z</time></trkpt><trkpt lat="40.9809667" lon="14.3121567"><ele>20.833333333333332</ele><time>2026-04-24T16:36:40.384Z</time></trkpt><trkpt lat="40.9808933" lon="14.312115"><ele>21.0</ele><time>2026-04-24T16:36:41.384Z</time></trkpt><trkpt lat="40.9808133" lon="14.3120683"><ele>21.333333333333332</ele><time>2026-04-24T16:36:42.386Z</time></trkpt><trkpt lat="40.9807383" lon="14.312025"><ele>21.666666666666668</ele><time>2026-04-24T16:36:43.386Z</time></trkpt><trkpt lat="40.9806633" lon="14.3119833"><ele>22.0</ele><time>2026-04-24T16:36:44.387Z</time></trkpt><trkpt lat="40.9805883" lon="14.3119383"><ele>22.333333333333336</ele><time>2026-04-24T16:36:45.387Z</time></trkpt><trkpt lat="40.9805167" lon="14.3118967"><ele>22.666666666666668</ele><time>2026-04-24T16:36:46.387Z</time></trkpt><trkpt lat="40.9804433" lon="14.3118517"><ele>23.0</ele><time>2026-04-24T16:36:47.385Z</time></trkpt><trkpt lat="40.98037" lon="14.3118067"><ele>23.0</ele><time>2026-04-24T16:36:48.383Z</time></trkpt><trkpt lat="40.980295" lon="14.3117533"><ele>23.0</ele><time>2026-04-24T16:36:49.385Z</time></trkpt><trkpt lat="40.980225" lon="14.3117083"><ele>23.0</ele><time>2026-04-24T16:36:50.386Z</time></trkpt><trkpt lat="40.980155" lon="14.3116617"><ele>23.0</ele><time>2026-04-24T16:36:51.385Z</time></trkpt><trkpt lat="40.9800867" lon="14.3116083"><ele>23.0</ele><time>2026-04-24T16:36:52.384Z</time></trkpt><trkpt lat="40.98002" lon="14.3115567"><ele>23.0</ele><time>2026-04-24T16:36:53.384Z</time></trkpt><trkpt lat="40.9799517" lon="14.3114983"><ele>22.666666666666668</ele><time>2026-04-24T16:36:54.386Z</time></trkpt><trkpt lat="40.9798867" lon="14.311445"><ele>22.333333333333336</ele><time>2026-04-24T16:36:55.387Z</time></trkpt><trkpt lat="40.97982" lon="14.311385"><ele>22.0</ele><time>2026-04-24T16:36:56.386Z</time></trkpt><trkpt lat="40.979755" lon="14.31133"><ele>21.666666666666668</ele><time>2026-04-24T16:36:57.387Z</time></trkpt><trkpt lat="40.97969" lon="14.3112717"><ele>21.333333333333332</ele><time>2026-04-24T16:36:58.386Z</time></trkpt><trkpt lat="40.979625" lon="14.3112167"><ele>21.0</ele><time>2026-04-24T16:36:59.387Z</time></trkpt><trkpt lat="40.9795567" lon="14.31116"><ele>21.0</ele><time>2026-04-24T16:37:00.383Z</time></trkpt><trkpt lat="40.9794917" lon="14.3111033"><ele>21.0</ele><time>2026-04-24T16:37:01.384Z</time></trkpt><trkpt lat="40.9794217" lon="14.3110483"><ele>21.0</ele><time>2026-04-24T16:37:02.386Z</time></trkpt><trkpt lat="40.979355" lon="14.3109917"><ele>21.0</ele><time>2026-04-24T16:37:03.387Z</time></trkpt><trkpt lat="40.9792833" lon="14.3109317"><ele>21.0</ele><time>2026-04-24T16:37:04.385Z</time></trkpt><trkpt lat="40.97921" lon="14.3108717"><ele>21.0</ele><time>2026-04-24T16:37:05.387Z</time></trkpt><trkpt lat="40.9791383" lon="14.3108067"><ele>21.0</ele><time>2026-04-24T16:37:06.387Z</time></trkpt><trkpt lat="40.979065" lon="14.310745"><ele>21.0</ele><time>2026-04-24T16:37:07.386Z</time></trkpt><trkpt lat="40.9789933" lon="14.3106817"><ele>21.0</ele><time>2026-04-24T16:37:08.384Z</time></trkpt><trkpt lat="40.97892" lon="14.310615"><ele>21.0</ele><time>2026-04-24T16:37:09.384Z</time></trkpt><trkpt lat="40.9788483" lon="14.3105433"><ele>21.0</ele><time>2026-04-24T16:37:10.386Z</time></trkpt><trkpt lat="40.9787783" lon="14.3104767"><ele>21.0</ele><time>2026-04-24T16:37:11.386Z</time></trkpt><trkpt lat="40.9787083" lon="14.31041"><ele>20.833333333333332</ele><time>2026-04-24T16:37:12.383Z</time></trkpt><trkpt lat="40.9786417" lon="14.3103483"><ele>20.666666666666668</ele><time>2026-04-24T16:37:13.385Z</time></trkpt><trkpt lat="40.9785783" lon="14.3102833"><ele>20.5</ele><time>2026-04-24T16:37:14.387Z</time></trkpt><trkpt lat="40.9785117" lon="14.3102167"><ele>20.333333333333336</ele><time>2026-04-24T16:37:15.387Z</time></trkpt><trkpt lat="40.97845" lon="14.310155"><ele>20.166666666666668</ele><time>2026-04-24T16:37:16.386Z</time></trkpt><trkpt lat="40.9783867" lon="14.3100917"><ele>20.0</ele><time>2026-04-24T16:37:17.385Z</time></trkpt><trkpt lat="40.9783267" lon="14.3100233"><ele>20.0</ele><time>2026-04-24T16:37:18.384Z</time></trkpt><trkpt lat="40.9782667" lon="14.30996"><ele>20.0</ele><time>2026-04-24T16:37:19.384Z</time></trkpt><trkpt lat="40.9782067" lon="14.3098983"><ele>20.0</ele><time>2026-04-24T16:37:20.385Z</time></trkpt><trkpt lat="40.97815" lon="14.30983"><ele>20.0</ele><time>2026-04-24T16:37:21.385Z</time></trkpt><trkpt lat="40.9780933" lon="14.3097617"><ele>20.0</ele><time>2026-04-24T16:37:22.385Z</time></trkpt><trkpt lat="40.9780383" lon="14.3096933"><ele>20.0</ele><time>2026-04-24T16:37:23.385Z</time></trkpt><trkpt lat="40.9779817" lon="14.3096267"><ele>20.285714285714285</ele><time>2026-04-24T16:37:24.387Z</time></trkpt><trkpt lat="40.9779267" lon="14.3095567"><ele>20.571428571428573</ele><time>2026-04-24T16:37:25.387Z</time></trkpt><trkpt lat="40.9778717" lon="14.309495"><ele>20.857142857142858</ele><time>2026-04-24T16:37:26.386Z</time></trkpt><trkpt lat="40.9778183" lon="14.30943"><ele>21.142857142857142</ele><time>2026-04-24T16:37:27.386Z</time></trkpt><trkpt lat="40.97777" lon="14.3093617"><ele>21.428571428571427</ele><time>2026-04-24T16:37:28.383Z</time></trkpt><trkpt lat="40.9777183" lon="14.309295"><ele>21.714285714285715</ele><time>2026-04-24T16:37:29.386Z</time></trkpt><trkpt lat="40.9776667" lon="14.309225"><ele>22.0</ele><time>2026-04-24T16:37:30.387Z</time></trkpt><trkpt lat="40.977615" lon="14.30916"><ele>22.0</ele><time>2026-04-24T16:37:31.385Z</time></trkpt><trkpt lat="40.9775617" lon="14.3091"><ele>22.0</ele><time>2026-04-24T16:37:32.386Z</time></trkpt><trkpt lat="40.977505" lon="14.3090467"><ele>22.0</ele><time>2026-04-24T16:37:33.387Z</time></trkpt><trkpt lat="40.9774467" lon="14.309"><ele>22.0</ele><time>2026-04-24T16:37:34.386Z</time></trkpt><trkpt lat="40.9773817" lon="14.308965"><ele>22.0</ele><time>2026-04-24T16:37:35.385Z</time></trkpt><trkpt lat="40.9773133" lon="14.3089417"><ele>22.0</ele><time>2026-04-24T16:37:36.387Z</time></trkpt><trkpt lat="40.9772467" lon="14.3089267"><ele>22.0</ele><time>2026-04-24T16:37:37.387Z</time></trkpt><trkpt lat="40.9771783" lon="14.3089233"><ele>21.714285714285715</ele><time>2026-04-24T16:37:38.388Z</time></trkpt><trkpt lat="40.9771117" lon="14.30893"><ele>21.428571428571427</ele><time>2026-04-24T16:37:39.387Z</time></trkpt><trkpt lat="40.9770433" lon="14.308945"><ele>21.142857142857142</ele><time>2026-04-24T16:37:40.386Z</time></trkpt><trkpt lat="40.976975" lon="14.308965"><ele>20.857142857142858</ele><time>2026-04-24T16:37:41.385Z</time></trkpt><trkpt lat="40.9769067" lon="14.3089917"><ele>20.571428571428573</ele><time>2026-04-24T16:37:42.386Z</time></trkpt><trkpt lat="40.9768383" lon="14.30902"><ele>20.285714285714285</ele><time>2026-04-24T16:37:43.385Z</time></trkpt><trkpt lat="40.97677" lon="14.309055"><ele>20.0</ele><time>2026-04-24T16:37:44.384Z</time></trkpt><trkpt lat="40.9767033" lon="14.309095"><ele>20.333333333333336</ele><time>2026-04-24T16:37:45.385Z</time></trkpt><trkpt lat="40.9766333" lon="14.309135"><ele>20.666666666666668</ele><time>2026-04-24T16:37:46.387Z</time></trkpt><trkpt lat="40.9765617" lon="14.3091767"><ele>21.0</ele><time>2026-04-24T16:37:47.384Z</time></trkpt><trkpt lat="40.9764933" lon="14.3092133"><ele>21.333333333333332</ele><time>2026-04-24T16:37:48.385Z</time></trkpt><trkpt lat="40.9764217" lon="14.3092533"><ele>21.666666666666664</ele><time>2026-04-24T16:37:49.385Z</time></trkpt><trkpt lat="40.976345" lon="14.30929"><ele>22.0</ele><time>2026-04-24T16:37:50.384Z</time></trkpt><trkpt lat="40.9762733" lon="14.3093317"><ele>22.0</ele><time>2026-04-24T16:37:51.384Z</time></trkpt><trkpt lat="40.9762033" lon="14.3093717"><ele>22.0</ele><time>2026-04-24T16:37:52.385Z</time></trkpt><trkpt lat="40.9761333" lon="14.3094117"><ele>22.0</ele><time>2026-04-24T16:37:53.386Z</time></trkpt><trkpt lat="40.97606" lon="14.3094517"><ele>22.0</ele><time>2026-04-24T16:37:54.388Z</time></trkpt><trkpt lat="40.9759883" lon="14.30949"><ele>22.0</ele><time>2026-04-24T16:37:55.384Z</time></trkpt><trkpt lat="40.9759167" lon="14.3095283"><ele>22.0</ele><time>2026-04-24T16:37:56.387Z</time></trkpt><trkpt lat="40.9758467" lon="14.3095633"><ele>21.833333333333332</ele><time>2026-04-24T16:37:57.387Z</time></trkpt><trkpt lat="40.9757767" lon="14.3096"><ele>21.666666666666664</ele><time>2026-04-24T16:37:58.383Z</time></trkpt><trkpt lat="40.975705" lon="14.3096367"><ele>21.5</ele><time>2026-04-24T16:37:59.384Z</time></trkpt><trkpt lat="40.9756333" lon="14.30967"><ele>21.333333333333332</ele><time>2026-04-24T16:38:00.384Z</time></trkpt><trkpt lat="40.9755583" lon="14.3096967"><ele>21.166666666666668</ele><time>2026-04-24T16:38:01.385Z</time></trkpt><trkpt lat="40.9754833" lon="14.3097217"><ele>21.0</ele><time>2026-04-24T16:38:02.387Z</time></trkpt><trkpt lat="40.975405" lon="14.3097367"><ele>21.166666666666668</ele><time>2026-04-24T16:38:03.383Z</time></trkpt><trkpt lat="40.975325" lon="14.3097467"><ele>21.333333333333332</ele><time>2026-04-24T16:38:04.382Z</time></trkpt><trkpt lat="40.975245" lon="14.3097483"><ele>21.5</ele><time>2026-04-24T16:38:05.386Z</time></trkpt><trkpt lat="40.9751667" lon="14.3097533"><ele>21.666666666666664</ele><time>2026-04-24T16:38:06.386Z</time></trkpt><trkpt lat="40.9750883" lon="14.309755"><ele>21.833333333333332</ele><time>2026-04-24T16:38:07.387Z</time></trkpt><trkpt lat="40.9750083" lon="14.3097583"><ele>22.0</ele><time>2026-04-24T16:38:08.387Z</time></trkpt><trkpt lat="40.9749283" lon="14.3097583"><ele>22.0</ele><time>2026-04-24T16:38:09.386Z</time></trkpt><trkpt lat="40.9748467" lon="14.3097583"><ele>22.0</ele><time>2026-04-24T16:38:10.385Z</time></trkpt><trkpt lat="40.9747667" lon="14.3097583"><ele>22.0</ele><time>2026-04-24T16:38:11.386Z</time></trkpt><trkpt lat="40.974685" lon="14.3097633"><ele>22.0</ele><time>2026-04-24T16:38:12.383Z</time></trkpt><trkpt lat="40.9746" lon="14.3097633"><ele>22.0</ele><time>2026-04-24T16:38:13.387Z</time></trkpt><trkpt lat="40.9745183" lon="14.309765"><ele>22.0</ele><time>2026-04-24T16:38:14.385Z</time></trkpt><trkpt lat="40.9744367" lon="14.3097717"><ele>22.0</ele><time>2026-04-24T16:38:15.386Z</time></trkpt><trkpt lat="40.9743533" lon="14.3097833"><ele>22.0</ele><time>2026-04-24T16:38:16.387Z</time></trkpt><trkpt lat="40.9742733" lon="14.3097867"><ele>22.0</ele><time>2026-04-24T16:38:17.385Z</time></trkpt><trkpt lat="40.9741967" lon="14.30979"><ele>22.0</ele><time>2026-04-24T16:38:18.387Z</time></trkpt><trkpt lat="40.9741217" lon="14.3097917"><ele>22.0</ele><time>2026-04-24T16:38:19.386Z</time></trkpt><trkpt lat="40.9740433" lon="14.3097933"><ele>22.0</ele><time>2026-04-24T16:38:20.387Z</time></trkpt><trkpt lat="40.973965" lon="14.309795"><ele>22.0</ele><time>2026-04-24T16:38:21.387Z</time></trkpt><trkpt lat="40.9738883" lon="14.309795"><ele>22.0</ele><time>2026-04-24T16:38:22.385Z</time></trkpt><trkpt lat="40.9738117" lon="14.3097917"><ele>22.0</ele><time>2026-04-24T16:38:23.387Z</time></trkpt><trkpt lat="40.973735" lon="14.3097867"><ele>22.0</ele><time>2026-04-24T16:38:24.387Z</time></trkpt><trkpt lat="40.97366" lon="14.3097817"><ele>22.0</ele><time>2026-04-24T16:38:25.385Z</time></trkpt><trkpt lat="40.9735883" lon="14.3097667"><ele>22.0</ele><time>2026-04-24T16:38:26.387Z</time></trkpt><trkpt lat="40.9735167" lon="14.3097467"><ele>22.0</ele><time>2026-04-24T16:38:27.383Z</time></trkpt><trkpt lat="40.9734433" lon="14.3097233"><ele>22.0</ele><time>2026-04-24T16:38:28.384Z</time></trkpt><trkpt lat="40.9733683" lon="14.3097"><ele>22.0</ele><time>2026-04-24T16:38:29.385Z</time></trkpt><trkpt lat="40.97328" lon="14.3096867"><ele>22.0</ele><time>2026-04-24T16:38:30.385Z</time></trkpt><trkpt lat="40.9732083" lon="14.3096633"><ele>22.0</ele><time>2026-04-24T16:38:31.385Z</time></trkpt><trkpt lat="40.9731333" lon="14.30963"><ele>22.0</ele><time>2026-04-24T16:38:32.384Z</time></trkpt><trkpt lat="40.9730667" lon="14.3095967"><ele>22.0</ele><time>2026-04-24T16:38:33.383Z</time></trkpt><trkpt lat="40.9729983" lon="14.3095633"><ele>22.0</ele><time>2026-04-24T16:38:34.387Z</time></trkpt><trkpt lat="40.9729283" lon="14.3095367"><ele>22.0</ele><time>2026-04-24T16:38:35.387Z</time></trkpt><trkpt lat="40.9728583" lon="14.3095067"><ele>22.0</ele><time>2026-04-24T16:38:36.383Z</time></trkpt><trkpt lat="40.9727833" lon="14.3094783"><ele>22.0</ele><time>2026-04-24T16:38:37.387Z</time></trkpt><trkpt lat="40.9727083" lon="14.3094517"><ele>22.0</ele><time>2026-04-24T16:38:38.387Z</time></trkpt><trkpt lat="40.972635" lon="14.3094233"><ele>22.0</ele><time>2026-04-24T16:38:39.385Z</time></trkpt><trkpt lat="40.9725617" lon="14.3093917"><ele>22.0</ele><time>2026-04-24T16:38:40.387Z</time></trkpt><trkpt lat="40.9724867" lon="14.30936"><ele>22.0</ele><time>2026-04-24T16:38:41.386Z</time></trkpt><trkpt lat="40.9724167" lon="14.3093333"><ele>22.0</ele><time>2026-04-24T16:38:42.387Z</time></trkpt><trkpt lat="40.9723467" lon="14.30931"><ele>22.0</ele><time>2026-04-24T16:38:43.386Z</time></trkpt><trkpt lat="40.972275" lon="14.3092833"><ele>22.0</ele><time>2026-04-24T16:38:44.385Z</time></trkpt><trkpt lat="40.9721983" lon="14.30926"><ele>22.142857142857142</ele><time>2026-04-24T16:38:45.386Z</time></trkpt><trkpt lat="40.9721233" lon="14.3092333"><ele>22.285714285714285</ele><time>2026-04-24T16:38:46.385Z</time></trkpt><trkpt lat="40.9720517" lon="14.3092067"><ele>22.42857142857143</ele><time>2026-04-24T16:38:47.386Z</time></trkpt><trkpt lat="40.9719817" lon="14.309175"><ele>22.57142857142857</ele><time>2026-04-24T16:38:48.385Z</time></trkpt><trkpt lat="40.9719133" lon="14.3091383"><ele>22.71428571428571</ele><time>2026-04-24T16:38:49.387Z</time></trkpt><trkpt lat="40.9718467" lon="14.3091017"><ele>22.857142857142858</ele><time>2026-04-24T16:38:50.385Z</time></trkpt><trkpt lat="40.97178" lon="14.309065"><ele>23.0</ele><time>2026-04-24T16:38:51.385Z</time></trkpt><trkpt lat="40.971715" lon="14.309025"><ele>23.166666666666668</ele><time>2026-04-24T16:38:52.387Z</time></trkpt><trkpt lat="40.97165" lon="14.3089817"><ele>23.333333333333336</ele><time>2026-04-24T16:38:53.385Z</time></trkpt><trkpt lat="40.9715867" lon="14.3089367"><ele>23.5</ele><time>2026-04-24T16:38:54.386Z</time></trkpt><trkpt lat="40.9715233" lon="14.3088967"><ele>23.666666666666668</ele><time>2026-04-24T16:38:55.387Z</time></trkpt><trkpt lat="40.9714617" lon="14.3088633"><ele>23.833333333333332</ele><time>2026-04-24T16:38:56.384Z</time></trkpt><trkpt lat="40.971405" lon="14.308825"><ele>24.0</ele><time>2026-04-24T16:38:57.387Z</time></trkpt><trkpt lat="40.9712917" lon="14.3087467"><ele>24.0</ele><time>2026-04-24T16:38:59.386Z</time></trkpt><trkpt lat="40.9711767" lon="14.3086783"><ele>24.0</ele><time>2026-04-24T16:39:01.387Z</time></trkpt><trkpt lat="40.9711183" lon="14.3086467"><ele>24.0</ele><time>2026-04-24T16:39:02.387Z</time></trkpt><trkpt lat="40.971" lon="14.3085867"><ele>24.0</ele><time>2026-04-24T16:39:04.384Z</time></trkpt><trkpt lat="40.97094" lon="14.3085533"><ele>24.0</ele><time>2026-04-24T16:39:05.383Z</time></trkpt><trkpt lat="40.97088" lon="14.3085183"><ele>24.0</ele><time>2026-04-24T16:39:06.385Z</time></trkpt><trkpt lat="40.97082" lon="14.3084883"><ele>23.799999999999997</ele><time>2026-04-24T16:39:07.384Z</time></trkpt><trkpt lat="40.9707017" lon="14.30843"><ele>23.599999999999998</ele><time>2026-04-24T16:39:09.386Z</time></trkpt><trkpt lat="40.9706383" lon="14.3084067"><ele>23.4</ele><time>2026-04-24T16:39:10.384Z</time></trkpt><trkpt lat="40.9705733" lon="14.3083867"><ele>23.2</ele><time>2026-04-24T16:39:11.386Z</time></trkpt><trkpt lat="40.970445" lon="14.3083533"><ele>23.0</ele><time>2026-04-24T16:39:13.384Z</time></trkpt><trkpt lat="40.9703783" lon="14.308335"><ele>23.0</ele><time>2026-04-24T16:39:14.387Z</time></trkpt><trkpt lat="40.9703067" lon="14.30832"><ele>23.0</ele><time>2026-04-24T16:39:15.383Z</time></trkpt><trkpt lat="40.970235" lon="14.3083"><ele>23.0</ele><time>2026-04-24T16:39:16.382Z</time></trkpt><trkpt lat="40.9701633" lon="14.30829"><ele>23.0</ele><time>2026-04-24T16:39:17.383Z</time></trkpt><trkpt lat="40.9700917" lon="14.3082817"><ele>23.0</ele><time>2026-04-24T16:39:18.384Z</time></trkpt><trkpt lat="40.9700167" lon="14.3082717"><ele>23.0</ele><time>2026-04-24T16:39:19.383Z</time></trkpt><trkpt lat="40.9699417" lon="14.308265"><ele>23.0</ele><time>2026-04-24T16:39:20.385Z</time></trkpt><trkpt lat="40.9698683" lon="14.3082583"><ele>23.142857142857142</ele><time>2026-04-24T16:39:21.383Z</time></trkpt><trkpt lat="40.969795" lon="14.30825"><ele>23.285714285714285</ele><time>2026-04-24T16:39:22.383Z</time></trkpt><trkpt lat="40.9697217" lon="14.3082417"><ele>23.428571428571427</ele><time>2026-04-24T16:39:23.382Z</time></trkpt><trkpt lat="40.9696517" lon="14.3082333"><ele>23.57142857142857</ele><time>2026-04-24T16:39:24.382Z</time></trkpt><trkpt lat="40.96958" lon="14.308225"><ele>23.714285714285715</ele><time>2026-04-24T16:39:25.384Z</time></trkpt><trkpt lat="40.9695083" lon="14.3082167"><ele>23.857142857142854</ele><time>2026-04-24T16:39:26.384Z</time></trkpt><trkpt lat="40.9694383" lon="14.3082117"><ele>24.0</ele><time>2026-04-24T16:39:27.383Z</time></trkpt><trkpt lat="40.9693717" lon="14.3082083"><ele>24.0</ele><time>2026-04-24T16:39:28.384Z</time></trkpt><trkpt lat="40.9693083" lon="14.308205"><ele>24.0</ele><time>2026-04-24T16:39:29.382Z</time></trkpt><trkpt lat="40.9691867" lon="14.3082"><ele>24.0</ele><time>2026-04-24T16:39:31.385Z</time></trkpt><trkpt lat="40.9691233" lon="14.3081917"><ele>24.0</ele><time>2026-04-24T16:39:32.385Z</time></trkpt><trkpt lat="40.9690583" lon="14.3081833"><ele>24.0</ele><time>2026-04-24T16:39:33.385Z</time></trkpt><trkpt lat="40.9689333" lon="14.3081717"><ele>24.0</ele><time>2026-04-24T16:39:35.384Z</time></trkpt><trkpt lat="40.9688683" lon="14.30817"><ele>24.142857142857142</ele><time>2026-04-24T16:39:36.385Z</time></trkpt><trkpt lat="40.9688033" lon="14.3081633"><ele>24.285714285714285</ele><time>2026-04-24T16:39:37.384Z</time></trkpt><trkpt lat="40.9687383" lon="14.3081533"><ele>24.42857142857143</ele><time>2026-04-24T16:39:38.385Z</time></trkpt><trkpt lat="40.968675" lon="14.3081383"><ele>24.57142857142857</ele><time>2026-04-24T16:39:39.385Z</time></trkpt><trkpt lat="40.9686117" lon="14.3081167"><ele>24.714285714285715</ele><time>2026-04-24T16:39:40.383Z</time></trkpt><trkpt lat="40.9685483" lon="14.3080933"><ele>24.857142857142858</ele><time>2026-04-24T16:39:41.385Z</time></trkpt><trkpt lat="40.9684867" lon="14.3080683"><ele>25.0</ele><time>2026-04-24T16:39:42.385Z</time></trkpt><trkpt lat="40.968425" lon="14.308045"><ele>25.000000000000004</ele><time>2026-04-24T16:39:43.385Z</time></trkpt><trkpt lat="40.9683617" lon="14.30802"><ele>25.0</ele><time>2026-04-24T16:39:44.385Z</time></trkpt><trkpt lat="40.9682983" lon="14.30799"><ele>25.0</ele><time>2026-04-24T16:39:45.386Z</time></trkpt><trkpt lat="40.9682333" lon="14.3079633"><ele>25.0</ele><time>2026-04-24T16:39:46.386Z</time></trkpt><trkpt lat="40.9681667" lon="14.30793"><ele>25.0</ele><time>2026-04-24T16:39:47.384Z</time></trkpt><trkpt lat="40.9680967" lon="14.3079"><ele>25.000000000000004</ele><time>2026-04-24T16:39:48.384Z</time></trkpt><trkpt lat="40.9680233" lon="14.3078667"><ele>25.0</ele><time>2026-04-24T16:39:49.384Z</time></trkpt><trkpt lat="40.9679483" lon="14.3078367"><ele>25.142857142857146</ele><time>2026-04-24T16:39:50.386Z</time></trkpt><trkpt lat="40.9678733" lon="14.3078033"><ele>25.285714285714285</ele><time>2026-04-24T16:39:51.385Z</time></trkpt><trkpt lat="40.9678" lon="14.30777"><ele>25.42857142857143</ele><time>2026-04-24T16:39:52.385Z</time></trkpt><trkpt lat="40.96773" lon="14.3077333"><ele>25.571428571428573</ele><time>2026-04-24T16:39:53.385Z</time></trkpt><trkpt lat="40.9676617" lon="14.307695"><ele>25.714285714285715</ele><time>2026-04-24T16:39:54.384Z</time></trkpt><trkpt lat="40.9675967" lon="14.3076633"><ele>25.857142857142858</ele><time>2026-04-24T16:39:55.385Z</time></trkpt><trkpt lat="40.9675333" lon="14.3076333"><ele>26.0</ele><time>2026-04-24T16:39:56.385Z</time></trkpt><trkpt lat="40.9674733" lon="14.3076067"><ele>25.71428571428571</ele><time>2026-04-24T16:39:57.385Z</time></trkpt><trkpt lat="40.96741" lon="14.307585"><ele>25.42857142857143</ele><time>2026-04-24T16:39:58.384Z</time></trkpt><trkpt lat="40.9673467" lon="14.307565"><ele>25.142857142857142</ele><time>2026-04-24T16:39:59.388Z</time></trkpt><trkpt lat="40.9672867" lon="14.307535"><ele>24.857142857142854</ele><time>2026-04-24T16:40:00.386Z</time></trkpt><trkpt lat="40.9672233" lon="14.3074983"><ele>24.57142857142857</ele><time>2026-04-24T16:40:01.386Z</time></trkpt><trkpt lat="40.9671567" lon="14.3074633"><ele>24.285714285714285</ele><time>2026-04-24T16:40:02.385Z</time></trkpt><trkpt lat="40.96709" lon="14.3074317"><ele>24.0</ele><time>2026-04-24T16:40:03.384Z</time></trkpt><trkpt lat="40.96702" lon="14.3074"><ele>23.999999999999996</ele><time>2026-04-24T16:40:04.386Z</time></trkpt><trkpt lat="40.9669533" lon="14.3073683"><ele>24.0</ele><time>2026-04-24T16:40:05.386Z</time></trkpt><trkpt lat="40.9668833" lon="14.3073383"><ele>24.0</ele><time>2026-04-24T16:40:06.386Z</time></trkpt><trkpt lat="40.9668133" lon="14.3073083"><ele>24.0</ele><time>2026-04-24T16:40:07.385Z</time></trkpt><trkpt lat="40.9667433" lon="14.3072733"><ele>24.0</ele><time>2026-04-24T16:40:08.386Z</time></trkpt><trkpt lat="40.966675" lon="14.3072417"><ele>23.999999999999996</ele><time>2026-04-24T16:40:09.386Z</time></trkpt><trkpt lat="40.9666067" lon="14.30721"><ele>24.0</ele><time>2026-04-24T16:40:10.386Z</time></trkpt><trkpt lat="40.96654" lon="14.3071683"><ele>24.142857142857142</ele><time>2026-04-24T16:40:11.386Z</time></trkpt><trkpt lat="40.9664717" lon="14.3071283"><ele>24.285714285714285</ele><time>2026-04-24T16:40:12.387Z</time></trkpt><trkpt lat="40.9664033" lon="14.3070933"><ele>24.42857142857143</ele><time>2026-04-24T16:40:13.386Z</time></trkpt><trkpt lat="40.9663333" lon="14.3070517"><ele>24.57142857142857</ele><time>2026-04-24T16:40:14.388Z</time></trkpt><trkpt lat="40.9662633" lon="14.30701"><ele>24.714285714285715</ele><time>2026-04-24T16:40:15.385Z</time></trkpt><trkpt lat="40.9661967" lon="14.306975"><ele>24.857142857142858</ele><time>2026-04-24T16:40:16.388Z</time></trkpt><trkpt lat="40.96613" lon="14.3069383"><ele>25.0</ele><time>2026-04-24T16:40:17.386Z</time></trkpt><trkpt lat="40.966065" lon="14.3069033"><ele>25.000000000000004</ele><time>2026-04-24T16:40:18.383Z</time></trkpt><trkpt lat="40.966" lon="14.3068767"><ele>25.0</ele><time>2026-04-24T16:40:19.384Z</time></trkpt><trkpt lat="40.965935" lon="14.3068567"><ele>25.0</ele><time>2026-04-24T16:40:20.385Z</time></trkpt><trkpt lat="40.9658683" lon="14.3068433"><ele>25.0</ele><time>2026-04-24T16:40:21.384Z</time></trkpt><trkpt lat="40.9658017" lon="14.30683"><ele>25.0</ele><time>2026-04-24T16:40:22.384Z</time></trkpt><trkpt lat="40.9657383" lon="14.3068217"><ele>25.000000000000004</ele><time>2026-04-24T16:40:23.384Z</time></trkpt><trkpt lat="40.965675" lon="14.3068183"><ele>25.0</ele><time>2026-04-24T16:40:24.385Z</time></trkpt><trkpt lat="40.96561" lon="14.3068217"><ele>25.000000000000004</ele><time>2026-04-24T16:40:25.384Z</time></trkpt><trkpt lat="40.965545" lon="14.3068333"><ele>25.0</ele><time>2026-04-24T16:40:26.385Z</time></trkpt><trkpt lat="40.96548" lon="14.3068467"><ele>25.0</ele><time>2026-04-24T16:40:27.383Z</time></trkpt><trkpt lat="40.9654117" lon="14.3068633"><ele>25.0</ele><time>2026-04-24T16:40:28.384Z</time></trkpt><trkpt lat="40.965345" lon="14.3068833"><ele>25.0</ele><time>2026-04-24T16:40:29.387Z</time></trkpt><trkpt lat="40.9652783" lon="14.3069"><ele>25.000000000000004</ele><time>2026-04-24T16:40:30.384Z</time></trkpt><trkpt lat="40.9652083" lon="14.3069117"><ele>25.0</ele><time>2026-04-24T16:40:31.386Z</time></trkpt><trkpt lat="40.9651417" lon="14.3069183"><ele>25.000000000000004</ele><time>2026-04-24T16:40:32.386Z</time></trkpt><trkpt lat="40.9650767" lon="14.3069283"><ele>25.0</ele><time>2026-04-24T16:40:33.384Z</time></trkpt><trkpt lat="40.9650133" lon="14.3069467"><ele>25.0</ele><time>2026-04-24T16:40:34.386Z</time></trkpt><trkpt lat="40.96495" lon="14.3069683"><ele>25.0</ele><time>2026-04-24T16:40:35.385Z</time></trkpt><trkpt lat="40.9648833" lon="14.3069883"><ele>25.0</ele><time>2026-04-24T16:40:36.385Z</time></trkpt><trkpt lat="40.96482" lon="14.3070083"><ele>25.000000000000004</ele><time>2026-04-24T16:40:37.385Z</time></trkpt><trkpt lat="40.9647533" lon="14.307025"><ele>25.0</ele><time>2026-04-24T16:40:38.385Z</time></trkpt><trkpt lat="40.9646883" lon="14.307035"><ele>25.0</ele><time>2026-04-24T16:40:39.387Z</time></trkpt><trkpt lat="40.9646233" lon="14.3070483"><ele>25.0</ele><time>2026-04-24T16:40:40.385Z</time></trkpt><trkpt lat="40.96456" lon="14.30706"><ele>25.0</ele><time>2026-04-24T16:40:41.385Z</time></trkpt><trkpt lat="40.9644367" lon="14.3070633"><ele>25.0</ele><time>2026-04-24T16:40:43.385Z</time></trkpt><trkpt lat="40.9643167" lon="14.307075"><ele>25.0</ele><time>2026-04-24T16:40:45.383Z</time></trkpt><trkpt lat="40.9642017" lon="14.3070867"><ele>24.6</ele><time>2026-04-24T16:40:47.384Z</time></trkpt><trkpt lat="40.964085" lon="14.3071117"><ele>24.2</ele><time>2026-04-24T16:40:49.385Z</time></trkpt><trkpt lat="40.9639683" lon="14.30713"><ele>23.799999999999997</ele><time>2026-04-24T16:40:51.384Z</time></trkpt><trkpt lat="40.9638433" lon="14.3071517"><ele>23.4</ele><time>2026-04-24T16:40:53.383Z</time></trkpt><trkpt lat="40.9637783" lon="14.3071617"><ele>23.0</ele><time>2026-04-24T16:40:54.385Z</time></trkpt><trkpt lat="40.9637133" lon="14.3071683"><ele>23.0</ele><time>2026-04-24T16:40:55.383Z</time></trkpt><trkpt lat="40.9636483" lon="14.30717"><ele>23.0</ele><time>2026-04-24T16:40:56.385Z</time></trkpt><trkpt lat="40.9635817" lon="14.3071683"><ele>23.0</ele><time>2026-04-24T16:40:57.385Z</time></trkpt><trkpt lat="40.9635133" lon="14.3071667"><ele>23.0</ele><time>2026-04-24T16:40:58.385Z</time></trkpt><trkpt lat="40.9634467" lon="14.3071683"><ele>23.0</ele><time>2026-04-24T16:40:59.387Z</time></trkpt><trkpt lat="40.9633783" lon="14.3071783"><ele>23.0</ele><time>2026-04-24T16:41:00.385Z</time></trkpt><trkpt lat="40.9633133" lon="14.3071883"><ele>23.0</ele><time>2026-04-24T16:41:01.386Z</time></trkpt><trkpt lat="40.963245" lon="14.3072"><ele>23.28571428571429</ele><time>2026-04-24T16:41:02.385Z</time></trkpt><trkpt lat="40.96318" lon="14.3072183"><ele>23.57142857142857</ele><time>2026-04-24T16:41:03.384Z</time></trkpt><trkpt lat="40.963115" lon="14.3072317"><ele>23.857142857142858</ele><time>2026-04-24T16:41:04.388Z</time></trkpt><trkpt lat="40.9630517" lon="14.3072383"><ele>24.142857142857146</ele><time>2026-04-24T16:41:05.384Z</time></trkpt><trkpt lat="40.962985" lon="14.3072417"><ele>24.42857142857143</ele><time>2026-04-24T16:41:06.386Z</time></trkpt><trkpt lat="40.9629183" lon="14.307245"><ele>24.714285714285715</ele><time>2026-04-24T16:41:07.384Z</time></trkpt><trkpt lat="40.9628533" lon="14.30725"><ele>25.0</ele><time>2026-04-24T16:41:08.386Z</time></trkpt><trkpt lat="40.9627283" lon="14.3072617"><ele>25.2</ele><time>2026-04-24T16:41:10.384Z</time></trkpt><trkpt lat="40.962605" lon="14.307285"><ele>25.4</ele><time>2026-04-24T16:41:12.385Z</time></trkpt><trkpt lat="40.96248" lon="14.3073083"><ele>25.6</ele><time>2026-04-24T16:41:14.384Z</time></trkpt><trkpt lat="40.962415" lon="14.3073133"><ele>25.8</ele><time>2026-04-24T16:41:15.384Z</time></trkpt><trkpt lat="40.9623467" lon="14.30732"><ele>26.0</ele><time>2026-04-24T16:41:16.384Z</time></trkpt><trkpt lat="40.96228" lon="14.3073267"><ele>26.142857142857142</ele><time>2026-04-24T16:41:17.384Z</time></trkpt><trkpt lat="40.9622117" lon="14.30733"><ele>26.28571428571429</ele><time>2026-04-24T16:41:18.385Z</time></trkpt><trkpt lat="40.9621417" lon="14.3073333"><ele>26.42857142857143</ele><time>2026-04-24T16:41:19.384Z</time></trkpt><trkpt lat="40.9620733" lon="14.3073417"><ele>26.57142857142857</ele><time>2026-04-24T16:41:20.386Z</time></trkpt><trkpt lat="40.9620017" lon="14.3073483"><ele>26.714285714285715</ele><time>2026-04-24T16:41:21.384Z</time></trkpt><trkpt lat="40.9619317" lon="14.3073467"><ele>26.857142857142858</ele><time>2026-04-24T16:41:22.383Z</time></trkpt><trkpt lat="40.96186" lon="14.3073467"><ele>27.0</ele><time>2026-04-24T16:41:23.383Z</time></trkpt><trkpt lat="40.9617917" lon="14.3073483"><ele>27.0</ele><time>2026-04-24T16:41:24.387Z</time></trkpt><trkpt lat="40.9616683" lon="14.3073467"><ele>27.0</ele><time>2026-04-24T16:41:26.384Z</time></trkpt><trkpt lat="40.961605" lon="14.3073367"><ele>27.0</ele><time>2026-04-24T16:41:27.386Z</time></trkpt><trkpt lat="40.9615417" lon="14.30733"><ele>27.0</ele><time>2026-04-24T16:41:28.383Z</time></trkpt><trkpt lat="40.9614783" lon="14.3073217"><ele>27.0</ele><time>2026-04-24T16:41:29.385Z</time></trkpt><trkpt lat="40.961355" lon="14.3073117"><ele>27.0</ele><time>2026-04-24T16:41:31.384Z</time></trkpt><trkpt lat="40.9612917" lon="14.3073"><ele>27.0</ele><time>2026-04-24T16:41:32.386Z</time></trkpt><trkpt lat="40.9611733" lon="14.3072783"><ele>27.0</ele><time>2026-04-24T16:41:34.385Z</time></trkpt><trkpt lat="40.961055" lon="14.3072583"><ele>27.0</ele><time>2026-04-24T16:41:36.387Z</time></trkpt><trkpt lat="40.9609417" lon="14.3072317"><ele>27.0</ele><time>2026-04-24T16:41:38.386Z</time></trkpt><trkpt lat="40.960845" lon="14.3071983"><ele>26.833333333333332</ele><time>2026-04-24T16:41:40.385Z</time></trkpt><trkpt lat="40.960785" lon="14.3071483"><ele>26.666666666666664</ele><time>2026-04-24T16:41:42.384Z</time></trkpt><trkpt lat="40.9607117" lon="14.3070967"><ele>26.5</ele><time>2026-04-24T16:41:45.384Z</time></trkpt><trkpt lat="40.9606333" lon="14.3071"><ele>26.333333333333332</ele><time>2026-04-24T16:41:47.385Z</time></trkpt><trkpt lat="40.9605483" lon="14.3070883"><ele>26.166666666666664</ele><time>2026-04-24T16:41:50.385Z</time></trkpt><trkpt lat="40.9604667" lon="14.3070733"><ele>26.0</ele><time>2026-04-24T16:41:53.384Z</time></trkpt><trkpt lat="40.960405" lon="14.3070567"><ele>25.999999999999996</ele><time>2026-04-24T16:41:55.386Z</time></trkpt><trkpt lat="40.9603283" lon="14.3070267"><ele>26.0</ele><time>2026-04-24T16:41:58.383Z</time></trkpt><trkpt lat="40.96023" lon="14.3070033"><ele>26.0</ele><time>2026-04-24T16:42:01.386Z</time></trkpt><trkpt lat="40.9601517" lon="14.3069883"><ele>26.0</ele><time>2026-04-24T16:42:03.384Z</time></trkpt><trkpt lat="40.9600667" lon="14.3069767"><ele>25.999999999999996</ele><time>2026-04-24T16:42:05.385Z</time></trkpt><trkpt lat="40.95997" lon="14.3069667"><ele>26.0</ele><time>2026-04-24T16:42:07.385Z</time></trkpt><trkpt lat="40.9598617" lon="14.3069517"><ele>25.5</ele><time>2026-04-24T16:42:09.385Z</time></trkpt><trkpt lat="40.9597483" lon="14.30693"><ele>25.0</ele><time>2026-04-24T16:42:11.387Z</time></trkpt><trkpt lat="40.9596317" lon="14.3069083"><ele>24.5</ele><time>2026-04-24T16:42:13.384Z</time></trkpt><trkpt lat="40.9595133" lon="14.3068817"><ele>24.0</ele><time>2026-04-24T16:42:15.385Z</time></trkpt><trkpt lat="40.95939" lon="14.3068533"><ele>24.0</ele><time>2026-04-24T16:42:17.384Z</time></trkpt><trkpt lat="40.959325" lon="14.306835"><ele>24.0</ele><time>2026-04-24T16:42:18.384Z</time></trkpt><trkpt lat="40.9592033" lon="14.3067983"><ele>24.0</ele><time>2026-04-24T16:42:20.385Z</time></trkpt><trkpt lat="40.9591417" lon="14.3067767"><ele>24.0</ele><time>2026-04-24T16:42:21.385Z</time></trkpt><trkpt lat="40.9590783" lon="14.3067567"><ele>24.0</ele><time>2026-04-24T16:42:22.383Z</time></trkpt><trkpt lat="40.9589517" lon="14.30673"><ele>24.0</ele><time>2026-04-24T16:42:24.385Z</time></trkpt><trkpt lat="40.9588883" lon="14.306715"><ele>24.666666666666668</ele><time>2026-04-24T16:42:25.384Z</time></trkpt><trkpt lat="40.9588217" lon="14.306695"><ele>25.333333333333336</ele><time>2026-04-24T16:42:26.385Z</time></trkpt><trkpt lat="40.9587483" lon="14.3066683"><ele>26.0</ele><time>2026-04-24T16:42:27.385Z</time></trkpt><trkpt lat="40.9586733" lon="14.3066333"><ele>26.666666666666668</ele><time>2026-04-24T16:42:28.385Z</time></trkpt><trkpt lat="40.9586033" lon="14.3065867"><ele>27.333333333333336</ele><time>2026-04-24T16:42:29.386Z</time></trkpt><trkpt lat="40.9585333" lon="14.3065367"><ele>28.0</ele><time>2026-04-24T16:42:30.384Z</time></trkpt><trkpt lat="40.9584633" lon="14.3064867"><ele>28.000000000000004</ele><time>2026-04-24T16:42:31.383Z</time></trkpt><trkpt lat="40.958395" lon="14.3064317"><ele>28.0</ele><time>2026-04-24T16:42:32.387Z</time></trkpt><trkpt lat="40.9583333" lon="14.3063733"><ele>28.0</ele><time>2026-04-24T16:42:33.386Z</time></trkpt><trkpt lat="40.9582783" lon="14.3063167"><ele>28.0</ele><time>2026-04-24T16:42:34.383Z</time></trkpt><trkpt lat="40.95822" lon="14.3062667"><ele>28.000000000000004</ele><time>2026-04-24T16:42:35.386Z</time></trkpt><trkpt lat="40.958125" lon="14.30619"><ele>28.0</ele><time>2026-04-24T16:42:37.387Z</time></trkpt><trkpt lat="40.95805" lon="14.3061317"><ele>28.2</ele><time>2026-04-24T16:42:39.385Z</time></trkpt><trkpt lat="40.95797" lon="14.306055"><ele>28.4</ele><time>2026-04-24T16:42:41.387Z</time></trkpt><trkpt lat="40.95788" lon="14.3059617"><ele>28.599999999999998</ele><time>2026-04-24T16:42:43.386Z</time></trkpt><trkpt lat="40.9577733" lon="14.305865"><ele>28.799999999999997</ele><time>2026-04-24T16:42:45.383Z</time></trkpt><trkpt lat="40.9577183" lon="14.3058167"><ele>29.0</ele><time>2026-04-24T16:42:46.386Z</time></trkpt><trkpt lat="40.9576633" lon="14.30576"><ele>29.000000000000004</ele><time>2026-04-24T16:42:47.386Z</time></trkpt><trkpt lat="40.957605" lon="14.3057083"><ele>29.0</ele><time>2026-04-24T16:42:48.382Z</time></trkpt><trkpt lat="40.9575467" lon="14.3056533"><ele>29.000000000000004</ele><time>2026-04-24T16:42:49.384Z</time></trkpt><trkpt lat="40.95749" lon="14.305595"><ele>29.000000000000004</ele><time>2026-04-24T16:42:50.384Z</time></trkpt><trkpt lat="40.9574333" lon="14.3055367"><ele>29.0</ele><time>2026-04-24T16:42:51.383Z</time></trkpt><trkpt lat="40.95738" lon="14.3054817"><ele>29.000000000000004</ele><time>2026-04-24T16:42:52.386Z</time></trkpt><trkpt lat="40.9573267" lon="14.30543"><ele>29.000000000000004</ele><time>2026-04-24T16:42:53.386Z</time></trkpt><trkpt lat="40.9572467" lon="14.3053367"><ele>29.0</ele><time>2026-04-24T16:42:55.385Z</time></trkpt><trkpt lat="40.9571717" lon="14.3052517"><ele>29.0</ele><time>2026-04-24T16:42:57.383Z</time></trkpt><trkpt lat="40.957085" lon="14.3051833"><ele>29.0</ele><time>2026-04-24T16:42:59.384Z</time></trkpt><trkpt lat="40.957005" lon="14.3051233"><ele>29.0</ele><time>2026-04-24T16:43:01.383Z</time></trkpt><trkpt lat="40.9569217" lon="14.3050533"><ele>29.0</ele><time>2026-04-24T16:43:03.386Z</time></trkpt><trkpt lat="40.9568317" lon="14.30498"><ele>28.999999999999996</ele><time>2026-04-24T16:43:05.384Z</time></trkpt><trkpt lat="40.95674" lon="14.3049133"><ele>29.0</ele><time>2026-04-24T16:43:07.385Z</time></trkpt><trkpt lat="40.95668" lon="14.304865"><ele>29.0</ele><time>2026-04-24T16:43:09.386Z</time></trkpt><trkpt lat="40.9566033" lon="14.3048167"><ele>29.0</ele><time>2026-04-24T16:43:13.386Z</time></trkpt><trkpt lat="40.9565433" lon="14.3047883"><ele>28.999999999999996</ele><time>2026-04-24T16:43:15.386Z</time></trkpt><trkpt lat="40.9564617" lon="14.3047717"><ele>29.0</ele><time>2026-04-24T16:43:17.384Z</time></trkpt><trkpt lat="40.956365" lon="14.3047367"><ele>29.0</ele><time>2026-04-24T16:43:19.386Z</time></trkpt><trkpt lat="40.95626" lon="14.3047017"><ele>29.0</ele><time>2026-04-24T16:43:21.386Z</time></trkpt><trkpt lat="40.95615" lon="14.30467"><ele>29.0</ele><time>2026-04-24T16:43:23.384Z</time></trkpt><trkpt lat="40.95604" lon="14.3046567"><ele>29.0</ele><time>2026-04-24T16:43:25.383Z</time></trkpt><trkpt lat="40.9559433" lon="14.3046317"><ele>29.0</ele><time>2026-04-24T16:43:27.382Z</time></trkpt><trkpt lat="40.9558633" lon="14.3045967"><ele>28.799999999999997</ele><time>2026-04-24T16:43:29.384Z</time></trkpt><trkpt lat="40.9557867" lon="14.3045617"><ele>28.599999999999998</ele><time>2026-04-24T16:43:31.382Z</time></trkpt><trkpt lat="40.9556983" lon="14.3045317"><ele>28.4</ele><time>2026-04-24T16:43:33.383Z</time></trkpt><trkpt lat="40.955605" lon="14.3044867"><ele>28.2</ele><time>2026-04-24T16:43:35.386Z</time></trkpt><trkpt lat="40.9555067" lon="14.3044317"><ele>28.0</ele><time>2026-04-24T16:43:37.387Z</time></trkpt><trkpt lat="40.95539" lon="14.3043883"><ele>28.0</ele><time>2026-04-24T16:43:39.384Z</time></trkpt><trkpt lat="40.9553267" lon="14.3043667"><ele>28.0</ele><time>2026-04-24T16:43:40.386Z</time></trkpt><trkpt lat="40.9552633" lon="14.304355"><ele>28.0</ele><time>2026-04-24T16:43:41.384Z</time></trkpt><trkpt lat="40.955195" lon="14.3043333"><ele>28.0</ele><time>2026-04-24T16:43:42.384Z</time></trkpt><trkpt lat="40.9551317" lon="14.3043083"><ele>28.0</ele><time>2026-04-24T16:43:43.384Z</time></trkpt><trkpt lat="40.9550667" lon="14.3042833"><ele>28.0</ele><time>2026-04-24T16:43:44.385Z</time></trkpt><trkpt lat="40.9549983" lon="14.30426"><ele>28.0</ele><time>2026-04-24T16:43:45.385Z</time></trkpt><trkpt lat="40.95493" lon="14.3042367"><ele>28.000000000000004</ele><time>2026-04-24T16:43:46.384Z</time></trkpt><trkpt lat="40.9548583" lon="14.30421"><ele>28.0</ele><time>2026-04-24T16:43:47.382Z</time></trkpt><trkpt lat="40.9547867" lon="14.30418"><ele>28.0</ele><time>2026-04-24T16:43:48.385Z</time></trkpt><trkpt lat="40.954715" lon="14.3041533"><ele>28.0</ele><time>2026-04-24T16:43:49.385Z</time></trkpt><trkpt lat="40.9546417" lon="14.3041233"><ele>28.000000000000004</ele><time>2026-04-24T16:43:50.383Z</time></trkpt><trkpt lat="40.9545667" lon="14.3040933"><ele>28.0</ele><time>2026-04-24T16:43:51.384Z</time></trkpt><trkpt lat="40.9544967" lon="14.3040667"><ele>28.0</ele><time>2026-04-24T16:43:52.383Z</time></trkpt><trkpt lat="40.9544267" lon="14.3040417"><ele>28.0</ele><time>2026-04-24T16:43:53.382Z</time></trkpt><trkpt lat="40.9543583" lon="14.3040217"><ele>28.0</ele><time>2026-04-24T16:43:54.385Z</time></trkpt><trkpt lat="40.9542917" lon="14.304"><ele>28.0</ele><time>2026-04-24T16:43:55.384Z</time></trkpt><trkpt lat="40.9542233" lon="14.30399"><ele>28.0</ele><time>2026-04-24T16:43:56.384Z</time></trkpt><trkpt lat="40.954155" lon="14.3039767"><ele>28.0</ele><time>2026-04-24T16:43:57.382Z</time></trkpt><trkpt lat="40.9540883" lon="14.3039567"><ele>28.0</ele><time>2026-04-24T16:43:58.385Z</time></trkpt><trkpt lat="40.9540283" lon="14.30393"><ele>28.599999999999998</ele><time>2026-04-24T16:43:59.382Z</time></trkpt><trkpt lat="40.9539667" lon="14.3039067"><ele>29.199999999999996</ele><time>2026-04-24T16:44:00.383Z</time></trkpt><trkpt lat="40.9539067" lon="14.30388"><ele>29.8</ele><time>2026-04-24T16:44:01.384Z</time></trkpt><trkpt lat="40.9537983" lon="14.30381"><ele>30.4</ele><time>2026-04-24T16:44:03.385Z</time></trkpt><trkpt lat="40.9536933" lon="14.3037317"><ele>31.0</ele><time>2026-04-24T16:44:05.386Z</time></trkpt><trkpt lat="40.9535817" lon="14.30368"><ele>31.0</ele><time>2026-04-24T16:44:07.383Z</time></trkpt><trkpt lat="40.95352" lon="14.30366"><ele>31.000000000000004</ele><time>2026-04-24T16:44:08.386Z</time></trkpt><trkpt lat="40.9534567" lon="14.3036383"><ele>31.0</ele><time>2026-04-24T16:44:09.385Z</time></trkpt><trkpt lat="40.95339" lon="14.3036233"><ele>31.0</ele><time>2026-04-24T16:44:10.384Z</time></trkpt><trkpt lat="40.9533217" lon="14.3036017"><ele>31.000000000000004</ele><time>2026-04-24T16:44:11.383Z</time></trkpt><trkpt lat="40.9532533" lon="14.3035833"><ele>31.0</ele><time>2026-04-24T16:44:12.382Z</time></trkpt><trkpt lat="40.9531817" lon="14.30357"><ele>31.0</ele><time>2026-04-24T16:44:13.385Z</time></trkpt><trkpt lat="40.95311" lon="14.3035517"><ele>30.500000000000004</ele><time>2026-04-24T16:44:14.387Z</time></trkpt><trkpt lat="40.95304" lon="14.30352"><ele>30.0</ele><time>2026-04-24T16:44:15.383Z</time></trkpt><trkpt lat="40.9529667" lon="14.303485"><ele>29.5</ele><time>2026-04-24T16:44:16.383Z</time></trkpt><trkpt lat="40.9528917" lon="14.30346"><ele>29.0</ele><time>2026-04-24T16:44:17.386Z</time></trkpt><trkpt lat="40.952815" lon="14.3034383"><ele>28.500000000000004</ele><time>2026-04-24T16:44:18.383Z</time></trkpt><trkpt lat="40.95274" lon="14.3034133"><ele>28.0</ele><time>2026-04-24T16:44:19.384Z</time></trkpt><trkpt lat="40.9526633" lon="14.3033917"><ele>28.0</ele><time>2026-04-24T16:44:20.384Z</time></trkpt><trkpt lat="40.9525883" lon="14.3033633"><ele>28.0</ele><time>2026-04-24T16:44:21.385Z</time></trkpt><trkpt lat="40.952515" lon="14.303335"><ele>28.0</ele><time>2026-04-24T16:44:22.386Z</time></trkpt><trkpt lat="40.952445" lon="14.30331"><ele>28.0</ele><time>2026-04-24T16:44:23.383Z</time></trkpt><trkpt lat="40.9523767" lon="14.30329"><ele>28.0</ele><time>2026-04-24T16:44:24.385Z</time></trkpt><trkpt lat="40.9523067" lon="14.30327"><ele>28.0</ele><time>2026-04-24T16:44:25.385Z</time></trkpt><trkpt lat="40.9522433" lon="14.3032517"><ele>28.0</ele><time>2026-04-24T16:44:26.385Z</time></trkpt><trkpt lat="40.952125" lon="14.3032183"><ele>28.4</ele><time>2026-04-24T16:44:28.386Z</time></trkpt><trkpt lat="40.9520133" lon="14.303185"><ele>28.799999999999997</ele><time>2026-04-24T16:44:30.383Z</time></trkpt><trkpt lat="40.95191" lon="14.303155"><ele>29.2</ele><time>2026-04-24T16:44:32.385Z</time></trkpt><trkpt lat="40.9518083" lon="14.3031333"><ele>29.6</ele><time>2026-04-24T16:44:34.384Z</time></trkpt><trkpt lat="40.95172" lon="14.3031083"><ele>30.0</ele><time>2026-04-24T16:44:36.387Z</time></trkpt><trkpt lat="40.9516483" lon="14.303085"><ele>29.833333333333332</ele><time>2026-04-24T16:44:38.383Z</time></trkpt><trkpt lat="40.9515533" lon="14.3030383"><ele>29.666666666666664</ele><time>2026-04-24T16:44:48.387Z</time></trkpt><trkpt lat="40.9514933" lon="14.3029983"><ele>29.5</ele><time>2026-04-24T16:44:52.385Z</time></trkpt><trkpt lat="40.95142" lon="14.3030017"><ele>29.333333333333332</ele><time>2026-04-24T16:44:55.383Z</time></trkpt><trkpt lat="40.9513267" lon="14.302985"><ele>29.166666666666664</ele><time>2026-04-24T16:44:58.382Z</time></trkpt><trkpt lat="40.9512483" lon="14.3029633"><ele>29.0</ele><time>2026-04-24T16:45:00.385Z</time></trkpt><trkpt lat="40.9511517" lon="14.3029383"><ele>29.0</ele><time>2026-04-24T16:45:02.386Z</time></trkpt><trkpt lat="40.9510417" lon="14.3029117"><ele>29.0</ele><time>2026-04-24T16:45:04.385Z</time></trkpt><trkpt lat="40.9509267" lon="14.302875"><ele>29.0</ele><time>2026-04-24T16:45:06.386Z</time></trkpt><trkpt lat="40.9508417" lon="14.3028433"><ele>29.0</ele><time>2026-04-24T16:45:08.385Z</time></trkpt><trkpt lat="40.9507633" lon="14.3028267"><ele>29.0</ele><time>2026-04-24T16:45:10.382Z</time></trkpt><trkpt lat="40.95068" lon="14.3028017"><ele>29.6</ele><time>2026-04-24T16:45:12.387Z</time></trkpt><trkpt lat="40.9505883" lon="14.3027717"><ele>30.2</ele><time>2026-04-24T16:45:14.385Z</time></trkpt><trkpt lat="40.9504833" lon="14.3027517"><ele>30.800000000000004</ele><time>2026-04-24T16:45:16.383Z</time></trkpt><trkpt lat="40.9503717" lon="14.3027217"><ele>31.400000000000002</ele><time>2026-04-24T16:45:18.386Z</time></trkpt><trkpt lat="40.950265" lon="14.3026967"><ele>32.0</ele><time>2026-04-24T16:45:20.387Z</time></trkpt><trkpt lat="40.9501567" lon="14.3026733"><ele>32.0</ele><time>2026-04-24T16:45:22.387Z</time></trkpt><trkpt lat="40.9500433" lon="14.302655"><ele>32.0</ele><time>2026-04-24T16:45:24.383Z</time></trkpt><trkpt lat="40.9499333" lon="14.3026283"><ele>32.0</ele><time>2026-04-24T16:45:26.386Z</time></trkpt><trkpt lat="40.94983" lon="14.3026167"><ele>32.0</ele><time>2026-04-24T16:45:28.384Z</time></trkpt><trkpt lat="40.9497267" lon="14.302595"><ele>32.0</ele><time>2026-04-24T16:45:30.386Z</time></trkpt><trkpt lat="40.9496267" lon="14.3025767"><ele>32.166666666666664</ele><time>2026-04-24T16:45:32.385Z</time></trkpt><trkpt lat="40.9495417" lon="14.3025617"><ele>32.33333333333333</ele><time>2026-04-24T16:45:34.383Z</time></trkpt><trkpt lat="40.9494483" lon="14.30255"><ele>32.5</ele><time>2026-04-24T16:45:37.386Z</time></trkpt><trkpt lat="40.949375" lon="14.302525"><ele>32.666666666666664</ele><time>2026-04-24T16:45:40.383Z</time></trkpt><trkpt lat="40.9493017" lon="14.30251"><ele>32.833333333333336</ele><time>2026-04-24T16:45:43.386Z</time></trkpt><trkpt lat="40.949235" lon="14.3025067"><ele>33.0</ele><time>2026-04-24T16:45:45.383Z</time></trkpt><trkpt lat="40.9491667" lon="14.3025"><ele>32.666666666666664</ele><time>2026-04-24T16:45:50.383Z</time></trkpt><trkpt lat="40.94908" lon="14.3024883"><ele>32.333333333333336</ele><time>2026-04-24T16:45:54.386Z</time></trkpt><trkpt lat="40.9490183" lon="14.3024717"><ele>32.0</ele><time>2026-04-24T16:45:56.385Z</time></trkpt><trkpt lat="40.948925" lon="14.30244"><ele>31.666666666666668</ele><time>2026-04-24T16:45:59.386Z</time></trkpt><trkpt lat="40.948845" lon="14.3024283"><ele>31.333333333333336</ele><time>2026-04-24T16:46:01.384Z</time></trkpt><trkpt lat="40.94875" lon="14.3024117"><ele>31.0</ele><time>2026-04-24T16:46:03.386Z</time></trkpt><trkpt lat="40.9486733" lon="14.3023967"><ele>31.0</ele><time>2026-04-24T16:46:05.386Z</time></trkpt><trkpt lat="40.9486233" lon="14.3023433"><ele>31.000000000000004</ele><time>2026-04-24T16:46:08.384Z</time></trkpt><trkpt lat="40.94855" lon="14.302325"><ele>31.0</ele><time>2026-04-24T16:46:12.385Z</time></trkpt><trkpt lat="40.94846" lon="14.3022983"><ele>31.0</ele><time>2026-04-24T16:46:15.383Z</time></trkpt><trkpt lat="40.9483933" lon="14.302275"><ele>31.000000000000004</ele><time>2026-04-24T16:46:17.383Z</time></trkpt><trkpt lat="40.9483267" lon="14.3022567"><ele>31.0</ele><time>2026-04-24T16:46:19.385Z</time></trkpt><trkpt lat="40.9482567" lon="14.3022517"><ele>31.0</ele><time>2026-04-24T16:46:21.384Z</time></trkpt><trkpt lat="40.9481883" lon="14.302235"><ele>31.142857142857146</ele><time>2026-04-24T16:46:23.384Z</time></trkpt><trkpt lat="40.9481083" lon="14.3022267"><ele>31.28571428571429</ele><time>2026-04-24T16:46:25.386Z</time></trkpt><trkpt lat="40.9480267" lon="14.30221"><ele>31.42857142857143</ele><time>2026-04-24T16:46:28.382Z</time></trkpt><trkpt lat="40.94796" lon="14.3022083"><ele>31.57142857142857</ele><time>2026-04-24T16:46:32.384Z</time></trkpt><trkpt lat="40.9478983" lon="14.30219"><ele>31.71428571428571</ele><time>2026-04-24T16:46:35.386Z</time></trkpt><trkpt lat="40.9478383" lon="14.3021583"><ele>31.857142857142854</ele><time>2026-04-24T16:46:37.386Z</time></trkpt><trkpt lat="40.9477567" lon="14.3021367"><ele>32.0</ele><time>2026-04-24T16:46:39.387Z</time></trkpt><trkpt lat="40.9476633" lon="14.3021167"><ele>32.0</ele><time>2026-04-24T16:46:41.386Z</time></trkpt><trkpt lat="40.9475717" lon="14.3020767"><ele>32.0</ele><time>2026-04-24T16:46:43.385Z</time></trkpt><trkpt lat="40.9474783" lon="14.30202"><ele>32.0</ele><time>2026-04-24T16:46:45.387Z</time></trkpt><trkpt lat="40.9473917" lon="14.3019283"><ele>32.0</ele><time>2026-04-24T16:46:47.383Z</time></trkpt><trkpt lat="40.9473083" lon="14.30182"><ele>32.0</ele><time>2026-04-24T16:46:49.384Z</time></trkpt><trkpt lat="40.947245" lon="14.301695"><ele>32.25</ele><time>2026-04-24T16:46:51.384Z</time></trkpt><trkpt lat="40.9471983" lon="14.3015567"><ele>32.5</ele><time>2026-04-24T16:46:53.384Z</time></trkpt><trkpt lat="40.9471483" lon="14.301415"><ele>32.75</ele><time>2026-04-24T16:46:55.386Z</time></trkpt><trkpt lat="40.9470983" lon="14.3012783"><ele>33.0</ele><time>2026-04-24T16:46:57.385Z</time></trkpt><trkpt lat="40.9470517" lon="14.3011417"><ele>32.5</ele><time>2026-04-24T16:46:59.386Z</time></trkpt><trkpt lat="40.947005" lon="14.3010017"><ele>32.0</ele><time>2026-04-24T16:47:01.386Z</time></trkpt><trkpt lat="40.946955" lon="14.3008567"><ele>31.5</ele><time>2026-04-24T16:47:03.386Z</time></trkpt><trkpt lat="40.946905" lon="14.3007217"><ele>31.0</ele><time>2026-04-24T16:47:05.386Z</time></trkpt><trkpt lat="40.9468517" lon="14.300585"><ele>30.8</ele><time>2026-04-24T16:47:07.383Z</time></trkpt><trkpt lat="40.9467983" lon="14.300445"><ele>30.6</ele><time>2026-04-24T16:47:09.384Z</time></trkpt><trkpt lat="40.946745" lon="14.3003"><ele>30.4</ele><time>2026-04-24T16:47:11.385Z</time></trkpt><trkpt lat="40.94672" lon="14.3002217"><ele>30.2</ele><time>2026-04-24T16:47:12.387Z</time></trkpt><trkpt lat="40.94667" lon="14.3000783"><ele>30.0</ele><time>2026-04-24T16:47:14.386Z</time></trkpt><trkpt lat="40.9466233" lon="14.2999317"><ele>30.4</ele><time>2026-04-24T16:47:16.385Z</time></trkpt><trkpt lat="40.94657" lon="14.2997883"><ele>30.8</ele><time>2026-04-24T16:47:18.383Z</time></trkpt><trkpt lat="40.9465133" lon="14.2996467"><ele>31.200000000000003</ele><time>2026-04-24T16:47:20.384Z</time></trkpt><trkpt lat="40.9464583" lon="14.2995233"><ele>31.6</ele><time>2026-04-24T16:47:22.383Z</time></trkpt><trkpt lat="40.9463817" lon="14.2994417"><ele>32.0</ele><time>2026-04-24T16:47:24.386Z</time></trkpt><trkpt lat="40.94629" lon="14.2994217"><ele>32.0</ele><time>2026-04-24T16:47:26.386Z</time></trkpt><trkpt lat="40.9461833" lon="14.2994567"><ele>32.0</ele><time>2026-04-24T16:47:28.383Z</time></trkpt><trkpt lat="40.9460633" lon="14.29947"><ele>32.0</ele><time>2026-04-24T16:47:30.386Z</time></trkpt><trkpt lat="40.94594" lon="14.2994533"><ele>32.0</ele><time>2026-04-24T16:47:32.387Z</time></trkpt><trkpt lat="40.9458217" lon="14.299435"><ele>32.25</ele><time>2026-04-24T16:47:34.386Z</time></trkpt><trkpt lat="40.94571" lon="14.2993983"><ele>32.5</ele><time>2026-04-24T16:47:36.384Z</time></trkpt><trkpt lat="40.9455983" lon="14.2993767"><ele>32.75</ele><time>2026-04-24T16:47:38.382Z</time></trkpt><trkpt lat="40.945485" lon="14.299365"><ele>33.0</ele><time>2026-04-24T16:47:40.382Z</time></trkpt><trkpt lat="40.9453683" lon="14.2993583"><ele>33.0</ele><time>2026-04-24T16:47:42.383Z</time></trkpt><trkpt lat="40.945245" lon="14.2993317"><ele>33.0</ele><time>2026-04-24T16:47:44.386Z</time></trkpt><trkpt lat="40.945125" lon="14.2993067"><ele>33.0</ele><time>2026-04-24T16:47:46.382Z</time></trkpt><trkpt lat="40.9450067" lon="14.2992833"><ele>33.0</ele><time>2026-04-24T16:47:48.383Z</time></trkpt><trkpt lat="40.9448883" lon="14.2992567"><ele>33.0</ele><time>2026-04-24T16:47:50.384Z</time></trkpt><trkpt lat="40.94477" lon="14.2992383"><ele>33.0</ele><time>2026-04-24T16:47:52.383Z</time></trkpt><trkpt lat="40.9446517" lon="14.2992183"><ele>33.0</ele><time>2026-04-24T16:47:54.383Z</time></trkpt><trkpt lat="40.9445383" lon="14.2992017"><ele>33.0</ele><time>2026-04-24T16:47:56.385Z</time></trkpt><trkpt lat="40.9444533" lon="14.2991683"><ele>33.0</ele><time>2026-04-24T16:47:58.383Z</time></trkpt><trkpt lat="40.944375" lon="14.2991283"><ele>33.0</ele><time>2026-04-24T16:48:00.383Z</time></trkpt><trkpt lat="40.944285" lon="14.299115"><ele>33.0</ele><time>2026-04-24T16:48:02.384Z</time></trkpt><trkpt lat="40.9441833" lon="14.2990917"><ele>33.0</ele><time>2026-04-24T16:48:04.385Z</time></trkpt><trkpt lat="40.9440683" lon="14.2990667"><ele>33.0</ele><time>2026-04-24T16:48:06.387Z</time></trkpt><trkpt lat="40.9439467" lon="14.2990433"><ele>33.0</ele><time>2026-04-24T16:48:08.386Z</time></trkpt><trkpt lat="40.9438217" lon="14.299025"><ele>32.857142857142854</ele><time>2026-04-24T16:48:10.384Z</time></trkpt><trkpt lat="40.9437567" lon="14.2990117"><ele>32.714285714285715</ele><time>2026-04-24T16:48:11.383Z</time></trkpt><trkpt lat="40.9436917" lon="14.2990033"><ele>32.57142857142857</ele><time>2026-04-24T16:48:12.383Z</time></trkpt><trkpt lat="40.9436283" lon="14.2989933"><ele>32.42857142857143</ele><time>2026-04-24T16:48:13.385Z</time></trkpt><trkpt lat="40.9435617" lon="14.2989833"><ele>32.285714285714285</ele><time>2026-04-24T16:48:14.386Z</time></trkpt><trkpt lat="40.9434967" lon="14.298975"><ele>32.14285714285714</ele><time>2026-04-24T16:48:15.384Z</time></trkpt><trkpt lat="40.9434317" lon="14.2989683"><ele>32.0</ele><time>2026-04-24T16:48:16.386Z</time></trkpt><trkpt lat="40.9433667" lon="14.2989617"><ele>32.33333333333333</ele><time>2026-04-24T16:48:17.384Z</time></trkpt><trkpt lat="40.9432433" lon="14.2989567"><ele>32.666666666666664</ele><time>2026-04-24T16:48:19.384Z</time></trkpt><trkpt lat="40.9431783" lon="14.29896"><ele>33.0</ele><time>2026-04-24T16:48:20.384Z</time></trkpt><trkpt lat="40.9431133" lon="14.2989633"><ele>33.333333333333336</ele><time>2026-04-24T16:48:21.384Z</time></trkpt><trkpt lat="40.943045" lon="14.2989667"><ele>33.66666666666667</ele><time>2026-04-24T16:48:22.383Z</time></trkpt><trkpt lat="40.9429767" lon="14.298965"><ele>34.0</ele><time>2026-04-24T16:48:23.385Z</time></trkpt><trkpt lat="40.9429083" lon="14.2989633"><ele>34.0</ele><time>2026-04-24T16:48:24.387Z</time></trkpt><trkpt lat="40.94284" lon="14.2989567"><ele>34.0</ele><time>2026-04-24T16:48:25.386Z</time></trkpt><trkpt lat="40.9427217" lon="14.298955"><ele>34.0</ele><time>2026-04-24T16:48:27.386Z</time></trkpt><trkpt lat="40.9425967" lon="14.2989717"><ele>34.0</ele><time>2026-04-24T16:48:29.384Z</time></trkpt><trkpt lat="40.9425333" lon="14.29898"><ele>34.0</ele><time>2026-04-24T16:48:30.384Z</time></trkpt><trkpt lat="40.9424133" lon="14.29899"><ele>34.333333333333336</ele><time>2026-04-24T16:48:32.383Z</time></trkpt><trkpt lat="40.9422917" lon="14.299"><ele>34.66666666666667</ele><time>2026-04-24T16:48:34.382Z</time></trkpt><trkpt lat="40.9422267" lon="14.2990017"><ele>35.0</ele><time>2026-04-24T16:48:35.385Z</time></trkpt><trkpt lat="40.94216" lon="14.29901"><ele>35.333333333333336</ele><time>2026-04-24T16:48:36.385Z</time></trkpt><trkpt lat="40.9420967" lon="14.299015"><ele>35.666666666666664</ele><time>2026-04-24T16:48:37.384Z</time></trkpt><trkpt lat="40.9420283" lon="14.2990183"><ele>36.0</ele><time>2026-04-24T16:48:38.387Z</time></trkpt><trkpt lat="40.9419567" lon="14.29903"><ele>36.0</ele><time>2026-04-24T16:48:39.386Z</time></trkpt><trkpt lat="40.9418867" lon="14.29904"><ele>36.0</ele><time>2026-04-24T16:48:40.382Z</time></trkpt><trkpt lat="40.9418217" lon="14.2990467"><ele>36.0</ele><time>2026-04-24T16:48:41.385Z</time></trkpt><trkpt lat="40.9417233" lon="14.2990433"><ele>36.0</ele><time>2026-04-24T16:48:43.384Z</time></trkpt><trkpt lat="40.9416467" lon="14.2990567"><ele>36.0</ele><time>2026-04-24T16:48:45.383Z</time></trkpt><trkpt lat="40.9415567" lon="14.299075"><ele>36.0</ele><time>2026-04-24T16:48:47.383Z</time></trkpt><trkpt lat="40.94145" lon="14.299095"><ele>36.166666666666664</ele><time>2026-04-24T16:48:49.385Z</time></trkpt><trkpt lat="40.9413417" lon="14.299115"><ele>36.333333333333336</ele><time>2026-04-24T16:48:51.384Z</time></trkpt><trkpt lat="40.9412283" lon="14.299155"><ele>36.5</ele><time>2026-04-24T16:48:53.383Z</time></trkpt><trkpt lat="40.9411667" lon="14.2991917"><ele>36.66666666666667</ele><time>2026-04-24T16:48:54.385Z</time></trkpt><trkpt lat="40.9411033" lon="14.2992283"><ele>36.833333333333336</ele><time>2026-04-24T16:48:55.385Z</time></trkpt><trkpt lat="40.9410383" lon="14.2992617"><ele>37.0</ele><time>2026-04-24T16:48:56.386Z</time></trkpt><trkpt lat="40.9409783" lon="14.2992883"><ele>37.0</ele><time>2026-04-24T16:48:57.384Z</time></trkpt><trkpt lat="40.9409133" lon="14.299315"><ele>37.0</ele><time>2026-04-24T16:48:58.384Z</time></trkpt><trkpt lat="40.9408467" lon="14.29934"><ele>37.0</ele><time>2026-04-24T16:48:59.383Z</time></trkpt><trkpt lat="40.9407767" lon="14.299365"><ele>37.0</ele><time>2026-04-24T16:49:00.385Z</time></trkpt><trkpt lat="40.940705" lon="14.2993917"><ele>37.0</ele><time>2026-04-24T16:49:01.386Z</time></trkpt><trkpt lat="40.940635" lon="14.2994183"><ele>37.0</ele><time>2026-04-24T16:49:02.384Z</time></trkpt><trkpt lat="40.9405667" lon="14.2994417"><ele>37.0</ele><time>2026-04-24T16:49:03.386Z</time></trkpt><trkpt lat="40.9404967" lon="14.2994633"><ele>37.0</ele><time>2026-04-24T16:49:04.385Z</time></trkpt><trkpt lat="40.94043" lon="14.2994833"><ele>37.0</ele><time>2026-04-24T16:49:05.383Z</time></trkpt><trkpt lat="40.9403617" lon="14.2995017"><ele>37.0</ele><time>2026-04-24T16:49:06.387Z</time></trkpt><trkpt lat="40.9402917" lon="14.29952"><ele>37.0</ele><time>2026-04-24T16:49:07.383Z</time></trkpt><trkpt lat="40.9402233" lon="14.29954"><ele>37.0</ele><time>2026-04-24T16:49:08.383Z</time></trkpt><trkpt lat="40.9401533" lon="14.2995567"><ele>37.0</ele><time>2026-04-24T16:49:09.387Z</time></trkpt><trkpt lat="40.940085" lon="14.2995733"><ele>37.0</ele><time>2026-04-24T16:49:10.383Z</time></trkpt><trkpt lat="40.9400167" lon="14.2995917"><ele>36.85714285714286</ele><time>2026-04-24T16:49:11.384Z</time></trkpt><trkpt lat="40.93995" lon="14.299615"><ele>36.714285714285715</ele><time>2026-04-24T16:49:12.384Z</time></trkpt><trkpt lat="40.9398817" lon="14.2996467"><ele>36.57142857142857</ele><time>2026-04-24T16:49:13.384Z</time></trkpt><trkpt lat="40.939815" lon="14.2996883"><ele>36.42857142857143</ele><time>2026-04-24T16:49:14.384Z</time></trkpt><trkpt lat="40.9397467" lon="14.299725"><ele>36.285714285714285</ele><time>2026-04-24T16:49:15.384Z</time></trkpt><trkpt lat="40.9396767" lon="14.299765"><ele>36.142857142857146</ele><time>2026-04-24T16:49:16.383Z</time></trkpt><trkpt lat="40.93961" lon="14.299805"><ele>36.0</ele><time>2026-04-24T16:49:17.383Z</time></trkpt><trkpt lat="40.939545" lon="14.2998417"><ele>36.00000000000001</ele><time>2026-04-24T16:49:18.384Z</time></trkpt><trkpt lat="40.9394783" lon="14.2998817"><ele>36.0</ele><time>2026-04-24T16:49:19.384Z</time></trkpt><trkpt lat="40.9394117" lon="14.29992"><ele>36.0</ele><time>2026-04-24T16:49:20.385Z</time></trkpt><trkpt lat="40.9393433" lon="14.2999617"><ele>36.0</ele><time>2026-04-24T16:49:21.384Z</time></trkpt><trkpt lat="40.9392733" lon="14.3000017"><ele>36.0</ele><time>2026-04-24T16:49:22.384Z</time></trkpt><trkpt lat="40.9392067" lon="14.30004"><ele>36.00000000000001</ele><time>2026-04-24T16:49:23.384Z</time></trkpt><trkpt lat="40.93914" lon="14.30008"><ele>36.0</ele><time>2026-04-24T16:49:24.384Z</time></trkpt><trkpt lat="40.939075" lon="14.3001183"><ele>36.142857142857146</ele><time>2026-04-24T16:49:25.384Z</time></trkpt><trkpt lat="40.93901" lon="14.30016"><ele>36.285714285714285</ele><time>2026-04-24T16:49:26.386Z</time></trkpt><trkpt lat="40.938945" lon="14.3002017"><ele>36.42857142857143</ele><time>2026-04-24T16:49:27.386Z</time></trkpt><trkpt lat="40.9388817" lon="14.3002433"><ele>36.57142857142857</ele><time>2026-04-24T16:49:28.382Z</time></trkpt><trkpt lat="40.9388167" lon="14.30028"><ele>36.714285714285715</ele><time>2026-04-24T16:49:29.385Z</time></trkpt><trkpt lat="40.9387567" lon="14.300315"><ele>36.85714285714286</ele><time>2026-04-24T16:49:30.384Z</time></trkpt><trkpt lat="40.9386983" lon="14.3003533"><ele>37.0</ele><time>2026-04-24T16:49:31.383Z</time></trkpt><trkpt lat="40.9385967" lon="14.300425"><ele>37.0</ele><time>2026-04-24T16:49:33.385Z</time></trkpt><trkpt lat="40.9385133" lon="14.3004817"><ele>37.0</ele><time>2026-04-24T16:49:35.384Z</time></trkpt><trkpt lat="40.9384383" lon="14.30055"><ele>37.0</ele><time>2026-04-24T16:49:37.382Z</time></trkpt><trkpt lat="40.9383483" lon="14.300595"><ele>37.0</ele><time>2026-04-24T16:49:39.385Z</time></trkpt><trkpt lat="40.938255" lon="14.3006333"><ele>37.0</ele><time>2026-04-24T16:49:41.386Z</time></trkpt><trkpt lat="40.938155" lon="14.300695"><ele>37.16666666666667</ele><time>2026-04-24T16:49:43.384Z</time></trkpt><trkpt lat="40.93804" lon="14.3007417"><ele>37.333333333333336</ele><time>2026-04-24T16:49:45.384Z</time></trkpt><trkpt lat="40.937915" lon="14.3007717"><ele>37.5</ele><time>2026-04-24T16:49:47.384Z</time></trkpt><trkpt lat="40.9378533" lon="14.30079"><ele>37.666666666666664</ele><time>2026-04-24T16:49:48.384Z</time></trkpt><trkpt lat="40.93779" lon="14.3008017"><ele>37.83333333333333</ele><time>2026-04-24T16:49:49.382Z</time></trkpt><trkpt lat="40.937725" lon="14.3008167"><ele>38.0</ele><time>2026-04-24T16:49:50.385Z</time></trkpt><trkpt lat="40.93766" lon="14.3008283"><ele>38.0</ele><time>2026-04-24T16:49:51.386Z</time></trkpt><trkpt lat="40.93759" lon="14.3008367"><ele>38.0</ele><time>2026-04-24T16:49:52.383Z</time></trkpt><trkpt lat="40.9375217" lon="14.3008467"><ele>38.0</ele><time>2026-04-24T16:49:53.383Z</time></trkpt><trkpt lat="40.93745" lon="14.3008617"><ele>38.0</ele><time>2026-04-24T16:49:54.387Z</time></trkpt><trkpt lat="40.93738" lon="14.3008767"><ele>38.0</ele><time>2026-04-24T16:49:55.384Z</time></trkpt><trkpt lat="40.9373083" lon="14.3008867"><ele>38.0</ele><time>2026-04-24T16:49:56.385Z</time></trkpt><trkpt lat="40.937235" lon="14.3009"><ele>38.0</ele><time>2026-04-24T16:49:57.386Z</time></trkpt><trkpt lat="40.9371567" lon="14.3009117"><ele>37.83333333333333</ele><time>2026-04-24T16:49:58.386Z</time></trkpt><trkpt lat="40.937075" lon="14.3009333"><ele>37.666666666666664</ele><time>2026-04-24T16:49:59.387Z</time></trkpt><trkpt lat="40.936995" lon="14.3009483"><ele>37.5</ele><time>2026-04-24T16:50:00.386Z</time></trkpt><trkpt lat="40.93692" lon="14.3009583"><ele>37.333333333333336</ele><time>2026-04-24T16:50:01.386Z</time></trkpt><trkpt lat="40.9368467" lon="14.3009717"><ele>37.16666666666667</ele><time>2026-04-24T16:50:02.385Z</time></trkpt><trkpt lat="40.9367767" lon="14.3009933"><ele>37.0</ele><time>2026-04-24T16:50:03.384Z</time></trkpt><trkpt lat="40.9367083" lon="14.3010133"><ele>37.0</ele><time>2026-04-24T16:50:04.386Z</time></trkpt><trkpt lat="40.9366367" lon="14.3010283"><ele>37.0</ele><time>2026-04-24T16:50:05.383Z</time></trkpt><trkpt lat="40.9365633" lon="14.30104"><ele>37.0</ele><time>2026-04-24T16:50:06.385Z</time></trkpt><trkpt lat="40.9364917" lon="14.3010583"><ele>37.0</ele><time>2026-04-24T16:50:07.383Z</time></trkpt><trkpt lat="40.9364217" lon="14.3010683"><ele>37.0</ele><time>2026-04-24T16:50:08.384Z</time></trkpt><trkpt lat="40.9363533" lon="14.3010783"><ele>37.0</ele><time>2026-04-24T16:50:09.384Z</time></trkpt><trkpt lat="40.9362833" lon="14.3010933"><ele>37.0</ele><time>2026-04-24T16:50:10.384Z</time></trkpt><trkpt lat="40.93621" lon="14.3011083"><ele>37.0</ele><time>2026-04-24T16:50:11.383Z</time></trkpt><trkpt lat="40.9361383" lon="14.301125"><ele>37.0</ele><time>2026-04-24T16:50:12.383Z</time></trkpt><trkpt lat="40.936065" lon="14.3011433"><ele>37.0</ele><time>2026-04-24T16:50:13.383Z</time></trkpt><trkpt lat="40.9359933" lon="14.3011583"><ele>37.0</ele><time>2026-04-24T16:50:14.385Z</time></trkpt><trkpt lat="40.9359233" lon="14.30117"><ele>37.0</ele><time>2026-04-24T16:50:15.383Z</time></trkpt><trkpt lat="40.93585" lon="14.3011817"><ele>37.0</ele><time>2026-04-24T16:50:16.384Z</time></trkpt><trkpt lat="40.9357767" lon="14.3011883"><ele>37.0</ele><time>2026-04-24T16:50:17.387Z</time></trkpt><trkpt lat="40.935705" lon="14.3011933"><ele>37.0</ele><time>2026-04-24T16:50:18.386Z</time></trkpt><trkpt lat="40.9356317" lon="14.3011933"><ele>37.0</ele><time>2026-04-24T16:50:19.382Z</time></trkpt><trkpt lat="40.93556" lon="14.3011967"><ele>37.0</ele><time>2026-04-24T16:50:20.384Z</time></trkpt><trkpt lat="40.9354867" lon="14.3012"><ele>37.0</ele><time>2026-04-24T16:50:21.383Z</time></trkpt><trkpt lat="40.935415" lon="14.3012"><ele>37.0</ele><time>2026-04-24T16:50:22.383Z</time></trkpt><trkpt lat="40.9353433" lon="14.3012017"><ele>37.0</ele><time>2026-04-24T16:50:23.383Z</time></trkpt><trkpt lat="40.9352717" lon="14.3012033"><ele>37.0</ele><time>2026-04-24T16:50:24.383Z</time></trkpt><trkpt lat="40.9352" lon="14.301205"><ele>37.0</ele><time>2026-04-24T16:50:25.384Z</time></trkpt><trkpt lat="40.9351283" lon="14.3012017"><ele>37.0</ele><time>2026-04-24T16:50:26.385Z</time></trkpt><trkpt lat="40.9350583" lon="14.3012017"><ele>37.0</ele><time>2026-04-24T16:50:27.386Z</time></trkpt><trkpt lat="40.93499" lon="14.3012017"><ele>37.0</ele><time>2026-04-24T16:50:28.385Z</time></trkpt><trkpt lat="40.93492" lon="14.3011967"><ele>37.0</ele><time>2026-04-24T16:50:29.383Z</time></trkpt><trkpt lat="40.9348533" lon="14.3011967"><ele>37.0</ele><time>2026-04-24T16:50:30.385Z</time></trkpt><trkpt lat="40.9347867" lon="14.3011917"><ele>37.0</ele><time>2026-04-24T16:50:31.384Z</time></trkpt><trkpt lat="40.9347217" lon="14.3011817"><ele>37.333333333333336</ele><time>2026-04-24T16:50:32.385Z</time></trkpt><trkpt lat="40.9346533" lon="14.3011767"><ele>37.66666666666667</ele><time>2026-04-24T16:50:33.386Z</time></trkpt><trkpt lat="40.9345883" lon="14.3011767"><ele>38.0</ele><time>2026-04-24T16:50:34.383Z</time></trkpt><trkpt lat="40.934525" lon="14.3011733"><ele>38.333333333333336</ele><time>2026-04-24T16:50:35.384Z</time></trkpt><trkpt lat="40.9344067" lon="14.3011767"><ele>38.666666666666664</ele><time>2026-04-24T16:50:37.385Z</time></trkpt><trkpt lat="40.93429" lon="14.3011733"><ele>39.0</ele><time>2026-04-24T16:50:39.385Z</time></trkpt><trkpt lat="40.9341817" lon="14.30117"><ele>39.5</ele><time>2026-04-24T16:50:41.384Z</time></trkpt><trkpt lat="40.934065" lon="14.301175"><ele>40.0</ele><time>2026-04-24T16:50:43.385Z</time></trkpt><trkpt lat="40.933955" lon="14.3012017"><ele>40.5</ele><time>2026-04-24T16:50:45.385Z</time></trkpt><trkpt lat="40.93385" lon="14.30121"><ele>41.0</ele><time>2026-04-24T16:50:47.383Z</time></trkpt><trkpt lat="40.93373" lon="14.3012017"><ele>41.0</ele><time>2026-04-24T16:50:49.385Z</time></trkpt><trkpt lat="40.933605" lon="14.3011967"><ele>41.0</ele><time>2026-04-24T16:50:51.385Z</time></trkpt><trkpt lat="40.9335417" lon="14.3011917"><ele>41.0</ele><time>2026-04-24T16:50:52.382Z</time></trkpt><trkpt lat="40.933475" lon="14.3011867"><ele>41.0</ele><time>2026-04-24T16:50:53.383Z</time></trkpt><trkpt lat="40.9334083" lon="14.3011767"><ele>41.0</ele><time>2026-04-24T16:50:54.383Z</time></trkpt><trkpt lat="40.93334" lon="14.3011667"><ele>41.0</ele><time>2026-04-24T16:50:55.382Z</time></trkpt><trkpt lat="40.93327" lon="14.3011617"><ele>40.71428571428571</ele><time>2026-04-24T16:50:56.388Z</time></trkpt><trkpt lat="40.9332017" lon="14.3011633"><ele>40.42857142857143</ele><time>2026-04-24T16:50:57.386Z</time></trkpt><trkpt lat="40.93313" lon="14.301165"><ele>40.14285714285714</ele><time>2026-04-24T16:50:58.384Z</time></trkpt><trkpt lat="40.9330567" lon="14.3011633"><ele>39.857142857142854</ele><time>2026-04-24T16:50:59.383Z</time></trkpt><trkpt lat="40.932985" lon="14.301165"><ele>39.57142857142857</ele><time>2026-04-24T16:51:00.389Z</time></trkpt><trkpt lat="40.93291" lon="14.30117"><ele>39.285714285714285</ele><time>2026-04-24T16:51:01.386Z</time></trkpt><trkpt lat="40.9328367" lon="14.3011667"><ele>39.0</ele><time>2026-04-24T16:51:02.387Z</time></trkpt><trkpt lat="40.9327633" lon="14.3011617"><ele>39.0</ele><time>2026-04-24T16:51:03.386Z</time></trkpt><trkpt lat="40.9326933" lon="14.3011567"><ele>39.0</ele><time>2026-04-24T16:51:04.386Z</time></trkpt><trkpt lat="40.932625" lon="14.301155"><ele>39.0</ele><time>2026-04-24T16:51:05.385Z</time></trkpt><trkpt lat="40.9325567" lon="14.301155"><ele>39.0</ele><time>2026-04-24T16:51:06.386Z</time></trkpt><trkpt lat="40.93249" lon="14.3011567"><ele>39.0</ele><time>2026-04-24T16:51:07.385Z</time></trkpt><trkpt lat="40.9323767" lon="14.3011367"><ele>39.0</ele><time>2026-04-24T16:51:09.386Z</time></trkpt><trkpt lat="40.93228" lon="14.301125"><ele>39.2</ele><time>2026-04-24T16:51:11.386Z</time></trkpt><trkpt lat="40.9321817" lon="14.3011167"><ele>39.4</ele><time>2026-04-24T16:51:13.385Z</time></trkpt><trkpt lat="40.9320767" lon="14.30109"><ele>39.6</ele><time>2026-04-24T16:51:15.383Z</time></trkpt><trkpt lat="40.9319717" lon="14.3010333"><ele>39.8</ele><time>2026-04-24T16:51:17.384Z</time></trkpt><trkpt lat="40.93187" lon="14.3009483"><ele>40.0</ele><time>2026-04-24T16:51:19.383Z</time></trkpt><trkpt lat="40.9317717" lon="14.3008367"><ele>40.0</ele><time>2026-04-24T16:51:21.384Z</time></trkpt><trkpt lat="40.9317217" lon="14.3007733"><ele>40.0</ele><time>2026-04-24T16:51:22.382Z</time></trkpt><trkpt lat="40.9316733" lon="14.300705"><ele>40.0</ele><time>2026-04-24T16:51:23.384Z</time></trkpt><trkpt lat="40.9316267" lon="14.3006333"><ele>40.0</ele><time>2026-04-24T16:51:24.385Z</time></trkpt><trkpt lat="40.9315817" lon="14.300555"><ele>40.0</ele><time>2026-04-24T16:51:25.382Z</time></trkpt><trkpt lat="40.931535" lon="14.3004783"><ele>40.0</ele><time>2026-04-24T16:51:26.385Z</time></trkpt><trkpt lat="40.931485" lon="14.3004083"><ele>40.0</ele><time>2026-04-24T16:51:27.383Z</time></trkpt><trkpt lat="40.931435" lon="14.30034"><ele>40.0</ele><time>2026-04-24T16:51:28.383Z</time></trkpt><trkpt lat="40.9313867" lon="14.3002683"><ele>40.0</ele><time>2026-04-24T16:51:29.387Z</time></trkpt><trkpt lat="40.9313417" lon="14.300195"><ele>40.0</ele><time>2026-04-24T16:51:30.386Z</time></trkpt><trkpt lat="40.9312983" lon="14.3001217"><ele>40.0</ele><time>2026-04-24T16:51:31.384Z</time></trkpt><trkpt lat="40.9312533" lon="14.300055"><ele>40.0</ele><time>2026-04-24T16:51:32.385Z</time></trkpt><trkpt lat="40.93121" lon="14.29999"><ele>40.0</ele><time>2026-04-24T16:51:33.383Z</time></trkpt><trkpt lat="40.9311283" lon="14.2998733"><ele>40.0</ele><time>2026-04-24T16:51:35.386Z</time></trkpt><trkpt lat="40.9310633" lon="14.2997483"><ele>40.0</ele><time>2026-04-24T16:51:37.385Z</time></trkpt><trkpt lat="40.9309933" lon="14.299635"><ele>40.0</ele><time>2026-04-24T16:51:39.386Z</time></trkpt><trkpt lat="40.9309117" lon="14.2995283"><ele>40.0</ele><time>2026-04-24T16:51:41.386Z</time></trkpt><trkpt lat="40.930825" lon="14.2994283"><ele>40.0</ele><time>2026-04-24T16:51:43.385Z</time></trkpt><trkpt lat="40.9307467" lon="14.2993067"><ele>40.0</ele><time>2026-04-24T16:51:45.386Z</time></trkpt><trkpt lat="40.9306567" lon="14.2992067"><ele>40.0</ele><time>2026-04-24T16:51:47.385Z</time></trkpt><trkpt lat="40.9305617" lon="14.2991133"><ele>40.0</ele><time>2026-04-24T16:51:49.383Z</time></trkpt><trkpt lat="40.93048" lon="14.2990033"><ele>40.4</ele><time>2026-04-24T16:51:51.384Z</time></trkpt><trkpt lat="40.930405" lon="14.2989067"><ele>40.8</ele><time>2026-04-24T16:51:53.384Z</time></trkpt><trkpt lat="40.9303333" lon="14.2988"><ele>41.2</ele><time>2026-04-24T16:51:55.383Z</time></trkpt><trkpt lat="40.930275" lon="14.2986833"><ele>41.6</ele><time>2026-04-24T16:51:57.385Z</time></trkpt><trkpt lat="40.93023" lon="14.29855"><ele>42.0</ele><time>2026-04-24T16:51:59.384Z</time></trkpt><trkpt lat="40.9301983" lon="14.298415"><ele>42.0</ele><time>2026-04-24T16:52:01.384Z</time></trkpt><trkpt lat="40.9301567" lon="14.2982933"><ele>42.0</ele><time>2026-04-24T16:52:03.384Z</time></trkpt><trkpt lat="40.9301" lon="14.2982033"><ele>42.0</ele><time>2026-04-24T16:52:05.383Z</time></trkpt><trkpt lat="40.930025" lon="14.2981617"><ele>42.0</ele><time>2026-04-24T16:52:07.383Z</time></trkpt><trkpt lat="40.9299533" lon="14.2981917"><ele>42.0</ele><time>2026-04-24T16:52:09.383Z</time></trkpt><trkpt lat="40.929875" lon="14.298225"><ele>42.0</ele><time>2026-04-24T16:52:11.384Z</time></trkpt><trkpt lat="40.9297817" lon="14.2982283"><ele>42.0</ele><time>2026-04-24T16:52:13.384Z</time></trkpt><trkpt lat="40.9296733" lon="14.2982417"><ele>42.0</ele><time>2026-04-24T16:52:15.383Z</time></trkpt><trkpt lat="40.9295583" lon="14.298255"><ele>42.0</ele><time>2026-04-24T16:52:17.387Z</time></trkpt><trkpt lat="40.9294383" lon="14.2982683"><ele>42.0</ele><time>2026-04-24T16:52:19.385Z</time></trkpt><trkpt lat="40.929375" lon="14.2982783"><ele>42.0</ele><time>2026-04-24T16:52:20.385Z</time></trkpt><trkpt lat="40.9292667" lon="14.298305"><ele>42.0</ele><time>2026-04-24T16:52:22.383Z</time></trkpt><trkpt lat="40.9291733" lon="14.298325"><ele>42.0</ele><time>2026-04-24T16:52:24.384Z</time></trkpt><trkpt lat="40.9290717" lon="14.2983383"><ele>42.0</ele><time>2026-04-24T16:52:26.384Z</time></trkpt><trkpt lat="40.9289617" lon="14.2983467"><ele>42.0</ele><time>2026-04-24T16:52:28.383Z</time></trkpt><trkpt lat="40.92884" lon="14.29835"><ele>42.0</ele><time>2026-04-24T16:52:30.387Z</time></trkpt><trkpt lat="40.9287767" lon="14.29836"><ele>42.0</ele><time>2026-04-24T16:52:31.386Z</time></trkpt><trkpt lat="40.9287117" lon="14.2983717"><ele>42.0</ele><time>2026-04-24T16:52:32.387Z</time></trkpt><trkpt lat="40.92865" lon="14.2983883"><ele>42.0</ele><time>2026-04-24T16:52:33.386Z</time></trkpt><trkpt lat="40.9285883" lon="14.2984083"><ele>42.0</ele><time>2026-04-24T16:52:34.383Z</time></trkpt><trkpt lat="40.9285267" lon="14.2984283"><ele>42.0</ele><time>2026-04-24T16:52:35.383Z</time></trkpt><trkpt lat="40.9284" lon="14.2984417"><ele>42.0</ele><time>2026-04-24T16:52:37.385Z</time></trkpt><trkpt lat="40.928335" lon="14.298445"><ele>42.0</ele><time>2026-04-24T16:52:38.387Z</time></trkpt><trkpt lat="40.9282683" lon="14.2984567"><ele>42.166666666666664</ele><time>2026-04-24T16:52:39.386Z</time></trkpt><trkpt lat="40.9281967" lon="14.2984633"><ele>42.333333333333336</ele><time>2026-04-24T16:52:40.385Z</time></trkpt><trkpt lat="40.9281267" lon="14.298475"><ele>42.5</ele><time>2026-04-24T16:52:41.386Z</time></trkpt><trkpt lat="40.9280567" lon="14.2984883"><ele>42.66666666666667</ele><time>2026-04-24T16:52:42.386Z</time></trkpt><trkpt lat="40.9279917" lon="14.2984967"><ele>42.833333333333336</ele><time>2026-04-24T16:52:43.383Z</time></trkpt><trkpt lat="40.9279283" lon="14.2985033"><ele>43.0</ele><time>2026-04-24T16:52:44.385Z</time></trkpt><trkpt lat="40.9278117" lon="14.29852"><ele>43.0</ele><time>2026-04-24T16:52:46.384Z</time></trkpt><trkpt lat="40.9277067" lon="14.2985367"><ele>43.0</ele><time>2026-04-24T16:52:48.384Z</time></trkpt><trkpt lat="40.927605" lon="14.2985583"><ele>43.0</ele><time>2026-04-24T16:52:50.385Z</time></trkpt><trkpt lat="40.9275067" lon="14.298575"><ele>43.0</ele><time>2026-04-24T16:52:52.384Z</time></trkpt><trkpt lat="40.92741" lon="14.29854"><ele>43.0</ele><time>2026-04-24T16:52:54.385Z</time></trkpt><trkpt lat="40.9273183" lon="14.2984833"><ele>43.0</ele><time>2026-04-24T16:52:56.384Z</time></trkpt><trkpt lat="40.927215" lon="14.298465"><ele>43.0</ele><time>2026-04-24T16:52:58.383Z</time></trkpt><trkpt lat="40.9271217" lon="14.2984933"><ele>43.0</ele><time>2026-04-24T16:53:00.386Z</time></trkpt><trkpt lat="40.9270367" lon="14.2985167"><ele>43.0</ele><time>2026-04-24T16:53:02.385Z</time></trkpt><trkpt lat="40.9269383" lon="14.29853"><ele>43.0</ele><time>2026-04-24T16:53:04.383Z</time></trkpt><trkpt lat="40.9268333" lon="14.2985367"><ele>43.4</ele><time>2026-04-24T16:53:06.385Z</time></trkpt><trkpt lat="40.9267267" lon="14.2985467"><ele>43.8</ele><time>2026-04-24T16:53:08.387Z</time></trkpt><trkpt lat="40.9266633" lon="14.298565"><ele>44.2</ele><time>2026-04-24T16:53:09.387Z</time></trkpt><trkpt lat="40.9265433" lon="14.2985833"><ele>44.6</ele><time>2026-04-24T16:53:11.385Z</time></trkpt><trkpt lat="40.9264267" lon="14.2985883"><ele>45.0</ele><time>2026-04-24T16:53:13.384Z</time></trkpt><trkpt lat="40.926305" lon="14.2985983"><ele>45.0</ele><time>2026-04-24T16:53:15.386Z</time></trkpt><trkpt lat="40.9261867" lon="14.298605"><ele>45.0</ele><time>2026-04-24T16:53:17.383Z</time></trkpt><trkpt lat="40.9260667" lon="14.2986067"><ele>45.0</ele><time>2026-04-24T16:53:19.385Z</time></trkpt><trkpt lat="40.92594" lon="14.298605"><ele>45.0</ele><time>2026-04-24T16:53:21.384Z</time></trkpt><trkpt lat="40.9258733" lon="14.2986017"><ele>45.0</ele><time>2026-04-24T16:53:22.384Z</time></trkpt><trkpt lat="40.925805" lon="14.2985967"><ele>45.285714285714285</ele><time>2026-04-24T16:53:23.382Z</time></trkpt><trkpt lat="40.9257367" lon="14.2985867"><ele>45.57142857142858</ele><time>2026-04-24T16:53:24.383Z</time></trkpt><trkpt lat="40.9256667" lon="14.2985717"><ele>45.85714285714286</ele><time>2026-04-24T16:53:25.384Z</time></trkpt><trkpt lat="40.9256" lon="14.2985517"><ele>46.14285714285714</ele><time>2026-04-24T16:53:26.385Z</time></trkpt><trkpt lat="40.9255333" lon="14.29853"><ele>46.42857142857143</ele><time>2026-04-24T16:53:27.383Z</time></trkpt><trkpt lat="40.9254683" lon="14.29851"><ele>46.714285714285715</ele><time>2026-04-24T16:53:28.384Z</time></trkpt><trkpt lat="40.925405" lon="14.29849"><ele>47.0</ele><time>2026-04-24T16:53:29.384Z</time></trkpt><trkpt lat="40.9253383" lon="14.2984683"><ele>47.0</ele><time>2026-04-24T16:53:30.384Z</time></trkpt><trkpt lat="40.9252733" lon="14.298435"><ele>47.0</ele><time>2026-04-24T16:53:31.384Z</time></trkpt><trkpt lat="40.9252117" lon="14.2984"><ele>47.0</ele><time>2026-04-24T16:53:32.385Z</time></trkpt><trkpt lat="40.9251517" lon="14.2983567"><ele>47.0</ele><time>2026-04-24T16:53:33.386Z</time></trkpt><trkpt lat="40.92509" lon="14.29831"><ele>47.0</ele><time>2026-04-24T16:53:34.382Z</time></trkpt><trkpt lat="40.92503" lon="14.298265"><ele>47.0</ele><time>2026-04-24T16:53:35.384Z</time></trkpt><trkpt lat="40.9249733" lon="14.29822"><ele>47.0</ele><time>2026-04-24T16:53:36.385Z</time></trkpt><trkpt lat="40.9249167" lon="14.298175"><ele>46.8</ele><time>2026-04-24T16:53:37.384Z</time></trkpt><trkpt lat="40.9248633" lon="14.2981233"><ele>46.6</ele><time>2026-04-24T16:53:38.385Z</time></trkpt><trkpt lat="40.9247783" lon="14.2980183"><ele>46.4</ele><time>2026-04-24T16:53:40.384Z</time></trkpt><trkpt lat="40.9247117" lon="14.297915"><ele>46.199999999999996</ele><time>2026-04-24T16:53:42.382Z</time></trkpt><trkpt lat="40.9246433" lon="14.29781"><ele>46.0</ele><time>2026-04-24T16:53:44.386Z</time></trkpt><trkpt lat="40.9245833" lon="14.2977"><ele>46.0</ele><time>2026-04-24T16:53:46.386Z</time></trkpt><trkpt lat="40.924515" lon="14.297575"><ele>46.0</ele><time>2026-04-24T16:53:48.385Z</time></trkpt><trkpt lat="40.9244417" lon="14.29745"><ele>46.0</ele><time>2026-04-24T16:53:50.385Z</time></trkpt><trkpt lat="40.9244033" lon="14.2973833"><ele>46.0</ele><time>2026-04-24T16:53:51.384Z</time></trkpt><trkpt lat="40.9243317" lon="14.2972567"><ele>46.0</ele><time>2026-04-24T16:53:53.384Z</time></trkpt><trkpt lat="40.92426" lon="14.2971367"><ele>46.25</ele><time>2026-04-24T16:53:55.384Z</time></trkpt><trkpt lat="40.9241883" lon="14.2970167"><ele>46.5</ele><time>2026-04-24T16:53:57.385Z</time></trkpt><trkpt lat="40.9241217" lon="14.2968917"><ele>46.75</ele><time>2026-04-24T16:53:59.386Z</time></trkpt><trkpt lat="40.9240483" lon="14.2967733"><ele>47.0</ele><time>2026-04-24T16:54:01.384Z</time></trkpt><trkpt lat="40.92398" lon="14.2966633"><ele>47.0</ele><time>2026-04-24T16:54:03.386Z</time></trkpt><trkpt lat="40.923905" lon="14.2965633"><ele>47.0</ele><time>2026-04-24T16:54:05.385Z</time></trkpt><trkpt lat="40.92383" lon="14.2964467"><ele>47.0</ele><time>2026-04-24T16:54:07.384Z</time></trkpt><trkpt lat="40.9237667" lon="14.296335"><ele>47.0</ele><time>2026-04-24T16:54:09.386Z</time></trkpt><trkpt lat="40.9237033" lon="14.29621"><ele>47.0</ele><time>2026-04-24T16:54:11.384Z</time></trkpt><trkpt lat="40.9236367" lon="14.2960933"><ele>47.0</ele><time>2026-04-24T16:54:13.386Z</time></trkpt><trkpt lat="40.9235767" lon="14.29597"><ele>47.0</ele><time>2026-04-24T16:54:15.389Z</time></trkpt><trkpt lat="40.9235083" lon="14.29586"><ele>47.0</ele><time>2026-04-24T16:54:17.386Z</time></trkpt><trkpt lat="40.9234433" lon="14.295745"><ele>47.0</ele><time>2026-04-24T16:54:19.383Z</time></trkpt><trkpt lat="40.923375" lon="14.29562"><ele>47.0</ele><time>2026-04-24T16:54:21.385Z</time></trkpt><trkpt lat="40.923305" lon="14.2954933"><ele>47.6</ele><time>2026-04-24T16:54:23.384Z</time></trkpt><trkpt lat="40.92323" lon="14.2953733"><ele>48.2</ele><time>2026-04-24T16:54:25.385Z</time></trkpt><trkpt lat="40.92316" lon="14.2952467"><ele>48.8</ele><time>2026-04-24T16:54:27.386Z</time></trkpt><trkpt lat="40.9230867" lon="14.295115"><ele>49.4</ele><time>2026-04-24T16:54:29.385Z</time></trkpt><trkpt lat="40.9230483" lon="14.295045"><ele>50.0</ele><time>2026-04-24T16:54:30.383Z</time></trkpt><trkpt lat="40.9230067" lon="14.2949783"><ele>50.0</ele><time>2026-04-24T16:54:31.386Z</time></trkpt><trkpt lat="40.9229683" lon="14.29491"><ele>50.0</ele><time>2026-04-24T16:54:32.385Z</time></trkpt><trkpt lat="40.9229267" lon="14.294845"><ele>50.0</ele><time>2026-04-24T16:54:33.385Z</time></trkpt><trkpt lat="40.9228467" lon="14.2947183"><ele>50.0</ele><time>2026-04-24T16:54:35.385Z</time></trkpt><trkpt lat="40.9227633" lon="14.2946017"><ele>50.0</ele><time>2026-04-24T16:54:37.387Z</time></trkpt><trkpt lat="40.9226717" lon="14.2945133"><ele>50.25</ele><time>2026-04-24T16:54:39.385Z</time></trkpt><trkpt lat="40.92257" lon="14.2944433"><ele>50.5</ele><time>2026-04-24T16:54:41.386Z</time></trkpt><trkpt lat="40.922465" lon="14.2943817"><ele>50.75</ele><time>2026-04-24T16:54:43.385Z</time></trkpt><trkpt lat="40.9223633" lon="14.294335"><ele>51.0</ele><time>2026-04-24T16:54:45.386Z</time></trkpt><trkpt lat="40.922255" lon="14.294285"><ele>51.0</ele><time>2026-04-24T16:54:47.385Z</time></trkpt><trkpt lat="40.9221417" lon="14.294245"><ele>51.0</ele><time>2026-04-24T16:54:49.385Z</time></trkpt><trkpt lat="40.9220317" lon="14.2942017"><ele>51.0</ele><time>2026-04-24T16:54:51.381Z</time></trkpt><trkpt lat="40.9219217" lon="14.2941567"><ele>51.0</ele><time>2026-04-24T16:54:53.385Z</time></trkpt><trkpt lat="40.92181" lon="14.294105"><ele>51.25</ele><time>2026-04-24T16:54:55.383Z</time></trkpt><trkpt lat="40.9217017" lon="14.2940517"><ele>51.5</ele><time>2026-04-24T16:54:57.384Z</time></trkpt><trkpt lat="40.9215917" lon="14.294"><ele>51.75</ele><time>2026-04-24T16:54:59.383Z</time></trkpt><trkpt lat="40.9214833" lon="14.29395"><ele>52.0</ele><time>2026-04-24T16:55:01.387Z</time></trkpt><trkpt lat="40.9213733" lon="14.2939183"><ele>52.0</ele><time>2026-04-24T16:55:03.383Z</time></trkpt><trkpt lat="40.921265" lon="14.2938717"><ele>52.0</ele><time>2026-04-24T16:55:05.385Z</time></trkpt><trkpt lat="40.9211617" lon="14.293825"><ele>52.0</ele><time>2026-04-24T16:55:07.382Z</time></trkpt><trkpt lat="40.9210533" lon="14.293775"><ele>52.0</ele><time>2026-04-24T16:55:09.383Z</time></trkpt><trkpt lat="40.920945" lon="14.2937133"><ele>52.25</ele><time>2026-04-24T16:55:11.383Z</time></trkpt><trkpt lat="40.9208467" lon="14.29363"><ele>52.5</ele><time>2026-04-24T16:55:13.386Z</time></trkpt><trkpt lat="40.9207517" lon="14.293555"><ele>52.75</ele><time>2026-04-24T16:55:15.385Z</time></trkpt><trkpt lat="40.9206567" lon="14.2934717"><ele>53.0</ele><time>2026-04-24T16:55:17.384Z</time></trkpt><trkpt lat="40.9205667" lon="14.2933917"><ele>53.0</ele><time>2026-04-24T16:55:19.382Z</time></trkpt><trkpt lat="40.9204717" lon="14.2933217"><ele>53.0</ele><time>2026-04-24T16:55:21.385Z</time></trkpt><trkpt lat="40.92037" lon="14.2932517"><ele>53.0</ele><time>2026-04-24T16:55:23.385Z</time></trkpt><trkpt lat="40.92028" lon="14.2931517"><ele>53.0</ele><time>2026-04-24T16:55:25.386Z</time></trkpt><trkpt lat="40.9202017" lon="14.2930433"><ele>53.0</ele><time>2026-04-24T16:55:27.384Z</time></trkpt><trkpt lat="40.9201533" lon="14.29299"><ele>53.0</ele><time>2026-04-24T16:55:28.383Z</time></trkpt><trkpt lat="40.920045" lon="14.2929"><ele>53.0</ele><time>2026-04-24T16:55:30.385Z</time></trkpt><trkpt lat="40.919995" lon="14.292845"><ele>53.0</ele><time>2026-04-24T16:55:31.384Z</time></trkpt><trkpt lat="40.9199517" lon="14.2927833"><ele>53.0</ele><time>2026-04-24T16:55:32.384Z</time></trkpt><trkpt lat="40.9199083" lon="14.2927217"><ele>53.0</ele><time>2026-04-24T16:55:33.386Z</time></trkpt><trkpt lat="40.9198617" lon="14.2926633"><ele>53.0</ele><time>2026-04-24T16:55:34.383Z</time></trkpt><trkpt lat="40.91977" lon="14.2925583"><ele>53.0</ele><time>2026-04-24T16:55:36.384Z</time></trkpt><trkpt lat="40.9196717" lon="14.2924733"><ele>53.0</ele><time>2026-04-24T16:55:38.385Z</time></trkpt><trkpt lat="40.9195683" lon="14.29241"><ele>53.0</ele><time>2026-04-24T16:55:40.386Z</time></trkpt><trkpt lat="40.919465" lon="14.2923617"><ele>53.0</ele><time>2026-04-24T16:55:42.385Z</time></trkpt><trkpt lat="40.91936" lon="14.2923267"><ele>53.0</ele><time>2026-04-24T16:55:44.385Z</time></trkpt><trkpt lat="40.9192633" lon="14.2922867"><ele>53.4</ele><time>2026-04-24T16:55:46.386Z</time></trkpt><trkpt lat="40.919165" lon="14.292245"><ele>53.8</ele><time>2026-04-24T16:55:48.383Z</time></trkpt><trkpt lat="40.9190667" lon="14.2921983"><ele>54.2</ele><time>2026-04-24T16:55:50.386Z</time></trkpt><trkpt lat="40.918965" lon="14.2921533"><ele>54.6</ele><time>2026-04-24T16:55:52.385Z</time></trkpt><trkpt lat="40.91886" lon="14.2921"><ele>55.0</ele><time>2026-04-24T16:55:54.387Z</time></trkpt><trkpt lat="40.918755" lon="14.2920483"><ele>55.0</ele><time>2026-04-24T16:55:56.387Z</time></trkpt><trkpt lat="40.9186383" lon="14.2919983"><ele>55.0</ele><time>2026-04-24T16:55:58.383Z</time></trkpt><trkpt lat="40.9185217" lon="14.2919517"><ele>55.0</ele><time>2026-04-24T16:56:00.384Z</time></trkpt><trkpt lat="40.9184083" lon="14.2919"><ele>55.0</ele><time>2026-04-24T16:56:02.386Z</time></trkpt><trkpt lat="40.9182933" lon="14.2918517"><ele>55.0</ele><time>2026-04-24T16:56:04.383Z</time></trkpt><trkpt lat="40.9181833" lon="14.2918"><ele>55.0</ele><time>2026-04-24T16:56:06.386Z</time></trkpt><trkpt lat="40.9180667" lon="14.2917517"><ele>55.0</ele><time>2026-04-24T16:56:08.388Z</time></trkpt><trkpt lat="40.917955" lon="14.2916933"><ele>55.0</ele><time>2026-04-24T16:56:10.384Z</time></trkpt><trkpt lat="40.9178383" lon="14.2916267"><ele>55.0</ele><time>2026-04-24T16:56:12.386Z</time></trkpt><trkpt lat="40.9177317" lon="14.2915567"><ele>55.0</ele><time>2026-04-24T16:56:14.383Z</time></trkpt><trkpt lat="40.9176233" lon="14.2914867"><ele>55.0</ele><time>2026-04-24T16:56:16.385Z</time></trkpt><trkpt lat="40.91752" lon="14.2914267"><ele>55.0</ele><time>2026-04-24T16:56:18.385Z</time></trkpt><trkpt lat="40.917415" lon="14.29136"><ele>55.5</ele><time>2026-04-24T16:56:20.383Z</time></trkpt><trkpt lat="40.91731" lon="14.2912917"><ele>56.0</ele><time>2026-04-24T16:56:22.384Z</time></trkpt><trkpt lat="40.91721" lon="14.2912183"><ele>56.5</ele><time>2026-04-24T16:56:24.382Z</time></trkpt><trkpt lat="40.9171117" lon="14.291155"><ele>57.0</ele><time>2026-04-24T16:56:26.385Z</time></trkpt><trkpt lat="40.917015" lon="14.2910783"><ele>57.0</ele><time>2026-04-24T16:56:28.385Z</time></trkpt><trkpt lat="40.9169083" lon="14.2910117"><ele>57.0</ele><time>2026-04-24T16:56:30.385Z</time></trkpt><trkpt lat="40.9168467" lon="14.2909833"><ele>57.0</ele><time>2026-04-24T16:56:31.386Z</time></trkpt><trkpt lat="40.9167317" lon="14.290915"><ele>57.0</ele><time>2026-04-24T16:56:33.385Z</time></trkpt><trkpt lat="40.91667" lon="14.2908783"><ele>57.0</ele><time>2026-04-24T16:56:34.382Z</time></trkpt><trkpt lat="40.91661" lon="14.290845"><ele>57.0</ele><time>2026-04-24T16:56:35.386Z</time></trkpt><trkpt lat="40.9165483" lon="14.29081"><ele>57.0</ele><time>2026-04-24T16:56:36.386Z</time></trkpt><trkpt lat="40.9164883" lon="14.290775"><ele>57.0</ele><time>2026-04-24T16:56:37.385Z</time></trkpt><trkpt lat="40.91643" lon="14.29074"><ele>57.0</ele><time>2026-04-24T16:56:38.387Z</time></trkpt><trkpt lat="40.9163717" lon="14.2907033"><ele>57.0</ele><time>2026-04-24T16:56:39.386Z</time></trkpt><trkpt lat="40.9162567" lon="14.2906367"><ele>57.0</ele><time>2026-04-24T16:56:41.386Z</time></trkpt><trkpt lat="40.9161967" lon="14.2906067"><ele>57.0</ele><time>2026-04-24T16:56:42.385Z</time></trkpt><trkpt lat="40.91608" lon="14.2905567"><ele>57.2</ele><time>2026-04-24T16:56:44.385Z</time></trkpt><trkpt lat="40.9159633" lon="14.2905217"><ele>57.400000000000006</ele><time>2026-04-24T16:56:46.385Z</time></trkpt><trkpt lat="40.9158433" lon="14.2904983"><ele>57.599999999999994</ele><time>2026-04-24T16:56:48.385Z</time></trkpt><trkpt lat="40.91572" lon="14.2904867"><ele>57.8</ele><time>2026-04-24T16:56:50.386Z</time></trkpt><trkpt lat="40.9156567" lon="14.2904833"><ele>58.0</ele><time>2026-04-24T16:56:51.384Z</time></trkpt><trkpt lat="40.915535" lon="14.29047"><ele>58.2</ele><time>2026-04-24T16:56:53.386Z</time></trkpt><trkpt lat="40.9154167" lon="14.29047"><ele>58.4</ele><time>2026-04-24T16:56:55.383Z</time></trkpt><trkpt lat="40.9153533" lon="14.2904733"><ele>58.60000000000001</ele><time>2026-04-24T16:56:56.386Z</time></trkpt><trkpt lat="40.9152883" lon="14.2904683"><ele>58.800000000000004</ele><time>2026-04-24T16:56:57.385Z</time></trkpt><trkpt lat="40.9151683" lon="14.29047"><ele>59.0</ele><time>2026-04-24T16:56:59.383Z</time></trkpt><trkpt lat="40.91505" lon="14.290475"><ele>59.16666666666667</ele><time>2026-04-24T16:57:01.383Z</time></trkpt><trkpt lat="40.9149267" lon="14.29048"><ele>59.333333333333336</ele><time>2026-04-24T16:57:03.385Z</time></trkpt><trkpt lat="40.9148583" lon="14.290485"><ele>59.5</ele><time>2026-04-24T16:57:04.384Z</time></trkpt><trkpt lat="40.914785" lon="14.290485"><ele>59.66666666666667</ele><time>2026-04-24T16:57:05.384Z</time></trkpt><trkpt lat="40.9147183" lon="14.290485"><ele>59.833333333333336</ele><time>2026-04-24T16:57:06.385Z</time></trkpt><trkpt lat="40.91465" lon="14.290495"><ele>60.0</ele><time>2026-04-24T16:57:07.383Z</time></trkpt><trkpt lat="40.9145833" lon="14.2905033"><ele>60.0</ele><time>2026-04-24T16:57:08.383Z</time></trkpt><trkpt lat="40.9145183" lon="14.2905133"><ele>60.0</ele><time>2026-04-24T16:57:09.383Z</time></trkpt><trkpt lat="40.914455" lon="14.29052"><ele>60.0</ele><time>2026-04-24T16:57:10.382Z</time></trkpt><trkpt lat="40.9143367" lon="14.290525"><ele>60.0</ele><time>2026-04-24T16:57:12.382Z</time></trkpt><trkpt lat="40.9142217" lon="14.2905283"><ele>60.0</ele><time>2026-04-24T16:57:14.383Z</time></trkpt><trkpt lat="40.914115" lon="14.2905183"><ele>60.4</ele><time>2026-04-24T16:57:16.385Z</time></trkpt><trkpt lat="40.9140117" lon="14.2905017"><ele>60.8</ele><time>2026-04-24T16:57:18.384Z</time></trkpt><trkpt lat="40.913915" lon="14.2904817"><ele>61.2</ele><time>2026-04-24T16:57:20.385Z</time></trkpt><trkpt lat="40.9138233" lon="14.29046"><ele>61.6</ele><time>2026-04-24T16:57:22.384Z</time></trkpt><trkpt lat="40.913735" lon="14.29043"><ele>62.0</ele><time>2026-04-24T16:57:24.384Z</time></trkpt><trkpt lat="40.913655" lon="14.2903967"><ele>62.00000000000001</ele><time>2026-04-24T16:57:26.383Z</time></trkpt><trkpt lat="40.913575" lon="14.2903733"><ele>62.0</ele><time>2026-04-24T16:57:28.386Z</time></trkpt><trkpt lat="40.913495" lon="14.2903367"><ele>62.0</ele><time>2026-04-24T16:57:30.387Z</time></trkpt><trkpt lat="40.913415" lon="14.29031"><ele>62.0</ele><time>2026-04-24T16:57:32.384Z</time></trkpt><trkpt lat="40.9133283" lon="14.2902667"><ele>62.00000000000001</ele><time>2026-04-24T16:57:34.384Z</time></trkpt><trkpt lat="40.9132467" lon="14.2902167"><ele>62.0</ele><time>2026-04-24T16:57:36.385Z</time></trkpt><trkpt lat="40.9131617" lon="14.2901717"><ele>62.2</ele><time>2026-04-24T16:57:38.383Z</time></trkpt><trkpt lat="40.9130783" lon="14.2901183"><ele>62.400000000000006</ele><time>2026-04-24T16:57:40.383Z</time></trkpt><trkpt lat="40.9129883" lon="14.290065"><ele>62.599999999999994</ele><time>2026-04-24T16:57:42.385Z</time></trkpt><trkpt lat="40.9128917" lon="14.2900017"><ele>62.8</ele><time>2026-04-24T16:57:44.386Z</time></trkpt><trkpt lat="40.9127967" lon="14.2899267"><ele>63.0</ele><time>2026-04-24T16:57:46.384Z</time></trkpt><trkpt lat="40.91269" lon="14.28985"><ele>63.0</ele><time>2026-04-24T16:57:48.384Z</time></trkpt><trkpt lat="40.912585" lon="14.2897717"><ele>63.0</ele><time>2026-04-24T16:57:50.385Z</time></trkpt><trkpt lat="40.912485" lon="14.2896833"><ele>63.0</ele><time>2026-04-24T16:57:52.384Z</time></trkpt><trkpt lat="40.91238" lon="14.2896033"><ele>63.0</ele><time>2026-04-24T16:57:54.386Z</time></trkpt><trkpt lat="40.9122717" lon="14.2895283"><ele>63.0</ele><time>2026-04-24T16:57:56.384Z</time></trkpt><trkpt lat="40.9122133" lon="14.2894967"><ele>63.0</ele><time>2026-04-24T16:57:57.383Z</time></trkpt><trkpt lat="40.91216" lon="14.28945"><ele>63.0</ele><time>2026-04-24T16:57:58.383Z</time></trkpt><trkpt lat="40.9120617" lon="14.2893533"><ele>63.0</ele><time>2026-04-24T16:58:00.383Z</time></trkpt><trkpt lat="40.911975" lon="14.2892733"><ele>63.0</ele><time>2026-04-24T16:58:02.385Z</time></trkpt><trkpt lat="40.9118817" lon="14.2892033"><ele>63.0</ele><time>2026-04-24T16:58:04.383Z</time></trkpt><trkpt lat="40.91179" lon="14.2891267"><ele>63.0</ele><time>2026-04-24T16:58:06.385Z</time></trkpt><trkpt lat="40.9117067" lon="14.289045"><ele>63.0</ele><time>2026-04-24T16:58:08.385Z</time></trkpt><trkpt lat="40.9116317" lon="14.2889833"><ele>63.0</ele><time>2026-04-24T16:58:10.384Z</time></trkpt><trkpt lat="40.9115683" lon="14.2889217"><ele>63.0</ele><time>2026-04-24T16:58:12.386Z</time></trkpt><trkpt lat="40.91149" lon="14.2888733"><ele>63.0</ele><time>2026-04-24T16:58:14.385Z</time></trkpt><trkpt lat="40.91141" lon="14.2888167"><ele>63.0</ele><time>2026-04-24T16:58:16.384Z</time></trkpt><trkpt lat="40.9113283" lon="14.288755"><ele>63.0</ele><time>2026-04-24T16:58:18.385Z</time></trkpt><trkpt lat="40.9112417" lon="14.2886883"><ele>63.0</ele><time>2026-04-24T16:58:20.385Z</time></trkpt><trkpt lat="40.9111533" lon="14.2886067"><ele>63.0</ele><time>2026-04-24T16:58:22.385Z</time></trkpt><trkpt lat="40.9110583" lon="14.28852"><ele>63.0</ele><time>2026-04-24T16:58:24.386Z</time></trkpt><trkpt lat="40.9109617" lon="14.2884283"><ele>63.0</ele><time>2026-04-24T16:58:26.386Z</time></trkpt><trkpt lat="40.9108617" lon="14.2883383"><ele>63.0</ele><time>2026-04-24T16:58:28.386Z</time></trkpt><trkpt lat="40.910755" lon="14.2882517"><ele>63.0</ele><time>2026-04-24T16:58:30.384Z</time></trkpt><trkpt lat="40.9106983" lon="14.288205"><ele>63.0</ele><time>2026-04-24T16:58:31.384Z</time></trkpt><trkpt lat="40.91064" lon="14.2881533"><ele>63.0</ele><time>2026-04-24T16:58:32.387Z</time></trkpt><trkpt lat="40.9105817" lon="14.288095"><ele>63.0</ele><time>2026-04-24T16:58:33.384Z</time></trkpt><trkpt lat="40.9105217" lon="14.2880333"><ele>63.0</ele><time>2026-04-24T16:58:34.384Z</time></trkpt><trkpt lat="40.91046" lon="14.2879783"><ele>63.0</ele><time>2026-04-24T16:58:35.384Z</time></trkpt><trkpt lat="40.9103983" lon="14.2879183"><ele>63.0</ele><time>2026-04-24T16:58:36.386Z</time></trkpt><trkpt lat="40.910335" lon="14.2878617"><ele>63.0</ele><time>2026-04-24T16:58:37.384Z</time></trkpt><trkpt lat="40.9102717" lon="14.28781"><ele>63.0</ele><time>2026-04-24T16:58:38.384Z</time></trkpt><trkpt lat="40.9102167" lon="14.2877583"><ele>63.0</ele><time>2026-04-24T16:58:39.383Z</time></trkpt><trkpt lat="40.9101133" lon="14.2876717"><ele>63.0</ele><time>2026-04-24T16:58:41.386Z</time></trkpt><trkpt lat="40.91002" lon="14.287595"><ele>63.0</ele><time>2026-04-24T16:58:43.386Z</time></trkpt><trkpt lat="40.909935" lon="14.2875283"><ele>63.0</ele><time>2026-04-24T16:58:45.384Z</time></trkpt><trkpt lat="40.90985" lon="14.2874717"><ele>63.833333333333336</ele><time>2026-04-24T16:58:47.384Z</time></trkpt><trkpt lat="40.9097683" lon="14.28741"><ele>64.66666666666667</ele><time>2026-04-24T16:58:49.384Z</time></trkpt><trkpt lat="40.9096867" lon="14.2873633"><ele>65.5</ele><time>2026-04-24T16:58:51.384Z</time></trkpt><trkpt lat="40.9096067" lon="14.2873083"><ele>66.33333333333334</ele><time>2026-04-24T16:58:53.384Z</time></trkpt><trkpt lat="40.9095367" lon="14.2872467"><ele>67.16666666666667</ele><time>2026-04-24T16:58:55.386Z</time></trkpt><trkpt lat="40.9094633" lon="14.28718"><ele>68.0</ele><time>2026-04-24T16:58:57.386Z</time></trkpt><trkpt lat="40.90938" lon="14.287105"><ele>68.2</ele><time>2026-04-24T16:58:59.385Z</time></trkpt><trkpt lat="40.9092967" lon="14.28703"><ele>68.4</ele><time>2026-04-24T16:59:01.383Z</time></trkpt><trkpt lat="40.909215" lon="14.286955"><ele>68.60000000000001</ele><time>2026-04-24T16:59:03.384Z</time></trkpt><trkpt lat="40.9091383" lon="14.2868733"><ele>68.8</ele><time>2026-04-24T16:59:05.386Z</time></trkpt><trkpt lat="40.9090667" lon="14.2867917"><ele>69.0</ele><time>2026-04-24T16:59:07.384Z</time></trkpt><trkpt lat="40.9089817" lon="14.28672"><ele>69.0</ele><time>2026-04-24T16:59:09.384Z</time></trkpt><trkpt lat="40.9088933" lon="14.286655"><ele>69.0</ele><time>2026-04-24T16:59:11.384Z</time></trkpt><trkpt lat="40.908805" lon="14.28659"><ele>69.0</ele><time>2026-04-24T16:59:13.385Z</time></trkpt><trkpt lat="40.90871" lon="14.2865283"><ele>69.0</ele><time>2026-04-24T16:59:15.386Z</time></trkpt><trkpt lat="40.9086267" lon="14.2864533"><ele>69.0</ele><time>2026-04-24T16:59:17.384Z</time></trkpt><trkpt lat="40.9085383" lon="14.2863883"><ele>69.0</ele><time>2026-04-24T16:59:19.383Z</time></trkpt><trkpt lat="40.90845" lon="14.2863167"><ele>69.0</ele><time>2026-04-24T16:59:21.385Z</time></trkpt><trkpt lat="40.908365" lon="14.2862367"><ele>69.0</ele><time>2026-04-24T16:59:23.383Z</time></trkpt><trkpt lat="40.908275" lon="14.2861533"><ele>69.0</ele><time>2026-04-24T16:59:25.384Z</time></trkpt><trkpt lat="40.908185" lon="14.2860767"><ele>69.0</ele><time>2026-04-24T16:59:27.386Z</time></trkpt><trkpt lat="40.908095" lon="14.285995"><ele>69.0</ele><time>2026-04-24T16:59:29.383Z</time></trkpt><trkpt lat="40.908005" lon="14.28593"><ele>69.0</ele><time>2026-04-24T16:59:31.386Z</time></trkpt><trkpt lat="40.9079133" lon="14.28586"><ele>69.0</ele><time>2026-04-24T16:59:33.386Z</time></trkpt><trkpt lat="40.907825" lon="14.2857917"><ele>69.0</ele><time>2026-04-24T16:59:35.384Z</time></trkpt><trkpt lat="40.907735" lon="14.2857233"><ele>69.0</ele><time>2026-04-24T16:59:37.385Z</time></trkpt><trkpt lat="40.9076517" lon="14.2856383"><ele>70.0</ele><time>2026-04-24T16:59:39.385Z</time></trkpt><trkpt lat="40.9075683" lon="14.2855683"><ele>71.0</ele><time>2026-04-24T16:59:41.386Z</time></trkpt><trkpt lat="40.9074783" lon="14.2854933"><ele>72.0</ele><time>2026-04-24T16:59:43.386Z</time></trkpt><trkpt lat="40.9073883" lon="14.285425"><ele>73.0</ele><time>2026-04-24T16:59:45.386Z</time></trkpt><trkpt lat="40.9072967" lon="14.2853567"><ele>74.0</ele><time>2026-04-24T16:59:47.385Z</time></trkpt><trkpt lat="40.90721" lon="14.285275"><ele>74.0</ele><time>2026-04-24T16:59:49.385Z</time></trkpt><trkpt lat="40.90712" lon="14.2852033"><ele>74.0</ele><time>2026-04-24T16:59:51.385Z</time></trkpt><trkpt lat="40.907035" lon="14.2851333"><ele>74.0</ele><time>2026-04-24T16:59:53.384Z</time></trkpt><trkpt lat="40.90695" lon="14.2850683"><ele>74.0</ele><time>2026-04-24T16:59:55.386Z</time></trkpt><trkpt lat="40.9068633" lon="14.2850133"><ele>74.0</ele><time>2026-04-24T16:59:57.386Z</time></trkpt><trkpt lat="40.9067833" lon="14.2849633"><ele>74.66666666666667</ele><time>2026-04-24T16:59:59.385Z</time></trkpt><trkpt lat="40.9067033" lon="14.2849233"><ele>75.33333333333334</ele><time>2026-04-24T17:00:01.383Z</time></trkpt><trkpt lat="40.9066267" lon="14.284895"><ele>76.0</ele><time>2026-04-24T17:00:03.382Z</time></trkpt><trkpt lat="40.9065567" lon="14.2848533"><ele>76.66666666666667</ele><time>2026-04-24T17:00:05.383Z</time></trkpt><trkpt lat="40.9064883" lon="14.2848067"><ele>77.33333333333333</ele><time>2026-04-24T17:00:07.385Z</time></trkpt><trkpt lat="40.9064133" lon="14.284795"><ele>78.0</ele><time>2026-04-24T17:00:09.385Z</time></trkpt><trkpt lat="40.906335" lon="14.2847817"><ele>78.16666666666667</ele><time>2026-04-24T17:00:11.384Z</time></trkpt><trkpt lat="40.906255" lon="14.2847517"><ele>78.33333333333333</ele><time>2026-04-24T17:00:13.383Z</time></trkpt><trkpt lat="40.906175" lon="14.28473"><ele>78.5</ele><time>2026-04-24T17:00:15.384Z</time></trkpt><trkpt lat="40.9060933" lon="14.2847133"><ele>78.66666666666666</ele><time>2026-04-24T17:00:17.381Z</time></trkpt><trkpt lat="40.906005" lon="14.284715"><ele>78.83333333333333</ele><time>2026-04-24T17:00:19.384Z</time></trkpt><trkpt lat="40.90592" lon="14.28472"><ele>79.0</ele><time>2026-04-24T17:00:21.383Z</time></trkpt><trkpt lat="40.9058417" lon="14.2847233"><ele>79.00000000000001</ele><time>2026-04-24T17:00:23.386Z</time></trkpt><trkpt lat="40.9057667" lon="14.2847233"><ele>79.0</ele><time>2026-04-24T17:00:25.384Z</time></trkpt><trkpt lat="40.9056917" lon="14.2847233"><ele>79.0</ele><time>2026-04-24T17:00:27.385Z</time></trkpt><trkpt lat="40.90562" lon="14.2847217"><ele>79.0</ele><time>2026-04-24T17:00:29.384Z</time></trkpt><trkpt lat="40.905555" lon="14.2847383"><ele>79.0</ele><time>2026-04-24T17:00:31.385Z</time></trkpt><trkpt lat="40.905485" lon="14.2847517"><ele>79.00000000000001</ele><time>2026-04-24T17:00:33.385Z</time></trkpt><trkpt lat="40.9054033" lon="14.28477"><ele>79.0</ele><time>2026-04-24T17:00:35.384Z</time></trkpt><trkpt lat="40.9053117" lon="14.2847883"><ele>79.0</ele><time>2026-04-24T17:00:37.384Z</time></trkpt><trkpt lat="40.9052183" lon="14.2848"><ele>79.0</ele><time>2026-04-24T17:00:39.385Z</time></trkpt><trkpt lat="40.905135" lon="14.2848183"><ele>79.0</ele><time>2026-04-24T17:00:41.384Z</time></trkpt><trkpt lat="40.9050583" lon="14.284835"><ele>79.0</ele><time>2026-04-24T17:00:43.386Z</time></trkpt><trkpt lat="40.9049833" lon="14.2848633"><ele>79.0</ele><time>2026-04-24T17:00:45.382Z</time></trkpt><trkpt lat="40.9049067" lon="14.284935"><ele>79.0</ele><time>2026-04-24T17:00:48.386Z</time></trkpt><trkpt lat="40.9048383" lon="14.2849617"><ele>79.0</ele><time>2026-04-24T17:00:50.383Z</time></trkpt><trkpt lat="40.90476" lon="14.2849733"><ele>79.0</ele><time>2026-04-24T17:00:52.382Z</time></trkpt><trkpt lat="40.90467" lon="14.284995"><ele>79.0</ele><time>2026-04-24T17:00:54.386Z</time></trkpt><trkpt lat="40.904575" lon="14.2850267"><ele>79.0</ele><time>2026-04-24T17:00:56.383Z</time></trkpt><trkpt lat="40.9044767" lon="14.285055"><ele>79.0</ele><time>2026-04-24T17:00:58.383Z</time></trkpt><trkpt lat="40.9043683" lon="14.2850833"><ele>79.0</ele><time>2026-04-24T17:01:00.384Z</time></trkpt><trkpt lat="40.904255" lon="14.2851117"><ele>79.0</ele><time>2026-04-24T17:01:02.384Z</time></trkpt><trkpt lat="40.9041483" lon="14.2851383"><ele>79.0</ele><time>2026-04-24T17:01:04.384Z</time></trkpt><trkpt lat="40.9040383" lon="14.2851683"><ele>79.0</ele><time>2026-04-24T17:01:06.383Z</time></trkpt><trkpt lat="40.9039417" lon="14.28518"><ele>79.0</ele><time>2026-04-24T17:01:08.384Z</time></trkpt><trkpt lat="40.90385" lon="14.2851917"><ele>79.16666666666666</ele><time>2026-04-24T17:01:10.384Z</time></trkpt><trkpt lat="40.9037683" lon="14.2852067"><ele>79.33333333333333</ele><time>2026-04-24T17:01:12.385Z</time></trkpt><trkpt lat="40.9036833" lon="14.28522"><ele>79.5</ele><time>2026-04-24T17:01:14.384Z</time></trkpt><trkpt lat="40.903595" lon="14.2852467"><ele>79.66666666666667</ele><time>2026-04-24T17:01:16.384Z</time></trkpt><trkpt lat="40.9035067" lon="14.2852767"><ele>79.83333333333334</ele><time>2026-04-24T17:01:18.383Z</time></trkpt><trkpt lat="40.9034283" lon="14.285295"><ele>80.0</ele><time>2026-04-24T17:01:20.383Z</time></trkpt><trkpt lat="40.90335" lon="14.2853167"><ele>80.8</ele><time>2026-04-24T17:01:22.382Z</time></trkpt><trkpt lat="40.9032667" lon="14.2853417"><ele>81.6</ele><time>2026-04-24T17:01:24.383Z</time></trkpt><trkpt lat="40.9031917" lon="14.2853683"><ele>82.4</ele><time>2026-04-24T17:01:26.383Z</time></trkpt><trkpt lat="40.9030967" lon="14.2853883"><ele>83.2</ele><time>2026-04-24T17:01:28.382Z</time></trkpt><trkpt lat="40.903" lon="14.2854183"><ele>84.0</ele><time>2026-04-24T17:01:30.383Z</time></trkpt><trkpt lat="40.9029067" lon="14.2854633"><ele>84.0</ele><time>2026-04-24T17:01:32.382Z</time></trkpt><trkpt lat="40.9028067" lon="14.2854967"><ele>84.0</ele><time>2026-04-24T17:01:34.384Z</time></trkpt><trkpt lat="40.9027117" lon="14.28552"><ele>84.0</ele><time>2026-04-24T17:01:36.384Z</time></trkpt><trkpt lat="40.9026233" lon="14.2855483"><ele>84.0</ele><time>2026-04-24T17:01:38.384Z</time></trkpt><trkpt lat="40.90255" lon="14.285565"><ele>84.0</ele><time>2026-04-24T17:01:40.382Z</time></trkpt><trkpt lat="40.90248" lon="14.28558"><ele>84.0</ele><time>2026-04-24T17:01:42.383Z</time></trkpt><trkpt lat="40.9024" lon="14.2856117"><ele>84.28571428571429</ele><time>2026-04-24T17:01:44.383Z</time></trkpt><trkpt lat="40.9023383" lon="14.2856433"><ele>84.57142857142857</ele><time>2026-04-24T17:01:46.384Z</time></trkpt><trkpt lat="40.9022733" lon="14.2856633"><ele>84.85714285714286</ele><time>2026-04-24T17:01:49.383Z</time></trkpt><trkpt lat="40.9022033" lon="14.2856817"><ele>85.14285714285714</ele><time>2026-04-24T17:01:51.384Z</time></trkpt><trkpt lat="40.9021283" lon="14.2857033"><ele>85.42857142857143</ele><time>2026-04-24T17:01:53.384Z</time></trkpt><trkpt lat="40.9020617" lon="14.2857067"><ele>85.71428571428572</ele><time>2026-04-24T17:01:55.385Z</time></trkpt><trkpt lat="40.901995" lon="14.28571"><ele>86.0</ele><time>2026-04-24T17:01:57.384Z</time></trkpt><trkpt lat="40.9019217" lon="14.2857283"><ele>86.0</ele><time>2026-04-24T17:01:59.383Z</time></trkpt><trkpt lat="40.9018383" lon="14.2857667"><ele>86.0</ele><time>2026-04-24T17:02:02.384Z</time></trkpt><trkpt lat="40.901775" lon="14.2857783"><ele>86.0</ele><time>2026-04-24T17:02:04.382Z</time></trkpt><trkpt lat="40.901705" lon="14.2857933"><ele>86.0</ele><time>2026-04-24T17:02:06.383Z</time></trkpt><trkpt lat="40.9016" lon="14.28582"><ele>86.0</ele><time>2026-04-24T17:02:14.383Z</time></trkpt><trkpt lat="40.9015183" lon="14.2858717"><ele>86.0</ele><time>2026-04-24T17:02:17.384Z</time></trkpt><trkpt lat="40.9014467" lon="14.2859067"><ele>85.83333333333334</ele><time>2026-04-24T17:02:19.384Z</time></trkpt><trkpt lat="40.9013833" lon="14.2859367"><ele>85.66666666666667</ele><time>2026-04-24T17:02:21.383Z</time></trkpt><trkpt lat="40.9013167" lon="14.28596"><ele>85.5</ele><time>2026-04-24T17:02:23.383Z</time></trkpt><trkpt lat="40.9012383" lon="14.28598"><ele>85.33333333333333</ele><time>2026-04-24T17:02:25.383Z</time></trkpt><trkpt lat="40.9011533" lon="14.2859983"><ele>85.16666666666666</ele><time>2026-04-24T17:02:27.384Z</time></trkpt><trkpt lat="40.9010683" lon="14.2860233"><ele>85.0</ele><time>2026-04-24T17:02:29.384Z</time></trkpt><trkpt lat="40.90098" lon="14.2860367"><ele>85.16666666666666</ele><time>2026-04-24T17:02:31.383Z</time></trkpt><trkpt lat="40.900895" lon="14.2860533"><ele>85.33333333333333</ele><time>2026-04-24T17:02:33.385Z</time></trkpt><trkpt lat="40.9008133" lon="14.2860617"><ele>85.5</ele><time>2026-04-24T17:02:35.382Z</time></trkpt><trkpt lat="40.900725" lon="14.2860933"><ele>85.66666666666667</ele><time>2026-04-24T17:02:37.384Z</time></trkpt><trkpt lat="40.900635" lon="14.286095"><ele>85.83333333333334</ele><time>2026-04-24T17:02:39.385Z</time></trkpt><trkpt lat="40.9005683" lon="14.2860933"><ele>86.0</ele><time>2026-04-24T17:02:41.384Z</time></trkpt><trkpt lat="40.90049" lon="14.286095"><ele>86.00000000000001</ele><time>2026-04-24T17:02:44.385Z</time></trkpt><trkpt lat="40.9004267" lon="14.2860817"><ele>86.0</ele><time>2026-04-24T17:02:46.385Z</time></trkpt><trkpt lat="40.9003617" lon="14.2860833"><ele>86.0</ele><time>2026-04-24T17:02:48.384Z</time></trkpt><trkpt lat="40.9002717" lon="14.2860517"><ele>86.0</ele><time>2026-04-24T17:02:51.384Z</time></trkpt><trkpt lat="40.900205" lon="14.2860467"><ele>86.0</ele><time>2026-04-24T17:02:53.384Z</time></trkpt><trkpt lat="40.9001217" lon="14.2860317"><ele>86.00000000000001</ele><time>2026-04-24T17:02:56.384Z</time></trkpt><trkpt lat="40.9000533" lon="14.2860033"><ele>86.0</ele><time>2026-04-24T17:02:58.386Z</time></trkpt><trkpt lat="40.89997" lon="14.2859567"><ele>85.66666666666667</ele><time>2026-04-24T17:03:00.381Z</time></trkpt><trkpt lat="40.8998783" lon="14.285915"><ele>85.33333333333334</ele><time>2026-04-24T17:03:02.383Z</time></trkpt><trkpt lat="40.8997967" lon="14.2858667"><ele>85.0</ele><time>2026-04-24T17:03:04.383Z</time></trkpt><trkpt lat="40.89973" lon="14.2858317"><ele>84.66666666666667</ele><time>2026-04-24T17:03:06.391Z</time></trkpt><trkpt lat="40.8996717" lon="14.2857967"><ele>84.33333333333333</ele><time>2026-04-24T17:03:08.384Z</time></trkpt><trkpt lat="40.8996017" lon="14.285735"><ele>84.0</ele><time>2026-04-24T17:03:12.385Z</time></trkpt><trkpt lat="40.899525" lon="14.2856867"><ele>84.0</ele><time>2026-04-24T17:03:15.385Z</time></trkpt><trkpt lat="40.89946" lon="14.2856533"><ele>84.0</ele><time>2026-04-24T17:03:17.386Z</time></trkpt><trkpt lat="40.8993933" lon="14.2856167"><ele>84.0</ele><time>2026-04-24T17:03:19.383Z</time></trkpt><trkpt lat="40.8993317" lon="14.2855767"><ele>84.0</ele><time>2026-04-24T17:03:21.384Z</time></trkpt><trkpt lat="40.8992617" lon="14.285555"><ele>84.0</ele><time>2026-04-24T17:03:23.384Z</time></trkpt><trkpt lat="40.8991867" lon="14.2855"><ele>84.0</ele><time>2026-04-24T17:03:25.383Z</time></trkpt><trkpt lat="40.8991167" lon="14.2854333"><ele>83.83333333333333</ele><time>2026-04-24T17:03:27.383Z</time></trkpt><trkpt lat="40.8990317" lon="14.2853967"><ele>83.66666666666667</ele><time>2026-04-24T17:03:30.384Z</time></trkpt><trkpt lat="40.8989483" lon="14.28534"><ele>83.5</ele><time>2026-04-24T17:03:33.384Z</time></trkpt><trkpt lat="40.8988867" lon="14.2852917"><ele>83.33333333333334</ele><time>2026-04-24T17:03:35.386Z</time></trkpt><trkpt lat="40.8988167" lon="14.2852167"><ele>83.16666666666667</ele><time>2026-04-24T17:03:37.384Z</time></trkpt><trkpt lat="40.8987417" lon="14.28514"><ele>83.0</ele><time>2026-04-24T17:03:39.383Z</time></trkpt><trkpt lat="40.89868" lon="14.2850717"><ele>83.0</ele><time>2026-04-24T17:03:41.385Z</time></trkpt><trkpt lat="40.898615" lon="14.2850183"><ele>83.0</ele><time>2026-04-24T17:03:43.385Z</time></trkpt><trkpt lat="40.8985567" lon="14.28498"><ele>83.0</ele><time>2026-04-24T17:03:45.384Z</time></trkpt><trkpt lat="40.8985" lon="14.2849383"><ele>83.0</ele><time>2026-04-24T17:03:47.383Z</time></trkpt><trkpt lat="40.8984217" lon="14.28488"><ele>83.0</ele><time>2026-04-24T17:03:50.385Z</time></trkpt><trkpt lat="40.8983733" lon="14.2849367"><ele>83.0</ele><time>2026-04-24T17:03:52.384Z</time></trkpt><trkpt lat="40.898355" lon="14.285035"><ele>83.0</ele><time>2026-04-24T17:03:54.385Z</time></trkpt><trkpt lat="40.8983617" lon="14.2851417"><ele>82.60000000000001</ele><time>2026-04-24T17:03:56.384Z</time></trkpt><trkpt lat="40.898375" lon="14.2852617"><ele>82.2</ele><time>2026-04-24T17:03:58.383Z</time></trkpt><trkpt lat="40.8983917" lon="14.2853883"><ele>81.8</ele><time>2026-04-24T17:04:00.383Z</time></trkpt><trkpt lat="40.8984133" lon="14.2855183"><ele>81.4</ele><time>2026-04-24T17:04:02.384Z</time></trkpt><trkpt lat="40.898435" lon="14.2856467"><ele>81.0</ele><time>2026-04-24T17:04:04.384Z</time></trkpt><trkpt lat="40.8984417" lon="14.2857633"><ele>81.0</ele><time>2026-04-24T17:04:06.384Z</time></trkpt><trkpt lat="40.8984417" lon="14.285875"><ele>81.0</ele><time>2026-04-24T17:04:08.382Z</time></trkpt><trkpt lat="40.8984317" lon="14.2859933"><ele>81.0</ele><time>2026-04-24T17:04:10.384Z</time></trkpt><trkpt lat="40.89845" lon="14.2861033"><ele>81.0</ele><time>2026-04-24T17:04:12.385Z</time></trkpt><trkpt lat="40.898465" lon="14.286225"><ele>81.0</ele><time>2026-04-24T17:04:14.386Z</time></trkpt><trkpt lat="40.898475" lon="14.286355"><ele>81.0</ele><time>2026-04-24T17:04:16.385Z</time></trkpt><trkpt lat="40.8984817" lon="14.2864767"><ele>81.0</ele><time>2026-04-24T17:04:18.385Z</time></trkpt><trkpt lat="40.8984733" lon="14.2866433"><ele>81.0</ele><time>2026-04-24T17:04:31.385Z</time></trkpt><trkpt lat="40.8984733" lon="14.286745"><ele>81.0</ele><time>2026-04-24T17:04:35.383Z</time></trkpt><trkpt lat="40.898485" lon="14.2868283"><ele>81.0</ele><time>2026-04-24T17:04:37.384Z</time></trkpt><trkpt lat="40.8984783" lon="14.2869333"><ele>81.0</ele><time>2026-04-24T17:04:39.383Z</time></trkpt><trkpt lat="40.8984217" lon="14.2870067"><ele>81.19999999999999</ele><time>2026-04-24T17:04:41.385Z</time></trkpt><trkpt lat="40.8982933" lon="14.28699"><ele>81.39999999999999</ele><time>2026-04-24T17:04:43.385Z</time></trkpt><trkpt lat="40.89823" lon="14.28697"><ele>81.6</ele><time>2026-04-24T17:04:44.385Z</time></trkpt><trkpt lat="40.89817" lon="14.2869433"><ele>81.8</ele><time>2026-04-24T17:04:45.385Z</time></trkpt><trkpt lat="40.8980533" lon="14.2868967"><ele>82.0</ele><time>2026-04-24T17:04:47.385Z</time></trkpt><trkpt lat="40.8979367" lon="14.286865"><ele>82.0</ele><time>2026-04-24T17:04:49.383Z</time></trkpt><trkpt lat="40.8978283" lon="14.2868267"><ele>82.0</ele><time>2026-04-24T17:04:51.385Z</time></trkpt><trkpt lat="40.89772" lon="14.2867933"><ele>82.0</ele><time>2026-04-24T17:04:53.385Z</time></trkpt><trkpt lat="40.8976167" lon="14.2867633"><ele>82.0</ele><time>2026-04-24T17:04:55.385Z</time></trkpt><trkpt lat="40.89752" lon="14.286735"><ele>82.0</ele><time>2026-04-24T17:04:57.385Z</time></trkpt><trkpt lat="40.8974233" lon="14.2867067"><ele>81.66666666666666</ele><time>2026-04-24T17:04:59.387Z</time></trkpt><trkpt lat="40.8973333" lon="14.28668"><ele>81.33333333333333</ele><time>2026-04-24T17:05:01.386Z</time></trkpt><trkpt lat="40.89725" lon="14.2866517"><ele>81.0</ele><time>2026-04-24T17:05:03.384Z</time></trkpt><trkpt lat="40.8971733" lon="14.286625"><ele>80.66666666666667</ele><time>2026-04-24T17:05:05.385Z</time></trkpt><trkpt lat="40.897095" lon="14.2865883"><ele>80.33333333333334</ele><time>2026-04-24T17:05:07.385Z</time></trkpt><trkpt lat="40.8970083" lon="14.2865533"><ele>80.0</ele><time>2026-04-24T17:05:09.385Z</time></trkpt><trkpt lat="40.8969233" lon="14.286515"><ele>80.0</ele><time>2026-04-24T17:05:11.383Z</time></trkpt><trkpt lat="40.89684" lon="14.2864717"><ele>80.0</ele><time>2026-04-24T17:05:13.385Z</time></trkpt><trkpt lat="40.896745" lon="14.2864367"><ele>80.0</ele><time>2026-04-24T17:05:15.384Z</time></trkpt><trkpt lat="40.89665" lon="14.2864317"><ele>80.0</ele><time>2026-04-24T17:05:17.384Z</time></trkpt><trkpt lat="40.89656" lon="14.28642"><ele>80.0</ele><time>2026-04-24T17:05:19.385Z</time></trkpt><trkpt lat="40.89647" lon="14.2863933"><ele>80.0</ele><time>2026-04-24T17:05:21.384Z</time></trkpt><trkpt lat="40.8963767" lon="14.28637"><ele>80.0</ele><time>2026-04-24T17:05:23.384Z</time></trkpt><trkpt lat="40.8962783" lon="14.28635"><ele>80.0</ele><time>2026-04-24T17:05:25.386Z</time></trkpt><trkpt lat="40.89618" lon="14.2863117"><ele>80.0</ele><time>2026-04-24T17:05:27.385Z</time></trkpt><trkpt lat="40.8960767" lon="14.286295"><ele>80.0</ele><time>2026-04-24T17:05:29.386Z</time></trkpt><trkpt lat="40.8959667" lon="14.28629"><ele>79.5</ele><time>2026-04-24T17:05:31.383Z</time></trkpt><trkpt lat="40.895855" lon="14.2862783"><ele>79.0</ele><time>2026-04-24T17:05:33.384Z</time></trkpt><trkpt lat="40.8957417" lon="14.286265"><ele>78.5</ele><time>2026-04-24T17:05:35.387Z</time></trkpt><trkpt lat="40.895625" lon="14.28625"><ele>78.0</ele><time>2026-04-24T17:05:37.385Z</time></trkpt><trkpt lat="40.8955017" lon="14.2862333"><ele>78.0</ele><time>2026-04-24T17:05:39.384Z</time></trkpt><trkpt lat="40.8953817" lon="14.2862333"><ele>78.0</ele><time>2026-04-24T17:05:41.383Z</time></trkpt><trkpt lat="40.895265" lon="14.28623"><ele>78.0</ele><time>2026-04-24T17:05:43.383Z</time></trkpt><trkpt lat="40.89515" lon="14.2862183"><ele>78.0</ele><time>2026-04-24T17:05:45.386Z</time></trkpt><trkpt lat="40.8950433" lon="14.2862183"><ele>78.4</ele><time>2026-04-24T17:05:47.384Z</time></trkpt><trkpt lat="40.89495" lon="14.286215"><ele>78.8</ele><time>2026-04-24T17:05:49.384Z</time></trkpt><trkpt lat="40.8948633" lon="14.2862017"><ele>79.2</ele><time>2026-04-24T17:05:51.384Z</time></trkpt><trkpt lat="40.89477" lon="14.2861917"><ele>79.6</ele><time>2026-04-24T17:05:53.384Z</time></trkpt><trkpt lat="40.89466" lon="14.2861783"><ele>80.0</ele><time>2026-04-24T17:05:55.385Z</time></trkpt><trkpt lat="40.8945567" lon="14.2861667"><ele>80.0</ele><time>2026-04-24T17:05:57.385Z</time></trkpt><trkpt lat="40.8944533" lon="14.2861633"><ele>80.0</ele><time>2026-04-24T17:05:59.385Z</time></trkpt><trkpt lat="40.8943517" lon="14.2861533"><ele>80.0</ele><time>2026-04-24T17:06:01.383Z</time></trkpt><trkpt lat="40.894255" lon="14.2861267"><ele>80.0</ele><time>2026-04-24T17:06:03.384Z</time></trkpt><trkpt lat="40.8941517" lon="14.286105"><ele>80.0</ele><time>2026-04-24T17:06:05.386Z</time></trkpt><trkpt lat="40.894045" lon="14.28609"><ele>80.2</ele><time>2026-04-24T17:06:07.383Z</time></trkpt><trkpt lat="40.893935" lon="14.2860683"><ele>80.4</ele><time>2026-04-24T17:06:09.385Z</time></trkpt><trkpt lat="40.8938267" lon="14.28605"><ele>80.6</ele><time>2026-04-24T17:06:11.386Z</time></trkpt><trkpt lat="40.8937233" lon="14.286025"><ele>80.8</ele><time>2026-04-24T17:06:13.385Z</time></trkpt><trkpt lat="40.8936217" lon="14.2860167"><ele>81.0</ele><time>2026-04-24T17:06:15.384Z</time></trkpt><trkpt lat="40.8935533" lon="14.2860067"><ele>81.0</ele><time>2026-04-24T17:06:17.385Z</time></trkpt><trkpt lat="40.89348" lon="14.2859817"><ele>81.0</ele><time>2026-04-24T17:06:21.384Z</time></trkpt><trkpt lat="40.8934567" lon="14.2861017"><ele>81.0</ele><time>2026-04-24T17:06:27.387Z</time></trkpt><trkpt lat="40.8934683" lon="14.2862283"><ele>81.0</ele><time>2026-04-24T17:06:29.384Z</time></trkpt><trkpt lat="40.893505" lon="14.2863817"><ele>81.0</ele><time>2026-04-24T17:06:31.384Z</time></trkpt><trkpt lat="40.89353" lon="14.2864583"><ele>80.85714285714286</ele><time>2026-04-24T17:06:32.386Z</time></trkpt><trkpt lat="40.8935567" lon="14.2865383"><ele>80.71428571428571</ele><time>2026-04-24T17:06:33.384Z</time></trkpt><trkpt lat="40.8935817" lon="14.2866183"><ele>80.57142857142857</ele><time>2026-04-24T17:06:34.384Z</time></trkpt><trkpt lat="40.8936033" lon="14.2867017"><ele>80.42857142857143</ele><time>2026-04-24T17:06:35.384Z</time></trkpt><trkpt lat="40.8936283" lon="14.2867833"><ele>80.28571428571429</ele><time>2026-04-24T17:06:36.386Z</time></trkpt><trkpt lat="40.8936517" lon="14.2868667"><ele>80.14285714285714</ele><time>2026-04-24T17:06:37.385Z</time></trkpt><trkpt lat="40.8936733" lon="14.28695"><ele>80.0</ele><time>2026-04-24T17:06:38.386Z</time></trkpt><trkpt lat="40.8936933" lon="14.2870333"><ele>80.0</ele><time>2026-04-24T17:06:39.385Z</time></trkpt><trkpt lat="40.8937133" lon="14.2871133"><ele>80.0</ele><time>2026-04-24T17:06:40.384Z</time></trkpt><trkpt lat="40.8937333" lon="14.2871967"><ele>80.0</ele><time>2026-04-24T17:06:41.385Z</time></trkpt><trkpt lat="40.8937683" lon="14.2873367"><ele>80.0</ele><time>2026-04-24T17:06:43.386Z</time></trkpt><trkpt lat="40.8937917" lon="14.28744"><ele>80.0</ele><time>2026-04-24T17:06:45.385Z</time></trkpt><trkpt lat="40.8938217" lon="14.2875233"><ele>80.0</ele><time>2026-04-24T17:06:47.386Z</time></trkpt><trkpt lat="40.8938533" lon="14.2876217"><ele>80.0</ele><time>2026-04-24T17:06:49.384Z</time></trkpt><trkpt lat="40.8938817" lon="14.28771"><ele>80.0</ele><time>2026-04-24T17:06:51.385Z</time></trkpt><trkpt lat="40.8939617" lon="14.2877633"><ele>80.0</ele><time>2026-04-24T17:07:38.382Z</time></trkpt><trkpt lat="40.8939246" lon="14.2878979"><ele>80.0</ele><time>2026-04-24T17:07:47.574Z</time></trkpt><trkpt lat="40.8937223" lon="14.2878524"><ele>80.0</ele><time>2026-04-24T17:07:53.071Z</time></trkpt></trkseg></trk></gpx>